# Wetter Temperatur Luftdruck Luftfeuchtigkeit Sichtweite Windgeschwindigkeit Windrichtung Zeit
1 Drizzle 12 1004 76 10000 3.6 220 16:36 01.02.2023
2 Rain 11 1003 76 10000 4.12 230 13:44 01.02.2023
3 Clouds 11 1003 76 10000 4.12 230 13:19 01.02.2023
4 Rain 12 1003 66 10000 5.66 230 12:26 01.02.2023
5 Clouds 12 1002 62 10000 1.03 0 10:46 01.02.2023
6 Clouds 14 1002 51 10000 5.66 330 08:26 01.02.2023
7 Clouds 14 1006 51 10000 4.12 220 22:41 31.01.2023
8 Clouds 14 1006 54 10000 6.17 240 20:53 31.01.2023
9 Clouds 13 1007 58 10000 6.69 240 19:24 31.01.2023
10 Clouds 13 1007 58 10000 6.17 230 17:37 31.01.2023
11 Drizzle 11 1006 62 10000 2.57 170 15:36 31.01.2023
12 Drizzle 11 1006 62 10000 2.57 170 15:18 31.01.2023
13 Clouds 9 1006 66 10000 2.06 130 13:19 31.01.2023
14 Clouds 8 1007 71 10000 2.57 190 11:28 31.01.2023
15 Clouds 6 1007 75 10000 1.03 0 10:25 31.01.2023
16 Clouds 7 1007 70 10000 2.06 350 09:44 31.01.2023
17 Clouds 7 1007 65 10000 1.54 290 08:36 31.01.2023
18 Clouds 7 1008 70 10000 2.57 340 06:25 31.01.2023
19 Clouds 8 1007 66 10000 9.26 240 01:54 31.01.2023
20 Clouds 10 1005 62 10000 10.8 230 23:26 30.01.2023
21 Clouds 11 1004 58 10000 9.26 240 22:49 30.01.2023
22 Clouds 11 1004 58 10000 9.77 250 21:43 30.01.2023
23 Clouds 10 1003 62 10000 11.32 230 20:44 30.01.2023
24 Clouds 10 1002 66 10000 11.32 240 18:26 30.01.2023
25 Clouds 10 1001 62 10000 11.32 230 17:23 30.01.2023
26 Clouds 11 999 54 10000 10.29 230 14:47 30.01.2023
27 Clouds 10 999 57 10000 9.26 240 13:39 30.01.2023
28 Clouds 9 999 66 10000 9.77 240 12:18 30.01.2023
29 Clouds 8 997 76 10000 7.72 240 10:20 30.01.2023
30 Clouds 7 997 87 10000 9.77 240 09:53 30.01.2023
31 Clear 8 997 71 10000 4.63 250 08:19 30.01.2023
32 Clear 9 997 71 10000 1.54 40 04:30 30.01.2023
33 Clouds 12 998 58 10000 8.23 250 23:35 29.01.2023
34 Rain 12 998 58 10000 4.12 250 22:59 29.01.2023
35 Rain 12 998 58 10000 4.12 250 22:31 29.01.2023
36 Rain 12 998 71 10000 6.17 250 20:52 29.01.2023
37 Rain 12 998 71 10000 6.17 250 20:19 29.01.2023
38 Rain 12 997 66 10000 8.23 250 19:32 29.01.2023
39 Rain 10 997 87 6000 9.77 240 17:55 29.01.2023
40 Rain 12 996 66 10000 6.69 230 16:22 29.01.2023
41 Rain 12 996 66 10000 5.66 230 15:51 29.01.2023
42 Rain 11 997 66 10000 5.66 230 13:58 29.01.2023
43 Rain 12 997 62 10000 2.57 270 12:58 29.01.2023
44 Rain 12 997 62 10000 2.57 270 12:36 29.01.2023
45 Rain 12 997 62 10000 2.57 270 12:18 29.01.2023
46 Rain 10 996 71 10000 6.69 240 11:36 29.01.2023
47 Rain 8 996 71 10000 1.54 290 10:45 29.01.2023
48 Clouds 10 994 62 10000 3.6 260 08:30 29.01.2023
49 Clouds 12 994 58 10000 8.75 240 03:43 29.01.2023
50 Clouds 15 994 47 10000 9.26 240 23:50 28.01.2023
51 Clouds 15 993 51 10000 11.83 230 20:53 28.01.2023
52 Clouds 15 993 51 10000 12.86 220 19:56 28.01.2023
53 Clouds 15 993 51 10000 11.83 230 18:53 28.01.2023
54 Clouds 15 992 47 10000 11.83 230 17:42 28.01.2023
55 Clear 15 992 44 10000 11.32 230 16:41 28.01.2023
56 Clear 15 992 44 10000 11.32 230 16:41 28.01.2023
57 Clear 15 992 44 10000 11.32 230 16:19 28.01.2023
58 Clear 15 992 44 10000 12.35 240 15:22 28.01.2023
59 Clear 13 992 54 10000 10.8 240 13:49 28.01.2023
60 Clear 12 991 62 10000 10.29 230 12:21 28.01.2023
61 Clouds 11 990 66 10000 7.2 240 10:35 28.01.2023
62 Clouds 11 989 71 10000 8.23 240 09:35 28.01.2023
63 Rain 13 991 58 10000 2.57 10 02:28 28.01.2023
64 Clouds 11 993 76 10000 1.54 250 00:28 28.01.2023
65 Clouds 12 994 71 10000 5.14 240 23:35 27.01.2023
66 Clouds 14 995 54 10000 8.75 250 19:48 27.01.2023
67 Clouds 11 996 71 10000 3.6 0 17:58 27.01.2023
68 Clouds 11 996 71 10000 3.6 0 17:21 27.01.2023
69 Clouds 9 996 76 10000 3.6 70 16:57 27.01.2023
70 Drizzle 8 996 76 10000 3.09 100 15:37 27.01.2023
71 Drizzle 8 996 71 8000 1.54 170 14:27 27.01.2023
72 Drizzle 8 996 71 10000 1.03 0 13:39 27.01.2023
73 Clouds 6 997 81 10000 2.57 0 10:28 27.01.2023
74 Rain 5 996 87 10000 2.06 260 08:35 27.01.2023
75 Rain 7 992 81 8000 11.83 240 00:45 27.01.2023
76 Drizzle 8 990 76 10000 11.32 230 22:45 26.01.2023
77 Rain 9 988 66 10000 11.83 230 20:57 26.01.2023
78 Rain 9 988 66 10000 11.83 230 20:30 26.01.2023
79 Clouds 10 987 62 10000 11.83 220 18:20 26.01.2023
80 Clouds 9 986 61 10000 11.32 230 16:59 26.01.2023
81 Rain 8 986 71 10000 11.83 220 16:26 26.01.2023
82 Rain 9 986 66 10000 10.8 220 15:46 26.01.2023
83 Rain 9 986 66 10000 10.8 220 15:26 26.01.2023
84 Rain 8 985 66 10000 6.69 220 13:56 26.01.2023
85 Rain 7 985 76 10000 8.23 230 12:35 26.01.2023
86 Clouds 7 985 65 10000 4.12 270 11:25 26.01.2023
87 Rain 7 984 70 10000 9.77 240 10:27 26.01.2023
88 Clouds 7 984 57 10000 1.54 0 09:43 26.01.2023
89 Clouds 6 984 61 10000 2.57 290 08:25 26.01.2023
90 Clouds 8 985 76 10000 2.57 360 23:58 25.01.2023
91 Clouds 8 985 76 10000 2.57 360 23:37 25.01.2023
92 Rain 8 985 76 10000 4.12 190 21:54 25.01.2023
93 Rain 8 984 66 10000 9.26 250 21:20 25.01.2023
94 Rain 8 982 76 10000 10.29 240 18:31 25.01.2023
95 Rain 7 981 87 6000 14.4 240 17:30 25.01.2023
96 Rain 14 980 51 10000 4.12 340 15:42 25.01.2023
97 Clouds 12 980 54 10000 2.06 0 12:54 25.01.2023
98 Clouds 11 981 54 10000 2.06 0 10:51 25.01.2023
99 Drizzle 10 981 57 10000 6.17 310 09:44 25.01.2023
100 Drizzle 10 983 62 10000 9.77 320 07:18 25.01.2023
101 Clouds 10 989 53 10000 1.03 0 01:32 25.01.2023
102 Rain 10 989 62 10000 3.6 250 00:23 25.01.2023
103 Rain 10 988 66 10000 5.66 220 21:33 24.01.2023
104 Rain 8 988 76 7000 13.38 230 20:19 24.01.2023
105 Rain 9 986 66 10000 1.03 0 18:43 24.01.2023
106 Rain 8 986 76 10000 2.57 210 17:30 24.01.2023
107 Rain 7 987 81 10000 9.77 240 16:53 24.01.2023
108 Rain 10 986 57 10000 8.23 250 15:50 24.01.2023
109 Clouds 11 986 43 10000 2.06 0 13:22 24.01.2023
110 Clouds 8 986 61 10000 2.06 0 11:30 24.01.2023
111 Clear 6 985 93 10000 1.03 0 08:24 24.01.2023
112 Clear 8 985 93 10000 4.63 70 07:56 24.01.2023
113 Clear 8 985 93 10000 4.63 70 07:26 24.01.2023
114 Rain 9 985 93 10000 1.54 20 02:39 24.01.2023
115 Rain 11 983 76 9000 9.77 230 00:36 24.01.2023
116 Clouds 17 982 48 10000 7.2 30 22:28 23.01.2023
117 Clouds 17 984 48 10000 3.09 10 19:58 23.01.2023
118 Clouds 17 984 48 10000 3.09 10 19:21 23.01.2023
119 Clouds 15 987 58 10000 5.14 20 17:19 23.01.2023
120 Rain 13 990 62 10000 5.66 30 15:32 23.01.2023
121 Clouds 13 993 54 10000 4.63 10 13:56 23.01.2023
122 Rain 14 995 38 10000 4.63 20 12:55 23.01.2023
123 Clouds 13 996 47 10000 6.17 30 11:46 23.01.2023
124 Clouds 13 996 47 10000 6.17 30 11:28 23.01.2023
125 Clouds 13 996 47 10000 6.17 30 11:28 23.01.2023
126 Clear 12 999 50 10000 4.63 30 08:25 23.01.2023
127 Clear 13 1004 47 10000 3.09 240 00:22 23.01.2023
128 Clear 15 1005 38 10000 5.66 230 21:51 22.01.2023
129 Clear 15 1005 38 10000 5.66 230 21:19 22.01.2023
130 Clear 14 1005 38 10000 4.63 220 19:56 22.01.2023
131 Clear 14 1005 38 10000 4.63 220 19:37 22.01.2023
132 Clear 14 1006 38 10000 4.63 220 18:43 22.01.2023
133 Clear 12 1006 50 10000 3.6 210 17:55 22.01.2023
134 Clear 12 1006 50 10000 3.6 210 17:24 22.01.2023
135 Clear 11 1007 50 10000 4.12 220 15:29 22.01.2023
136 Clear 11 1007 46 10000 4.63 220 14:41 22.01.2023
137 Clear 11 1008 50 10000 5.14 240 13:28 22.01.2023
138 Clear 9 1008 53 10000 3.09 250 12:32 22.01.2023
139 Clear 8 1007 57 10000 3.09 260 11:34 22.01.2023
140 Clear 7 1007 70 10000 2.06 320 09:35 22.01.2023
141 Clouds 7 1006 76 10000 4.63 250 05:51 22.01.2023
142 Rain 10 1001 71 10000 14.92 240 00:40 22.01.2023
143 Rain 12 1000 66 10000 14.4 240 23:30 21.01.2023
144 Rain 13 999 71 10000 1.54 20 21:40 21.01.2023
145 Rain 12 999 76 10000 2.06 180 19:23 21.01.2023
146 Clouds 14 1001 58 10000 2.06 150 16:41 21.01.2023
147 Clouds 15 1002 55 10000 1.54 130 14:24 21.01.2023
148 Clear 12 1004 71 10000 3.6 120 12:57 21.01.2023
149 Clear 12 1004 76 10000 1.03 0 11:42 21.01.2023
150 Clear 10 1005 87 10000 1.54 240 10:49 21.01.2023
151 Clear 13 1006 67 10000 3.6 340 08:57 21.01.2023
152 Clear 11 1009 76 10000 2.06 310 04:32 21.01.2023
153 Clouds 13 1010 71 10000 7.72 80 22:29 20.01.2023
154 Clouds 13 1011 71 10000 7.72 80 21:38 20.01.2023
155 Rain 14 1011 67 10000 4.12 80 20:56 20.01.2023
156 Rain 15 1011 67 10000 3.09 90 19:31 20.01.2023
157 Clouds 14 1011 62 10000 7.2 230 16:44 20.01.2023
158 Clouds 13 1011 67 10000 7.2 230 14:46 20.01.2023
159 Clouds 12 1011 71 10000 9.26 240 13:51 20.01.2023
160 Clouds 10 1010 87 10000 4.12 270 10:24 20.01.2023
161 Clouds 10 1009 93 10000 7.2 250 08:53 20.01.2023
162 Clouds 10 1007 93 10000 2.57 240 05:54 20.01.2023
163 Clouds 12 1006 76 10000 2.57 240 02:30 20.01.2023
164 Clouds 14 1005 58 10000 1.03 0 22:35 19.01.2023
165 Rain 14 1005 58 10000 1.03 0 20:44 19.01.2023
166 Clear 12 1006 71 10000 2.06 120 19:29 19.01.2023
167 Clear 12 1008 66 10000 1.54 80 16:51 19.01.2023
168 Mist 10 1009 87 10000 5.14 80 13:30 19.01.2023
169 Clear 9 1009 81 10000 0 0 09:37 19.01.2023
170 Clouds 14 1008 62 10000 9.77 250 02:59 19.01.2023
171 Clouds 17 1007 51 10000 7.72 250 22:26 18.01.2023
172 Clouds 17 1007 51 10000 7.72 230 20:20 18.01.2023
173 Clouds 19 1007 48 10000 7.2 240 19:38 18.01.2023
174 Clouds 18 1007 52 10000 6.17 240 18:30 18.01.2023
175 Clouds 18 1008 52 10000 3.09 210 15:57 18.01.2023
176 Clouds 16 1008 55 10000 1.54 40 13:54 18.01.2023
177 Clouds 13 1007 67 10000 1.03 0 11:44 18.01.2023
178 Clear 13 1006 67 10000 1.54 0 09:27 18.01.2023
179 Clouds 13 1005 67 10000 3.09 210 05:35 18.01.2023
180 Clouds 16 1004 48 10000 4.63 340 00:35 18.01.2023
181 Clear 14 1008 41 10000 1.54 140 20:57 17.01.2023
182 Clear 14 1009 41 10000 1.03 0 19:36 17.01.2023
183 Clear 12 1009 50 10000 3.09 140 18:48 17.01.2023
184 Clear 13 1010 44 10000 2.57 130 17:37 17.01.2023
185 Clouds 11 1012 43 10000 1.54 160 15:26 17.01.2023
186 Clear 9 1012 49 10000 2.06 90 14:34 17.01.2023
187 Clouds 11 1013 49 10000 0.94 297 13:31 17.01.2023
188 Clouds 7 1013 65 10000 2.57 360 11:45 17.01.2023
189 Clouds 7 1013 65 10000 2.57 360 11:45 17.01.2023
190 Clear 6 1012 61 10000 2.57 330 09:35 17.01.2023
191 Clear 7 1011 57 10000 5.14 280 08:20 17.01.2023
192 Clouds 8 1010 61 10000 7.72 230 05:53 17.01.2023
193 Clouds 9 1008 57 10000 10.8 230 00:58 17.01.2023
194 Clouds 9 1006 57 10000 14.4 230 23:57 16.01.2023
195 Clouds 9 1005 57 10000 15.95 230 22:26 16.01.2023
196 Clouds 10 1004 57 10000 10.8 230 20:50 16.01.2023
197 Clouds 9 1003 49 10000 15.43 230 19:42 16.01.2023
198 Clouds 9 1003 57 10000 13.89 230 18:55 16.01.2023
199 Clouds 9 1003 57 10000 13.89 230 18:26 16.01.2023
200 Clouds 9 1002 66 10000 14.4 230 17:55 16.01.2023
201 Clouds 9 1002 66 10000 14.4 230 17:19 16.01.2023
202 Rain 9 1000 61 10000 10.29 230 13:40 16.01.2023
203 Clouds 8 999 71 10000 9.77 230 11:58 16.01.2023
204 Rain 8 998 81 10000 9.26 240 10:21 16.01.2023
205 Rain 9 995 87 10000 8.23 240 07:35 16.01.2023
206 Clouds 14 996 47 10000 6.17 320 22:42 15.01.2023
207 Clouds 15 997 47 10000 7.2 340 20:48 15.01.2023
208 Clouds 15 997 47 10000 7.2 340 20:24 15.01.2023
209 Clouds 16 998 44 10000 1.54 0 18:41 15.01.2023
210 Clouds 13 999 62 10000 3.09 170 16:47 15.01.2023
211 Clouds 11 1001 62 10000 1.54 150 13:30 15.01.2023
212 Clouds 10 1001 71 10000 2.57 30 11:56 15.01.2023
213 Clouds 10 1001 71 10000 2.57 30 11:28 15.01.2023
214 Clouds 10 1001 66 10000 2.06 220 10:21 15.01.2023
215 Clouds 10 1001 57 10000 1.03 0 06:59 15.01.2023
216 Clouds 12 1001 50 10000 1.54 180 23:30 14.01.2023
217 Clouds 12 1001 50 10000 1.54 0 22:42 14.01.2023
218 Clouds 11 1001 50 10000 1.03 0 21:36 14.01.2023
219 Clouds 11 1001 50 10000 1.03 0 21:36 14.01.2023
220 Clouds 11 1001 50 10000 1.03 0 21:18 14.01.2023
221 Clouds 11 1001 54 10000 3.09 210 20:40 14.01.2023
222 Clouds 11 1002 54 10000 3.6 230 19:58 14.01.2023
223 Clouds 10 1002 57 10000 5.14 220 17:49 14.01.2023
224 Clouds 10 1002 57 10000 7.72 210 15:31 14.01.2023
225 Clouds 9 1002 61 10000 5.66 220 14:56 14.01.2023
226 Clouds 8 1002 61 10000 4.12 240 13:44 14.01.2023
227 Clouds 7 1002 65 10000 4.12 260 12:26 14.01.2023
228 Rain 5 1001 81 10000 1.03 0 10:48 14.01.2023
229 Rain 5 999 81 10000 3.6 250 08:19 14.01.2023
230 Clouds 11 991 50 10000 12.86 240 00:50 14.01.2023
231 Clouds 12 989 58 10000 15.43 240 22:59 13.01.2023
232 Clouds 12 989 58 10000 15.43 240 22:40 13.01.2023
233 Clouds 13 989 50 10000 15.43 240 21:56 13.01.2023
234 Clouds 16 988 39 10000 11.83 240 20:25 13.01.2023
235 Clouds 14 988 47 10000 11.32 230 19:25 13.01.2023
236 Clouds 12 988 71 10000 8.23 230 16:58 13.01.2023
237 Clouds 12 988 71 10000 8.23 230 16:58 13.01.2023
238 Clouds 14 989 62 10000 4.63 230 14:52 13.01.2023
239 Clouds 12 990 71 10000 4.63 250 12:22 13.01.2023
240 Clouds 10 991 81 10000 4.12 230 10:37 13.01.2023
241 Clouds 10 991 81 10000 4.12 230 10:18 13.01.2023
242 Clouds 10 991 76 10000 1.03 280 09:39 13.01.2023
243 Clouds 10 991 76 10000 1.54 190 08:49 13.01.2023
244 Clouds 10 992 87 10000 1.03 0 06:56 13.01.2023
245 Clouds 10 992 81 10000 2.57 260 05:47 13.01.2023
246 Rain 13 993 71 10000 3.6 230 00:55 13.01.2023
247 Clouds 14 994 67 10000 5.66 220 22:46 12.01.2023
248 Clouds 17 995 51 10000 3.09 240 21:49 12.01.2023
249 Clouds 18 995 45 10000 6.17 310 20:48 12.01.2023
250 Clouds 16 996 51 10000 6.17 340 18:26 12.01.2023
251 Clouds 13 998 58 10000 6.69 360 16:59 12.01.2023
252 Clouds 10 1003 71 10000 2.57 20 14:55 12.01.2023
253 Clouds 10 1003 71 10000 2.57 20 14:26 12.01.2023
254 Clouds 9 1004 87 10000 3.6 90 13:49 12.01.2023
255 Clouds 8 1006 87 10000 2.06 90 11:57 12.01.2023
256 Clouds 7 1007 93 10000 3.09 50 10:24 12.01.2023
257 Clear 7 1009 81 10000 2.57 10 07:26 12.01.2023
258 Clouds 12 1012 62 10000 8.75 250 00:31 12.01.2023
259 Clouds 12 1012 62 10000 11.32 250 23:55 11.01.2023
260 Clouds 12 1012 62 10000 11.32 250 23:36 11.01.2023
261 Clouds 12 1012 62 10000 11.32 250 23:36 11.01.2023
262 Clouds 12 1012 62 10000 11.32 250 23:36 11.01.2023
263 Clouds 12 1012 62 10000 11.32 250 23:18 11.01.2023
264 Clouds 12 1012 62 10000 8.23 250 21:22 11.01.2023
265 Clouds 11 1013 71 10000 7.72 240 18:51 11.01.2023
266 Rain 11 1013 71 10000 8.23 240 17:37 11.01.2023
267 Clouds 12 1014 71 10000 7.72 240 15:43 11.01.2023
268 Clouds 11 1014 71 10000 5.14 240 13:57 11.01.2023
269 Clouds 11 1015 71 10000 3.09 250 12:33 11.01.2023
270 Clouds 10 1015 81 10000 1.03 0 11:39 11.01.2023
271 Clouds 10 1015 81 10000 4.12 230 09:29 11.01.2023
272 Clouds 9 1015 87 10000 5.14 250 07:30 11.01.2023
273 Clear 9 1016 87 10000 5.14 270 06:24 11.01.2023
274 Clouds 14 1017 58 10000 5.66 230 23:55 10.01.2023
275 Clouds 16 1017 48 10000 7.2 250 22:34 10.01.2023
276 Clouds 16 1017 48 10000 8.75 250 21:28 10.01.2023
277 Clouds 15 1017 51 10000 10.29 250 19:55 10.01.2023
278 Clouds 15 1017 51 10000 10.29 250 19:29 10.01.2023
279 Clouds 15 1018 51 10000 7.72 250 18:47 10.01.2023
280 Clouds 14 1018 54 10000 6.17 240 17:33 10.01.2023
281 Clouds 12 1019 66 10000 7.72 240 15:47 10.01.2023
282 Clouds 12 1019 66 10000 7.72 240 15:21 10.01.2023
283 Clouds 10 1018 71 10000 6.69 250 13:33 10.01.2023
284 Clouds 10 1017 71 10000 7.72 250 11:28 10.01.2023
285 Clouds 9 1015 71 10000 9.77 260 08:44 10.01.2023
286 Clouds 9 1014 66 10000 9.77 240 07:59 10.01.2023
287 Clouds 9 1014 66 10000 9.77 240 07:59 10.01.2023
288 Clouds 9 1014 66 10000 9.77 240 07:25 10.01.2023
289 Clouds 9 1012 66 10000 10.8 240 03:33 10.01.2023
290 Clouds 12 1005 58 10000 14.92 230 22:41 09.01.2023
291 Clouds 12 1004 58 10000 13.89 240 21:20 09.01.2023
292 Clouds 12 1002 54 10000 14.92 230 20:32 09.01.2023
293 Clouds 14 999 54 10000 14.92 240 18:41 09.01.2023
294 Clouds 16 997 48 10000 12.35 230 17:51 09.01.2023
295 Clouds 16 997 48 10000 12.35 240 16:41 09.01.2023
296 Clouds 14 995 72 10000 5.14 230 15:59 09.01.2023
297 Clouds 14 995 72 10000 5.14 230 15:22 09.01.2023
298 Clouds 14 995 72 10000 5.14 230 15:22 09.01.2023
299 Clouds 13 994 71 10000 2.06 350 14:43 09.01.2023
300 Clouds 13 994 71 10000 2.06 350 14:43 09.01.2023
301 Clouds 12 995 87 10000 2.06 230 12:54 09.01.2023
302 Rain 12 995 87 10000 2.06 230 12:18 09.01.2023
303 Clear 13 995 71 10000 0.51 0 11:19 09.01.2023
304 Clear 13 996 71 10000 3.6 250 07:23 09.01.2023
305 Clear 14 996 67 10000 5.14 240 06:21 09.01.2023
306 Rain 20 998 49 10000 3.09 10 02:53 09.01.2023
307 Clear 21 999 40 10000 2.06 160 22:29 08.01.2023
308 Clear 24 1000 29 10000 4.12 340 21:22 08.01.2023
309 Clouds 24 1001 33 10000 3.6 340 20:54 08.01.2023
310 Clouds 22 1001 35 10000 2.57 170 19:19 08.01.2023
311 Clouds 19 1003 34 10000 2.57 150 17:37 08.01.2023
312 Clouds 19 1003 34 10000 2.57 150 17:18 08.01.2023
313 Clouds 17 1004 42 10000 2.57 180 15:37 08.01.2023
314 Clear 19 1005 32 10000 4.12 20 14:18 08.01.2023
315 Clear 16 1006 48 10000 3.09 70 13:32 08.01.2023
316 Clear 17 1006 39 10000 3.09 10 12:58 08.01.2023
317 Clear 16 1007 44 10000 2.57 20 11:22 08.01.2023
318 Clear 14 1007 54 10000 1.03 0 09:37 08.01.2023
319 Clouds 15 1007 44 10000 3.6 20 07:55 08.01.2023
320 Clouds 14 1006 51 10000 2.06 280 02:20 08.01.2023
321 Clouds 18 1005 32 10000 3.09 220 22:49 07.01.2023
322 Clouds 18 1005 32 10000 3.09 220 22:26 07.01.2023
323 Clouds 17 1005 39 10000 1.03 0 21:49 07.01.2023
324 Clouds 17 1004 36 10000 4.12 210 20:57 07.01.2023
325 Clouds 17 1004 36 10000 4.12 210 20:25 07.01.2023
326 Clouds 17 1003 34 10000 2.06 150 19:18 07.01.2023
327 Clouds 15 1003 38 10000 2.57 0 18:18 07.01.2023
328 Clouds 16 1003 36 10000 2.06 140 17:39 07.01.2023
329 Clouds 14 1002 47 10000 2.06 180 16:39 07.01.2023
330 Clear 14 1002 44 10000 1.54 150 15:52 07.01.2023
331 Clear 14 1002 44 10000 1.54 150 15:31 07.01.2023
332 Clear 12 1001 62 10000 1.54 0 14:47 07.01.2023
333 Clear 11 1001 66 10000 1.03 0 13:58 07.01.2023
334 Clear 11 1001 66 10000 1.03 0 13:39 07.01.2023
335 Clear 10 1000 76 10000 5.14 220 12:35 07.01.2023
336 Clear 9 999 81 10000 3.6 250 11:58 07.01.2023
337 Clear 8 998 87 10000 5.66 230 10:26 07.01.2023
338 Clouds 8 997 81 10000 1.03 0 08:48 07.01.2023
339 Clouds 8 997 81 10000 1.54 0 07:47 07.01.2023
340 Clouds 8 997 81 10000 1.54 0 07:20 07.01.2023
341 Clouds 10 998 81 10000 6.69 80 04:59 07.01.2023
342 Clouds 17 998 29 10000 2.57 0 22:57 06.01.2023
343 Clouds 17 998 29 10000 2.57 0 22:20 06.01.2023
344 Clouds 14 998 44 10000 2.06 0 21:44 06.01.2023
345 Clouds 15 998 41 10000 5.66 220 20:32 06.01.2023
346 Clouds 14 998 47 10000 2.57 160 19:41 06.01.2023
347 Clouds 14 998 47 10000 2.57 160 19:23 06.01.2023
348 Clouds 14 998 51 10000 2.57 160 18:54 06.01.2023
349 Clouds 12 998 50 10000 2.57 190 17:44 06.01.2023
350 Clouds 13 998 47 10000 2.06 190 16:52 06.01.2023
351 Clouds 13 998 47 10000 2.06 190 16:21 06.01.2023
352 Clouds 13 997 47 10000 2.57 220 15:51 06.01.2023
353 Clouds 13 997 47 10000 2.57 220 15:27 06.01.2023
354 Clouds 12 997 50 10000 5.14 230 13:31 06.01.2023
355 Clouds 10 995 57 10000 6.17 240 11:19 06.01.2023
356 Clouds 10 992 57 10000 7.2 240 09:56 06.01.2023
357 Clouds 11 991 58 10000 8.75 240 08:34 06.01.2023
358 Rain 18 986 52 10000 9.26 310 03:44 06.01.2023
359 Rain 15 990 67 10000 4.12 30 22:56 05.01.2023
360 Rain 16 991 59 10000 5.66 10 21:56 05.01.2023
361 Rain 14 992 58 10000 1.54 180 20:20 05.01.2023
362 Clouds 15 993 55 10000 1.54 0 17:29 05.01.2023
363 Clouds 12 994 66 10000 5.66 60 16:37 05.01.2023
364 Clouds 9 994 81 10000 4.63 70 15:48 05.01.2023
365 Clouds 9 994 81 10000 5.14 90 14:53 05.01.2023
366 Clouds 9 994 81 10000 5.14 90 14:53 05.01.2023
367 Clouds 8 994 81 10000 4.63 90 13:28 05.01.2023
368 Clouds 7 994 87 10000 3.6 100 12:38 05.01.2023
369 Clouds 5 996 87 10000 0.51 0 09:57 05.01.2023
370 Clouds 5 996 87 10000 0.51 0 09:33 05.01.2023
371 Rain 3 998 99 74 3.36 6 07:21 05.01.2023
372 Rain 5 999 87 9000 2.06 190 06:37 05.01.2023
373 Clear 9 1003 57 10000 5.66 240 00:27 05.01.2023
374 Clouds 10 1003 46 10000 10.8 230 22:23 04.01.2023
375 Clouds 11 1002 54 10000 9.77 240 21:29 04.01.2023
376 Clouds 11 1002 50 10000 12.35 240 19:58 04.01.2023
377 Clouds 10 1002 53 10000 11.83 240 19:36 04.01.2023
378 Clouds 10 1002 53 10000 11.83 240 19:36 04.01.2023
379 Clouds 11 1001 54 10000 11.83 240 19:18 04.01.2023
380 Drizzle 8 998 71 10000 13.38 250 16:58 04.01.2023
381 Drizzle 8 998 71 10000 13.38 250 16:30 04.01.2023
382 Drizzle 8 998 71 10000 13.38 250 16:30 04.01.2023
383 Drizzle 6 995 87 10000 11.83 240 14:49 04.01.2023
384 Rain 7 987 93 5000 11.32 220 11:56 04.01.2023
385 Rain 7 987 93 5000 11.32 220 11:22 04.01.2023
386 Rain 7 984 93 10000 10.29 250 10:44 04.01.2023
387 Rain 7 984 93 10000 10.29 250 10:24 04.01.2023
388 Rain 5 983 87 10000 2.57 350 09:19 04.01.2023
389 Rain 5 987 87 10000 1.54 230 05:37 04.01.2023
390 Clouds 7 994 70 10000 8.75 240 00:40 04.01.2023
391 Clouds 7 995 70 10000 12.35 240 23:37 03.01.2023
392 Clouds 8 996 61 10000 11.83 230 22:55 03.01.2023
393 Clouds 7 996 70 10000 11.32 230 21:36 03.01.2023
394 Rain 7 996 76 10000 13.38 230 19:57 03.01.2023
395 Rain 8 995 66 10000 10.29 240 18:21 03.01.2023
396 Rain 8 993 71 10000 12.86 230 16:39 03.01.2023
397 Drizzle 6 992 70 10000 12.35 230 14:21 03.01.2023
398 Drizzle 5 992 81 10000 11.83 240 13:32 03.01.2023
399 Drizzle 5 992 81 10000 11.83 240 13:32 03.01.2023
400 Drizzle 5 992 81 10000 11.83 240 13:32 03.01.2023
401 Drizzle 5 991 81 8000 9.77 240 12:58 03.01.2023
402 Drizzle 5 991 81 8000 9.77 240 12:31 03.01.2023
403 Drizzle 5 990 81 10000 10.8 250 11:41 03.01.2023
404 Drizzle 5 990 81 10000 10.8 250 11:41 03.01.2023
405 Rain 7 986 76 9000 13.89 240 08:23 03.01.2023
406 Clear 6 987 70 10000 7.2 240 04:26 03.01.2023
407 Clear 6 987 75 10000 9.26 240 03:46 03.01.2023
408 Clear 6 987 75 10000 9.26 240 03:26 03.01.2023
409 Rain 7 987 81 10000 14.4 240 22:46 02.01.2023
410 Rain 7 987 81 10000 14.4 240 22:24 02.01.2023
411 Rain 7 985 87 10000 14.92 240 20:51 02.01.2023
412 Rain 7 985 87 10000 14.92 240 20:26 02.01.2023
413 Rain 7 982 87 4000 16.46 240 18:40 02.01.2023
414 Rain 7 979 76 8000 6.17 250 15:43 02.01.2023
415 Rain 7 979 70 10000 7.2 250 13:50 02.01.2023
416 Rain 7 979 65 10000 7.2 280 12:19 02.01.2023
417 Rain 6 979 87 10000 8.23 230 10:57 02.01.2023
418 Rain 5 978 93 10000 6.17 240 08:38 02.01.2023
419 Rain 9 978 71 10000 7.72 230 04:38 02.01.2023
420 Rain 13 978 50 10000 5.66 340 23:18 01.01.2023
421 Drizzle 12 980 54 10000 4.12 350 21:46 01.01.2023
422 Clouds 12 981 54 10000 4.12 340 20:49 01.01.2023
423 Clouds 12 981 54 10000 4.12 340 20:18 01.01.2023
424 Clouds 9 983 74 10000 3.72 322 18:47 01.01.2023
425 Rain 10 985 71 10000 2.57 230 17:23 01.01.2023
426 Rain 8 985 81 10000 6.17 230 16:34 01.01.2023
427 Rain 10 985 66 10000 6.17 230 15:31 01.01.2023
428 Rain 8 985 81 10000 6.69 230 13:48 01.01.2023
429 Rain 7 985 87 5000 9.26 240 12:45 01.01.2023
430 Rain 7 984 81 10000 11.32 240 11:40 01.01.2023
431 Rain 7 983 81 10000 12.86 240 10:53 01.01.2023
432 Rain 7 982 76 10000 11.32 240 09:23 01.01.2023
433 Rain 8 981 71 10000 12.35 230 08:25 01.01.2023
434 Clouds 8 980 71 10000 13.38 230 07:30 01.01.2023
435 Clouds 8 979 76 10000 10.29 230 06:39 01.01.2023
436 Rain 11 982 62 10000 3.6 0 23:45 31.12.2022
437 Rain 11 982 62 10000 3.6 0 23:20 31.12.2022
438 Rain 10 986 66 10000 3.09 360 21:46 31.12.2022
439 Rain 10 986 66 10000 3.09 360 21:23 31.12.2022
440 Rain 10 988 66 10000 3.09 40 20:22 31.12.2022
441 Rain 11 990 62 10000 3.09 360 18:51 31.12.2022
442 Rain 11 990 62 10000 3.09 360 18:32 31.12.2022
443 Rain 12 991 50 10000 4.12 30 17:57 31.12.2022
444 Rain 12 991 50 10000 4.12 30 17:31 31.12.2022
445 Rain 10 993 57 10000 4.63 20 16:31 31.12.2022
446 Clouds 11 995 50 10000 4.12 350 15:28 31.12.2022
447 Clouds 8 997 71 10000 3.09 100 13:56 31.12.2022
448 Clouds 8 997 71 10000 3.09 100 13:27 31.12.2022
449 Clear 8 998 76 10000 3.09 110 12:24 31.12.2022
450 Clear 6 998 75 10000 0.51 0 11:52 31.12.2022
451 Clear 6 998 75 10000 0.51 0 11:25 31.12.2022
452 Clear 5 999 75 10000 2.57 300 09:56 31.12.2022
453 Clear 5 999 75 10000 2.57 300 09:37 31.12.2022
454 Clear 5 999 75 10000 1.54 20 08:22 31.12.2022
455 Clouds 7 1000 65 10000 9.26 230 02:26 31.12.2022
456 Clouds 8 999 66 10000 12.86 220 00:32 31.12.2022
457 Clouds 8 997 71 10000 13.38 230 22:55 30.12.2022
458 Clouds 8 997 71 10000 13.38 230 22:18 30.12.2022
459 Clouds 10 997 57 10000 9.77 230 21:37 30.12.2022
460 Clouds 10 996 53 10000 15.95 230 20:55 30.12.2022
461 Rain 6 994 87 7000 13.89 240 18:28 30.12.2022
462 Rain 8 992 76 8000 11.83 240 17:34 30.12.2022
463 Rain 8 992 76 8000 11.83 240 17:34 30.12.2022
464 Rain 8 991 81 7000 10.8 240 16:46 30.12.2022
465 Rain 8 991 76 10000 9.26 240 14:55 30.12.2022
466 Rain 6 991 81 7000 3.6 280 12:54 30.12.2022
467 Rain 7 991 76 10000 8.75 250 08:24 30.12.2022
468 Rain 7 992 76 10000 10.29 240 03:55 30.12.2022
469 Rain 6 992 87 10000 10.29 240 02:26 30.12.2022
470 Rain 7 991 81 10000 14.92 240 23:45 29.12.2022
471 Rain 7 991 87 4500 15.43 240 21:55 29.12.2022
472 Rain 7 991 87 9000 10.29 230 21:20 29.12.2022
473 Rain 6 991 87 5000 11.32 240 20:45 29.12.2022
474 Rain 7 990 87 4000 12.35 240 18:49 29.12.2022
475 Rain 6 991 87 2200 13.38 230 17:53 29.12.2022
476 Rain 6 990 87 6000 9.77 230 17:25 29.12.2022
477 Rain 7 990 81 8000 5.14 240 16:54 29.12.2022
478 Rain 6 990 87 8000 6.69 230 15:49 29.12.2022
479 Rain 6 990 81 5000 6.17 250 13:41 29.12.2022
480 Rain 4 990 87 4000 7.2 260 11:52 29.12.2022
481 Rain 5 989 81 8000 12.35 240 09:47 29.12.2022
482 Rain 7 987 76 10000 13.38 240 03:35 29.12.2022
483 Rain 10 984 76 10000 13.89 240 23:29 28.12.2022
484 Rain 12 985 76 10000 8.23 240 21:57 28.12.2022
485 Rain 11 986 71 10000 3.09 220 21:19 28.12.2022
486 Rain 10 988 66 10000 2.57 170 19:57 28.12.2022
487 Rain 8 990 81 10000 2.57 140 18:25 28.12.2022
488 Rain 6 995 87 8000 1.54 0 16:21 28.12.2022
489 Drizzle 6 1000 75 8000 1.54 190 13:59 28.12.2022
490 Clouds 6 1001 70 10000 1.03 80 12:48 28.12.2022
491 Clouds 6 1002 75 10000 2.06 30 11:33 28.12.2022
492 Clouds 5 1003 75 10000 6.69 260 09:32 28.12.2022
493 Clouds 5 1004 75 10000 9.26 240 07:42 28.12.2022
494 Rain 4 1004 81 10000 10.29 240 06:45 28.12.2022
495 Rain 4 1002 93 8000 11.32 240 00:57 28.12.2022
496 Rain 6 1000 87 10000 10.8 240 21:40 27.12.2022
497 Rain 7 999 76 10000 11.83 230 19:51 27.12.2022
498 Rain 7 998 76 10000 12.86 230 18:27 27.12.2022
499 Rain 7 998 76 10000 9.26 230 16:59 27.12.2022
500 Rain 6 998 81 10000 9.77 230 15:55 27.12.2022
501 Rain 6 998 75 10000 7.72 220 14:25 27.12.2022
502 Rain 6 997 70 10000 6.17 240 12:23 27.12.2022
503 Rain 4 997 81 10000 5.14 250 09:48 27.12.2022
504 Rain 4 997 81 10000 5.14 250 09:24 27.12.2022
505 Rain 4 996 87 7000 8.75 240 08:47 27.12.2022
506 Rain 4 996 87 7000 8.75 240 08:47 27.12.2022
507 Rain 4 996 93 5000 10.8 230 04:55 27.12.2022
508 Rain 7 992 70 3000 14.4 220 23:39 26.12.2022
509 Rain 7 992 70 3000 14.4 220 23:39 26.12.2022
510 Rain 7 990 76 10000 16.46 240 21:51 26.12.2022
511 Rain 6 990 87 4000 15.43 230 20:44 26.12.2022
512 Rain 7 988 81 700 15.43 230 19:51 26.12.2022
513 Rain 11 985 62 10000 12.35 230 18:42 26.12.2022
514 Clouds 10 985 62 10000 11.83 230 16:53 26.12.2022
515 Rain 11 985 71 10000 9.26 230 15:37 26.12.2022
516 Rain 9 987 76 10000 2.57 160 12:58 26.12.2022
517 Clouds 8 990 76 10000 0.51 0 10:49 26.12.2022
518 Clear 12 999 47 10000 1.54 150 05:43 26.12.2022
519 Clouds 15 1006 41 10000 7.2 250 23:41 25.12.2022
520 Clouds 15 1007 41 10000 8.23 250 22:50 25.12.2022
521 Clouds 15 1007 41 10000 8.23 250 22:22 25.12.2022
522 Clouds 15 1010 41 10000 7.72 240 19:56 25.12.2022
523 Clouds 15 1010 41 10000 7.72 240 19:56 25.12.2022
524 Clouds 13 1011 50 10000 8.75 230 17:52 25.12.2022
525 Clouds 13 1011 50 10000 8.75 230 17:34 25.12.2022
526 Clouds 13 1012 47 10000 9.26 230 16:41 25.12.2022
527 Clouds 10 1013 57 10000 10.8 230 13:30 25.12.2022
528 Clouds 10 1013 57 10000 10.8 230 13:30 25.12.2022
529 Clouds 9 1013 57 10000 10.29 240 11:38 25.12.2022
530 Clouds 9 1012 66 10000 9.77 240 04:19 25.12.2022
531 Clouds 13 1009 50 10000 13.38 230 22:55 24.12.2022
532 Clouds 15 1006 55 10000 13.38 230 19:53 24.12.2022
533 Clouds 15 1006 72 10000 4.63 240 17:34 24.12.2022
534 Drizzle 10 1005 81 10000 2.57 90 15:37 24.12.2022
535 Rain 10 1006 76 10000 2.06 80 14:30 24.12.2022
536 Drizzle 9 1007 76 10000 1.54 30 12:20 24.12.2022
537 Clouds 8 1008 81 10000 2.57 80 10:23 24.12.2022
538 Clouds 7 1009 81 10000 3.09 80 09:37 24.12.2022
539 Clear 7 1010 81 10000 3.6 80 08:37 24.12.2022
540 Clouds 8 1012 66 10000 5.14 250 02:52 24.12.2022
541 Clouds 10 1012 53 10000 10.29 240 00:29 24.12.2022
542 Clouds 11 1011 46 10000 10.8 240 22:30 23.12.2022
543 Clouds 11 1010 46 10000 12.35 240 21:37 23.12.2022
544 Clouds 12 1008 50 10000 11.83 230 19:40 23.12.2022
545 Clouds 12 1008 50 10000 11.83 230 19:22 23.12.2022
546 Clouds 10 1007 50 10000 9.77 220 18:53 23.12.2022
547 Clouds 10 1007 50 10000 9.77 220 18:22 23.12.2022
548 Clouds 10 1006 50 10000 10.29 210 17:43 23.12.2022
549 Clouds 9 1003 61 10000 10.29 220 15:45 23.12.2022
550 Drizzle 5 1001 87 8000 12.86 250 13:42 23.12.2022
551 Rain 7 996 87 8000 11.32 250 10:21 23.12.2022
552 Rain 7 993 87 2000 15.95 250 09:35 23.12.2022
553 Rain 10 987 81 10000 13.38 250 07:29 23.12.2022
554 Drizzle 10 986 87 10000 9.26 240 06:49 23.12.2022
555 Rain 13 982 76 10000 4.63 210 00:39 23.12.2022
556 Clouds 14 982 72 10000 2.57 200 23:19 22.12.2022
557 Clear 18 983 55 10000 2.57 210 21:55 22.12.2022
558 Clear 18 984 55 10000 2.06 0 19:48 22.12.2022
559 Clear 18 984 55 10000 2.06 0 19:19 22.12.2022
560 Clear 16 987 63 10000 2.57 110 17:59 22.12.2022
561 Clear 15 987 67 10000 3.6 110 16:53 22.12.2022
562 Clear 14 989 67 10000 2.57 80 15:47 22.12.2022
563 Clear 14 989 67 10000 2.57 80 15:29 22.12.2022
564 Clear 14 989 67 10000 2.57 80 15:29 22.12.2022
565 Clear 14 990 67 10000 1.03 0 14:27 22.12.2022
566 Clear 11 991 82 10000 2.57 70 13:20 22.12.2022
567 Clear 10 993 87 10000 1.54 250 11:42 22.12.2022
568 Clear 10 994 87 10000 0.51 0 10:31 22.12.2022
569 Clear 10 995 87 10000 2.06 340 09:24 22.12.2022
570 Clear 11 995 82 10000 1.03 280 08:53 22.12.2022
571 Clear 11 996 82 10000 2.06 10 07:52 22.12.2022
572 Clouds 12 998 76 10000 3.09 60 04:19 22.12.2022
573 Clear 14 997 72 10000 2.06 0 00:46 22.12.2022
574 Clouds 18 996 55 10000 2.06 100 22:40 21.12.2022
575 Clouds 18 997 55 10000 3.09 110 21:49 21.12.2022
576 Clouds 18 997 55 10000 3.09 110 21:19 21.12.2022
577 Clouds 19 996 52 10000 3.09 10 20:34 21.12.2022
578 Clouds 19 996 48 10000 5.66 20 19:47 21.12.2022
579 Clouds 19 996 48 10000 5.66 20 19:29 21.12.2022
580 Clouds 20 996 45 10000 5.14 10 18:54 21.12.2022
581 Clouds 20 996 45 10000 5.14 10 18:35 21.12.2022
582 Clear 19 996 34 10000 6.69 30 16:19 21.12.2022
583 Clear 17 998 36 10000 4.12 10 14:20 21.12.2022
584 Clear 11 1000 71 10000 2.06 230 11:58 21.12.2022
585 Clear 11 1000 71 10000 2.06 230 11:20 21.12.2022
586 Clear 11 1000 71 10000 2.57 0 10:29 21.12.2022
587 Clear 11 1002 66 10000 2.06 210 08:48 21.12.2022
588 Clear 13 1003 58 10000 8.23 30 06:30 21.12.2022
589 Clouds 12 1004 66 10000 6.17 80 00:25 21.12.2022
590 Clouds 14 1003 58 10000 2.57 70 21:47 20.12.2022
591 Clouds 14 1003 54 10000 2.06 120 20:51 20.12.2022
592 Clouds 13 1003 58 10000 3.09 90 19:54 20.12.2022
593 Clouds 14 1003 58 10000 5.14 80 18:47 20.12.2022
594 Clouds 14 1003 58 10000 5.14 80 18:22 20.12.2022
595 Clouds 13 1003 62 10000 5.14 90 17:48 20.12.2022
596 Clouds 13 1003 62 10000 5.14 90 17:24 20.12.2022
597 Clouds 12 1004 71 10000 4.63 90 15:55 20.12.2022
598 Clouds 11 1004 76 10000 4.63 60 14:55 20.12.2022
599 Clouds 11 1004 76 10000 4.63 60 14:35 20.12.2022
600 Clear 11 1004 76 10000 1.03 0 13:26 20.12.2022
601 Clear 10 1004 76 10000 3.09 190 12:32 20.12.2022
602 Clear 10 1004 76 10000 4.63 170 11:54 20.12.2022
603 Clear 11 1003 71 10000 1.54 150 09:57 20.12.2022
604 Clear 14 1003 47 10000 1.54 0 06:58 20.12.2022
605 Clear 16 1004 48 10000 3.09 170 23:58 19.12.2022
606 Clear 15 1004 55 10000 3.09 200 22:22 19.12.2022
607 Clouds 15 1005 47 10000 3.6 200 20:48 19.12.2022
608 Clouds 14 1005 51 10000 3.09 200 19:40 19.12.2022
609 Clouds 15 1005 44 10000 3.09 190 18:44 19.12.2022
610 Clouds 15 1005 47 10000 3.09 150 17:38 19.12.2022
611 Clear 13 1005 47 10000 2.06 0 15:52 19.12.2022
612 Clouds 11 1004 58 10000 2.06 130 12:35 19.12.2022
613 Clouds 12 1004 50 10000 2.06 100 11:36 19.12.2022
614 Clear 12 1002 37 10000 3.6 330 07:49 19.12.2022
615 Clear 12 1002 40 10000 4.12 320 06:33 19.12.2022
616 Clear 12 1003 50 10000 1.54 190 00:50 19.12.2022
617 Clouds 12 1002 50 10000 4.63 230 21:49 18.12.2022
618 Clouds 12 1002 50 10000 4.63 230 21:27 18.12.2022
619 Clouds 11 1002 54 10000 4.12 230 20:53 18.12.2022
620 Clouds 10 1001 62 10000 6.69 230 19:43 18.12.2022
621 Rain 10 1001 57 10000 2.57 210 18:59 18.12.2022
622 Rain 11 1000 50 10000 3.09 240 17:52 18.12.2022
623 Clouds 9 999 66 10000 7.2 220 15:42 18.12.2022
624 Clouds 9 999 66 10000 7.2 220 15:24 18.12.2022
625 Clouds 10 999 57 10000 5.14 230 14:55 18.12.2022
626 Clouds 10 998 62 10000 4.12 230 13:29 18.12.2022
627 Clouds 10 998 57 10000 3.09 230 12:50 18.12.2022
628 Clouds 8 997 76 10000 2.57 280 11:49 18.12.2022
629 Clouds 6 996 87 10000 5.14 230 09:34 18.12.2022
630 Clear 8 995 76 10000 5.14 230 08:46 18.12.2022
631 Clear 8 995 76 10000 5.14 240 06:41 18.12.2022
632 Clear 8 995 76 10000 5.14 240 06:18 18.12.2022
633 Clouds 12 993 47 10000 3.09 360 01:53 18.12.2022
634 Clouds 12 993 50 10000 1.03 0 22:57 17.12.2022
635 Clouds 11 993 58 10000 3.6 280 20:46 17.12.2022
636 Rain 10 991 76 10000 7.2 240 17:52 17.12.2022
637 Clouds 11 989 58 10000 8.23 230 15:32 17.12.2022
638 Rain 14 989 74 10000 1.71 252 13:20 17.12.2022
639 Clouds 12 984 50 10000 7.2 240 11:19 17.12.2022
640 Clouds 11 983 54 10000 1.54 0 10:40 17.12.2022
641 Clouds 15 983 44 10000 3.09 270 08:37 17.12.2022
642 Clouds 15 983 44 10000 3.09 270 08:37 17.12.2022
643 Clouds 14 983 58 10000 1.03 0 06:48 17.12.2022
644 Rain 15 986 55 10000 7.2 320 04:41 17.12.2022
645 Drizzle 17 991 48 10000 5.14 310 22:53 16.12.2022
646 Clouds 17 992 45 10000 7.72 320 20:27 16.12.2022
647 Drizzle 15 995 51 10000 5.14 10 18:33 16.12.2022
648 Clouds 15 998 55 10000 5.14 350 15:32 16.12.2022
649 Clouds 15 999 55 10000 4.12 350 14:42 16.12.2022
650 Clouds 15 1001 55 10000 4.63 350 12:49 16.12.2022
651 Clouds 15 1001 51 10000 4.63 350 11:56 16.12.2022
652 Clouds 10 1002 76 10000 0 0 09:40 16.12.2022
653 Clouds 11 1002 71 10000 1.54 170 08:49 16.12.2022
654 Clouds 11 1003 71 10000 2.06 160 07:54 16.12.2022
655 Clouds 11 1003 71 10000 1.03 0 06:45 16.12.2022
656 Clouds 14 1005 54 10000 7.2 230 22:46 15.12.2022
657 Rain 13 1005 62 10000 8.75 240 21:30 15.12.2022
658 Clouds 15 1004 55 10000 4.63 210 19:49 15.12.2022
659 Clouds 14 1003 58 10000 1.54 160 18:54 15.12.2022
660 Clouds 13 1003 58 10000 1.54 180 17:28 15.12.2022
661 Clouds 11 1004 58 10000 1.54 170 15:47 15.12.2022
662 Clouds 10 1004 66 10000 2.06 140 14:57 15.12.2022
663 Clouds 8 1004 71 10000 1.54 130 12:54 15.12.2022
664 Clouds 8 1004 71 10000 1.54 130 12:24 15.12.2022
665 Clear 6 1004 75 10000 1.03 350 08:59 15.12.2022
666 Clear 6 1004 75 10000 1.03 350 08:21 15.12.2022
667 Clear 7 1004 65 10000 5.14 250 05:45 15.12.2022
668 Clouds 9 1001 57 10000 10.29 240 00:59 15.12.2022
669 Clouds 10 998 66 10000 7.2 220 21:24 14.12.2022
670 Clouds 10 997 76 10000 8.75 240 20:45 14.12.2022
671 Clouds 13 996 38 10000 5.14 260 19:53 14.12.2022
672 Clouds 11 996 54 10000 2.57 150 17:41 14.12.2022
673 Clouds 11 997 43 10000 3.6 0 16:54 14.12.2022
674 Clouds 10 997 46 10000 3.09 330 14:58 14.12.2022
675 Clouds 8 997 66 10000 3.6 120 13:19 14.12.2022
676 Clouds 6 997 65 10000 2.06 90 10:55 14.12.2022
677 Clouds 6 997 65 10000 2.06 90 10:23 14.12.2022
678 Clouds 4 997 81 10000 0.51 0 08:46 14.12.2022
679 Clouds 8 994 61 10000 10.8 240 22:42 13.12.2022
680 Clouds 11 993 40 10000 10.8 230 21:45 13.12.2022
681 Clouds 11 993 46 10000 8.75 230 20:48 13.12.2022
682 Clouds 11 993 46 10000 8.75 230 20:48 13.12.2022
683 Rain 8 993 76 10000 9.26 240 19:25 13.12.2022
684 Clouds 11 991 50 10000 5.66 230 16:42 13.12.2022
685 Clouds 10 991 57 10000 3.6 240 14:59 13.12.2022
686 Clouds 7 991 87 10000 10.29 230 13:42 13.12.2022
687 Clear 7 990 87 10000 1.54 200 10:54 13.12.2022
688 Clear 7 990 87 10000 1.54 200 10:27 13.12.2022
689 Clear 7 990 87 10000 1.54 200 10:27 13.12.2022
690 Clear 6 989 87 10000 2.57 100 08:45 13.12.2022
691 Clouds 10 993 57 10000 1.03 0 22:42 12.12.2022
692 Rain 10 993 62 10000 1.03 0 21:59 12.12.2022
693 Rain 9 994 71 10000 2.57 300 20:41 12.12.2022
694 Clouds 11 995 43 10000 3.09 200 18:31 12.12.2022
695 Clouds 10 997 57 10000 6.69 230 15:41 12.12.2022
696 Clouds 9 997 66 10000 6.69 250 14:25 12.12.2022
697 Clear 6 997 93 10000 4.12 60 09:56 12.12.2022
698 Clear 6 997 93 10000 4.12 60 09:18 12.12.2022
699 Clouds 7 1001 87 10000 4.12 80 04:52 12.12.2022
700 Clouds 7 1002 81 10000 7.72 90 01:51 12.12.2022
701 Clouds 10 1002 71 10000 7.2 80 22:18 11.12.2022
702 Clouds 12 1002 54 10000 1.54 0 20:40 11.12.2022
703 Clouds 12 1003 54 10000 2.06 180 19:39 11.12.2022
704 Clouds 10 1003 62 10000 5.66 180 18:55 11.12.2022
705 Clouds 13 1003 47 10000 8.23 250 17:55 11.12.2022
706 Clouds 13 1003 47 10000 8.23 250 17:26 11.12.2022
707 Clouds 12 1003 50 10000 8.23 240 16:49 11.12.2022
708 Clouds 10 1004 57 10000 8.23 250 15:45 11.12.2022
709 Clouds 9 1004 61 10000 7.72 240 13:39 11.12.2022
710 Clouds 8 1004 66 10000 7.72 240 12:42 11.12.2022
711 Clouds 6 1004 75 10000 7.72 250 10:44 11.12.2022
712 Clouds 2 1004 93 10000 1.46 254 03:39 11.12.2022
713 Clouds 8 1002 64 10000 3.14 206 00:28 11.12.2022
714 Clouds 9 1002 57 10000 3.8 201 22:50 10.12.2022
715 Clouds 9 1002 57 10000 3.8 201 22:32 10.12.2022
716 Clouds 10 1001 53 10000 4.1 204 21:18 10.12.2022
717 Clouds 11 1001 53 10000 4.09 198 20:20 10.12.2022
718 Clouds 11 1001 50 10000 14.4 240 17:54 10.12.2022
719 Clouds 9 1002 57 10000 11.83 240 16:47 10.12.2022
720 Clouds 9 1002 57 10000 11.83 240 16:47 10.12.2022
721 Clouds 9 1002 53 10000 12.86 240 15:53 10.12.2022
722 Clouds 9 1002 53 10000 12.86 240 15:33 10.12.2022
723 Clouds 8 1002 57 10000 12.35 230 13:44 10.12.2022
724 Clouds 6 1003 65 10000 11.32 240 12:27 10.12.2022
725 Clouds 6 1003 65 10000 9.77 250 11:22 10.12.2022
726 Clear 5 1003 65 10000 9.26 240 09:52 10.12.2022
727 Clear 5 1003 65 10000 10.8 240 07:23 10.12.2022
728 Clear 5 1003 70 10000 10.8 240 06:54 10.12.2022
729 Clouds 10 1001 57 10000 8.75 240 23:52 09.12.2022
730 Clouds 10 1000 57 10000 9.26 230 22:43 09.12.2022
731 Clouds 11 999 58 10000 9.77 230 21:43 09.12.2022
732 Clouds 11 999 54 10000 7.2 230 20:59 09.12.2022
733 Clouds 9 999 66 10000 4.12 160 19:47 09.12.2022
734 Clouds 9 998 66 10000 6.17 210 17:56 09.12.2022
735 Clouds 9 998 66 10000 6.17 210 17:32 09.12.2022
736 Clouds 10 997 57 10000 8.75 240 16:29 09.12.2022
737 Clouds 10 996 62 10000 8.75 240 15:31 09.12.2022
738 Clouds 8 996 71 10000 5.66 200 14:23 09.12.2022
739 Clouds 6 994 81 10000 6.17 240 10:51 09.12.2022
740 Clouds 6 994 81 10000 6.17 240 10:24 09.12.2022
741 Clouds 6 993 81 10000 5.66 240 08:22 09.12.2022
742 Rain 6 993 81 10000 2.06 310 03:18 09.12.2022
743 Rain 7 991 76 10000 6.17 150 23:36 08.12.2022
744 Clouds 9 991 66 10000 3.6 140 20:56 08.12.2022
745 Clouds 9 991 66 10000 3.6 140 20:20 08.12.2022
746 Clouds 9 990 53 10000 7.72 240 16:51 08.12.2022
747 Clouds 8 991 53 10000 7.2 250 14:40 08.12.2022
748 Clouds 8 991 53 10000 7.2 250 14:20 08.12.2022
749 Clouds 5 991 65 10000 6.69 250 10:43 08.12.2022
750 Clouds 5 991 65 10000 6.17 250 09:32 08.12.2022
751 Clouds 5 991 60 10000 6.17 250 08:28 08.12.2022
752 Clouds 10 996 46 10000 10.29 240 22:44 07.12.2022
753 Clouds 10 996 46 10000 10.29 240 22:18 07.12.2022
754 Clouds 11 996 43 10000 10.8 240 21:47 07.12.2022
755 Clouds 9 996 49 10000 11.83 230 20:35 07.12.2022
756 Clouds 8 998 49 10000 11.83 230 18:38 07.12.2022
757 Clouds 7 1001 49 10000 7.72 230 15:53 07.12.2022
758 Clouds 7 1001 49 10000 7.72 230 15:53 07.12.2022
759 Clouds 7 1001 53 10000 10.8 230 14:30 07.12.2022
760 Clouds 4 1003 56 10000 4.12 260 11:36 07.12.2022
761 Clear 3 1003 60 10000 2.06 330 10:30 07.12.2022
762 Clear 3 1004 52 10000 1.54 270 09:32 07.12.2022
763 Clear 3 1004 52 10000 1.03 0 08:36 07.12.2022
764 Clear 4 1006 48 10000 2.06 280 05:26 07.12.2022
765 Clouds 5 1006 56 10000 5.14 250 02:57 07.12.2022
766 Rain 7 1002 61 5000 13.38 240 21:59 06.12.2022
767 Clouds 6 1001 70 10000 11.32 240 19:38 06.12.2022
768 Rain 5 999 75 2500 10.8 230 17:20 06.12.2022
769 Rain 7 997 61 10000 9.26 240 16:30 06.12.2022
770 Rain 6 997 70 10000 8.23 240 15:37 06.12.2022
771 Rain 5 996 75 10000 10.8 240 14:40 06.12.2022
772 Rain 5 996 75 10000 10.8 240 14:19 06.12.2022
773 Clouds 4 995 75 10000 9.26 240 12:41 06.12.2022
774 Clouds 4 995 81 10000 9.77 240 11:59 06.12.2022
775 Clear 4 993 70 10000 5.66 260 07:51 06.12.2022
776 Clouds 5 992 65 10000 7.72 240 03:26 06.12.2022
777 Clouds 7 989 53 10000 9.26 240 23:45 05.12.2022
778 Clouds 8 987 49 10000 10.29 240 21:56 05.12.2022
779 Clouds 9 987 49 10000 11.83 230 20:55 05.12.2022
780 Clouds 9 987 49 10000 11.83 230 20:23 05.12.2022
781 Clouds 9 986 49 10000 11.83 230 19:37 05.12.2022
782 Clouds 9 985 49 10000 10.29 230 16:55 05.12.2022
783 Rain 9 984 53 10000 10.29 230 15:39 05.12.2022
784 Clouds 9 984 49 10000 7.2 240 14:56 05.12.2022
785 Clouds 6 983 70 10000 9.26 230 12:58 05.12.2022
786 Clouds 6 983 70 10000 9.26 230 12:38 05.12.2022
787 Clouds 5 983 70 10000 7.2 250 11:45 05.12.2022
788 Clouds 5 982 75 10000 9.26 230 09:32 05.12.2022
789 Clouds 9 981 61 10000 9.26 230 00:19 05.12.2022
790 Clouds 9 980 76 10000 9.26 230 22:44 04.12.2022
791 Clouds 9 980 76 10000 9.26 230 22:20 04.12.2022
792 Clouds 9 980 71 10000 7.2 230 21:39 04.12.2022
793 Clouds 13 980 41 10000 5.66 300 20:26 04.12.2022
794 Clouds 13 980 44 10000 6.69 300 19:25 04.12.2022
795 Clouds 10 981 57 10000 8.75 240 18:37 04.12.2022
796 Clouds 13 981 44 10000 6.17 290 17:23 04.12.2022
797 Clouds 12 982 43 10000 4.12 350 16:37 04.12.2022
798 Clouds 12 982 43 10000 4.12 350 16:19 04.12.2022
799 Clouds 10 983 53 10000 4.12 360 15:44 04.12.2022
800 Clouds 10 984 50 10000 5.66 310 14:43 04.12.2022
801 Clouds 10 985 57 10000 4.12 350 13:18 04.12.2022
802 Clouds 7 986 65 10000 2.57 350 12:42 04.12.2022
803 Clouds 6 986 70 10000 3.09 340 11:46 04.12.2022
804 Clear 4 988 87 10000 3.09 80 09:20 04.12.2022
805 Rain 4 989 87 10000 1.03 0 06:34 04.12.2022
806 Rain 5 988 81 10000 10.29 240 00:44 04.12.2022
807 Rain 7 987 65 10000 8.75 230 23:30 03.12.2022
808 Rain 8 986 61 10000 10.8 230 21:55 03.12.2022
809 Rain 8 986 61 10000 10.8 230 21:19 03.12.2022
810 Rain 8 986 61 10000 9.26 220 19:28 03.12.2022
811 Clouds 11 985 40 10000 7.72 240 18:39 03.12.2022
812 Clouds 10 986 37 10000 6.17 310 15:53 03.12.2022
813 Rain 8 986 46 10000 3.09 300 14:23 03.12.2022
814 Clouds 7 987 49 10000 1.54 180 12:54 03.12.2022
815 Clouds 7 987 49 10000 1.54 180 12:22 03.12.2022
816 Clear 5 987 65 10000 2.06 110 10:20 03.12.2022
817 Clouds 5 986 70 10000 6.69 240 06:53 03.12.2022
818 Rain 7 982 65 10000 12.86 230 00:23 03.12.2022
819 Rain 8 979 71 10000 18.52 240 22:22 02.12.2022
820 Clouds 9 977 87 10000 10.29 230 20:53 02.12.2022
821 Rain 9 976 81 10000 14.4 230 19:23 02.12.2022
822 Clouds 15 979 44 10000 7.72 330 15:59 02.12.2022
823 Clouds 14 980 44 10000 6.69 330 14:40 02.12.2022
824 Clouds 14 980 44 10000 6.69 330 14:22 02.12.2022
825 Clouds 14 981 44 10000 4.63 330 12:55 02.12.2022
826 Clouds 12 981 50 10000 3.09 300 11:32 02.12.2022
827 Clouds 10 982 66 10000 6.69 240 08:35 02.12.2022
828 Clouds 11 981 58 10000 2.57 300 07:23 02.12.2022
829 Clouds 13 984 50 10000 6.17 320 23:35 01.12.2022
830 Clouds 14 985 44 10000 6.69 310 21:46 01.12.2022
831 Clouds 14 985 44 10000 6.69 310 21:27 01.12.2022
832 Clouds 15 986 44 10000 7.2 310 19:24 01.12.2022
833 Clouds 16 986 41 10000 7.2 310 17:48 01.12.2022
834 Clouds 15 986 41 10000 8.75 300 15:39 01.12.2022
835 Clouds 11 986 50 10000 4.12 310 11:41 01.12.2022
836 Clouds 10 987 53 10000 4.12 270 10:23 01.12.2022
837 Clouds 9 988 61 10000 2.57 130 09:54 01.12.2022
838 Clouds 9 988 61 10000 2.57 130 09:35 01.12.2022
839 Clouds 9 993 61 10000 9.77 240 00:18 01.12.2022
840 Clouds 10 992 53 10000 12.35 230 22:37 30.11.2022
841 Clouds 11 992 58 10000 12.86 230 21:19 30.11.2022
842 Clouds 12 991 50 10000 12.35 230 20:25 30.11.2022
843 Clouds 10 991 57 10000 13.38 230 19:58 30.11.2022
844 Clouds 10 991 57 10000 12.35 230 18:33 30.11.2022
845 Clouds 11 991 50 10000 13.89 230 17:36 30.11.2022
846 Clouds 10 991 57 10000 11.32 230 15:49 30.11.2022
847 Clouds 10 991 53 10000 11.32 230 14:27 30.11.2022
848 Clouds 9 991 57 10000 4.12 0 13:39 30.11.2022
849 Clouds 7 990 70 10000 9.77 230 10:30 30.11.2022
850 Clouds 7 990 65 10000 6.69 250 08:39 30.11.2022
851 Clouds 8 990 61 10000 1.54 0 07:26 30.11.2022
852 Clouds 8 993 66 10000 8.23 230 23:33 29.11.2022
853 Clouds 9 993 66 10000 9.26 230 22:49 29.11.2022
854 Rain 9 993 61 10000 10.29 220 21:26 29.11.2022
855 Rain 9 993 66 10000 11.83 230 20:37 29.11.2022
856 Rain 9 992 66 10000 10.8 230 18:58 29.11.2022
857 Rain 9 992 66 10000 8.75 240 16:59 29.11.2022
858 Rain 9 992 66 10000 8.75 240 16:25 29.11.2022
859 Rain 6 992 81 10000 9.77 240 14:50 29.11.2022
860 Rain 5 991 81 10000 11.83 230 13:20 29.11.2022
861 Clouds 6 990 70 10000 9.77 250 11:44 29.11.2022
862 Clouds 5 989 65 10000 11.83 240 10:56 29.11.2022
863 Clouds 6 989 61 10000 7.72 240 09:38 29.11.2022
864 Rain 5 988 75 10000 11.83 240 08:38 29.11.2022
865 Clouds 17 984 34 10000 5.66 310 00:36 29.11.2022
866 Clouds 17 984 36 10000 6.69 290 23:34 28.11.2022
867 Clouds 19 985 34 10000 5.66 290 22:52 28.11.2022
868 Clouds 19 987 32 10000 4.63 290 21:44 28.11.2022
869 Clouds 20 988 30 10000 5.66 290 20:50 28.11.2022
870 Clouds 20 989 32 10000 3.6 320 19:38 28.11.2022
871 Clouds 18 991 36 10000 5.66 310 18:29 28.11.2022
872 Clouds 17 992 42 10000 3.09 0 17:50 28.11.2022
873 Clouds 17 995 45 10000 4.63 320 15:37 28.11.2022
874 Clouds 16 996 51 10000 3.09 360 14:24 28.11.2022
875 Clouds 16 998 48 10000 3.6 360 13:49 28.11.2022
876 Clouds 14 999 54 10000 2.57 360 12:35 28.11.2022
877 Clear 12 1002 58 10000 1.54 0 09:27 28.11.2022
878 Clear 9 1006 76 10000 4.12 110 06:29 28.11.2022
879 Clear 10 1008 62 10000 1.03 0 04:42 28.11.2022
880 Clouds 11 1009 58 10000 1.03 0 03:58 28.11.2022
881 Clouds 12 1010 58 10000 1.03 0 01:27 28.11.2022
882 Clouds 14 1012 44 10000 3.09 230 22:42 27.11.2022
883 Clouds 13 1012 47 10000 2.06 170 21:28 27.11.2022
884 Clouds 12 1013 47 10000 1.54 190 19:30 27.11.2022
885 Clear 11 1014 54 10000 2.57 180 17:34 27.11.2022
886 Clouds 10 1015 50 10000 1.54 170 14:33 27.11.2022
887 Clouds 9 1016 66 10000 1.54 20 12:32 27.11.2022
888 Clear 6 1016 81 10000 1.03 0 10:44 27.11.2022
889 Clear 6 1015 75 10000 2.06 290 07:57 27.11.2022
890 Clouds 9 1013 61 10000 9.26 250 00:36 27.11.2022
891 Clouds 10 1010 57 10000 11.32 240 21:58 26.11.2022
892 Clear 10 1009 62 10000 8.75 250 20:51 26.11.2022
893 Rain 10 1009 57 10000 10.29 230 19:22 26.11.2022
894 Clouds 10 1006 62 10000 11.32 220 16:59 26.11.2022
895 Clouds 9 1006 66 10000 9.26 220 15:38 26.11.2022
896 Drizzle 7 1005 76 10000 5.66 220 13:31 26.11.2022
897 Drizzle 5 1004 81 10000 4.12 190 11:24 26.11.2022
898 Drizzle 5 1002 70 10000 1.03 0 09:45 26.11.2022
899 Drizzle 5 1002 75 10000 5.14 210 08:49 26.11.2022
900 Clouds 6 995 70 10000 11.32 230 00:20 26.11.2022
901 Clouds 7 991 65 10000 10.8 240 21:41 25.11.2022
902 Clouds 7 991 65 10000 10.8 240 21:20 25.11.2022
903 Rain 8 989 81 10000 10.29 230 19:48 25.11.2022
904 Drizzle 6 987 87 10000 12.86 240 16:43 25.11.2022
905 Clouds 12 986 47 10000 6.69 320 13:50 25.11.2022
906 Clouds 10 988 43 10000 5.66 320 09:20 25.11.2022
907 Clouds 10 989 43 10000 4.63 330 08:40 25.11.2022
908 Drizzle 10 991 43 10000 4.63 310 06:53 25.11.2022
909 Clouds 11 992 43 10000 9.26 300 03:35 25.11.2022
910 Clouds 14 991 38 10000 8.75 300 23:49 24.11.2022
911 Clouds 14 992 38 10000 10.29 300 22:43 24.11.2022
912 Clouds 15 992 33 10000 8.23 290 21:55 24.11.2022
913 Clouds 14 992 35 10000 8.23 300 19:53 24.11.2022
914 Clouds 14 991 41 10000 10.29 320 18:18 24.11.2022
915 Clouds 12 992 43 10000 9.26 330 17:38 24.11.2022
916 Clouds 12 992 43 10000 9.26 330 17:19 24.11.2022
917 Clouds 12 992 40 10000 6.69 300 14:36 24.11.2022
918 Clouds 10 992 46 10000 6.17 320 13:42 24.11.2022
919 Clouds 7 993 53 10000 5.14 320 11:53 24.11.2022
920 -273 0 0 0 0 0 11:52 24.11.2022
921 Clouds 6 993 56 10000 6.17 320 10:33 24.11.2022
922 Clouds 3 994 87 10000 0.51 0 07:44 24.11.2022
923 Clouds 6 989 70 10000 9.26 240 01:56 24.11.2022
924 Rain 7 987 65 10000 12.86 240 23:32 23.11.2022
925 Rain 10 985 57 10000 11.32 230 21:55 23.11.2022
926 Clouds 10 985 57 10000 11.32 230 21:19 23.11.2022
927 Clouds 8 984 76 10000 11.83 240 19:57 23.11.2022
928 Rain 8 983 71 10000 14.4 230 18:58 23.11.2022
929 Rain 8 983 71 10000 14.4 230 18:20 23.11.2022
930 Clouds 10 981 62 10000 7.72 250 15:55 23.11.2022
931 Clouds 10 980 46 10000 6.69 310 13:25 23.11.2022
932 Clouds 9 981 53 10000 5.14 220 12:48 23.11.2022
933 Clouds 7 982 57 10000 1.54 0 11:53 23.11.2022
934 Clouds 7 982 53 10000 5.14 320 10:59 23.11.2022
935 Clouds 7 982 53 10000 5.14 320 10:40 23.11.2022
936 Clouds 6 982 56 10000 5.14 310 09:41 23.11.2022
937 Clouds 6 982 56 10000 5.14 310 09:22 23.11.2022
938 Clouds 5 983 70 10000 3.6 290 08:36 23.11.2022
939 Rain 5 985 87 8000 13.38 250 05:21 23.11.2022
940 Clouds 13 984 47 10000 6.17 330 02:36 23.11.2022
941 Rain 10 988 87 6000 3.6 250 22:38 22.11.2022
942 Rain 13 988 62 9000 4.12 330 21:52 22.11.2022
943 Rain 13 988 62 9000 4.12 330 21:32 22.11.2022
944 Rain 15 989 55 8000 4.63 340 20:45 22.11.2022
945 Clouds 16 990 41 10000 4.63 350 19:52 22.11.2022
946 Clouds 14 993 44 10000 2.06 0 17:55 22.11.2022
947 Clouds 13 993 50 10000 2.06 0 16:48 22.11.2022
948 Clouds 12 994 62 10000 3.6 120 14:56 22.11.2022
949 Clouds 11 994 71 10000 3.6 90 13:21 22.11.2022
950 Clouds 8 994 81 10000 2.06 330 10:25 22.11.2022
951 Clouds 8 993 81 10000 4.63 250 08:59 22.11.2022
952 Clouds 11 993 66 10000 7.2 240 06:46 22.11.2022
953 Clouds 13 990 54 10000 5.66 360 01:35 22.11.2022
954 Clouds 13 991 50 10000 6.69 310 23:33 21.11.2022
955 Drizzle 14 992 51 10000 2.57 0 22:31 21.11.2022
956 Clouds 13 992 54 10000 2.57 0 21:58 21.11.2022
957 Clouds 12 993 54 10000 6.17 20 20:36 21.11.2022
958 Rain 12 995 54 10000 6.69 10 19:41 21.11.2022
959 Clouds 12 996 54 10000 7.2 360 18:54 21.11.2022
960 Clouds 12 998 50 10000 7.72 360 17:46 21.11.2022
961 Clouds 12 1000 47 10000 6.17 340 16:52 21.11.2022
962 Clouds 12 1000 47 10000 6.17 340 16:34 21.11.2022
963 Clear 12 1002 43 10000 9.77 320 15:24 21.11.2022
964 Clear 11 1003 43 10000 3.6 190 13:59 21.11.2022
965 Clear 11 1003 43 10000 3.6 190 13:40 21.11.2022
966 Clouds 9 1008 53 10000 4.12 340 10:27 21.11.2022
967 Clouds 7 1009 81 10000 2.57 60 08:39 21.11.2022
968 Clouds 8 1010 76 10000 1.54 100 05:45 21.11.2022
969 Rain 9 1009 71 10000 6.17 240 22:25 20.11.2022
970 Rain 9 1009 71 10000 4.12 240 21:33 20.11.2022
971 Rain 10 1008 62 10000 8.23 240 20:24 20.11.2022
972 Clouds 10 1007 62 10000 3.6 240 18:25 20.11.2022
973 Rain 8 1006 76 10000 3.09 190 15:59 20.11.2022
974 Rain 8 1006 76 10000 3.09 190 15:28 20.11.2022
975 Rain 7 1005 76 10000 1.03 0 14:41 20.11.2022
976 Rain 7 1004 76 10000 2.57 200 13:32 20.11.2022
977 Rain 7 1004 76 10000 2.57 200 13:32 20.11.2022
978 Rain 7 1003 70 10000 1.54 0 12:31 20.11.2022
979 Clouds 7 1001 65 10000 4.63 240 10:59 20.11.2022
980 Clouds 7 1001 65 10000 4.63 240 10:23 20.11.2022
981 Clouds 7 1000 57 10000 2.06 0 09:18 20.11.2022
982 Clouds 6 999 61 10000 3.6 110 08:34 20.11.2022
983 Clouds 6 999 61 10000 1.03 0 07:29 20.11.2022
984 Clouds 7 999 61 10000 2.06 330 02:18 20.11.2022
985 Rain 7 999 61 10000 8.75 250 01:19 20.11.2022
986 Clouds 8 998 53 10000 9.77 230 00:41 20.11.2022
987 Clouds 8 998 53 10000 9.77 230 00:22 20.11.2022
988 Clouds 9 997 57 10000 9.26 220 23:49 19.11.2022
989 Clouds 9 997 57 10000 9.26 220 23:23 19.11.2022
990 Clouds 8 997 57 10000 13.38 230 22:37 19.11.2022
991 Clouds 10 995 53 10000 10.8 230 21:32 19.11.2022
992 Rain 9 994 61 10000 11.83 250 20:56 19.11.2022
993 Rain 9 994 61 10000 11.83 250 20:29 19.11.2022
994 Rain 9 992 71 10000 13.89 230 18:55 19.11.2022
995 Clouds 13 990 44 10000 7.72 240 17:40 19.11.2022
996 Clouds 13 990 44 10000 7.72 240 17:19 19.11.2022
997 Clouds 13 989 38 10000 7.72 280 15:40 19.11.2022
998 Clouds 13 988 33 10000 6.17 270 14:27 19.11.2022
999 Rain 7 987 76 10000 10.8 240 11:58 19.11.2022
1000 Drizzle 11 986 54 10000 3.09 310 10:40 19.11.2022
1001 Clouds 13 985 41 10000 9.77 300 08:39 19.11.2022
1002 Rain 14 987 38 10000 7.72 330 04:51 19.11.2022
1003 Clouds 15 989 31 10000 10.8 310 02:51 19.11.2022
1004 Clouds 16 991 29 10000 6.17 320 23:45 18.11.2022
1005 Clouds 17 992 29 10000 9.26 270 22:38 18.11.2022
1006 Clouds 16 993 33 10000 4.63 340 21:37 18.11.2022
1007 Clouds 17 994 31 10000 3.09 0 20:59 18.11.2022
1008 Clouds 17 994 31 10000 3.09 0 20:30 18.11.2022
1009 Clouds 17 994 31 10000 5.66 310 19:46 18.11.2022
1010 Clouds 15 995 36 10000 4.12 320 18:36 18.11.2022
1011 Clouds 16 995 36 10000 5.14 350 17:42 18.11.2022
1012 Clouds 13 997 38 10000 5.66 340 13:57 18.11.2022
1013 Clouds 11 997 43 10000 5.14 340 11:31 18.11.2022
1014 Clear 10 998 43 10000 3.09 320 08:46 18.11.2022
1015 Clear 10 998 43 10000 4.63 350 07:51 18.11.2022
1016 Clouds 11 999 40 10000 6.17 330 05:19 18.11.2022
1017 Clouds 11 999 46 10000 6.17 240 00:50 18.11.2022
1018 Clouds 11 995 62 10000 9.26 240 21:53 17.11.2022
1019 Clouds 8 994 57 10000 8.75 250 20:46 17.11.2022
1020 Clouds 15 993 44 10000 7.72 240 19:51 17.11.2022
1021 Clouds 15 991 33 10000 3.6 0 18:47 17.11.2022
1022 Clouds 16 990 36 10000 6.17 280 17:33 17.11.2022
1023 Clouds 15 990 41 10000 8.23 300 16:53 17.11.2022
1024 Clouds 10 990 66 10000 3.09 190 14:57 17.11.2022
1025 Clouds 10 991 57 10000 5.14 30 11:22 17.11.2022
1026 Clouds 10 991 57 10000 5.14 30 11:22 17.11.2022
1027 Clouds 11 996 46 10000 6.17 10 08:39 17.11.2022
1028 Clouds 12 1002 40 10000 2.06 30 05:47 17.11.2022
1029 Clouds 12 1005 40 10000 2.06 280 00:22 17.11.2022
1030 Clouds 14 1005 38 10000 3.6 330 22:30 16.11.2022
1031 Clouds 11 1005 46 10000 6.17 240 20:54 16.11.2022
1032 Clouds 12 1005 40 10000 6.69 240 19:54 16.11.2022
1033 Clouds 12 1004 43 10000 7.72 250 18:45 16.11.2022
1034 Clouds 12 1003 47 10000 8.75 240 17:34 16.11.2022
1035 Clouds 8 1001 57 10000 9.77 230 14:19 16.11.2022
1036 Clouds 7 995 61 10000 3.09 310 09:56 16.11.2022
1037 Clear 8 992 71 10000 5.14 230 06:38 16.11.2022
1038 Clear 11 988 62 10000 1.54 170 01:26 16.11.2022
1039 Rain 12 988 66 5000 5.66 310 22:33 15.11.2022
1040 Clouds 17 987 31 10000 7.2 330 20:45 15.11.2022
1041 Clouds 17 989 29 10000 5.14 310 19:34 15.11.2022
1042 Clouds 17 988 29 10000 8.75 310 18:48 15.11.2022
1043 Clouds 16 989 31 10000 5.66 330 17:22 15.11.2022
1044 Clouds 16 990 27 10000 7.2 300 16:19 15.11.2022
1045 Clear 13 991 41 10000 3.09 360 14:54 15.11.2022
1046 Clouds 10 992 81 10000 1.54 90 13:38 15.11.2022
1047 Clouds 9 992 93 10000 1.54 130 11:47 15.11.2022
1048 Clouds 9 992 93 10000 1.54 130 11:18 15.11.2022
1049 Clouds 9 992 87 10000 1.54 270 08:52 15.11.2022
1050 Clear 11 988 76 10000 1.54 280 00:37 15.11.2022
1051 Rain 12 988 71 10000 2.06 250 23:56 14.11.2022
1052 Clouds 13 989 67 10000 1.54 260 21:35 14.11.2022
1053 Rain 12 989 71 10000 5.14 140 20:40 14.11.2022
1054 Clouds 13 990 67 10000 3.09 220 18:52 14.11.2022
1055 Drizzle 14 993 58 10000 4.12 90 15:54 14.11.2022
1056 Clear 13 995 54 10000 2.06 10 12:55 14.11.2022
1057 Clear 12 995 58 10000 2.57 360 11:42 14.11.2022
1058 Clear 12 996 54 10000 2.57 360 09:32 14.11.2022
1059 Clear 11 997 62 10000 1.03 0 07:54 14.11.2022
1060 Clear 13 997 50 10000 4.12 20 06:40 14.11.2022
1061 Clouds 13 999 50 10000 4.63 230 00:18 14.11.2022
1062 Clouds 14 999 47 10000 6.17 220 21:55 13.11.2022
1063 Clouds 14 999 47 10000 6.17 220 21:36 13.11.2022
1064 Clouds 15 1000 36 10000 3.09 190 19:44 13.11.2022
1065 Clear 15 1000 38 10000 2.57 180 18:24 13.11.2022
1066 Clear 17 1000 27 10000 4.63 340 17:44 13.11.2022
1067 Clear 14 1001 38 10000 3.6 0 14:58 13.11.2022
1068 Clear 14 1001 38 10000 3.6 0 14:23 13.11.2022
1069 Clear 11 1002 40 10000 0.51 0 12:38 13.11.2022
1070 Clear 9 1002 57 10000 0.51 0 11:20 13.11.2022
1071 Clear 11 1003 43 10000 3.09 0 08:56 13.11.2022
1072 Clear 12 1005 47 10000 5.14 360 02:24 13.11.2022
1073 Clear 16 1006 31 10000 4.12 330 22:57 12.11.2022
1074 Clear 15 1007 33 10000 2.57 0 21:24 12.11.2022
1075 Clear 15 1007 33 10000 2.57 0 21:24 12.11.2022
1076 Clear 15 1008 31 10000 2.57 160 20:22 12.11.2022
1077 Clear 14 1009 33 10000 2.06 140 18:27 12.11.2022
1078 Clear 11 1011 43 10000 2.57 120 16:27 12.11.2022
1079 Clear 8 1012 71 10000 1.54 150 15:23 12.11.2022
1080 Clear 5 1014 81 10000 1.54 190 12:38 12.11.2022
1081 Clear 3 1015 81 10000 1.54 320 09:29 12.11.2022
1082 Clear 4 1016 75 10000 2.06 320 07:47 12.11.2022
1083 Clouds 11 1014 54 10000 9.77 250 22:51 11.11.2022
1084 Clouds 11 1013 46 10000 9.26 240 20:52 11.11.2022
1085 Clouds 12 1013 50 10000 7.72 240 19:50 11.11.2022
1086 Clouds 12 1013 50 10000 7.72 240 19:23 11.11.2022
1087 Clouds 12 1012 47 10000 8.23 240 17:57 11.11.2022
1088 Clouds 11 1012 43 10000 8.75 250 16:33 11.11.2022
1089 Clouds 10 1012 50 10000 7.2 240 14:28 11.11.2022
1090 Clouds 8 1012 57 10000 6.17 250 13:31 11.11.2022
1091 Clear 6 1010 61 10000 4.12 250 10:32 11.11.2022
1092 Clouds 5 1010 75 10000 1.54 290 08:28 11.11.2022
1093 Clear 6 1010 70 10000 2.57 140 06:29 11.11.2022
1094 Clouds 9 1009 57 10000 6.69 240 23:58 10.11.2022
1095 Clouds 10 1009 53 10000 5.66 240 22:49 10.11.2022
1096 Clear 11 1009 43 10000 5.66 240 21:38 10.11.2022
1097 Clear 11 1009 43 10000 5.66 240 21:19 10.11.2022
1098 Clear 10 1009 46 10000 5.14 220 20:23 10.11.2022
1099 Clear 10 1009 46 10000 4.63 220 19:46 10.11.2022
1100 Clear 10 1010 40 10000 4.12 210 18:44 10.11.2022
1101 Clear 8 1010 46 10000 3.09 200 16:26 10.11.2022
1102 Clear 7 1011 49 10000 2.06 200 14:43 10.11.2022
1103 Clear 7 1011 49 10000 1.03 0 13:18 10.11.2022
1104 Clear 3 1010 75 10000 2.57 340 09:19 10.11.2022
1105 Clouds 5 1009 60 10000 5.14 250 06:59 10.11.2022
1106 Clouds 6 1004 61 10000 9.26 240 00:56 10.11.2022
1107 Clouds 8 1002 61 10000 8.75 240 22:47 09.11.2022
1108 Clouds 8 1002 61 10000 8.75 240 22:47 09.11.2022
1109 Clouds 6 1001 70 10000 14.4 230 21:21 09.11.2022
1110 Clouds 7 1000 70 10000 11.83 230 20:40 09.11.2022
1111 Rain 8 999 66 10000 13.89 230 19:59 09.11.2022
1112 Clouds 10 999 53 10000 11.32 240 19:25 09.11.2022
1113 Clouds 10 997 57 10000 9.26 240 17:41 09.11.2022
1114 Clouds 8 997 71 10000 6.69 250 14:56 09.11.2022
1115 Clouds 8 997 71 10000 6.69 250 14:27 09.11.2022
1116 Clouds 6 997 81 10000 7.72 250 13:44 09.11.2022
1117 Drizzle 6 997 81 10000 7.72 250 12:52 09.11.2022
1118 Drizzle 7 995 81 10000 6.17 240 09:29 09.11.2022
1119 Clouds 7 994 76 10000 6.17 240 07:47 09.11.2022
1120 Clouds 7 994 76 10000 5.66 240 06:33 09.11.2022
1121 Clouds 11 996 54 10000 10.29 230 22:38 08.11.2022
1122 Clouds 10 996 53 10000 10.29 230 21:40 08.11.2022
1123 Clouds 10 997 53 10000 10.29 240 20:55 08.11.2022
1124 Clouds 10 997 53 10000 10.29 240 20:21 08.11.2022
1125 Clouds 12 997 50 10000 11.32 240 19:28 08.11.2022
1126 Clouds 12 997 47 10000 9.26 230 17:37 08.11.2022
1127 Clouds 12 996 54 10000 9.26 240 15:37 08.11.2022
1128 Clouds 9 996 66 10000 10.8 240 14:36 08.11.2022
1129 Clouds 9 995 66 10000 9.26 250 13:33 08.11.2022
1130 Clouds 9 994 66 10000 8.75 240 11:30 08.11.2022
1131 Clear 12 992 43 10000 4.63 320 07:45 08.11.2022
1132 Clear 12 992 47 10000 3.09 260 06:28 08.11.2022
1133 Rain 17 995 48 10000 7.72 310 23:50 07.11.2022
1134 Clouds 17 997 45 10000 6.17 320 21:56 07.11.2022
1135 Clouds 16 999 48 10000 6.69 330 20:58 07.11.2022
1136 Clouds 16 1000 48 10000 3.09 340 19:57 07.11.2022
1137 Clear 16 1001 48 10000 5.66 310 17:44 07.11.2022
1138 Clouds 10 1003 76 10000 2.06 130 15:55 07.11.2022
1139 Clouds 10 1003 76 10000 2.06 130 15:32 07.11.2022
1140 Clear 9 1004 87 10000 2.06 50 13:51 07.11.2022
1141 Clear 8 1004 93 10000 1.03 0 12:32 07.11.2022
1142 Clear 7 1004 93 10000 1.03 0 10:46 07.11.2022
1143 Clear 6 1004 93 10000 1.03 0 09:19 07.11.2022
1144 Clear 7 1004 93 10000 1.54 0 06:55 07.11.2022
1145 Clear 9 1004 87 10000 1.54 30 02:20 07.11.2022
1146 Clouds 10 1004 76 10000 1.54 10 23:49 06.11.2022
1147 Clouds 9 1005 81 10000 3.6 70 21:52 06.11.2022
1148 Clouds 9 1005 81 10000 3.6 70 21:18 06.11.2022
1149 Clouds 9 1005 81 10000 3.09 110 19:58 06.11.2022
1150 Clouds 9 1005 81 10000 3.09 110 19:28 06.11.2022
1151 Clouds 9 1006 81 10000 1.54 190 18:20 06.11.2022
1152 Clouds 9 1007 81 10000 2.57 240 17:45 06.11.2022
1153 Clouds 9 1007 81 10000 2.57 240 17:19 06.11.2022
1154 Clouds 9 1007 81 10000 1.03 0 16:20 06.11.2022
1155 Clouds 9 1007 81 10000 2.57 150 15:26 06.11.2022
1156 Clouds 8 1008 93 10000 5.14 240 12:48 06.11.2022
1157 Clouds 7 1007 93 10000 5.66 250 11:41 06.11.2022
1158 Mist 7 1007 93 10000 6.17 230 10:33 06.11.2022
1159 Clear 8 1007 87 10000 1.03 0 07:44 06.11.2022
1160 Clear 15 1009 51 10000 2.57 0 23:25 05.11.2022
1161 Clear 15 1009 51 10000 2.57 0 23:25 05.11.2022
1162 Clear 19 1008 34 10000 3.09 220 22:29 05.11.2022
1163 Clear 19 1008 39 10000 1.03 0 19:18 05.11.2022
1164 Clear 16 1009 63 10000 1.03 0 16:56 05.11.2022
1165 Clear 13 1009 76 10000 1.54 110 14:50 05.11.2022
1166 Clear 10 1009 87 10000 0.51 0 13:40 05.11.2022
1167 Clear 9 1008 87 10000 1.54 40 11:52 05.11.2022
1168 Clear 7 1006 93 10000 1.03 0 08:59 05.11.2022
1169 Clear 7 1006 93 10000 1.03 0 07:23 05.11.2022
1170 Clear 7 1005 93 10000 1.03 0 06:54 05.11.2022
1171 Rain 7 1007 93 8000 4.12 70 00:45 05.11.2022
1172 Rain 7 1007 93 8000 4.63 70 23:28 04.11.2022
1173 -273 0 0 0 0 0 21:36 04.11.2022
1174 Rain 9 1007 81 10000 3.09 240 19:33 04.11.2022
1175 Drizzle 10 1006 71 10000 7.2 250 17:44 04.11.2022
1176 Rain 9 1005 76 10000 10.8 250 14:28 04.11.2022
1177 Clouds 9 1004 76 10000 10.29 250 13:18 04.11.2022
1178 Rain 9 1003 81 10000 10.29 240 11:57 04.11.2022
1179 Clouds 10 1001 81 10000 11.83 240 09:30 04.11.2022
1180 Clear 11 1000 82 10000 10.8 240 08:20 04.11.2022
1181 Clear 13 1000 62 10000 2.06 280 06:34 04.11.2022
1182 Clouds 15 1004 58 10000 2.06 0 00:42 04.11.2022
1183 Clouds 15 1007 58 10000 5.14 150 21:42 03.11.2022
1184 Clouds 16 1007 48 10000 3.09 100 20:45 03.11.2022
1185 Clouds 13 1008 58 10000 2.57 130 19:41 03.11.2022
1186 Clouds 12 1008 54 10000 2.06 130 18:18 03.11.2022
1187 Clouds 11 1009 50 10000 2.57 100 17:37 03.11.2022
1188 Clear 8 1012 61 10000 2.06 90 15:20 03.11.2022
1189 Mist 7 1013 70 10000 1.54 100 13:33 03.11.2022
1190 Mist 7 1014 65 8000 2.57 190 12:34 03.11.2022
1191 Clear 6 1014 70 10000 2.06 350 11:31 03.11.2022
1192 Clouds 7 1013 65 10000 9.77 240 07:48 03.11.2022
1193 Clouds 17 1007 45 10000 8.23 300 22:20 02.11.2022
1194 Clouds 14 1010 54 10000 3.6 320 20:55 02.11.2022
1195 Clouds 14 1010 54 10000 3.6 320 20:23 02.11.2022
1196 Clouds 13 1012 54 10000 1.54 0 18:28 02.11.2022
1197 Clouds 9 1014 66 10000 2.57 160 16:28 02.11.2022
1198 Clouds 8 1015 61 10000 2.57 120 15:30 02.11.2022
1199 Clear 5 1017 75 10000 2.06 60 12:52 02.11.2022
1200 Clear 5 1017 75 10000 2.06 60 12:22 02.11.2022
1201 Clear 3 1017 81 10000 3.6 360 09:50 02.11.2022
1202 Clear 3 1017 70 10000 3.09 300 08:18 02.11.2022
1203 Clouds 7 1016 65 10000 9.26 240 02:28 02.11.2022
1204 Clouds 9 1013 61 10000 11.32 230 22:21 01.11.2022
1205 Clouds 9 1013 61 10000 11.32 230 21:54 01.11.2022
1206 Clouds 9 1012 57 10000 10.8 230 20:28 01.11.2022
1207 Clouds 9 1011 57 10000 13.89 230 19:59 01.11.2022
1208 Clouds 9 1011 57 10000 13.89 230 19:41 01.11.2022
1209 Clouds 10 1010 57 10000 12.86 240 18:23 01.11.2022
1210 Clouds 8 1009 61 10000 12.35 230 16:28 01.11.2022
1211 Clouds 8 1007 61 10000 9.26 240 14:39 01.11.2022
1212 Clouds 6 1006 70 10000 12.86 240 12:38 01.11.2022
1213 Clouds 6 1005 70 10000 11.32 240 11:40 01.11.2022
1214 Clouds 6 1005 70 10000 11.32 240 11:20 01.11.2022
1215 Clouds 5 1004 75 10000 7.2 250 08:58 01.11.2022
1216 Clear 5 1004 81 10000 6.69 260 07:49 01.11.2022
1217 Clear 5 1003 81 10000 9.77 240 07:27 01.11.2022
1218 Clear 4 1003 87 10000 9.26 250 06:45 01.11.2022
1219 Clouds 4 1003 93 10000 8.23 240 04:20 01.11.2022
1220 Rain 7 1002 81 10000 9.77 240 22:43 31.10.2022
1221 Rain 8 1002 76 10000 9.77 240 21:32 31.10.2022
1222 Drizzle 9 1002 66 10000 11.32 240 19:56 31.10.2022
1223 Rain 9 1003 71 10000 10.8 240 18:36 31.10.2022
1224 Drizzle 10 1003 62 10000 8.75 230 16:44 31.10.2022
1225 Drizzle 9 1004 53 10000 3.6 180 15:34 31.10.2022
1226 Clouds 6 1007 61 10000 2.06 110 12:22 31.10.2022
1227 Clear 3 1011 75 10000 0.51 0 09:35 31.10.2022
1228 Clouds 5 1015 70 10000 8.75 250 05:52 31.10.2022
1229 Clouds 6 1014 70 10000 15.43 230 02:42 31.10.2022
1230 Clouds 6 1015 70 10000 14.92 230 01:46 31.10.2022
1231 Clouds 6 1013 75 10000 15.95 240 22:19 30.10.2022
1232 Clouds 8 1012 66 10000 18.01 240 20:38 30.10.2022
1233 Clouds 8 1011 61 10000 18.01 230 19:34 30.10.2022
1234 Clouds 7 1008 70 10000 18.01 230 16:29 30.10.2022
1235 Rain 5 1009 81 10000 17.49 230 14:34 30.10.2022
1236 Rain 3 1009 93 10000 15.43 240 13:50 30.10.2022
1237 Rain 3 1009 93 8000 16.98 240 12:21 30.10.2022
1238 Rain 3 1007 87 3000 13.38 240 09:58 30.10.2022
1239 Clouds 3 1007 87 10000 12.86 240 09:24 30.10.2022
1240 Clouds 3 1005 87 10000 12.86 240 07:55 30.10.2022
1241 Rain 3 995 87 10000 8.75 230 00:29 30.10.2022
1242 Rain 4 994 81 10000 7.2 230 23:47 29.10.2022
1243 Rain 4 987 93 10000 9.26 240 21:57 29.10.2022
1244 Rain 4 984 93 7000 10.29 240 19:22 29.10.2022
1245 Rain 4 980 87 10000 9.77 230 17:23 29.10.2022
1246 Clouds 4 979 81 10000 5.66 230 15:39 29.10.2022
1247 Clouds 4 979 87 10000 6.17 240 14:54 29.10.2022
1248 Clouds 4 979 87 10000 2.57 230 13:45 29.10.2022
1249 Clouds 3 979 87 10000 1.54 310 12:32 29.10.2022
1250 Rain 3 980 87 5000 2.57 270 09:32 29.10.2022
1251 Clouds 3 979 81 10000 3.6 240 06:50 29.10.2022
1252 Drizzle 3 979 81 7000 6.69 240 05:53 29.10.2022
1253 Clouds 6 976 65 10000 12.86 240 23:44 28.10.2022
1254 Clouds 6 974 65 10000 14.92 240 21:33 28.10.2022
1255 Rain 8 972 53 10000 11.32 240 19:59 28.10.2022
1256 Clouds 8 972 46 10000 9.77 230 18:33 28.10.2022
1257 Clouds 8 973 57 10000 5.66 230 17:52 28.10.2022
1258 Clouds 6 973 65 10000 2.57 210 15:18 28.10.2022
1259 Clouds 5 974 65 10000 1.54 50 13:43 28.10.2022
1260 Clouds 3 973 75 10000 3.09 360 11:55 28.10.2022
1261 Clouds 3 973 75 10000 3.09 360 11:32 28.10.2022
1262 Clouds 3 974 81 10000 3.6 330 10:45 28.10.2022
1263 Clouds 4 973 75 10000 5.66 250 09:37 28.10.2022
1264 Clouds 5 973 70 10000 9.26 250 07:19 28.10.2022
1265 Clouds 6 970 65 10000 8.23 240 02:30 28.10.2022
1266 Clouds 8 967 61 10000 8.75 250 23:47 27.10.2022
1267 Clouds 10 967 43 10000 7.72 250 22:37 27.10.2022
1268 Clouds 10 967 46 10000 5.66 230 20:59 27.10.2022
1269 Clouds 10 969 32 10000 2.57 320 18:33 27.10.2022
1270 Clouds 9 970 40 10000 2.57 30 17:22 27.10.2022
1271 Clear 6 972 49 10000 4.63 270 12:54 27.10.2022
1272 Clear 8 972 49 10000 7.2 320 08:31 27.10.2022
1273 Rain 9 977 53 10000 3.09 0 02:56 27.10.2022
1274 Clouds 12 981 37 10000 6.17 310 23:53 26.10.2022
1275 Clouds 13 982 38 10000 6.69 300 22:44 26.10.2022
1276 Clouds 13 982 35 10000 6.69 290 21:49 26.10.2022
1277 Rain 9 984 71 5000 6.69 250 18:38 26.10.2022
1278 Clouds 11 983 50 10000 6.69 320 16:22 26.10.2022
1279 Clouds 7 986 76 10000 2.57 100 13:34 26.10.2022
1280 Clouds 6 986 81 10000 3.09 20 12:36 26.10.2022
1281 Clouds 6 987 81 10000 2.57 0 09:31 26.10.2022
1282 Clouds 6 988 75 10000 2.06 0 08:53 26.10.2022
1283 Clouds 6 990 70 7000 3.6 70 07:57 26.10.2022
1284 Clouds 10 997 37 10000 5.14 360 00:42 26.10.2022
1285 Clear 10 999 37 10000 3.6 10 23:57 25.10.2022
1286 Clear 9 1001 40 10000 3.09 110 21:47 25.10.2022
1287 Clear 8 1003 49 10000 3.09 180 20:46 25.10.2022
1288 Clouds 6 1004 52 10000 2.57 110 18:59 25.10.2022
1289 Clouds 6 1005 56 10000 2.57 180 17:49 25.10.2022
1290 Clouds 3 1005 75 10000 3.09 360 13:40 25.10.2022
1291 Drizzle 3 1004 75 10000 1.54 240 11:38 25.10.2022
1292 Drizzle 3 1003 75 10000 1.54 360 10:36 25.10.2022
1293 Clouds 2 1002 75 10000 2.06 260 08:44 25.10.2022
1294 Clouds 2 1002 75 10000 2.06 260 08:18 25.10.2022
1295 Clouds 3 1001 70 10000 3.6 290 07:54 25.10.2022
1296 Clouds 3 1000 81 10000 9.26 230 06:54 25.10.2022
1297 Rain 4 997 75 10000 12.86 240 03:38 25.10.2022
1298 Clouds 10 994 40 10000 5.14 320 00:33 25.10.2022
1299 Clouds 10 995 37 10000 3.09 0 22:29 24.10.2022
1300 Clouds 10 995 37 10000 3.6 330 21:50 24.10.2022
1301 Clouds 10 995 37 10000 3.6 330 21:32 24.10.2022
1302 Clouds 10 995 34 10000 3.09 260 20:41 24.10.2022
1303 Clouds 8 996 61 10000 2.57 210 18:52 24.10.2022
1304 Clouds 7 997 65 10000 5.14 230 16:59 24.10.2022
1305 Clouds 7 997 65 10000 5.14 230 16:20 24.10.2022
1306 Clouds 7 996 65 10000 4.12 240 14:21 24.10.2022
1307 Clouds 5 996 70 10000 7.2 240 12:59 24.10.2022
1308 Clear 6 995 65 10000 4.63 260 10:27 24.10.2022
1309 Clear 5 994 87 10000 2.06 330 07:56 24.10.2022
1310 Rain 9 990 71 10000 6.69 240 23:46 23.10.2022
1311 Rain 12 990 32 10000 5.66 240 20:42 23.10.2022
1312 Rain 12 989 32 2500 13.38 250 19:34 23.10.2022
1313 Clouds 10 988 66 10000 3.09 130 17:30 23.10.2022
1314 Clouds 10 988 62 10000 2.57 130 16:41 23.10.2022
1315 Clouds 9 989 61 10000 2.06 190 15:19 23.10.2022
1316 Clouds 7 989 76 10000 1.03 0 12:31 23.10.2022
1317 Clouds 7 990 76 10000 1.54 190 10:58 23.10.2022
1318 Clouds 6 992 87 10000 1.54 170 06:59 23.10.2022
1319 Clouds 8 994 76 10000 2.57 210 23:35 22.10.2022
1320 Clouds 9 994 66 10000 2.57 210 22:30 22.10.2022
1321 Rain 9 994 66 10000 5.14 230 21:41 22.10.2022
1322 Rain 9 994 76 10000 5.14 240 20:30 22.10.2022
1323 Rain 8 994 76 10000 7.2 240 19:31 22.10.2022
1324 Clouds 9 994 66 10000 6.17 240 18:45 22.10.2022
1325 Drizzle 8 993 76 10000 6.69 220 17:27 22.10.2022
1326 Rain 9 993 66 10000 6.17 230 15:26 22.10.2022
1327 Drizzle 10 992 53 10000 5.14 250 14:36 22.10.2022
1328 Drizzle 9 991 53 10000 3.6 290 12:35 22.10.2022
1329 Clear 9 991 49 10000 3.09 290 09:49 22.10.2022
1330 Clouds 8 991 53 10000 3.6 300 08:51 22.10.2022
1331 Clouds 8 992 49 10000 5.14 310 06:30 22.10.2022
1332 Clouds 9 995 46 10000 2.06 0 01:44 22.10.2022
1333 Clouds 13 995 30 10000 5.14 250 22:53 21.10.2022
1334 Clouds 12 995 32 10000 5.14 270 21:34 21.10.2022
1335 Clouds 12 996 32 10000 5.66 0 20:49 21.10.2022
1336 Clouds 10 997 50 10000 11.32 230 18:32 21.10.2022
1337 Clouds 7 998 57 10000 4.12 330 14:47 21.10.2022
1338 Clouds 7 998 57 10000 8.75 240 13:53 21.10.2022
1339 Clouds 6 999 56 10000 6.17 220 11:56 21.10.2022
1340 Clouds 5 998 60 10000 5.66 360 10:27 21.10.2022
1341 Clouds 4 999 65 10000 3.09 290 09:37 21.10.2022
1342 Clouds 5 1000 60 10000 7.2 230 08:26 21.10.2022
1343 Clear 4 1001 60 10000 4.12 50 05:57 21.10.2022
1344 Clouds 6 1002 70 10000 13.38 240 23:59 20.10.2022
1345 Drizzle 6 1001 65 10000 12.35 240 21:50 20.10.2022
1346 Rain 6 1000 61 10000 9.26 240 20:18 20.10.2022
1347 Clouds 5 1001 65 10000 11.32 230 19:30 20.10.2022
1348 Clouds 5 1000 60 10000 6.17 250 17:51 20.10.2022
1349 Snow 3 999 87 8000 9.26 240 15:46 20.10.2022
1350 Snow 2 997 80 800 4.12 270 12:36 20.10.2022
1351 Clouds 1 996 86 10000 2.57 280 12:18 20.10.2022
1352 Clouds 2 994 80 10000 7.2 240 10:56 20.10.2022
1353 Clouds 2 994 75 10000 7.2 240 10:24 20.10.2022
1354 Clouds 2 993 87 10000 7.72 220 07:44 20.10.2022
1355 Clouds 3 992 81 10000 8.75 230 03:31 20.10.2022
1356 Clouds 6 990 70 10000 10.29 240 00:20 20.10.2022
1357 Rain 7 989 76 10000 8.75 230 22:35 19.10.2022
1358 Rain 10 989 50 10000 7.72 260 21:48 19.10.2022
1359 Clouds 12 989 37 10000 7.72 300 20:40 19.10.2022
1360 Clouds 11 991 40 10000 7.2 300 17:55 19.10.2022
1361 Clouds 9 991 46 10000 5.66 310 16:58 19.10.2022
1362 Clouds 8 993 53 10000 1.54 0 14:46 19.10.2022
1363 Clouds 6 994 56 10000 3.09 330 12:45 19.10.2022
1364 Clear 4 996 65 10000 1.03 230 09:26 19.10.2022
1365 Clear 4 996 81 10000 2.57 10 07:51 19.10.2022
1366 Clouds 6 997 61 10000 3.09 280 03:44 19.10.2022
1367 Clouds 8 995 61 10000 10.8 240 00:21 19.10.2022
1368 Clouds 9 994 57 10000 11.83 240 22:46 18.10.2022
1369 Clouds 9 993 71 10000 11.83 250 21:36 18.10.2022
1370 Rain 8 992 87 10000 11.83 250 20:35 18.10.2022
1371 Rain 9 991 87 10000 11.83 240 19:27 18.10.2022
1372 Clouds 9 991 81 10000 3.09 230 17:20 18.10.2022
1373 Drizzle 8 991 87 10000 3.6 220 16:19 18.10.2022
1374 Drizzle 6 994 93 10000 4.12 250 13:57 18.10.2022
1375 Drizzle 6 994 93 10000 3.09 260 12:21 18.10.2022
1376 Clouds 5 995 93 10000 1.03 0 11:19 18.10.2022
1377 Clouds 4 998 93 10000 2.06 270 09:27 18.10.2022
1378 Clear 5 1000 93 10000 1.54 70 07:20 18.10.2022
1379 Clouds 9 1003 71 10000 9.26 240 00:49 18.10.2022
1380 Clouds 11 1002 58 10000 10.29 240 21:50 17.10.2022
1381 Clouds 12 1002 58 10000 13.38 240 20:50 17.10.2022
1382 Clouds 12 1002 58 10000 13.38 240 20:30 17.10.2022
1383 Clear 13 1001 50 10000 10.29 230 19:50 17.10.2022
1384 Clear 14 1002 41 10000 4.12 170 18:42 17.10.2022
1385 Clear 13 1002 30 10000 0.51 0 16:38 17.10.2022
1386 Clear 11 1003 43 10000 5.14 120 15:29 17.10.2022
1387 Clear 11 1003 43 10000 5.14 120 15:29 17.10.2022
1388 Clear 10 1004 43 10000 2.57 120 13:59 17.10.2022
1389 Clear 7 1006 61 10000 0 0 10:29 17.10.2022
1390 Clear 7 1013 61 10000 0.51 0 03:58 17.10.2022
1391 Clear 10 1015 50 10000 3.09 70 23:25 16.10.2022
1392 Clear 10 1017 40 10000 2.06 340 21:47 16.10.2022
1393 Clear 10 1017 40 10000 2.06 350 20:41 16.10.2022
1394 Clear 10 1016 40 10000 3.6 230 19:46 16.10.2022
1395 Clear 9 1017 49 10000 6.17 240 17:51 16.10.2022
1396 Clear 8 1018 53 10000 5.66 240 16:33 16.10.2022
1397 Clear 9 1018 46 10000 5.66 240 15:57 16.10.2022
1398 Clear 8 1018 46 10000 2.06 340 14:26 16.10.2022
1399 Clear 4 1018 56 10000 3.09 310 12:21 16.10.2022
1400 Clear 6 1017 56 10000 9.26 250 10:27 16.10.2022
1401 Clear 6 1017 45 10000 7.2 250 08:36 16.10.2022
1402 Clear 9 1017 40 10000 8.23 240 01:26 16.10.2022
1403 Clear 11 1015 35 10000 9.77 240 22:43 15.10.2022
1404 Clear 10 1015 40 10000 11.83 230 21:25 15.10.2022
1405 Clear 10 1015 37 10000 12.35 230 20:43 15.10.2022
1406 Clear 9 1014 49 10000 11.32 230 18:44 15.10.2022
1407 Clouds 7 1013 57 10000 13.38 230 15:49 15.10.2022
1408 Clear 6 1013 64 10000 2.73 242 14:39 15.10.2022
1409 Clouds 5 1006 81 10000 9.77 250 11:58 15.10.2022
1410 Rain 5 1005 87 5000 12.86 240 10:47 15.10.2022
1411 Rain 7 999 81 10000 13.89 240 08:54 15.10.2022
1412 Clouds 13 996 50 10000 8.23 310 02:42 15.10.2022
1413 Clouds 13 998 50 10000 8.23 330 23:58 14.10.2022
1414 Clouds 11 1001 62 10000 4.12 150 22:23 14.10.2022
1415 Drizzle 12 1002 54 10000 3.09 140 21:30 14.10.2022
1416 Drizzle 11 1003 58 10000 2.06 170 20:18 14.10.2022
1417 Clouds 11 1004 58 10000 7.72 240 16:49 14.10.2022
1418 Clouds 9 1003 61 10000 9.26 240 13:52 14.10.2022
1419 Clouds 7 1003 65 10000 3.6 250 12:19 14.10.2022
1420 Clouds 7 1003 65 10000 3.6 250 12:19 14.10.2022
1421 Clouds 7 1002 70 10000 3.6 120 09:40 14.10.2022
1422 Clouds 6 1002 75 10000 2.57 120 07:47 14.10.2022
1423 Clouds 6 1003 70 10000 2.06 210 06:18 14.10.2022
1424 Clouds 6 1003 70 10000 1.54 90 05:42 14.10.2022
1425 Clouds 5 1004 65 10000 1.03 0 04:42 14.10.2022
1426 Clouds 8 1006 53 10000 1.03 0 00:41 14.10.2022
1427 Clouds 7 1007 61 10000 6.69 250 22:31 13.10.2022
1428 Clouds 7 1007 57 10000 6.17 250 21:26 13.10.2022
1429 Clouds 7 1007 61 10000 9.26 240 20:18 13.10.2022
1430 Clouds 6 1006 70 10000 9.77 240 19:37 13.10.2022
1431 Clouds 7 1007 65 10000 9.77 240 18:43 13.10.2022
1432 Clouds 7 1007 65 10000 9.26 250 17:20 13.10.2022
1433 Clouds 5 1006 81 10000 10.8 240 15:48 13.10.2022
1434 Clouds 4 1006 81 10000 11.32 240 14:25 13.10.2022
1435 Clouds 2 1004 87 10000 12.86 240 12:50 13.10.2022
1436 Drizzle 2 1004 93 9000 11.83 240 11:36 13.10.2022
1437 Clouds 2 1003 80 10000 11.83 250 09:40 13.10.2022
1438 Rain 2 1002 87 9000 12.35 250 08:32 13.10.2022
1439 Rain 2 1002 80 9000 10.8 240 07:35 13.10.2022
1440 Snow 1 998 100 1200 12.86 240 01:53 13.10.2022
1441 Snow 2 997 93 8000 12.86 240 00:57 13.10.2022
1442 Snow 3 992 87 3000 12.35 240 22:47 12.10.2022
1443 Snow 3 992 87 3000 12.35 240 22:28 12.10.2022
1444 Clouds 2 990 93 1500 11.32 250 21:22 12.10.2022
1445 Rain 2 989 93 2500 7.72 250 20:52 12.10.2022
1446 Snow 2 987 93 1500 9.77 240 19:38 12.10.2022
1447 Rain 3 985 87 10000 9.26 240 18:26 12.10.2022
1448 Snow 3 984 93 8000 9.26 240 17:47 12.10.2022
1449 Snow 1 981 93 8000 1.54 250 15:45 12.10.2022
1450 Snow 1 980 93 2000 3.09 240 13:57 12.10.2022
1451 Snow 1 979 93 8000 3.09 270 13:22 12.10.2022
1452 Clouds 1 977 93 10000 0.51 0 09:45 12.10.2022
1453 Clouds 2 979 93 8000 8.23 220 07:59 12.10.2022
1454 Clouds 2 979 93 8000 8.23 220 07:39 12.10.2022
1455 Clouds 3 979 81 10000 6.17 220 06:43 12.10.2022
1456 Rain 4 981 87 10000 5.14 230 00:59 12.10.2022
1457 Clouds 11 981 37 10000 4.63 310 22:39 11.10.2022
1458 Clouds 11 983 40 10000 6.69 310 20:54 11.10.2022
1459 Clouds 11 984 40 10000 7.72 310 19:43 11.10.2022
1460 Clouds 10 988 46 10000 5.14 340 16:50 11.10.2022
1461 Clouds 10 991 43 10000 5.66 310 14:48 11.10.2022
1462 Clouds 9 992 46 10000 6.17 310 13:23 11.10.2022
1463 Clouds 8 995 49 10000 4.12 40 10:29 11.10.2022
1464 Clouds 8 995 46 10000 5.66 310 09:36 11.10.2022
1465 Clouds 4 998 81 10000 1.03 0 07:53 11.10.2022
1466 Clouds 6 999 61 10000 6.69 250 02:35 11.10.2022
1467 Clouds 7 997 65 10000 8.75 240 00:33 11.10.2022
1468 Clouds 8 993 66 10000 9.26 230 21:40 10.10.2022
1469 Clouds 11 992 50 10000 7.72 230 20:30 10.10.2022
1470 Clouds 10 989 57 10000 8.75 230 18:44 10.10.2022
1471 Rain 9 989 61 10000 7.72 230 17:24 10.10.2022
1472 Clouds 10 989 66 10000 3.09 210 16:20 10.10.2022
1473 Drizzle 10 986 53 10000 6.17 310 13:31 10.10.2022
1474 Clouds 10 985 53 10000 6.69 320 12:22 10.10.2022
1475 Clouds 8 985 71 10000 2.06 150 09:23 10.10.2022
1476 Rain 6 987 87 10000 1.54 110 05:52 10.10.2022
1477 Rain 6 987 87 10000 1.54 110 05:27 10.10.2022
1478 Clouds 7 988 81 10000 4.63 230 00:41 10.10.2022
1479 Rain 7 988 81 10000 6.69 230 23:36 09.10.2022
1480 Rain 8 988 71 10000 8.23 230 22:24 09.10.2022
1481 Rain 9 988 66 10000 9.26 230 21:26 09.10.2022
1482 Clouds 9 988 66 10000 9.26 230 20:35 09.10.2022
1483 Rain 9 988 66 10000 10.29 230 19:47 09.10.2022
1484 Clouds 10 988 62 10000 11.32 230 18:48 09.10.2022
1485 Clouds 11 987 50 10000 12.35 240 17:39 09.10.2022
1486 Clouds 10 986 57 10000 13.38 240 16:44 09.10.2022
1487 Clouds 10 986 57 10000 13.38 240 16:19 09.10.2022
1488 Clouds 10 984 57 10000 12.35 240 14:49 09.10.2022
1489 Clouds 10 984 57 10000 12.35 240 14:26 09.10.2022
1490 Clouds 8 983 66 10000 8.75 230 12:48 09.10.2022
1491 Clouds 9 983 61 10000 7.2 270 11:22 09.10.2022
1492 Clouds 9 982 53 10000 3.09 290 08:32 09.10.2022
1493 Clouds 8 986 61 10000 3.6 0 05:44 09.10.2022
1494 Clouds 8 990 61 10000 1.54 90 03:22 09.10.2022
1495 Clouds 8 994 71 10000 2.57 230 00:42 09.10.2022
1496 Clouds 9 995 66 10000 5.14 240 23:33 08.10.2022
1497 Clouds 9 995 66 10000 5.14 240 23:33 08.10.2022
1498 Clouds 9 995 61 10000 7.72 240 22:38 08.10.2022
1499 Clouds 9 996 66 10000 5.14 230 20:37 08.10.2022
1500 Drizzle 8 996 76 10000 5.14 220 19:37 08.10.2022
1501 Drizzle 7 996 70 10000 3.09 250 17:44 08.10.2022
1502 Drizzle 6 996 75 10000 3.09 290 15:36 08.10.2022
1503 Drizzle 4 996 81 10000 1.54 330 13:53 08.10.2022
1504 Drizzle 3 996 87 10000 1.54 320 12:20 08.10.2022
1505 Drizzle 2 996 93 10000 3.09 300 10:35 08.10.2022
1506 Drizzle 3 996 87 10000 2.57 260 09:35 08.10.2022
1507 Drizzle 3 996 87 10000 3.09 340 07:25 08.10.2022
1508 Rain 2 997 93 8000 7.72 240 02:41 08.10.2022
1509 Clouds 5 996 65 10000 10.8 230 23:52 07.10.2022
1510 Clouds 5 996 65 10000 10.8 230 23:20 07.10.2022
1511 Clouds 5 995 70 10000 11.83 220 22:19 07.10.2022
1512 Clouds 6 995 70 10000 11.32 220 20:35 07.10.2022
1513 Clouds 7 993 61 10000 11.83 250 18:29 07.10.2022
1514 Clouds 5 993 81 10000 10.29 250 16:58 07.10.2022
1515 Clouds 4 992 87 10000 8.75 240 15:47 07.10.2022
1516 Drizzle 4 992 81 10000 7.72 240 14:23 07.10.2022
1517 Clouds 5 989 81 10000 1.54 180 11:42 07.10.2022
1518 Clouds 5 990 81 10000 2.06 120 09:25 07.10.2022
1519 Clouds 6 990 75 10000 1.54 180 08:29 07.10.2022
1520 Clouds 5 992 70 10000 1.03 0 05:51 07.10.2022
1521 Clouds 7 995 65 10000 1.03 0 00:28 07.10.2022
1522 Clouds 8 995 53 10000 2.57 220 22:50 06.10.2022
1523 Clouds 8 995 57 10000 2.57 190 21:42 06.10.2022
1524 Clouds 8 996 53 10000 2.06 170 20:54 06.10.2022
1525 Clouds 8 996 61 10000 2.06 160 19:46 06.10.2022
1526 Clouds 7 996 57 10000 3.6 220 18:37 06.10.2022
1527 Clouds 7 997 65 10000 5.14 250 16:58 06.10.2022
1528 Clear 4 997 81 10000 3.09 10 14:19 06.10.2022
1529 Clouds 2 996 87 10000 4.63 270 11:24 06.10.2022
1530 Rain 4 993 87 10000 8.23 250 05:47 06.10.2022
1531 Drizzle 5 992 87 8000 12.86 240 03:24 06.10.2022
1532 Clouds 10 991 46 10000 5.14 340 22:55 05.10.2022
1533 Clouds 10 992 46 10000 4.12 340 19:57 05.10.2022
1534 Clouds 9 993 53 10000 1.54 150 17:58 05.10.2022
1535 Clouds 9 993 53 10000 1.54 150 17:33 05.10.2022
1536 Clouds 7 994 76 10000 1.54 110 15:54 05.10.2022
1537 Clouds 6 994 81 10000 2.06 150 14:46 05.10.2022
1538 Clear 6 994 81 10000 2.57 100 13:52 05.10.2022
1539 Clouds 6 994 81 10000 2.57 360 12:19 05.10.2022
1540 Clouds 7 993 76 10000 7.2 240 08:49 05.10.2022
1541 Clear 6 993 87 10000 5.14 260 07:29 05.10.2022
1542 Clouds 7 992 76 10000 4.63 260 05:35 05.10.2022
1543 Rain 7 991 87 8000 5.14 250 02:42 05.10.2022
1544 Clouds 11 990 54 10000 4.63 230 00:41 05.10.2022
1545 Clouds 11 990 54 10000 4.63 230 00:23 05.10.2022
1546 Clouds 14 990 44 10000 3.6 240 21:59 04.10.2022
1547 Clouds 13 990 41 10000 3.09 30 20:29 04.10.2022
1548 Rain 11 992 54 10000 2.57 70 18:57 04.10.2022
1549 Clear 11 992 54 10000 2.57 70 18:35 04.10.2022
1550 Clear 9 993 66 10000 1.03 0 17:43 04.10.2022
1551 Clear 7 994 76 10000 1.03 0 16:28 04.10.2022
1552 Clear 5 996 93 10000 1.03 60 12:41 04.10.2022
1553 Clear 6 998 75 10000 1.03 70 08:52 04.10.2022
1554 Clear 5 999 75 10000 0.51 0 06:28 04.10.2022
1555 Clear 8 1000 66 10000 1.03 0 01:44 04.10.2022
1556 Clouds 9 1000 57 10000 1.03 0 23:40 03.10.2022
1557 Clouds 9 1002 61 10000 1.54 50 21:52 03.10.2022
1558 Clear 9 1002 57 10000 1.03 0 20:55 03.10.2022
1559 Clear 9 1003 61 10000 1.54 70 19:34 03.10.2022
1560 Clear 7 1005 70 10000 1.54 110 17:53 03.10.2022
1561 Clear 6 1005 75 10000 1.03 0 16:43 03.10.2022
1562 Clear 5 1006 81 10000 0.51 0 15:27 03.10.2022
1563 Clear 4 1007 81 10000 1.03 0 13:44 03.10.2022
1564 Clear 3 1007 81 10000 1.03 0 12:22 03.10.2022
1565 Clear 4 1008 70 10000 2.06 50 10:38 03.10.2022
1566 Clear 4 1009 70 10000 0 0 09:35 03.10.2022
1567 Clear 5 1013 75 10000 1.03 0 05:34 03.10.2022
1568 Clear 6 1015 75 10000 4.12 100 02:36 03.10.2022
1569 Clear 10 1017 40 10000 1.54 80 22:24 02.10.2022
1570 Clear 9 1018 43 10000 1.54 80 20:42 02.10.2022
1571 Clear 7 1020 61 10000 2.57 210 18:31 02.10.2022
1572 Clear 7 1020 53 10000 2.06 160 17:38 02.10.2022
1573 Clear 6 1021 49 10000 1.03 0 16:33 02.10.2022
1574 Clear 6 1021 52 10000 1.54 10 15:41 02.10.2022
1575 Clear 3 1021 65 10000 3.09 360 13:51 02.10.2022
1576 Clear 1 1021 80 10000 3.09 340 12:52 02.10.2022
1577 Clear 1 1021 80 10000 3.09 340 12:28 02.10.2022
1578 Clear 2 1021 69 10000 3.09 350 11:37 02.10.2022
1579 Clear 1 1021 69 10000 3.6 310 10:37 02.10.2022
1580 Clear 3 1021 65 10000 2.57 290 09:27 02.10.2022
1581 Clear 4 1022 60 10000 4.12 290 07:30 02.10.2022
1582 Clouds 6 1019 56 10000 10.8 240 02:55 02.10.2022
1583 Clouds 7 1018 53 10000 11.83 240 00:46 02.10.2022
1584 Clouds 7 1018 53 10000 11.83 240 00:20 02.10.2022
1585 Clouds 8 1016 53 10000 12.86 230 22:37 01.10.2022
1586 Clouds 7 1016 61 10000 11.83 240 20:34 01.10.2022
1587 Clouds 8 1015 57 10000 11.83 230 18:40 01.10.2022
1588 Clouds 3 1013 87 10000 12.86 240 16:36 01.10.2022
1589 Clouds 3 1010 87 10000 13.38 240 14:35 01.10.2022
1590 Clouds 3 1008 81 10000 11.32 250 13:31 01.10.2022
1591 Drizzle 3 1007 81 8000 12.86 240 12:32 01.10.2022
1592 Rain 3 1006 95 9736 3.45 207 11:20 01.10.2022
1593 Rain 3 1006 95 9736 3.45 207 10:32 01.10.2022
1594 Clouds 2 1002 98 4025 1.88 278 09:28 01.10.2022
1595 Clouds 2 1002 98 4025 1.88 278 08:58 01.10.2022
1596 Clouds 8 1000 53 10000 1.54 0 04:27 01.10.2022
1597 Clouds 8 1001 53 10000 4.12 300 03:31 01.10.2022
1598 Clouds 9 1001 46 10000 5.14 330 00:18 01.10.2022
1599 Clouds 10 1002 40 10000 6.17 320 22:37 30.09.2022
1600 Clear 9 1002 40 10000 6.69 320 21:29 30.09.2022
1601 Clear 9 1002 40 10000 7.2 320 20:44 30.09.2022
1602 Clear 9 1002 40 10000 7.2 320 20:18 30.09.2022
1603 Clear 8 1003 46 10000 4.63 340 17:38 30.09.2022
1604 Clear 6 1004 61 10000 1.54 0 15:56 30.09.2022
1605 Clear 3 1004 75 10000 1.54 310 13:34 30.09.2022
1606 Clear 3 1005 81 10000 1.54 230 11:58 30.09.2022
1607 Clear 3 1005 81 10000 1.54 230 11:28 30.09.2022
1608 Clouds 1 1007 95 10000 2.65 333 08:37 30.09.2022
1609 Clouds 3 1006 97 10000 1.75 313 06:26 30.09.2022
1610 Clouds 6 1002 75 10000 8.75 230 02:42 30.09.2022
1611 Clouds 12 1000 35 10000 5.14 280 23:35 29.09.2022
1612 Clouds 13 999 41 10000 6.17 300 21:29 29.09.2022
1613 Clouds 13 999 35 10000 3.09 300 20:57 29.09.2022
1614 Clouds 12 1000 37 10000 4.63 280 18:45 29.09.2022
1615 Clouds 14 1001 35 10000 5.14 280 17:32 29.09.2022
1616 Clear 11 1001 40 10000 4.12 250 16:28 29.09.2022
1617 Clear 12 1001 37 10000 6.17 290 15:36 29.09.2022
1618 Clear 10 1002 43 10000 6.69 310 14:35 29.09.2022
1619 Clear 9 1003 49 10000 4.12 20 11:48 29.09.2022
1620 Clouds 3 1007 92 10000 2.89 345 07:26 29.09.2022
1621 Clouds 11 1004 54 10000 6.17 300 02:52 29.09.2022
1622 Clouds 13 1003 44 10000 7.2 310 00:28 29.09.2022
1623 Clouds 14 1002 44 10000 8.75 300 23:19 28.09.2022
1624 Clouds 15 1002 38 10000 3.6 360 21:30 28.09.2022
1625 Clouds 13 1002 47 10000 3.6 0 20:31 28.09.2022
1626 Clouds 12 1003 47 10000 4.12 20 18:42 28.09.2022
1627 Clear 8 1004 66 10000 1.03 0 15:34 28.09.2022
1628 Clear 5 1005 81 10000 2.06 270 13:28 28.09.2022
1629 Clear 6 1006 70 10000 2.06 90 11:23 28.09.2022
1630 Clear 7 1006 65 10000 1.03 0 09:25 28.09.2022
1631 Clouds 4 1008 96 10000 2.76 342 07:40 28.09.2022
1632 Clouds 8 1006 66 10000 2.06 0 04:41 28.09.2022
1633 Clouds 7 1005 76 10000 12.35 230 01:38 28.09.2022
1634 Rain 7 1003 76 10000 13.38 230 23:30 27.09.2022
1635 Clouds 9 1001 66 10000 15.95 230 21:55 27.09.2022
1636 Clouds 9 998 66 10000 18.01 230 20:49 27.09.2022
1637 Clouds 9 998 66 10000 18.01 230 20:19 27.09.2022
1638 Clouds 9 998 71 10000 16.98 230 19:36 27.09.2022
1639 Rain 7 997 81 10000 12.86 230 17:46 27.09.2022
1640 Rain 8 996 76 10000 13.38 240 16:20 27.09.2022
1641 Rain 5 995 93 10000 10.29 230 14:59 27.09.2022
1642 Rain 5 994 87 10000 9.77 240 13:32 27.09.2022
1643 Rain 5 993 87 10000 9.26 230 12:23 27.09.2022
1644 Clouds 4 991 70 10000 1.03 0 09:49 27.09.2022
1645 Clouds 0 993 92 10000 2.79 334 07:41 27.09.2022
1646 Clouds 5 992 70 10000 9.77 240 03:51 27.09.2022
1647 Clouds 5 991 75 10000 10.8 240 01:36 27.09.2022
1648 Drizzle 5 989 81 10000 13.38 230 23:45 26.09.2022
1649 Drizzle 5 989 81 10000 13.38 230 23:21 26.09.2022
1650 Drizzle 6 986 81 10000 11.32 240 20:58 26.09.2022
1651 Drizzle 6 985 75 10000 11.32 230 19:42 26.09.2022
1652 Drizzle 6 984 75 10000 11.83 230 18:39 26.09.2022
1653 Clouds 6 982 75 10000 9.77 230 17:24 26.09.2022
1654 Clouds 5 981 87 10000 1.03 20 14:57 26.09.2022
1655 Drizzle 5 981 81 10000 3.09 240 12:30 26.09.2022
1656 Clouds 6 981 75 10000 0.51 0 10:42 26.09.2022
1657 Clouds 6 981 75 10000 0.51 0 10:22 26.09.2022
1658 Clouds 6 981 75 10000 2.06 300 09:56 26.09.2022
1659 Rain 6 981 75 10000 2.06 300 09:27 26.09.2022
1660 Rain 3 984 95 10000 3.5 355 08:59 26.09.2022
1661 Clouds 8 986 61 10000 1.54 0 05:30 26.09.2022
1662 Clouds 8 991 53 10000 3.6 40 01:57 26.09.2022
1663 Clouds 9 992 46 10000 4.63 320 23:23 25.09.2022
1664 Clouds 10 993 46 10000 6.17 300 21:44 25.09.2022
1665 Clouds 9 994 49 10000 5.66 330 20:57 25.09.2022
1666 Clouds 9 994 49 10000 5.66 330 20:33 25.09.2022
1667 Clouds 9 995 49 10000 4.63 10 18:44 25.09.2022
1668 Clouds 10 995 46 10000 6.17 280 18:24 25.09.2022
1669 Clouds 5 996 70 10000 3.6 50 17:22 25.09.2022
1670 Clouds 6 997 56 10000 5.14 50 15:50 25.09.2022
1671 Clouds 6 998 52 10000 7.2 40 14:35 25.09.2022
1672 Clouds 5 998 60 10000 7.72 30 13:45 25.09.2022
1673 Clear 5 1001 52 10000 5.66 10 10:37 25.09.2022
1674 Clear 6 1001 49 10000 6.17 330 09:37 25.09.2022
1675 Clouds 0 1005 91 10000 2.74 360 06:53 25.09.2022
1676 Clouds 3 1005 65 10000 0.51 0 04:28 25.09.2022
1677 Clouds 5 1005 70 10000 7.72 230 23:36 24.09.2022
1678 Rain 6 1004 65 10000 6.69 230 21:19 24.09.2022
1679 Clouds 5 1003 70 10000 9.26 240 19:33 24.09.2022
1680 Clouds 5 1003 75 10000 9.26 240 18:44 24.09.2022
1681 Clouds 4 1002 75 10000 5.14 220 16:43 24.09.2022
1682 Clouds 4 1001 75 10000 7.72 240 15:23 24.09.2022
1683 Clouds 3 1000 87 10000 8.23 250 14:27 24.09.2022
1684 Rain 3 997 87 10000 9.26 250 12:59 24.09.2022
1685 Rain 3 997 87 10000 9.26 250 12:22 24.09.2022
1686 Clouds 7 994 61 10000 4.63 250 09:58 24.09.2022
1687 Clouds 1 996 93 10000 2.36 3 08:51 24.09.2022
1688 Fog -2 988 93 200 13.89 340 07:40 24.09.2022
1689 Clouds 7 996 65 10000 2.57 270 04:52 24.09.2022
1690 Clouds 9 996 53 10000 4.63 30 03:48 24.09.2022
1691 Clouds 11 997 43 10000 6.69 330 22:54 23.09.2022
1692 Clouds 12 997 40 10000 4.63 330 21:33 23.09.2022
1693 Clouds 12 998 37 10000 5.14 340 20:57 23.09.2022
1694 Clouds 12 998 37 10000 5.14 340 20:26 23.09.2022
1695 Clouds 12 998 40 10000 6.17 320 19:19 23.09.2022
1696 Clear 10 1000 43 10000 4.12 350 15:31 23.09.2022
1697 Clouds 8 1002 53 10000 1.54 0 11:47 23.09.2022
1698 Clouds 9 1002 49 10000 2.57 0 09:36 23.09.2022
1699 Clouds 7 1004 53 10000 3.6 10 06:51 23.09.2022
1700 Clouds 9 1004 46 10000 4.12 10 00:42 23.09.2022
1701 Clouds 10 1004 40 10000 7.2 330 23:23 22.09.2022
1702 Clouds 10 1003 40 10000 5.66 330 22:27 22.09.2022
1703 Clouds 11 1003 32 10000 5.14 280 21:23 22.09.2022
1704 Clouds 12 1001 35 10000 5.66 310 19:58 22.09.2022
1705 Clouds 13 1001 38 10000 6.17 330 17:41 22.09.2022
1706 Clouds 8 999 57 10000 3.09 10 13:38 22.09.2022
1707 Clouds 9 998 57 10000 3.09 30 10:37 22.09.2022
1708 Clouds 9 998 57 10000 3.09 30 10:18 22.09.2022
1709 Clouds 8 998 66 10000 3.09 30 07:36 22.09.2022
1710 Clouds 9 998 57 10000 6.17 20 04:37 22.09.2022
1711 Clouds 10 1001 50 10000 6.17 10 23:46 21.09.2022
1712 Clouds 9 1003 57 10000 5.14 20 22:26 21.09.2022
1713 Clouds 10 1006 53 10000 4.63 350 20:54 21.09.2022
1714 Clouds 10 1008 50 10000 5.14 10 18:30 21.09.2022
1715 Clouds 10 1009 46 10000 6.17 360 17:22 21.09.2022
1716 Clouds 8 1011 57 10000 7.2 30 15:29 21.09.2022
1717 Clouds 7 1012 57 10000 2.06 0 13:39 21.09.2022
1718 Clouds 6 1013 65 10000 6.69 30 11:34 21.09.2022
1719 Clouds 7 1013 61 10000 5.14 360 10:50 21.09.2022
1720 Clear 7 1014 61 10000 5.14 10 09:38 21.09.2022
1721 Clear 7 1014 61 10000 5.14 10 08:23 21.09.2022
1722 Clouds 7 1018 65 10000 4.63 10 02:54 21.09.2022
1723 Clouds 7 1018 65 10000 4.63 10 02:34 21.09.2022
1724 Clouds 9 1019 49 10000 3.09 330 01:50 21.09.2022
1725 Clouds 9 1019 43 10000 4.12 360 23:58 20.09.2022
1726 Clear 9 1020 49 10000 4.63 360 21:40 20.09.2022
1727 Clear 9 1021 43 10000 4.63 360 20:26 20.09.2022
1728 Clear 12 1021 22 10000 4.12 10 17:53 20.09.2022
1729 Clear 8 1022 36 10000 3.6 150 15:18 20.09.2022
1730 Clear 5 1022 48 10000 0.51 0 13:59 20.09.2022
1731 Clear 6 1022 52 10000 1.54 270 11:28 20.09.2022
1732 Clear 4 1024 81 10000 1.03 0 08:30 20.09.2022
1733 Clear 3 1024 81 10000 1.54 230 07:32 20.09.2022
1734 Clear 7 1024 45 10000 2.06 100 04:33 20.09.2022
1735 Clear 8 1024 42 10000 1.03 0 01:29 20.09.2022
1736 Clear 11 1024 40 10000 2.06 70 22:41 19.09.2022
1737 Clear 9 1025 53 10000 2.06 90 21:28 19.09.2022
1738 Clear 8 1025 53 10000 1.03 0 20:39 19.09.2022
1739 Clear 6 1026 65 10000 1.54 80 18:43 19.09.2022
1740 Clear 6 1026 65 10000 1.54 80 18:43 19.09.2022
1741 Clear 4 1027 75 10000 1.03 0 16:37 19.09.2022
1742 Clear 0 1027 86 10000 1.03 360 13:47 19.09.2022
1743 Clear 0 1027 86 10000 1.54 290 11:57 19.09.2022
1744 Clear 1 1028 80 10000 2.06 360 09:38 19.09.2022
1745 Clear 1 1028 80 10000 1.03 0 08:20 19.09.2022
1746 Clear 4 1029 65 10000 2.57 350 03:28 19.09.2022
1747 Clear 6 1028 65 10000 4.12 250 00:44 19.09.2022
1748 Clear 7 1028 65 10000 6.17 240 22:32 18.09.2022
1749 Clear 8 1028 61 10000 4.63 220 20:47 18.09.2022
1750 Clear 8 1028 57 10000 5.14 220 19:33 18.09.2022
1751 Clear 8 1028 49 10000 4.63 230 17:51 18.09.2022
1752 Clear 7 1028 57 10000 7.2 250 16:46 18.09.2022
1753 Clear 3 1028 75 10000 3.6 350 14:44 18.09.2022
1754 Clear 3 1028 65 10000 2.57 290 13:34 18.09.2022
1755 Clouds 3 1027 70 10000 3.6 280 11:55 18.09.2022
1756 Clouds 4 1025 75 10000 6.69 250 07:46 18.09.2022
1757 Clouds 5 1022 75 10000 11.83 240 01:41 18.09.2022
1758 Clouds 5 1022 75 10000 11.83 240 01:19 18.09.2022
1759 Clouds 5 1019 70 10000 11.83 230 22:56 17.09.2022
1760 Clouds 7 1018 65 10000 11.83 240 20:53 17.09.2022
1761 Clouds 5 1018 70 10000 11.83 230 19:37 17.09.2022
1762 Clouds 5 1016 70 10000 14.92 230 17:44 17.09.2022
1763 Drizzle 3 1013 75 10000 12.86 240 14:22 17.09.2022
1764 Drizzle 2 1010 87 10000 11.83 250 12:46 17.09.2022
1765 Drizzle 2 1006 87 10000 12.35 240 10:49 17.09.2022
1766 Clouds 5 1001 75 10000 6.69 220 06:53 17.09.2022
1767 Drizzle 5 1001 65 10000 1.03 0 05:49 17.09.2022
1768 Clouds 6 1000 52 10000 5.66 310 23:39 16.09.2022
1769 Clouds 6 1001 49 10000 3.09 330 21:57 16.09.2022
1770 Clouds 6 1001 49 10000 4.63 330 20:44 16.09.2022
1771 Clear 5 1002 45 10000 3.6 310 18:43 16.09.2022
1772 Clouds 4 1003 48 10000 2.57 170 16:22 16.09.2022
1773 Clear 0 1003 69 10000 1.54 270 14:51 16.09.2022
1774 Snow 1 1002 80 10000 5.14 250 12:52 16.09.2022
1775 Clouds 1 1000 69 10000 8.23 240 09:55 16.09.2022
1776 Clouds 1 999 75 10000 9.26 230 07:23 16.09.2022
1777 Clouds 1 998 75 10000 11.32 230 06:48 16.09.2022
1778 Clouds 2 998 75 10000 9.26 230 05:55 16.09.2022
1779 Clouds 3 994 81 10000 10.8 230 01:45 16.09.2022
1780 Clouds 6 990 61 10000 6.69 230 21:34 15.09.2022
1781 Clouds 7 990 61 10000 7.72 240 20:33 15.09.2022
1782 Clouds 8 990 42 10000 5.14 270 19:24 15.09.2022
1783 Clouds 7 989 45 10000 6.17 300 17:40 15.09.2022
1784 Clouds 7 989 45 10000 6.17 300 17:22 15.09.2022
1785 Clouds 7 989 42 10000 8.75 310 15:38 15.09.2022
1786 Clear 6 988 45 10000 6.69 300 12:50 15.09.2022
1787 Clear 6 988 45 10000 5.14 310 11:47 15.09.2022
1788 Clouds 7 988 45 10000 6.69 300 09:44 15.09.2022
1789 Clear 9 987 40 10000 5.66 310 06:45 15.09.2022
1790 Clouds 7 989 53 10000 5.14 30 03:29 15.09.2022
1791 Clouds 8 994 42 10000 4.12 360 22:51 14.09.2022
1792 Clouds 8 996 36 10000 4.63 340 20:30 14.09.2022
1793 Clear 8 997 34 10000 6.17 20 19:32 14.09.2022
1794 Clear 8 998 31 10000 2.06 0 17:37 14.09.2022
1795 Clear 7 999 39 10000 7.72 30 16:36 14.09.2022
1796 Clear 5 1001 48 10000 1.03 0 14:50 14.09.2022
1797 Clear 2 1001 69 10000 3.09 350 12:34 14.09.2022
1798 Clear 3 1001 70 10000 3.09 350 09:52 14.09.2022
1799 Clear 3 1000 75 10000 3.09 330 08:21 14.09.2022
1800 Clouds 5 998 65 10000 7.72 240 06:49 14.09.2022
1801 Clouds 5 998 65 10000 7.72 240 06:25 14.09.2022
1802 Clouds 6 992 81 10000 3.6 70 02:25 14.09.2022
1803 Clouds 6 991 75 10000 1.54 0 01:32 14.09.2022
1804 Rain 7 990 70 10000 2.06 270 00:52 14.09.2022
1805 Rain 7 990 70 10000 2.06 270 00:52 14.09.2022
1806 Rain 7 990 70 10000 4.63 340 23:54 13.09.2022
1807 Rain 7 990 70 10000 4.63 340 23:36 13.09.2022
1808 Rain 7 990 70 10000 4.63 340 23:18 13.09.2022
1809 Rain 7 991 70 10000 7.72 20 22:26 13.09.2022
1810 Clouds 9 994 57 10000 7.2 20 20:45 13.09.2022
1811 Clouds 8 998 61 10000 7.72 20 18:54 13.09.2022
1812 Clouds 8 1002 57 10000 6.69 20 16:34 13.09.2022
1813 Clear 8 1004 49 10000 5.14 30 15:18 13.09.2022
1814 Clouds 8 1006 49 10000 5.66 20 13:31 13.09.2022
1815 Clouds 5 1010 60 10000 4.12 40 10:20 13.09.2022
1816 Clouds 6 1013 56 10000 3.6 0 07:54 13.09.2022
1817 Clouds 5 1016 65 10000 2.57 350 02:20 13.09.2022
1818 Clouds 8 1015 53 10000 2.06 220 23:22 12.09.2022
1819 Clouds 8 1015 61 10000 2.06 220 22:37 12.09.2022
1820 Clouds 8 1016 49 10000 1.54 170 20:54 12.09.2022
1821 Clear 8 1016 53 10000 1.54 140 19:58 12.09.2022
1822 Clear 8 1016 53 10000 2.06 160 18:22 12.09.2022
1823 Clouds 6 1016 61 10000 3.09 360 15:48 12.09.2022
1824 Clear 3 1014 70 10000 4.12 360 12:26 12.09.2022
1825 Clear 3 1014 70 10000 3.6 360 10:30 12.09.2022
1826 Clear 6 1012 56 10000 2.57 260 07:33 12.09.2022
1827 Clouds 5 1010 75 10000 10.8 250 04:35 12.09.2022
1828 Clouds 6 1007 61 10000 10.29 230 01:53 12.09.2022
1829 Clouds 5 1004 70 10000 13.89 230 22:46 11.09.2022
1830 Clouds 7 1003 49 10000 9.26 230 21:25 11.09.2022
1831 Clouds 7 1002 53 10000 12.86 230 20:44 11.09.2022
1832 Clouds 6 1001 75 10000 10.29 240 19:39 11.09.2022
1833 Clouds 6 1001 75 10000 10.29 240 19:18 11.09.2022
1834 Clouds 10 997 46 10000 7.72 300 17:28 11.09.2022
1835 Clouds 8 998 46 10000 5.14 300 15:51 11.09.2022
1836 Clouds 7 999 42 10000 6.17 340 13:22 11.09.2022
1837 Clouds 6 1000 56 10000 2.57 0 11:25 11.09.2022
1838 Clouds 3 1002 70 10000 0.51 0 08:25 11.09.2022
1839 Clouds 3 1004 60 10000 2.06 240 05:30 11.09.2022
1840 Clear 7 1004 53 10000 4.63 250 00:23 11.09.2022
1841 Clouds 8 1003 49 10000 8.23 250 22:23 10.09.2022
1842 Clouds 8 1002 49 10000 11.32 240 20:34 10.09.2022
1843 Clouds 9 1002 49 10000 10.29 240 19:44 10.09.2022
1844 Clouds 9 1002 49 10000 10.29 240 19:25 10.09.2022
1845 Clouds 8 1001 53 10000 11.32 240 17:51 10.09.2022
1846 Clouds 6 1000 61 10000 10.8 230 15:37 10.09.2022
1847 Clouds 5 998 65 10000 11.32 240 13:55 10.09.2022
1848 Clouds 4 997 81 10000 10.29 240 12:52 10.09.2022
1849 Clouds 4 996 81 10000 5.66 220 10:34 10.09.2022
1850 Clouds 5 993 75 10000 2.06 300 08:42 10.09.2022
1851 Clouds 5 993 75 10000 2.06 300 08:22 10.09.2022
1852 Rain 5 995 93 10000 7.2 230 04:55 10.09.2022
1853 Clouds 10 995 50 10000 1.03 0 23:38 09.09.2022
1854 Clouds 10 996 50 10000 2.57 350 22:36 09.09.2022
1855 Clouds 12 996 35 10000 3.6 280 21:21 09.09.2022
1856 Clouds 11 996 50 10000 7.2 220 20:22 09.09.2022
1857 Clouds 9 996 66 10000 8.23 230 19:23 09.09.2022
1858 Clouds 9 996 66 10000 8.23 240 18:18 09.09.2022
1859 Clouds 9 996 53 10000 1.54 0 15:45 09.09.2022
1860 Clouds 6 996 70 10000 2.06 190 13:43 09.09.2022
1861 Clouds 7 995 65 10000 3.6 120 11:38 09.09.2022
1862 Clouds 5 996 75 10000 1.03 0 08:19 09.09.2022
1863 Clouds 5 1000 70 10000 1.54 350 03:43 09.09.2022
1864 Clouds 5 1000 75 10000 3.09 130 00:39 09.09.2022
1865 Clouds 5 1002 81 10000 1.54 200 21:52 08.09.2022
1866 Clouds 5 1003 70 10000 1.03 0 20:49 08.09.2022
1867 Clouds 5 1003 70 10000 1.03 0 20:29 08.09.2022
1868 Clouds 5 1004 65 10000 2.06 70 19:28 08.09.2022
1869 Clouds 3 1005 87 10000 2.57 70 17:35 08.09.2022
1870 Clouds 3 1006 81 10000 2.57 80 16:18 08.09.2022
1871 Clear 2 1007 69 10000 2.57 350 13:56 08.09.2022
1872 Clear 2 1007 75 10000 2.57 350 12:50 08.09.2022
1873 Clear 2 1007 75 10000 1.54 360 11:32 08.09.2022
1874 Clouds 1 1006 75 10000 1.54 280 09:58 08.09.2022
1875 Clouds 2 1006 75 10000 1.03 0 07:45 08.09.2022
1876 Clouds 2 1006 80 10000 0.51 0 05:30 08.09.2022
1877 Clouds 4 1006 65 10000 1.54 190 02:36 08.09.2022
1878 Clouds 4 1006 65 10000 1.54 190 02:18 08.09.2022
1879 Clouds 3 1006 70 10000 1.54 40 00:21 08.09.2022
1880 Clouds 4 1007 65 10000 1.54 200 22:19 07.09.2022
1881 Clouds 4 1007 60 10000 3.09 200 21:39 07.09.2022
1882 Clouds 4 1007 60 10000 1.03 150 20:31 07.09.2022
1883 Clouds 3 1007 70 10000 2.06 220 19:26 07.09.2022
1884 Clouds 4 1008 56 10000 0 0 17:22 07.09.2022
1885 Clouds 0 1007 74 10000 2.57 360 11:32 07.09.2022
1886 Clouds 0 1007 74 10000 2.57 290 10:45 07.09.2022
1887 Snow 0 1007 86 10000 4.63 250 08:33 07.09.2022
1888 Clouds 0 1006 74 10000 6.69 250 06:50 07.09.2022
1889 Snow -1 1004 86 1500 9.77 250 00:53 07.09.2022
1890 Snow -1 1004 74 10000 4.45 231 22:28 06.09.2022
1891 Snow -1 1004 74 10000 4.45 231 21:38 06.09.2022
1892 Snow 0 1000 80 1000 6.69 240 19:40 06.09.2022
1893 Snow -1 1000 93 8000 7.2 250 18:42 06.09.2022
1894 Snow 0 999 74 1200 8.23 250 17:51 06.09.2022
1895 Clouds 0 998 86 10000 5.66 240 16:53 06.09.2022
1896 Clouds 0 998 86 10000 5.66 240 16:26 06.09.2022
1897 Snow -1 997 86 10000 6.17 240 14:54 06.09.2022
1898 Snow -2 996 93 8000 6.69 270 13:44 06.09.2022
1899 Snow -2 996 93 8000 6.69 270 13:44 06.09.2022
1900 Snow -2 996 93 8000 6.69 270 13:20 06.09.2022
1901 Snow 0 993 93 4000 5.14 240 10:57 06.09.2022
1902 Snow 0 992 86 8000 3.6 250 09:56 06.09.2022
1903 Snow 0 991 80 8000 4.63 250 08:27 06.09.2022
1904 Snow 0 990 86 8000 4.12 250 06:58 06.09.2022
1905 Clouds 1 989 86 10000 6.17 260 01:23 06.09.2022
1906 Clouds 1 987 93 2000 11.32 230 23:19 05.09.2022
1907 Clouds 4 986 81 10000 7.72 230 21:50 05.09.2022
1908 Clouds 4 986 87 9000 10.29 230 20:32 05.09.2022
1909 Clouds 7 985 53 10000 6.69 240 18:59 05.09.2022
1910 Clouds 7 985 53 10000 6.69 240 18:38 05.09.2022
1911 Clouds 7 985 53 10000 6.69 240 18:19 05.09.2022
1912 Clouds 5 985 70 10000 6.17 240 16:25 05.09.2022
1913 Clouds 4 985 81 10000 12.35 240 15:23 05.09.2022
1914 Clear 9 982 37 10000 7.2 300 12:56 05.09.2022
1915 Clear 9 981 40 10000 8.75 310 11:53 05.09.2022
1916 Clear 9 982 46 10000 7.72 290 08:58 05.09.2022
1917 Clouds 9 982 57 10000 7.72 310 06:38 05.09.2022
1918 Rain 6 988 65 10000 2.57 0 01:56 05.09.2022
1919 Clouds 7 996 49 10000 4.63 10 22:39 04.09.2022
1920 Clouds 7 996 49 10000 4.63 10 22:19 04.09.2022
1921 Clouds 7 999 49 10000 7.72 350 20:37 04.09.2022
1922 Clouds 7 1002 49 10000 3.6 360 18:55 04.09.2022
1923 Clouds 4 1003 73 10000 3.47 353 17:43 04.09.2022
1924 Clouds 3 1004 81 10000 2.88 356 16:28 04.09.2022
1925 Clouds -1 1007 94 10000 3.11 345 14:26 04.09.2022
1926 Clouds 2 1005 93 10000 3.09 100 12:57 04.09.2022
1927 Clouds 2 1006 87 10000 2.57 110 11:37 04.09.2022
1928 Clouds 1 1006 80 10000 1.54 360 09:50 04.09.2022
1929 Clouds -1 1008 93 10000 3.37 353 06:51 04.09.2022
1930 Clouds 1 1006 93 10000 2.06 300 03:31 04.09.2022
1931 Clouds 3 1003 87 10000 1.54 250 23:33 03.09.2022
1932 Rain 3 1003 93 10000 3.09 260 22:20 03.09.2022
1933 Rain 2 1002 93 7000 3.6 240 21:22 03.09.2022
1934 Drizzle 3 1000 87 8000 1.03 0 18:57 03.09.2022
1935 Drizzle 3 999 87 8000 1.03 0 17:25 03.09.2022
1936 Drizzle 3 999 81 8000 2.57 130 16:20 03.09.2022
1937 Drizzle 3 998 87 10000 3.6 140 14:43 03.09.2022
1938 Drizzle 3 997 93 10000 2.57 150 13:50 03.09.2022
1939 Drizzle 3 996 100 5000 1.54 210 11:37 03.09.2022
1940 Drizzle 3 995 100 6000 1.03 0 09:51 03.09.2022
1941 Drizzle 3 994 93 10000 3.09 250 07:57 03.09.2022
1942 Clouds 4 993 93 10000 3.6 240 04:56 03.09.2022
1943 Clouds 4 993 93 10000 2.06 250 03:57 03.09.2022
1944 Drizzle 6 993 75 10000 2.06 160 23:49 02.09.2022
1945 Drizzle 6 993 75 10000 1.54 140 22:34 02.09.2022
1946 Clouds 7 994 65 10000 2.06 140 20:57 02.09.2022
1947 Clouds 7 994 65 10000 2.06 140 20:23 02.09.2022
1948 Clouds 6 997 65 10000 1.54 80 18:59 02.09.2022
1949 Clouds 6 997 65 10000 1.54 80 18:27 02.09.2022
1950 Clouds 6 998 65 10000 2.57 130 17:36 02.09.2022
1951 Clouds 4 999 75 10000 4.63 110 16:45 02.09.2022
1952 Clouds 2 1001 80 10000 2.06 50 13:51 02.09.2022
1953 Clear 1 1001 64 10000 2.06 280 11:47 02.09.2022
1954 Clear 2 1001 69 10000 3.09 60 09:49 02.09.2022
1955 Clouds 2 1001 69 10000 2.06 330 08:55 02.09.2022
1956 Clouds 2 1001 69 10000 2.57 320 07:24 02.09.2022
1957 Clouds 2 1001 80 10000 3.6 270 06:35 02.09.2022
1958 Clouds 3 1000 87 10000 3.09 250 02:37 02.09.2022
1959 Clouds 6 999 70 10000 4.12 220 22:26 01.09.2022
1960 Clouds 5 999 70 10000 6.69 230 21:40 01.09.2022
1961 Clouds 5 999 70 10000 6.69 230 21:21 01.09.2022
1962 Clouds 5 999 70 10000 9.26 230 20:37 01.09.2022
1963 Clouds 7 998 57 10000 6.17 250 18:38 01.09.2022
1964 Clouds 8 997 49 10000 6.17 290 16:59 01.09.2022
1965 Clouds 6 997 52 10000 7.2 300 15:34 01.09.2022
1966 Clouds 4 997 75 10000 3.09 150 13:48 01.09.2022
1967 Clouds 3 997 87 10000 1.54 230 12:57 01.09.2022
1968 Clear 3 997 87 10000 2.06 330 11:52 01.09.2022
1969 Clear 3 997 87 10000 2.06 330 11:29 01.09.2022
1970 Clouds 2 998 93 10000 2.06 250 09:49 01.09.2022
1971 Clouds 5 997 65 10000 4.12 280 07:50 01.09.2022
1972 Clouds 6 997 70 10000 5.66 240 05:58 01.09.2022
1973 Clouds 6 1001 81 10000 11.32 240 01:31 01.09.2022
1974 Clouds 6 1001 81 10000 11.32 240 01:31 01.09.2022
1975 Clouds 8 994 66 10000 3.09 190 23:19 31.08.2022
1976 Clouds 10 995 53 10000 2.57 150 20:48 31.08.2022
1977 Clouds 9 996 61 10000 4.12 10 19:23 31.08.2022
1978 Drizzle 8 998 61 10000 5.14 340 16:49 31.08.2022
1979 Clouds 8 999 61 10000 4.63 360 15:28 31.08.2022
1980 Clouds 7 999 61 10000 3.6 20 13:38 31.08.2022
1981 Clear 5 999 70 10000 1.03 0 12:18 31.08.2022
1982 Clouds 6 999 70 10000 2.57 260 09:36 31.08.2022
1983 Clouds 6 999 70 10000 1.03 0 08:31 31.08.2022
1984 Clouds 5 1000 81 10000 1.03 0 02:59 31.08.2022
1985 Clouds 10 1000 53 10000 2.06 150 22:29 30.08.2022
1986 Clouds 10 1000 53 10000 2.06 150 22:29 30.08.2022
1987 Clouds 9 1000 66 10000 3.09 150 21:30 30.08.2022
1988 Clouds 10 1000 57 10000 2.57 130 20:35 30.08.2022
1989 Clouds 9 1000 61 10000 1.54 160 17:24 30.08.2022
1990 Clouds 4 1001 93 10000 2.06 0 13:53 30.08.2022
1991 Clouds 3 1002 100 10000 1.54 0 12:25 30.08.2022
1992 Clouds 1 1002 93 10000 1.03 0 11:20 30.08.2022
1993 Clear 2 1003 93 10000 1.03 0 09:58 30.08.2022
1994 Clear 5 1003 81 10000 1.03 0 06:49 30.08.2022
1995 Clouds 6 1004 75 10000 3.09 20 01:26 30.08.2022
1996 Clouds 10 1003 62 10000 3.6 240 22:39 29.08.2022
1997 Clouds 9 1002 71 10000 4.63 230 21:54 29.08.2022
1998 Clouds 10 1002 66 10000 3.09 220 20:47 29.08.2022
1999 Clouds 9 1002 66 10000 0.51 0 19:35 29.08.2022
2000 Clear 6 1002 87 10000 3.09 70 17:33 29.08.2022
2001 Clouds 6 1001 81 10000 1.03 0 16:59 29.08.2022
2002 Clouds 6 1001 81 10000 1.03 0 15:20 29.08.2022
2003 Clouds 4 1001 93 10000 2.06 70 13:55 29.08.2022
2004 Clouds 7 1000 65 10000 2.57 20 12:24 29.08.2022
2005 Clear 6 1000 70 10000 2.57 340 10:48 29.08.2022
2006 Clear 5 1000 75 10000 3.09 10 09:19 29.08.2022
2007 Clear 6 1000 70 10000 1.03 270 07:20 29.08.2022
2008 Clouds 7 1001 70 10000 2.06 160 02:33 29.08.2022
2009 Clouds 7 1001 76 10000 3.6 110 23:36 28.08.2022
2010 Clouds 8 1002 66 10000 3.09 160 21:48 28.08.2022
2011 Clouds 8 1002 66 10000 3.09 160 21:27 28.08.2022
2012 Clouds 8 1003 66 10000 1.54 170 20:19 28.08.2022
2013 Clouds 6 1005 75 10000 3.09 140 18:22 28.08.2022
2014 Clouds 5 1006 81 10000 2.57 150 17:59 28.08.2022
2015 Clouds 6 1007 65 10000 3.09 190 16:49 28.08.2022
2016 Clouds 5 1008 65 10000 2.06 40 15:34 28.08.2022
2017 Clouds 3 1010 81 10000 4.12 10 13:32 28.08.2022
2018 Clouds 4 1010 75 10000 2.57 310 11:59 28.08.2022
2019 Clouds 4 1010 81 10000 9.26 250 10:22 28.08.2022
2020 Clouds 5 1009 75 10000 13.38 250 09:24 28.08.2022
2021 Clouds 5 1009 75 10000 13.38 230 07:56 28.08.2022
2022 Clouds 5 1009 75 10000 13.38 230 07:27 28.08.2022
2023 Clouds 2 1008 87 10000 6.69 250 00:45 28.08.2022
2024 Snow 2 1008 87 10000 9.77 230 23:28 27.08.2022
2025 Snow 2 1009 80 10000 12.35 230 22:27 27.08.2022
2026 Snow 2 1008 80 7000 14.92 240 20:35 27.08.2022
2027 Snow 1 1007 86 5000 14.4 240 19:29 27.08.2022
2028 Clouds 0 1006 86 10000 13.38 240 16:30 27.08.2022
2029 Snow 0 1005 80 5000 7.72 250 15:31 27.08.2022
2030 Snow -1 1002 93 500 9.26 250 13:30 27.08.2022
2031 Snow -1 1000 93 5000 9.77 240 12:20 27.08.2022
2032 Snow -1 997 100 300 9.26 250 10:30 27.08.2022
2033 Snow -1 996 100 200 10.29 250 09:36 27.08.2022
2034 Snow 0 993 100 600 8.23 250 06:54 27.08.2022
2035 Snow -1 986 100 800 8.75 240 02:24 27.08.2022
2036 Snow -1 982 86 1800 8.75 250 23:49 26.08.2022
2037 Snow -1 979 100 1500 5.66 250 21:53 26.08.2022
2038 Snow 0 979 93 500 8.75 220 20:22 26.08.2022
2039 Snow -1 977 93 1000 8.75 250 18:19 26.08.2022
2040 Snow -1 976 100 600 10.8 230 16:36 26.08.2022
2041 Snow 0 975 93 6000 7.2 230 15:25 26.08.2022
2042 Snow -1 975 96 305 1.74 299 13:20 26.08.2022
2043 Snow 1 973 93 4500 7.72 230 11:48 26.08.2022
2044 Snow 1 973 93 4500 7.72 230 11:22 26.08.2022
2045 Snow 1 973 80 8000 6.17 300 09:53 26.08.2022
2046 Drizzle 3 975 87 10000 6.69 240 04:56 26.08.2022
2047 Rain 5 977 70 10000 6.69 340 00:55 26.08.2022
2048 Clouds 8 979 46 10000 10.8 300 22:45 25.08.2022
2049 Clouds 8 980 42 10000 8.23 300 20:57 25.08.2022
2050 Clouds 8 981 42 10000 10.8 310 19:47 25.08.2022
2051 Clouds 8 983 46 10000 6.69 290 18:36 25.08.2022
2052 Clouds 7 983 45 10000 7.72 290 17:32 25.08.2022
2053 Clouds 4 986 75 10000 4.63 240 16:46 25.08.2022
2054 Drizzle 4 987 70 10000 3.6 270 15:37 25.08.2022
2055 Drizzle 2 987 80 10000 3.09 280 14:30 25.08.2022
2056 Clouds 2 986 75 10000 6.69 320 11:34 25.08.2022
2057 Clouds 2 986 80 10000 1.54 0 10:45 25.08.2022
2058 Rain 2 983 93 8000 11.32 230 07:55 25.08.2022
2059 Clouds 5 982 45 10000 2.57 300 03:54 25.08.2022
2060 Clouds 5 984 52 10000 4.12 310 23:56 24.08.2022
2061 Clouds 5 984 52 10000 4.12 310 23:25 24.08.2022
2062 Clouds 7 985 45 10000 5.14 330 21:59 24.08.2022
2063 Clouds 7 985 45 10000 5.14 330 21:31 24.08.2022
2064 Clouds 8 985 39 10000 5.66 320 20:18 24.08.2022
2065 Clouds 7 986 61 10000 1.03 0 17:32 24.08.2022
2066 Clouds 5 987 70 10000 2.57 230 15:55 24.08.2022
2067 Clouds 5 987 70 10000 2.57 230 15:35 24.08.2022
2068 Clouds 3 987 87 10000 1.03 0 12:52 24.08.2022
2069 Clouds 3 987 87 10000 2.57 290 11:22 24.08.2022
2070 Clouds 4 987 87 10000 9.77 240 09:19 24.08.2022
2071 Clouds 7 986 57 10000 2.57 340 06:52 24.08.2022
2072 Clouds 5 989 81 10000 2.06 150 01:20 24.08.2022
2073 Clouds 7 990 70 10000 9.77 240 22:49 23.08.2022
2074 Clouds 7 990 70 10000 9.77 240 22:18 23.08.2022
2075 Clouds 10 989 46 10000 7.2 290 21:21 23.08.2022
2076 Clouds 9 988 49 10000 6.17 320 19:28 23.08.2022
2077 Clouds 8 989 53 10000 8.23 320 18:21 23.08.2022
2078 Clouds 8 989 49 10000 10.29 320 17:31 23.08.2022
2079 Clouds 8 988 49 10000 9.26 320 16:31 23.08.2022
2080 Clouds 7 990 53 10000 7.72 340 14:54 23.08.2022
2081 Clouds 5 992 56 10000 5.66 350 12:46 23.08.2022
2082 Clear 6 992 49 10000 5.66 330 11:19 23.08.2022
2083 Clear 6 993 49 10000 4.63 360 10:33 23.08.2022
2084 Clear 5 994 52 10000 4.63 330 09:38 23.08.2022
2085 Clear 1 995 80 10000 1.54 0 08:47 23.08.2022
2086 Clear 1 995 80 10000 1.54 0 08:19 23.08.2022
2087 Clear 1 996 80 10000 2.06 270 07:33 23.08.2022
2088 Clear 2 997 75 10000 1.54 0 06:25 23.08.2022
2089 Clear 3 999 65 10000 2.57 350 01:52 23.08.2022
2090 Clear 3 998 65 10000 1.03 0 00:27 23.08.2022
2091 Clear 5 998 70 10000 1.54 360 23:32 22.08.2022
2092 Clear 5 998 70 10000 2.06 80 22:25 22.08.2022
2093 Clear 6 999 61 10000 1.54 140 20:53 22.08.2022
2094 Clear 5 1000 70 10000 1.54 170 19:46 22.08.2022
2095 Clear 4 1000 81 10000 2.06 60 18:37 22.08.2022
2096 Clear 3 1000 75 10000 1.54 320 16:23 22.08.2022
2097 Clear 3 1001 75 10000 1.54 360 15:22 22.08.2022
2098 Clear 3 1000 70 10000 1.03 0 12:55 22.08.2022
2099 Clear 3 1000 65 10000 1.54 310 09:57 22.08.2022
2100 Clear 3 999 81 10000 3.09 360 07:20 22.08.2022
2101 Clouds 4 997 81 10000 7.2 260 02:42 22.08.2022
2102 Rain 4 995 87 4000 12.35 240 00:37 22.08.2022
2103 Rain 6 994 81 8000 13.89 230 23:34 21.08.2022
2104 Clouds 9 993 66 10000 2.57 210 21:56 21.08.2022
2105 Clouds 9 993 66 10000 2.57 210 21:21 21.08.2022
2106 Clouds 8 994 71 10000 4.63 220 20:21 21.08.2022
2107 Clouds 8 996 66 10000 4.63 220 18:59 21.08.2022
2108 Clouds 7 999 65 10000 4.12 240 16:52 21.08.2022
2109 Clouds 7 1000 65 10000 3.6 40 15:52 21.08.2022
2110 Drizzle 7 1001 65 10000 4.63 30 14:59 21.08.2022
2111 Drizzle 6 1003 65 10000 8.23 30 13:51 21.08.2022
2112 Drizzle 7 1004 57 10000 4.63 360 12:56 21.08.2022
2113 Clear 7 1005 49 10000 3.09 300 10:48 21.08.2022
2114 Clouds 6 1007 56 10000 3.09 0 09:21 21.08.2022
2115 Clouds 6 1017 56 10000 4.63 50 08:56 21.08.2022
2116 Clouds 6 1017 56 10000 4.63 50 08:38 21.08.2022
2117 Clouds 6 1013 52 10000 5.14 20 06:59 21.08.2022
2118 Clear 2 1017 69 10000 1.54 230 02:52 21.08.2022
2119 Clouds 5 1018 70 10000 1.03 0 23:44 20.08.2022
2120 Clouds 5 1018 75 10000 2.06 70 22:23 20.08.2022
2121 Clouds 6 1018 70 10000 1.03 0 21:22 20.08.2022
2122 Clouds 5 1018 65 10000 1.03 0 19:49 20.08.2022
2123 Clouds 5 1018 65 10000 1.03 0 19:21 20.08.2022
2124 Clear 5 1018 48 10000 2.57 30 18:27 20.08.2022
2125 Clear 4 1017 56 10000 2.06 310 17:25 20.08.2022
2126 Clear 3 1017 60 10000 3.09 10 16:23 20.08.2022
2127 Clear 2 1016 69 10000 4.12 10 14:35 20.08.2022
2128 Clear 1 1014 75 10000 3.6 340 12:19 20.08.2022
2129 Clouds 1 1014 69 10000 3.09 340 11:42 20.08.2022
2130 Clouds 2 1013 75 10000 2.06 310 09:20 20.08.2022
2131 Clouds 3 1011 81 10000 8.75 240 07:31 20.08.2022
2132 Clouds 3 1008 81 10000 8.75 250 05:48 20.08.2022
2133 Rain 2 1001 93 3500 12.35 240 00:58 20.08.2022
2134 Clouds 2 999 93 3500 12.86 250 23:51 19.08.2022
2135 Clouds 1 997 100 3000 13.38 250 22:48 19.08.2022
2136 Clouds 2 996 87 4000 12.35 240 21:34 19.08.2022
2137 Rain 3 992 87 7000 13.38 230 19:40 19.08.2022
2138 Drizzle 3 989 81 10000 10.8 240 16:28 19.08.2022
2139 Drizzle 4 987 75 10000 10.29 230 14:22 19.08.2022
2140 Clouds 4 986 81 10000 11.83 240 12:19 19.08.2022
2141 Clouds 5 984 70 10000 11.83 230 10:39 19.08.2022
2142 Clouds 5 982 65 10000 7.72 220 09:36 19.08.2022
2143 Drizzle 4 987 75 10000 3.09 10 04:56 19.08.2022
2144 Clouds 5 996 56 10000 4.12 10 00:43 19.08.2022
2145 Clouds 5 996 56 10000 4.12 10 00:19 19.08.2022
2146 Clouds 5 999 65 10000 1.54 60 22:58 18.08.2022
2147 Clouds 5 999 65 10000 1.54 60 22:26 18.08.2022
2148 Clouds 6 1000 61 10000 2.57 240 21:51 18.08.2022
2149 Clouds 6 1000 65 10000 7.2 250 20:56 18.08.2022
2150 Clouds 6 1001 65 10000 8.75 250 19:40 18.08.2022
2151 Clouds 6 1001 65 10000 8.75 250 19:20 18.08.2022
2152 Drizzle 4 1001 87 10000 8.23 220 17:41 18.08.2022
2153 Clouds 4 1000 75 10000 5.66 230 16:19 18.08.2022
2154 Clouds 4 999 65 10000 2.06 0 14:22 18.08.2022
2155 Clouds 4 999 65 10000 2.06 0 14:22 18.08.2022
2156 Clouds 4 998 60 10000 2.06 0 13:44 18.08.2022
2157 Clouds 4 998 56 10000 4.63 20 12:30 18.08.2022
2158 Clouds 4 998 56 10000 2.06 10 11:21 18.08.2022
2159 Clouds 3 999 75 10000 5.66 40 09:43 18.08.2022
2160 Clouds 4 1001 60 10000 5.66 30 07:57 18.08.2022
2161 Clouds 4 1002 60 10000 5.66 30 06:43 18.08.2022
2162 Clouds 4 1005 60 10000 5.66 10 02:32 18.08.2022
2163 Clouds 4 1006 65 10000 1.54 30 22:51 17.08.2022
2164 Clouds 5 1006 65 10000 2.06 20 21:26 17.08.2022
2165 Clouds 3 1007 75 10000 2.57 80 19:59 17.08.2022
2166 Clouds 3 1006 81 10000 3.09 60 18:39 17.08.2022
2167 Clouds 3 1006 81 10000 2.06 60 17:27 17.08.2022
2168 Clouds 3 1005 81 10000 4.63 80 16:21 17.08.2022
2169 Clouds 2 1003 80 10000 3.09 60 14:48 17.08.2022
2170 Drizzle 2 1001 87 10000 1.54 220 12:50 17.08.2022
2171 Rain 3 1000 75 10000 2.57 110 11:36 17.08.2022
2172 Clouds 3 997 81 10000 4.63 70 09:30 17.08.2022
2173 Rain 3 995 87 8000 5.66 70 07:28 17.08.2022
2174 Clouds 2 990 87 10000 0 0 02:21 17.08.2022
2175 Clouds 3 986 87 10000 2.57 50 23:45 16.08.2022
2176 Clouds 4 984 81 10000 3.6 90 21:52 16.08.2022
2177 Clouds 4 984 81 10000 4.12 80 20:26 16.08.2022
2178 Clouds 4 983 81 10000 3.6 80 19:50 16.08.2022
2179 Clouds 3 983 70 10000 1.54 30 18:23 16.08.2022
2180 Clouds 3 983 75 10000 1.54 10 17:40 16.08.2022
2181 Clouds 1 981 80 10000 3.6 10 15:46 16.08.2022
2182 Clouds 1 981 80 10000 2.57 10 14:55 16.08.2022
2183 Clouds 1 981 80 10000 2.57 10 14:37 16.08.2022
2184 Clouds 1 979 80 10000 1.54 340 12:43 16.08.2022
2185 Clouds 2 978 80 10000 3.09 10 10:35 16.08.2022
2186 Clouds 2 977 75 10000 2.06 290 09:43 16.08.2022
2187 Clouds 2 977 75 10000 0.51 0 08:43 16.08.2022
2188 Clouds 3 977 70 10000 1.54 360 07:23 16.08.2022
2189 Clouds 4 974 70 10000 4.12 30 01:41 16.08.2022
2190 Clouds 4 975 70 10000 6.69 30 22:29 15.08.2022
2191 Clouds 5 976 60 10000 5.14 20 21:53 15.08.2022
2192 Clouds 5 976 65 10000 0 0 20:48 15.08.2022
2193 Clouds 5 976 65 10000 0 0 20:19 15.08.2022
2194 Clouds 3 979 81 10000 2.57 40 18:41 15.08.2022
2195 Clouds 3 980 81 10000 3.09 50 17:23 15.08.2022
2196 Clouds 2 980 80 10000 3.6 50 16:21 15.08.2022
2197 Rain 2 982 87 7000 2.06 360 13:56 15.08.2022
2198 Rain 2 982 93 6000 2.57 50 12:37 15.08.2022
2199 Clouds 2 983 93 10000 2.57 80 10:18 15.08.2022
2200 Rain 2 983 93 10000 2.57 230 08:27 15.08.2022
2201 Rain 2 983 93 10000 4.12 240 06:27 15.08.2022
2202 Rain 3 982 87 8000 5.66 190 02:40 15.08.2022
2203 Clouds 4 978 87 10000 8.23 240 22:40 14.08.2022
2204 Clouds 4 978 87 10000 9.26 240 21:39 14.08.2022
2205 Clouds 4 977 81 10000 9.26 240 20:24 14.08.2022
2206 Clouds 3 977 87 10000 9.26 250 19:31 14.08.2022
2207 Rain 3 977 87 8000 8.75 250 18:20 14.08.2022
2208 Drizzle 3 976 81 10000 7.2 240 16:55 14.08.2022
2209 Clouds 3 975 81 10000 7.2 240 15:51 14.08.2022
2210 Drizzle 3 975 81 10000 7.72 240 14:38 14.08.2022
2211 Clouds 2 974 87 10000 6.17 240 13:50 14.08.2022
2212 Clouds 2 974 87 10000 6.17 240 13:24 14.08.2022
2213 Rain 1 974 100 8000 5.14 240 12:34 14.08.2022
2214 Clouds 1 975 93 6000 5.14 240 11:18 14.08.2022
2215 Drizzle 2 975 93 8000 1.54 70 08:56 14.08.2022
2216 Drizzle 3 976 93 8000 7.2 80 06:23 14.08.2022
2217 Drizzle 3 976 93 8000 7.2 80 06:23 14.08.2022
2218 Clouds 3 977 81 10000 6.69 80 04:21 14.08.2022
2219 Clouds 3 981 56 10000 5.14 20 00:42 14.08.2022
2220 Clear 6 982 31 10000 3.6 0 22:56 13.08.2022
2221 Clear 5 983 38 10000 4.63 30 21:59 13.08.2022
2222 Clear 4 984 38 10000 1.54 0 20:49 13.08.2022
2223 Clear 4 985 56 10000 1.54 180 19:47 13.08.2022
2224 Clear 4 986 56 10000 2.06 50 18:47 13.08.2022
2225 Clouds 3 987 65 10000 4.63 50 17:21 13.08.2022
2226 Clouds 0 989 80 10000 2.57 270 14:42 13.08.2022
2227 Clouds 2 989 69 10000 4.12 280 13:49 13.08.2022
2228 Clouds 2 989 69 10000 4.12 280 13:25 13.08.2022
2229 Clear 2 990 69 10000 3.09 290 11:27 13.08.2022
2230 Clouds 3 990 70 10000 2.06 0 09:23 13.08.2022
2231 Clouds 2 990 80 10000 7.72 250 06:44 13.08.2022
2232 Clouds 3 990 70 10000 5.14 250 01:51 13.08.2022
2233 Clear 2 990 80 10000 4.12 250 23:32 12.08.2022
2234 Clear 4 990 60 10000 1.03 120 21:37 12.08.2022
2235 Clear 4 990 60 10000 1.03 120 19:48 12.08.2022
2236 Clear 4 990 60 10000 1.03 120 19:23 12.08.2022
2237 Clear 4 990 56 10000 2.57 150 18:21 12.08.2022
2238 Clear 3 990 56 10000 2.57 170 16:27 12.08.2022
2239 Clear 3 990 52 10000 2.57 0 15:19 12.08.2022
2240 Clear 3 991 56 10000 4.63 330 13:43 12.08.2022
2241 Clouds -2 991 80 10000 3.09 280 12:32 12.08.2022
2242 Clouds 0 993 74 10000 1.03 0 08:52 12.08.2022
2243 Clouds 1 993 69 10000 1.54 330 07:46 12.08.2022
2244 Clouds 2 994 64 10000 1.03 270 06:23 12.08.2022
2245 Clouds 2 998 87 10000 0 0 00:32 12.08.2022
2246 Clouds 3 998 87 10000 1.54 350 23:58 11.08.2022
2247 Clouds 3 998 87 10000 1.54 350 23:25 11.08.2022
2248 Clouds 3 1000 87 10000 1.03 0 21:53 11.08.2022
2249 Clouds 3 1000 87 10000 1.03 0 21:28 11.08.2022
2250 Clouds 3 1000 87 10000 1.03 0 21:28 11.08.2022
2251 Clouds 3 1001 87 10000 1.03 150 20:31 11.08.2022
2252 Clouds 3 1001 87 10000 1.03 150 20:31 11.08.2022
2253 Clouds 3 1002 87 10000 1.03 0 19:33 11.08.2022
2254 Rain 3 1003 87 10000 0.51 0 18:56 11.08.2022
2255 Clouds 2 1003 93 10000 0 0 17:22 11.08.2022
2256 Clouds 1 1005 93 10000 1.03 260 15:48 11.08.2022
2257 Clouds 1 1005 93 10000 1.03 270 14:40 11.08.2022
2258 Clouds 1 1005 93 10000 0.51 340 11:59 11.08.2022
2259 Rain 2 1005 93 10000 1.03 310 09:22 11.08.2022
2260 Rain 1 1005 100 9000 0.51 0 06:52 11.08.2022
2261 Clouds 2 1005 93 4500 1.03 0 02:49 11.08.2022
2262 Clouds 5 1001 87 10000 9.26 250 23:57 10.08.2022
2263 Clear 6 999 81 10000 1.54 200 21:49 10.08.2022
2264 Clear 6 999 81 10000 1.54 200 21:19 10.08.2022
2265 Clear 7 999 70 10000 1.03 0 20:36 10.08.2022
2266 Clear 6 999 81 10000 1.03 0 18:53 10.08.2022
2267 Clear 6 999 81 10000 1.03 0 17:28 10.08.2022
2268 Clear 4 998 93 10000 3.09 70 14:57 10.08.2022
2269 Clear 5 998 87 10000 2.57 60 13:34 10.08.2022
2270 Clear 5 998 75 10000 1.54 0 11:47 10.08.2022
2271 Clouds 5 999 75 10000 1.03 0 08:44 10.08.2022
2272 Clouds 5 999 81 10000 3.09 360 07:36 10.08.2022
2273 Clouds 4 999 75 10000 2.57 270 05:46 10.08.2022
2274 Clouds 4 1000 65 10000 1.54 260 02:22 10.08.2022
2275 Clear 4 1002 75 10000 1.03 0 23:33 09.08.2022
2276 Clear 5 1002 75 10000 1.03 0 22:48 09.08.2022
2277 Clear 6 1002 65 10000 2.06 40 21:34 09.08.2022
2278 Clear 5 1003 75 10000 2.57 80 19:33 09.08.2022
2279 Clear 5 1004 65 10000 1.54 10 17:59 09.08.2022
2280 Clear 5 1004 65 10000 1.54 10 17:26 09.08.2022
2281 Clear 5 1004 70 10000 1.03 0 16:40 09.08.2022
2282 Clear 2 1004 75 10000 2.06 260 15:31 09.08.2022
2283 Clouds 4 1003 70 10000 1.54 130 12:20 09.08.2022
2284 Clouds 4 1005 70 10000 2.06 0 08:55 09.08.2022
2285 Clouds 4 1005 70 10000 2.06 0 08:26 09.08.2022
2286 Clouds 4 1005 65 10000 2.57 10 07:18 09.08.2022
2287 Clouds 4 1009 56 10000 3.6 0 02:54 09.08.2022
2288 Clouds 4 1011 60 10000 4.12 20 23:26 08.08.2022
2289 Clouds 5 1012 52 10000 4.63 360 22:53 08.08.2022
2290 Clouds 5 1012 52 10000 4.12 360 21:48 08.08.2022
2291 Clouds 5 1013 56 10000 4.12 340 20:52 08.08.2022
2292 Clouds 5 1015 52 10000 5.14 360 19:50 08.08.2022
2293 Clouds 5 1016 52 10000 1.54 0 18:19 08.08.2022
2294 Clouds 3 1018 65 10000 1.54 130 16:34 08.08.2022
2295 Clouds 2 1019 64 10000 2.06 0 15:38 08.08.2022
2296 Clouds 3 1021 60 10000 1.54 0 12:50 08.08.2022
2297 Clouds 3 1021 52 10000 1.03 0 11:48 08.08.2022
2298 Clouds 1 1023 64 10000 0.51 0 09:29 08.08.2022
2299 Clouds 3 1024 65 10000 1.54 80 05:37 08.08.2022
2300 Clear 3 1025 65 10000 2.57 310 02:24 08.08.2022
2301 Clear 5 1027 56 10000 2.57 250 22:20 07.08.2022
2302 Clear 7 1027 45 10000 1.54 190 21:38 07.08.2022
2303 Clear 7 1027 49 10000 2.06 40 20:25 07.08.2022
2304 Clear 6 1028 61 10000 1.54 120 19:54 07.08.2022
2305 Clear 6 1028 61 10000 1.54 120 19:29 07.08.2022
2306 Clear 4 1029 81 10000 2.06 90 18:22 07.08.2022
2307 Clear 1 1030 86 10000 1.03 220 16:54 07.08.2022
2308 Clear 0 1030 93 10000 0.51 0 15:54 07.08.2022
2309 Clear 1 1030 86 10000 3.6 70 14:39 07.08.2022
2310 Clear 0 1030 86 10000 1.03 0 13:22 07.08.2022
2311 Clear -1 1031 93 10000 0.51 0 10:59 07.08.2022
2312 Clear -1 1031 93 10000 0.51 0 10:33 07.08.2022
2313 Clear -1 1032 86 10000 1.03 0 05:48 07.08.2022
2314 Clear 1 1032 80 10000 1.03 0 03:19 07.08.2022
2315 Clear 2 1032 80 10000 1.03 0 23:37 06.08.2022
2316 Clear 3 1032 75 10000 1.03 130 22:20 06.08.2022
2317 Clear 3 1031 81 10000 1.03 0 20:26 06.08.2022
2318 Clear 2 1032 80 10000 1.54 40 19:41 06.08.2022
2319 Clear 2 1032 80 10000 1.54 40 19:41 06.08.2022
2320 Clear 2 1032 80 10000 0.51 0 18:25 06.08.2022
2321 Clouds 2 1032 80 10000 1.03 0 17:28 06.08.2022
2322 Clear -1 1031 93 10000 2.06 350 14:31 06.08.2022
2323 Clear -1 1030 86 10000 1.54 310 13:40 06.08.2022
2324 Clear -1 1029 86 10000 1.03 0 11:24 06.08.2022
2325 Clear -2 1029 93 10000 1.54 320 09:51 06.08.2022
2326 Clear 1 1028 86 10000 2.06 350 08:28 06.08.2022
2327 Clouds 2 1026 80 10000 1.03 0 03:51 06.08.2022
2328 Clouds 4 1023 81 10000 4.12 250 23:34 05.08.2022
2329 Clouds 5 1022 75 10000 4.12 240 22:22 05.08.2022
2330 Rain 5 1021 81 10000 5.66 240 19:32 05.08.2022
2331 Clouds 5 1020 81 10000 6.17 230 18:44 05.08.2022
2332 Rain 5 1020 87 10000 7.2 230 17:54 05.08.2022
2333 Clouds 5 1019 87 10000 7.72 230 16:49 05.08.2022
2334 Clouds 5 1019 87 10000 7.72 230 16:48 05.08.2022
2335 Rain 5 1018 81 10000 6.17 240 15:22 05.08.2022
2336 Rain 4 1018 87 10000 7.2 250 14:19 05.08.2022
2337 Drizzle 4 1017 81 10000 2.57 10 13:23 05.08.2022
2338 Drizzle 3 1017 87 10000 1.03 320 12:28 05.08.2022
2339 Clouds 3 1016 81 10000 1.03 0 10:49 05.08.2022
2340 Clouds 3 1015 81 10000 1.54 360 08:25 05.08.2022
2341 Clouds 3 1014 81 10000 1.03 0 06:41 05.08.2022
2342 Clouds 5 1013 75 10000 1.03 0 00:34 05.08.2022
2343 Clouds 6 1011 65 10000 1.54 170 22:29 04.08.2022
2344 Clouds 7 1011 57 10000 1.03 0 21:26 04.08.2022
2345 Clouds 6 1011 56 10000 0.51 0 20:43 04.08.2022
2346 Clouds 6 1011 65 10000 0 0 19:46 04.08.2022
2347 Clouds 5 1012 70 10000 1.54 70 18:37 04.08.2022
2348 Clouds 5 1012 70 10000 1.54 70 18:18 04.08.2022
2349 Clouds 2 1012 80 10000 1.54 350 14:23 04.08.2022
2350 Clouds 3 1011 75 10000 1.03 280 12:57 04.08.2022
2351 Clouds 3 1011 81 10000 2.57 40 11:18 04.08.2022
2352 Clouds 3 1012 75 10000 3.09 290 07:54 04.08.2022
2353 Clouds 4 1012 75 10000 2.57 320 06:40 04.08.2022
2354 Clouds 3 1012 87 10000 1.03 0 02:33 04.08.2022
2355 Clouds 4 1013 81 10000 1.03 0 23:45 03.08.2022
2356 Clouds 5 1013 75 10000 0.51 0 22:55 03.08.2022
2357 Clouds 5 1014 81 10000 0.51 0 20:50 03.08.2022
2358 Clouds 4 1014 87 10000 0 0 19:46 03.08.2022
2359 Clouds 4 1015 87 10000 1.03 0 18:37 03.08.2022
2360 Clouds 2 1015 93 10000 1.54 360 16:26 03.08.2022
2361 Clouds 1 1016 100 10000 1.54 360 15:32 03.08.2022
2362 Clouds 2 1016 87 10000 1.54 300 12:41 03.08.2022
2363 Clouds 2 1016 93 10000 1.03 10 09:46 03.08.2022
2364 Mist 1 1016 100 3500 1.03 290 04:51 03.08.2022
2365 Drizzle 2 1016 93 4000 0 0 03:52 03.08.2022
2366 Rain 2 1015 100 4000 2.57 120 01:45 03.08.2022
2367 Rain 3 1014 87 10000 4.12 130 23:41 02.08.2022
2368 Rain 4 1012 81 10000 5.14 150 21:59 02.08.2022
2369 Rain 4 1012 81 10000 5.14 150 21:40 02.08.2022
2370 Drizzle 5 1011 87 10000 4.12 80 19:39 02.08.2022
2371 Clouds 5 1009 87 10000 4.63 240 16:49 02.08.2022
2372 Clouds 6 1006 81 10000 5.66 230 13:40 02.08.2022
2373 Clouds 9 1004 53 10000 3.6 320 10:34 02.08.2022
2374 Clouds 8 1004 61 10000 3.6 340 08:27 02.08.2022
2375 Clouds 8 1003 61 10000 3.6 310 07:50 02.08.2022
2376 Clouds 9 1003 57 10000 5.14 310 04:56 02.08.2022
2377 Clouds 7 1002 70 10000 3.6 160 02:20 02.08.2022
2378 Clouds 9 1002 57 10000 4.12 340 23:23 01.08.2022
2379 Clouds 8 1003 66 10000 2.06 80 21:37 01.08.2022
2380 Clouds 6 1003 81 10000 4.12 90 19:45 01.08.2022
2381 Clouds 6 1004 81 10000 1.54 150 18:53 01.08.2022
2382 Clouds 3 1004 93 10000 0 0 16:56 01.08.2022
2383 Clouds 3 1004 93 10000 0 0 16:33 01.08.2022
2384 Clear 4 1004 87 10000 2.06 70 15:44 01.08.2022
2385 Clear 4 1004 93 10000 3.09 70 14:45 01.08.2022
2386 Clear 5 1004 81 10000 1.54 120 13:32 01.08.2022
2387 Clouds 4 1003 87 10000 1.54 130 10:48 01.08.2022
2388 Clouds 3 1004 93 10000 2.57 70 08:55 01.08.2022
2389 Clouds 3 1004 93 10000 3.09 90 07:23 01.08.2022
2390 Clouds 3 1004 93 10000 2.57 70 04:32 01.08.2022
2391 Clouds 4 1005 93 10000 3.6 50 01:23 01.08.2022
2392 Clouds 4 1005 87 10000 2.57 50 22:44 31.07.2022
2393 Clouds 4 1005 87 10000 2.57 50 22:25 31.07.2022
2394 Clouds 5 1005 81 10000 1.54 70 20:28 31.07.2022
2395 Drizzle 5 1005 70 10000 1.03 0 18:39 31.07.2022
2396 Drizzle 4 1004 81 10000 7.72 250 16:55 31.07.2022
2397 Clouds 4 1002 75 10000 9.77 250 14:37 31.07.2022
2398 Drizzle 4 998 87 10000 11.32 240 12:58 31.07.2022
2399 Rain 5 997 81 10000 11.83 230 11:38 31.07.2022
2400 Clouds 6 994 75 10000 10.29 240 08:47 31.07.2022
2401 Clouds 6 992 70 10000 8.75 240 05:38 31.07.2022
2402 Clouds 6 991 70 10000 10.29 230 01:21 31.07.2022
2403 Clouds 8 990 53 10000 5.66 260 22:46 30.07.2022
2404 Clouds 7 990 65 10000 9.26 240 21:52 30.07.2022
2405 Clouds 7 990 65 10000 9.26 240 21:33 30.07.2022
2406 Clouds 7 990 65 10000 8.75 230 20:33 30.07.2022
2407 Clouds 6 990 75 10000 11.32 240 19:50 30.07.2022
2408 Clouds 7 990 57 10000 7.2 240 18:19 30.07.2022
2409 Clouds 6 990 70 10000 10.29 240 16:38 30.07.2022
2410 Clouds 5 989 75 10000 14.4 240 15:33 30.07.2022
2411 Clouds 5 988 75 10000 11.32 240 13:23 30.07.2022
2412 Clouds 5 988 75 10000 11.83 230 12:32 30.07.2022
2413 Clouds 6 988 56 10000 8.23 260 11:53 30.07.2022
2414 Clouds 5 988 65 10000 7.2 250 10:20 30.07.2022
2415 Rain 5 988 70 10000 8.23 310 08:55 30.07.2022
2416 Clouds 5 988 65 10000 4.63 260 07:33 30.07.2022
2417 Clouds 3 983 70 7000 5.14 310 02:33 30.07.2022
2418 Rain 4 983 56 10000 10.29 260 00:30 30.07.2022
2419 Drizzle 6 981 56 10000 7.2 300 21:38 29.07.2022
2420 Clouds 6 982 52 10000 7.72 310 20:51 29.07.2022
2421 Clouds 6 983 56 10000 4.63 310 19:47 29.07.2022
2422 Clouds 3 985 81 10000 5.14 250 17:34 29.07.2022
2423 Clouds 2 985 80 10000 4.12 10 14:51 29.07.2022
2424 Clouds 2 986 87 10000 4.12 280 12:55 29.07.2022
2425 Clouds 1 985 100 5000 10.8 240 09:34 29.07.2022
2426 Rain 4 984 81 4000 8.75 240 08:41 29.07.2022
2427 Clouds 4 984 81 10000 1.54 240 06:40 29.07.2022
2428 Clouds 5 983 81 10000 8.23 230 01:46 29.07.2022
2429 Clouds 8 978 53 10000 7.72 250 21:54 28.07.2022
2430 Clear 8 978 57 10000 6.17 260 20:54 28.07.2022
2431 Clear 8 978 57 10000 6.17 260 20:21 28.07.2022
2432 Clouds 8 978 53 10000 4.63 280 19:40 28.07.2022
2433 Clouds 8 979 53 10000 8.23 300 18:25 28.07.2022
2434 Clouds 7 981 57 10000 6.17 320 17:42 28.07.2022
2435 Clouds 7 983 65 10000 4.12 10 16:41 28.07.2022
2436 Clear 5 986 60 10000 1.54 280 14:30 28.07.2022
2437 Clear 5 991 65 10000 4.63 20 12:41 28.07.2022
2438 Clouds 6 994 70 10000 9.77 230 09:34 28.07.2022
2439 Rain 5 995 81 10000 8.23 230 05:45 28.07.2022
2440 Rain 5 995 81 10000 8.23 230 05:24 28.07.2022
2441 Rain 6 993 65 10000 3.6 260 00:29 28.07.2022
2442 Clouds 7 992 53 10000 1.54 0 22:26 27.07.2022
2443 Clouds 6 995 56 10000 1.03 0 20:20 27.07.2022
2444 Clouds 5 996 60 10000 1.54 0 19:32 27.07.2022
2445 Clouds 4 1000 70 10000 1.54 0 16:54 27.07.2022
2446 Clouds 4 1002 65 10000 3.09 160 15:51 27.07.2022
2447 Clouds 3 1002 65 10000 1.03 0 14:46 27.07.2022
2448 Clouds 3 1002 65 10000 1.03 0 14:27 27.07.2022
2449 Clear 3 1005 60 10000 1.03 0 12:19 27.07.2022
2450 Clear 2 1010 69 10000 2.06 350 07:53 27.07.2022
2451 Clear 2 1012 55 10000 2.06 300 05:33 27.07.2022
2452 Clear 2 1016 60 10000 3.6 340 00:46 27.07.2022
2453 Clouds 2 1017 64 10000 3.09 310 22:24 26.07.2022
2454 Clouds 3 1017 60 10000 4.12 270 21:19 26.07.2022
2455 Clouds 4 1018 52 10000 2.06 280 19:40 26.07.2022
2456 Clouds 3 1019 56 10000 2.57 320 18:41 26.07.2022
2457 Clouds 2 1019 64 10000 3.6 360 17:57 26.07.2022
2458 Clouds 1 1019 64 10000 3.09 350 15:50 26.07.2022
2459 Clouds 0 1020 74 10000 3.09 360 14:49 26.07.2022
2460 Clouds 0 1020 64 10000 4.63 360 12:50 26.07.2022
2461 Clouds 2 1019 60 10000 2.57 0 10:58 26.07.2022
2462 Clear 0 1020 74 10000 4.12 350 08:43 26.07.2022
2463 Clouds 1 1019 64 10000 3.09 280 05:30 26.07.2022
2464 Snow 1 1016 86 5000 12.86 240 00:27 26.07.2022
2465 Snow 2 1014 69 5000 6.69 240 22:51 25.07.2022
2466 Clouds 2 1013 64 10000 6.69 250 22:22 25.07.2022
2467 Snow 1 1011 75 7000 10.8 240 21:38 25.07.2022
2468 Clouds 2 1011 75 10000 6.69 260 20:40 25.07.2022
2469 Clouds 2 1010 80 10000 6.69 260 19:27 25.07.2022
2470 Clouds 1 1008 93 8000 10.29 250 18:18 25.07.2022
2471 Snow 1 1006 93 1800 12.35 240 17:27 25.07.2022
2472 Clouds 4 999 65 10000 2.57 60 14:32 25.07.2022
2473 Clear 0 1001 80 10000 3.09 290 11:50 25.07.2022
2474 Clear 2 1004 64 10000 1.54 200 08:32 25.07.2022
2475 Clear 2 1009 60 10000 2.57 350 03:23 25.07.2022
2476 Clouds 2 1011 69 10000 3.6 350 23:53 24.07.2022
2477 Clouds 2 1011 69 10000 3.6 360 22:56 24.07.2022
2478 Clouds 2 1011 69 10000 3.6 360 22:29 24.07.2022
2479 Clouds 2 1012 75 10000 3.6 10 21:19 24.07.2022
2480 Clear 2 1013 64 10000 3.09 340 20:50 24.07.2022
2481 Clear 2 1013 64 10000 3.09 340 20:19 24.07.2022
2482 Clear 2 1014 64 10000 3.09 360 18:38 24.07.2022
2483 Clear 1 1015 69 10000 4.12 350 16:29 24.07.2022
2484 Clear 1 1015 64 10000 3.6 330 15:45 24.07.2022
2485 Clear 1 1015 69 10000 3.09 330 14:29 24.07.2022
2486 Clear -1 1016 74 10000 3.6 300 12:54 24.07.2022
2487 Clouds 0 1016 74 10000 2.06 340 11:40 24.07.2022
2488 Clouds -6 1018 90 10000 2.52 333 11:00 24.07.2022
2489 Clouds 2 1016 75 10000 5.14 260 08:33 24.07.2022
2490 Clouds 2 1016 75 10000 7.2 250 07:52 24.07.2022
2491 Snow 2 1016 69 10000 6.69 260 05:49 24.07.2022
2492 Snow 1 1013 86 2500 8.23 250 00:29 24.07.2022
2493 Snow 0 1011 100 1000 9.26 230 22:21 23.07.2022
2494 Clouds 3 1009 75 10000 5.66 270 20:28 23.07.2022
2495 Clouds 3 1011 75 10000 8.23 250 18:50 23.07.2022
2496 Clouds 2 1011 75 10000 4.63 270 17:29 23.07.2022
2497 Clouds 1 1011 75 10000 4.12 270 16:35 23.07.2022
2498 Clouds 2 1011 75 10000 8.23 250 15:31 23.07.2022
2499 Clouds 2 1011 75 10000 6.69 250 14:59 23.07.2022
2500 Clouds 2 1011 75 10000 6.69 250 14:30 23.07.2022
2501 Clouds 2 1010 80 10000 9.77 240 13:36 23.07.2022
2502 Drizzle 1 1009 93 10000 9.26 240 11:18 23.07.2022
2503 Clouds 2 1009 87 10000 10.8 240 10:22 23.07.2022
2504 Clouds 2 1008 87 10000 10.8 240 08:50 23.07.2022
2505 Rain 2 1005 87 10000 9.77 250 03:40 23.07.2022
2506 Rain 2 1004 87 10000 7.2 250 01:33 23.07.2022
2507 Clouds 1 1002 93 10000 7.2 250 23:19 22.07.2022
2508 Snow 1 999 100 3000 8.75 240 20:57 22.07.2022
2509 Snow 2 998 93 3000 13.38 240 19:46 22.07.2022
2510 Rain 2 1000 80 10000 8.22 226 18:28 22.07.2022
2511 Clouds 1 996 100 4000 15.95 240 17:28 22.07.2022
2512 Clouds 1 994 100 4000 13.89 240 14:55 22.07.2022
2513 Snow 1 993 86 800 14.4 240 11:49 22.07.2022
2514 Snow 1 993 80 5000 13.38 240 09:27 22.07.2022
2515 Snow 0 993 86 6000 12.35 240 08:43 22.07.2022
2516 Snow 0 993 93 3000 11.83 250 07:20 22.07.2022
2517 Snow 0 991 86 7000 12.86 240 03:43 22.07.2022
2518 Snow 0 990 86 4000 7.72 250 22:53 21.07.2022
2519 Snow 0 989 86 1500 10.29 240 21:34 21.07.2022
2520 Snow 0 989 86 1500 11.32 250 19:30 21.07.2022
2521 Snow -1 988 93 1500 5.66 240 17:45 21.07.2022
2522 Snow -1 988 93 800 8.75 250 17:19 21.07.2022
2523 Snow -1 987 86 2500 7.72 240 15:39 21.07.2022
2524 Clouds -2 986 86 10000 3.09 340 14:39 21.07.2022
2525 Clouds -2 986 86 10000 3.09 340 14:39 21.07.2022
2526 Snow -2 986 93 8000 1.54 290 12:46 21.07.2022
2527 Snow -1 986 80 1200 2.06 260 11:19 21.07.2022
2528 Snow -1 985 80 6000 5.66 240 09:41 21.07.2022
2529 Snow -1 985 80 6000 6.17 230 08:52 21.07.2022
2530 Snow -1 985 80 10000 6.69 240 07:50 21.07.2022
2531 Snow -1 984 86 6000 8.23 240 06:24 21.07.2022
2532 Clouds 0 981 74 10000 6.69 250 01:42 21.07.2022
2533 Snow 0 977 93 2000 9.77 240 22:22 20.07.2022
2534 Snow 0 976 93 1000 8.23 240 21:30 20.07.2022
2535 Snow 1 973 93 4000 10.8 240 19:54 20.07.2022
2536 Snow 1 973 93 4000 10.8 240 19:25 20.07.2022
2537 Snow 1 971 86 6000 9.26 240 18:52 20.07.2022
2538 Snow 1 971 86 6000 9.26 240 18:27 20.07.2022
2539 Drizzle 2 966 93 6000 13.89 240 16:46 20.07.2022
2540 Drizzle 3 963 81 10000 7.72 200 15:32 20.07.2022
2541 Drizzle 3 961 93 8000 8.75 230 14:26 20.07.2022
2542 Snow 3 957 87 10000 8.23 240 11:55 20.07.2022
2543 Clouds 2 956 93 10000 7.2 240 10:24 20.07.2022
2544 Clouds 4 954 81 10000 2.57 190 04:50 20.07.2022
2545 Clouds 4 957 75 10000 1.54 340 00:54 20.07.2022
2546 Clouds 4 957 75 10000 1.54 340 00:36 20.07.2022
2547 Clouds 6 959 61 10000 4.63 20 22:34 19.07.2022
2548 Clouds 5 960 65 10000 1.03 0 21:53 19.07.2022
2549 Clouds 5 961 70 10000 0.51 0 20:49 19.07.2022
2550 Clouds 6 962 61 10000 2.06 330 19:22 19.07.2022
2551 Clouds 4 963 81 10000 3.09 140 18:35 19.07.2022
2552 Clouds 3 964 87 10000 3.09 130 17:51 19.07.2022
2553 Drizzle 3 968 87 8000 2.06 20 15:21 19.07.2022
2554 Clouds 5 974 70 10000 6.17 30 12:44 19.07.2022
2555 Clouds 3 976 81 10000 2.06 340 11:32 19.07.2022
2556 Clouds 1 978 86 10000 2.57 110 09:51 19.07.2022
2557 Clear 0 980 93 10000 1.03 0 08:42 19.07.2022
2558 Clouds 2 981 80 10000 1.54 280 07:19 19.07.2022
2559 Clouds 0 982 93 10000 3.09 280 06:27 19.07.2022
2560 Clouds 2 982 87 10000 4.12 260 05:18 19.07.2022
2561 Rain 3 983 87 10000 2.57 330 02:37 19.07.2022
2562 Clouds 7 979 53 10000 5.14 290 23:52 18.07.2022
2563 Clouds 7 979 53 10000 5.14 290 23:19 18.07.2022
2564 Clouds 7 979 49 10000 4.63 0 22:26 18.07.2022
2565 Clouds 6 980 52 10000 5.14 330 21:20 18.07.2022
2566 Clouds 6 981 52 10000 5.66 320 20:22 18.07.2022
2567 Clouds 6 983 49 10000 5.66 290 18:29 18.07.2022
2568 Clouds 4 986 52 10000 3.6 20 16:30 18.07.2022
2569 Clouds 1 988 64 10000 1.03 0 15:28 18.07.2022
2570 Clear 2 988 60 10000 3.6 80 13:32 18.07.2022
2571 Clouds 1 987 69 10000 1.54 30 11:43 18.07.2022
2572 Clear 0 986 74 10000 2.06 310 09:55 18.07.2022
2573 Clouds 1 987 69 10000 3.6 250 07:58 18.07.2022
2574 Clouds 3 986 75 10000 7.72 230 05:25 18.07.2022
2575 Clouds 4 983 52 10000 2.57 10 22:57 17.07.2022
2576 Clouds 4 983 52 10000 2.57 10 22:32 17.07.2022
2577 Clouds 4 983 56 10000 2.06 200 21:40 17.07.2022
2578 Clouds 6 984 52 10000 1.54 10 20:46 17.07.2022
2579 Clouds 6 984 52 10000 2.57 20 19:50 17.07.2022
2580 Clouds 6 984 52 10000 2.57 20 19:24 17.07.2022
2581 Clouds 5 986 60 10000 5.14 20 17:54 17.07.2022
2582 Clouds 5 986 60 10000 5.14 20 17:36 17.07.2022
2583 Clouds 0 988 90 10000 4.59 4 16:45 17.07.2022
2584 Clouds 0 988 92 10000 4.42 5 16:22 17.07.2022
2585 Clouds 6 988 61 10000 4.63 30 13:58 17.07.2022
2586 Clouds 6 988 61 10000 4.63 20 12:56 17.07.2022
2587 Clouds 5 989 65 10000 5.14 20 10:23 17.07.2022
2588 Clouds 6 992 52 10000 4.12 350 07:55 17.07.2022
2589 Clouds 4 996 70 10000 2.06 160 02:36 17.07.2022
2590 Clouds 4 998 65 10000 3.6 310 00:33 17.07.2022
2591 Clouds 5 999 60 10000 1.54 0 22:43 16.07.2022
2592 Clouds 5 999 56 10000 2.06 360 20:53 16.07.2022
2593 Clouds 4 1000 65 10000 2.06 140 18:59 16.07.2022
2594 Clouds 5 1001 56 10000 1.03 0 17:48 16.07.2022
2595 Clouds 3 1002 70 10000 5.14 170 16:23 16.07.2022
2596 Clouds 4 1003 45 10000 6.69 20 13:35 16.07.2022
2597 Clouds 3 1005 48 10000 7.2 20 10:34 16.07.2022
2598 Clouds 3 1007 48 10000 7.2 20 09:28 16.07.2022
2599 Clouds 2 1008 51 10000 5.66 360 08:41 16.07.2022
2600 Clouds 2 1009 55 10000 6.17 360 07:40 16.07.2022
2601 Clouds 3 1013 52 10000 9.26 330 03:39 16.07.2022
2602 Clouds 2 1016 60 10000 4.12 360 01:39 16.07.2022
2603 Clouds 2 1018 60 10000 3.6 30 23:21 15.07.2022
2604 Clouds 2 1019 60 10000 4.63 360 22:37 15.07.2022
2605 Clouds 3 1020 52 10000 4.12 30 20:47 15.07.2022
2606 Clouds 3 1021 52 10000 3.6 10 19:49 15.07.2022
2607 Clouds 3 1023 48 10000 2.06 50 18:30 15.07.2022
2608 Clouds 2 1023 55 10000 3.6 20 17:25 15.07.2022
2609 Clear -2 1025 80 10000 0 0 14:35 15.07.2022
2610 Clear -2 1027 80 10000 0.51 0 12:43 15.07.2022
2611 Clear -2 1028 86 10000 1.54 280 10:53 15.07.2022
2612 Clear -4 1029 86 10000 1.03 0 08:42 15.07.2022
2613 Clear -3 1029 80 10000 1.03 0 05:55 15.07.2022
2614 Clear -2 1030 80 10000 1.03 270 00:51 15.07.2022
2615 Clear -2 1030 80 10000 1.54 280 23:35 14.07.2022
2616 Clear -1 1030 80 10000 1.03 0 22:42 14.07.2022
2617 Clear 2 1030 69 10000 0 0 21:43 14.07.2022
2618 Clear 2 1030 69 10000 0 0 21:24 14.07.2022
2619 Clear 1 1030 75 10000 1.03 0 20:43 14.07.2022
2620 Clear 1 1030 75 10000 1.03 0 20:19 14.07.2022
2621 Clouds 0 1030 74 10000 2.06 20 18:42 14.07.2022
2622 Clouds -1 1030 80 10000 1.54 360 16:22 14.07.2022
2623 Clouds -2 1030 80 10000 3.09 360 15:29 14.07.2022
2624 Clear -1 1029 80 10000 3.09 350 13:53 14.07.2022
2625 Clear -1 1028 80 10000 1.54 330 12:48 14.07.2022
2626 Clear -2 1028 80 10000 2.57 310 11:43 14.07.2022
2627 Clear -2 1028 80 10000 2.57 310 11:22 14.07.2022
2628 Clouds -2 1028 86 10000 1.03 0 09:49 14.07.2022
2629 Clouds 1 1026 80 10000 2.06 20 06:54 14.07.2022
2630 Clouds 2 1022 69 10000 2.57 40 01:24 14.07.2022
2631 Clouds 2 1022 64 10000 1.03 0 00:53 14.07.2022
2632 Clouds 3 1020 56 10000 3.6 40 22:33 13.07.2022
2633 Clouds 2 1019 69 10000 3.09 50 21:55 13.07.2022
2634 Clouds 3 1018 70 10000 4.12 50 20:53 13.07.2022
2635 Clouds 3 1018 75 10000 4.63 70 19:30 13.07.2022
2636 Clouds 3 1017 75 10000 6.17 80 17:51 13.07.2022
2637 Clouds 2 1016 80 10000 1.54 40 16:40 13.07.2022
2638 Clouds 2 1015 87 10000 3.6 50 15:24 13.07.2022
2639 Clouds 2 1012 80 10000 4.63 70 12:55 13.07.2022
2640 Clouds 3 1010 75 10000 3.09 60 10:46 13.07.2022
2641 Clouds 3 1010 75 10000 3.09 60 10:46 13.07.2022
2642 Clouds 3 1010 75 10000 3.09 60 10:24 13.07.2022
2643 Clouds 3 1010 75 10000 4.63 60 09:25 13.07.2022
2644 Clouds 3 1007 81 10000 3.6 50 06:46 13.07.2022
2645 Drizzle 4 1005 81 10000 4.63 60 02:38 13.07.2022
2646 Rain 4 1002 81 10000 7.2 70 23:52 12.07.2022
2647 Drizzle 4 1001 81 10000 4.12 90 22:18 12.07.2022
2648 Drizzle 4 1001 81 10000 4.63 70 21:34 12.07.2022
2649 Drizzle 4 1000 87 10000 4.63 70 20:42 12.07.2022
2650 Drizzle 4 1000 81 10000 5.14 80 19:36 12.07.2022
2651 Rain 3 1000 93 10000 8.23 80 17:54 12.07.2022
2652 Rain 3 1000 87 10000 6.17 90 16:20 12.07.2022
2653 Clouds 3 999 81 10000 5.66 80 14:31 12.07.2022
2654 Clouds 3 999 81 10000 6.69 70 13:20 12.07.2022
2655 Clouds 3 999 75 10000 4.63 50 11:42 12.07.2022
2656 Clouds 4 999 70 10000 4.12 30 10:18 12.07.2022
2657 Clouds 4 1000 56 10000 2.06 350 08:26 12.07.2022
2658 Clouds 3 1001 60 10000 1.54 360 07:38 12.07.2022
2659 Clouds 3 1002 56 10000 3.09 20 05:42 12.07.2022
2660 Clouds 1 1004 55 10000 4.12 320 03:29 12.07.2022
2661 Clouds 1 1005 55 10000 6.69 330 23:43 11.07.2022
2662 Clouds 1 1006 47 10000 4.12 300 22:36 11.07.2022
2663 Clouds 1 1007 51 10000 4.63 320 20:54 11.07.2022
2664 Clouds 1 1007 51 10000 4.63 320 20:26 11.07.2022
2665 Clouds 1 1009 51 10000 7.72 340 18:39 11.07.2022
2666 Clouds -1 1009 64 10000 5.14 300 17:55 11.07.2022
2667 Clouds -2 1010 64 10000 2.06 270 16:22 11.07.2022
2668 Clear 0 1011 51 10000 1.03 0 14:52 11.07.2022
2669 Clear 0 1012 59 10000 2.06 310 12:28 11.07.2022
2670 Clear -4 1014 74 10000 2.57 290 10:54 11.07.2022
2671 Clear -4 1015 80 10000 2.06 240 09:54 11.07.2022
2672 Clear -4 1015 80 10000 2.06 240 09:21 11.07.2022
2673 Clear -4 1016 86 10000 1.54 330 07:52 11.07.2022
2674 Clouds 0 1020 74 10000 1.54 330 00:54 11.07.2022
2675 Clouds 1 1020 69 10000 1.54 330 23:53 10.07.2022
2676 Clouds -1 1020 74 10000 3.6 250 22:34 10.07.2022
2677 Clouds 2 1020 69 10000 5.66 250 20:55 10.07.2022
2678 Clouds 2 1020 69 10000 5.66 250 20:24 10.07.2022
2679 Clouds 2 1020 69 10000 5.66 250 19:21 10.07.2022
2680 Clouds 2 1020 69 10000 5.66 260 17:59 10.07.2022
2681 Clouds 2 1020 75 10000 6.17 250 16:59 10.07.2022
2682 Clouds 2 1020 75 10000 6.17 250 16:20 10.07.2022
2683 Snow 1 1018 80 10000 7.2 240 14:44 10.07.2022
2684 Snow 1 1018 75 10000 8.75 240 13:18 10.07.2022
2685 Snow 1 1017 80 7000 8.75 250 11:36 10.07.2022
2686 Snow 0 1016 86 3500 9.26 250 09:45 10.07.2022
2687 Snow 0 1015 80 7000 7.2 250 08:43 10.07.2022
2688 Clouds -1 1013 80 10000 7.2 250 06:39 10.07.2022
2689 Clouds -2 1006 74 7000 8.75 240 23:47 09.07.2022
2690 Snow -1 1004 74 8000 8.23 250 22:26 09.07.2022
2691 Snow -2 1003 93 1300 9.26 230 21:41 09.07.2022
2692 Snow -1 1001 80 1000 8.75 230 19:44 09.07.2022
2693 Snow -1 1001 80 1000 8.75 230 19:44 09.07.2022
2694 Snow -2 1000 86 10000 8.23 250 18:26 09.07.2022
2695 Snow -2 1000 86 10000 8.23 250 18:26 09.07.2022
2696 Snow -2 1000 86 1300 8.23 220 17:27 09.07.2022
2697 Snow -2 999 86 5000 8.75 240 16:34 09.07.2022
2698 Snow -2 998 93 10000 10.29 250 15:39 09.07.2022
2699 Snow -1 997 93 8000 4.12 220 14:23 09.07.2022
2700 Snow -1 996 86 1200 10.8 250 13:48 09.07.2022
2701 Snow -1 993 86 1000 7.2 250 11:54 09.07.2022
2702 Snow 0 991 93 4000 8.75 230 10:27 09.07.2022
2703 Clouds -1 990 80 10000 5.66 270 09:56 09.07.2022
2704 Snow 0 989 80 10000 7.2 250 07:44 09.07.2022
2705 Clouds 0 988 80 10000 6.17 240 04:49 09.07.2022
2706 Snow -1 989 93 5000 1.54 280 00:38 09.07.2022
2707 Snow -1 991 86 1500 1.03 20 22:41 08.07.2022
2708 Snow 3 991 93 3000 1.54 270 21:27 08.07.2022
2709 Clouds -1 992 86 10000 2.06 290 20:40 08.07.2022
2710 Clouds -1 993 80 10000 1.03 0 19:48 08.07.2022
2711 Clouds -2 995 80 10000 2.57 350 17:56 08.07.2022
2712 Clouds -3 995 74 10000 2.57 340 16:37 08.07.2022
2713 Clear -3 997 74 10000 3.6 360 14:51 08.07.2022
2714 Clear -3 998 74 10000 3.6 10 12:42 08.07.2022
2715 Clear -3 998 80 10000 3.09 360 11:24 08.07.2022
2716 Clear -2 998 74 10000 4.12 360 10:26 08.07.2022
2717 Clear -2 999 80 10000 4.12 10 08:24 08.07.2022
2718 Clouds -2 999 80 10000 2.57 330 06:47 08.07.2022
2719 Clouds -1 999 69 10000 2.06 280 01:19 08.07.2022
2720 Clouds 1 998 64 10000 2.06 270 22:57 07.07.2022
2721 Clouds 1 998 64 10000 2.57 310 21:57 07.07.2022
2722 Clouds 1 997 69 10000 1.54 340 19:47 07.07.2022
2723 Snow 0 998 80 10000 3.6 250 17:56 07.07.2022
2724 Clouds -1 997 80 10000 3.09 250 16:32 07.07.2022
2725 Clouds -1 997 74 10000 2.57 330 14:32 07.07.2022
2726 Clouds -2 996 80 10000 3.09 260 12:46 07.07.2022
2727 Clouds -2 996 80 10000 3.09 260 12:23 07.07.2022
2728 Clear -2 996 80 10000 3.09 350 11:34 07.07.2022
2729 Clear -2 996 80 10000 3.6 360 10:46 07.07.2022
2730 Clear -2 996 80 10000 3.6 360 10:28 07.07.2022
2731 Clear -1 996 69 10000 3.6 10 09:32 07.07.2022
2732 Clear -2 996 74 10000 3.6 360 06:31 07.07.2022
2733 Clouds -5 996 84 10000 2.29 326 00:31 07.07.2022
2734 Clouds -5 996 87 10000 2.25 331 23:36 06.07.2022
2735 Clouds -5 995 89 10000 2.47 342 23:18 06.07.2022
2736 Clouds -2 994 80 10000 2.06 280 22:52 06.07.2022
2737 Clouds -2 994 80 10000 2.06 280 22:33 06.07.2022
2738 Clouds -2 994 80 10000 2.06 280 22:33 06.07.2022
2739 Clear 0 994 64 10000 1.54 350 20:30 06.07.2022
2740 Clear -1 994 74 10000 2.57 10 19:32 06.07.2022
2741 Clear -2 995 74 10000 3.09 10 17:21 06.07.2022
2742 Clear -3 995 80 10000 3.09 360 15:57 06.07.2022
2743 Clear -3 994 80 10000 2.06 300 12:57 06.07.2022
2744 Clear -3 994 80 10000 2.06 300 12:21 06.07.2022
2745 Clear -2 994 80 10000 3.6 10 10:55 06.07.2022
2746 Clear -2 995 86 10000 3.09 10 09:27 06.07.2022
2747 Clear -2 995 86 10000 3.09 10 09:27 06.07.2022
2748 Clear -2 995 86 10000 3.09 10 07:44 06.07.2022
2749 Clouds -2 995 86 10000 2.06 360 06:49 06.07.2022
2750 Clouds 0 994 80 10000 2.06 320 00:38 06.07.2022
2751 Clouds 1 993 75 10000 2.06 10 22:43 05.07.2022
2752 Clouds 2 993 69 10000 0.51 300 20:49 05.07.2022
2753 Clouds 2 993 69 10000 0.51 300 20:31 05.07.2022
2754 Clouds 2 993 75 10000 1.03 0 19:38 05.07.2022
2755 Clouds 0 993 74 10000 1.03 0 17:51 05.07.2022
2756 Clouds 0 993 74 10000 1.03 0 17:25 05.07.2022
2757 Clouds -1 993 80 10000 2.06 290 16:32 05.07.2022
2758 Clouds -1 992 86 10000 2.06 340 14:54 05.07.2022
2759 Clear 0 992 80 10000 1.54 340 13:36 05.07.2022
2760 Clear 0 992 74 10000 2.06 360 12:24 05.07.2022
2761 Clear -1 992 80 10000 3.6 300 10:46 05.07.2022
2762 Clear 0 992 74 10000 4.12 290 09:58 05.07.2022
2763 Clear -1 991 80 10000 3.09 280 08:23 05.07.2022
2764 Clear 0 992 80 10000 5.14 290 06:59 05.07.2022
2765 Clear 1 992 75 10000 1.54 300 04:37 05.07.2022
2766 Clouds 1 992 80 10000 3.09 260 01:33 05.07.2022
2767 Clouds 2 992 87 10000 5.14 250 23:37 04.07.2022
2768 Clouds 2 992 87 10000 3.6 250 22:57 04.07.2022
2769 Clouds 2 992 87 10000 3.6 250 22:19 04.07.2022
2770 Drizzle 3 992 81 10000 3.09 260 20:57 04.07.2022
2771 Drizzle 3 992 81 10000 3.09 260 20:36 04.07.2022
2772 Clouds 3 992 87 10000 1.54 350 19:57 04.07.2022
2773 Clouds 3 992 87 10000 1.54 350 19:37 04.07.2022
2774 Clouds 2 992 87 10000 2.06 350 18:51 04.07.2022
2775 Clouds 1 992 93 10000 2.57 250 16:54 04.07.2022
2776 Clouds 1 992 93 10000 1.54 250 15:35 04.07.2022
2777 Clouds 2 991 87 10000 3.09 40 13:47 04.07.2022
2778 Clouds 2 991 80 10000 1.54 0 12:55 04.07.2022
2779 Clouds 1 992 80 10000 1.03 290 10:57 04.07.2022
2780 Clouds 1 992 80 10000 1.03 290 10:27 04.07.2022
2781 Clouds 1 992 86 10000 1.54 300 09:21 04.07.2022
2782 Clouds 1 993 80 10000 1.54 260 06:27 04.07.2022
2783 Clear 2 994 64 10000 2.57 330 01:49 04.07.2022
2784 Clouds 1 994 93 10000 2.06 310 23:39 03.07.2022
2785 Clouds 2 994 93 10000 1.54 0 22:29 03.07.2022
2786 Clouds 3 993 87 10000 0 0 20:45 03.07.2022
2787 Clouds 4 992 81 10000 1.54 360 19:43 03.07.2022
2788 Clouds 4 992 81 10000 1.54 360 19:24 03.07.2022
2789 Clouds 3 992 93 10000 2.57 350 18:27 03.07.2022
2790 Clouds 3 992 87 10000 4.12 260 17:38 03.07.2022
2791 Clouds 2 990 93 10000 2.06 280 15:27 03.07.2022
2792 Rain 2 989 93 10000 2.06 280 14:53 03.07.2022
2793 Rain 2 989 93 5000 1.54 10 13:50 03.07.2022
2794 Rain 3 989 93 5000 2.57 20 12:44 03.07.2022
2795 Drizzle 3 990 93 10000 4.63 70 11:47 03.07.2022
2796 Drizzle 4 990 87 10000 7.2 80 10:52 03.07.2022
2797 Drizzle 4 990 87 10000 7.2 80 10:33 03.07.2022
2798 Drizzle 3 991 87 10000 4.12 40 07:38 03.07.2022
2799 Drizzle 4 991 81 10000 6.17 30 06:34 03.07.2022
2800 Clouds 5 992 56 10000 4.63 30 00:38 03.07.2022
2801 Clouds 5 992 52 10000 4.63 30 23:36 02.07.2022
2802 Clouds 5 992 52 10000 3.09 10 22:31 02.07.2022
2803 Clouds 5 993 52 10000 4.12 10 20:26 02.07.2022
2804 Clouds 5 993 52 10000 5.66 20 19:49 02.07.2022
2805 Clouds 5 993 45 10000 4.63 30 18:20 02.07.2022
2806 Clear 5 993 45 10000 6.69 30 17:38 02.07.2022
2807 Clear 5 993 38 10000 7.72 30 15:56 02.07.2022
2808 Clouds 5 993 48 10000 7.2 30 13:35 02.07.2022
2809 Clear 5 993 45 10000 5.14 40 11:48 02.07.2022
2810 Clear 5 993 42 10000 6.69 40 10:50 02.07.2022
2811 Clear 5 994 42 10000 6.69 30 09:49 02.07.2022
2812 Clear 3 994 60 10000 1.54 0 08:37 02.07.2022
2813 Clear 3 994 60 10000 1.54 0 08:19 02.07.2022
2814 Clouds 5 995 52 10000 3.09 360 02:53 02.07.2022
2815 Clouds 5 995 52 10000 3.09 360 00:28 02.07.2022
2816 Clouds 2 995 69 10000 1.03 0 23:21 01.07.2022
2817 Clouds 4 995 60 10000 2.06 0 22:29 01.07.2022
2818 Clouds 2 995 75 10000 2.06 90 21:37 01.07.2022
2819 Clouds 2 995 75 10000 1.54 80 20:58 01.07.2022
2820 Clouds 2 995 75 10000 1.54 80 20:32 01.07.2022
2821 Clouds 2 996 75 10000 1.03 0 19:36 01.07.2022
2822 Clear 0 996 80 10000 2.06 350 16:42 01.07.2022
2823 Clear -1 996 80 10000 0.51 0 14:32 01.07.2022
2824 Clear 0 996 69 10000 1.03 270 13:51 01.07.2022
2825 Clear -2 996 80 10000 1.54 350 11:22 01.07.2022
2826 Clear -1 996 74 10000 3.09 360 10:19 01.07.2022
2827 Clear -1 997 80 10000 2.06 350 07:32 01.07.2022
2828 Clear -2 997 80 10000 2.06 290 02:43 01.07.2022
2829 Clear 0 998 74 10000 2.06 10 23:52 30.06.2022
2830 Clear 0 997 74 10000 2.57 330 22:51 30.06.2022
2831 Clear 0 997 74 10000 2.57 330 22:32 30.06.2022
2832 Clear 0 997 74 10000 2.57 330 22:32 30.06.2022
2833 Clear 0 997 74 10000 2.57 330 22:32 30.06.2022
2834 Clear 0 997 74 10000 2.57 330 22:32 30.06.2022
2835 Clear 1 997 69 10000 1.54 30 21:54 30.06.2022
2836 Clear 2 998 64 10000 1.03 0 20:53 30.06.2022
2837 Clear 2 998 64 10000 1.03 0 20:21 30.06.2022
2838 Clear 1 997 69 10000 2.57 280 19:48 30.06.2022
2839 Clear 1 998 64 10000 2.57 10 18:56 30.06.2022
2840 Clear 1 998 64 10000 2.57 10 18:22 30.06.2022
2841 Clear 0 998 69 10000 3.09 10 17:34 30.06.2022
2842 Clear 0 998 69 10000 3.09 10 16:22 30.06.2022
2843 Clear -1 998 74 10000 3.6 360 14:20 30.06.2022
2844 Clear -1 998 80 10000 2.06 350 13:29 30.06.2022
2845 Clear 0 998 69 10000 4.12 10 12:34 30.06.2022
2846 Clouds 0 998 69 10000 4.12 10 11:21 30.06.2022
2847 Clear 0 998 74 10000 3.09 350 09:52 30.06.2022
2848 Clear 0 998 74 10000 3.09 350 09:26 30.06.2022
2849 Clear -1 997 80 10000 1.54 310 07:41 30.06.2022
2850 Clouds 0 997 74 10000 3.6 360 05:46 30.06.2022
2851 Snow 1 996 75 10000 2.57 290 00:27 30.06.2022
2852 Clouds 1 996 64 10000 2.57 320 22:58 29.06.2022
2853 Clouds 1 996 64 10000 2.57 320 22:37 29.06.2022
2854 Clouds 2 995 69 10000 1.54 350 21:31 29.06.2022
2855 Clouds 3 995 65 10000 4.63 250 20:33 29.06.2022
2856 Clouds 3 995 65 10000 4.63 250 20:33 29.06.2022
2857 Clouds 3 994 60 10000 1.03 340 19:34 29.06.2022
2858 Clouds 2 995 64 10000 3.6 280 17:40 29.06.2022
2859 Clouds 1 994 69 10000 1.54 0 16:35 29.06.2022
2860 Clouds 2 993 75 10000 4.63 250 14:50 29.06.2022
2861 Clouds 1 992 69 10000 2.06 330 12:39 29.06.2022
2862 Clear 0 992 80 10000 3.6 360 10:25 29.06.2022
2863 Clear 1 991 69 10000 2.06 300 09:31 29.06.2022
2864 Clear 0 991 80 10000 3.6 290 07:36 29.06.2022
2865 Clouds 2 990 80 10000 6.17 260 04:50 29.06.2022
2866 Clouds 3 988 87 10000 6.69 240 00:56 29.06.2022
2867 Clouds 3 988 87 10000 6.69 240 00:35 29.06.2022
2868 Clouds 2 986 87 10000 2.06 250 22:53 28.06.2022
2869 Clouds 2 986 87 10000 2.06 250 22:23 28.06.2022
2870 Clouds 4 986 75 10000 2.06 290 21:53 28.06.2022
2871 Clouds 4 986 75 10000 2.06 290 21:31 28.06.2022
2872 Clouds 5 986 60 10000 0.51 270 20:27 28.06.2022
2873 Clear 4 986 70 10000 2.06 30 19:32 28.06.2022
2874 Clear 4 986 70 10000 2.06 30 19:32 28.06.2022
2875 Clouds 4 986 75 10000 0.51 0 18:45 28.06.2022
2876 Clouds 4 986 75 10000 0.51 0 18:45 28.06.2022
2877 Clear 4 986 75 10000 2.57 60 17:39 28.06.2022
2878 Clear 2 985 75 10000 1.54 280 15:57 28.06.2022
2879 Clear 2 985 75 10000 1.54 280 15:21 28.06.2022
2880 Clear 2 985 75 10000 1.54 280 14:20 28.06.2022
2881 Clear 5 985 56 10000 1.54 70 13:50 28.06.2022
2882 Clear 6 986 49 10000 1.03 310 12:54 28.06.2022
2883 Clear 6 986 52 10000 1.54 0 10:57 28.06.2022
2884 Clouds 7 987 49 10000 4.63 10 09:28 28.06.2022
2885 Clouds 7 988 45 10000 5.66 20 08:43 28.06.2022
2886 Clouds 7 989 45 10000 5.66 10 07:42 28.06.2022
2887 Clouds 7 990 49 10000 6.17 20 05:58 28.06.2022
2888 Clouds 1 994 91 10000 3.4 2 00:00 28.06.2022
2889 Clouds 6 992 52 10000 4.63 330 23:36 27.06.2022
2890 Clouds 2 992 87 10000 1.54 360 22:52 27.06.2022
2891 Clouds 4 992 81 10000 1.03 0 21:34 27.06.2022
2892 Clouds 5 992 70 10000 0 0 20:48 27.06.2022
2893 Clouds 4 993 81 10000 1.54 330 18:59 27.06.2022
2894 Clouds 4 993 81 10000 1.54 330 18:24 27.06.2022
2895 Clouds 4 992 81 10000 5.66 230 16:19 27.06.2022
2896 Rain 4 991 75 10000 4.63 220 14:45 27.06.2022
2897 Clouds 3 990 87 10000 2.06 360 13:35 27.06.2022
2898 Clouds 3 990 87 10000 3.09 280 12:52 27.06.2022
2899 Clouds 4 989 81 10000 4.12 280 10:34 27.06.2022
2900 Clouds 3 988 87 10000 3.09 270 09:18 27.06.2022
2901 Clouds 5 987 81 10000 8.75 240 08:19 27.06.2022
2902 Clouds 5 985 81 10000 7.72 240 06:38 27.06.2022
2903 Rain 6 983 93 10000 9.77 250 02:28 27.06.2022
2904 Clouds 7 981 81 10000 6.17 240 23:55 26.06.2022
2905 Clouds 8 980 76 10000 7.72 240 21:59 26.06.2022
2906 Clouds 8 979 81 10000 7.2 240 20:44 26.06.2022
2907 Clouds 9 979 76 10000 7.2 250 19:32 26.06.2022
2908 Clouds 9 979 76 10000 6.17 260 18:30 26.06.2022
2909 Clouds 9 979 76 10000 6.69 240 16:45 26.06.2022
2910 Clouds 10 979 62 10000 3.6 20 14:42 26.06.2022
2911 Clouds 8 979 71 10000 1.54 0 13:38 26.06.2022
2912 Clouds 8 979 71 10000 1.54 0 13:18 26.06.2022
2913 Clouds 6 981 75 10000 2.06 250 11:26 26.06.2022
2914 Clouds 8 983 66 10000 3.09 150 10:26 26.06.2022
2915 Clouds 7 984 70 10000 4.12 110 09:22 26.06.2022
2916 Clouds 6 987 75 10000 2.57 100 07:41 26.06.2022
2917 Rain 5 999 87 10000 2.57 30 01:54 26.06.2022
2918 Rain 5 1000 81 10000 1.03 0 00:21 26.06.2022
2919 Rain 5 1002 81 10000 2.06 40 23:49 25.06.2022
2920 Rain 5 1002 81 10000 2.06 40 23:20 25.06.2022
2921 Clouds 5 1003 81 10000 1.03 10 22:27 25.06.2022
2922 Clouds 5 1004 81 10000 0.51 0 21:40 25.06.2022
2923 Clouds 5 1004 81 10000 0.51 0 21:18 25.06.2022
2924 Clouds 5 1005 81 10000 2.57 30 20:27 25.06.2022
2925 Clouds 6 1007 70 10000 2.06 330 19:21 25.06.2022
2926 Clear 5 1010 75 10000 2.67 333 17:56 25.06.2022
2927 Clear 5 1010 75 10000 2.5 334 17:22 25.06.2022
2928 Clear 5 1012 75 10000 2.57 0 15:36 25.06.2022
2929 Clouds 5 1015 70 10000 4.12 350 13:34 25.06.2022
2930 Clouds 7 1015 65 10000 8.23 270 12:38 25.06.2022
2931 Clouds 6 1017 70 10000 5.14 270 10:35 25.06.2022
2932 Clouds 7 1018 70 10000 8.23 250 08:59 25.06.2022
2933 Clouds 7 1018 70 10000 8.23 250 08:37 25.06.2022
2934 Clouds 7 1018 70 10000 8.23 250 08:18 25.06.2022
2935 Clouds 3 1020 95 10000 1.87 331 03:34 25.06.2022
2936 Clouds 3 1021 97 6034 1.59 301 00:35 25.06.2022
2937 Clouds 5 1019 87 10000 11.83 250 22:54 24.06.2022
2938 Clouds 5 1019 81 10000 9.26 260 21:42 24.06.2022
2939 Clouds 6 1019 75 10000 11.83 260 20:48 24.06.2022
2940 Clouds 6 1019 75 10000 11.83 260 20:19 24.06.2022
2941 Clouds 6 1019 70 10000 12.86 250 19:21 24.06.2022
2942 Clouds 6 1020 70 10000 13.89 250 18:49 24.06.2022
2943 Clouds 6 1020 70 10000 13.89 250 18:30 24.06.2022
2944 Clouds 5 1020 75 10000 10.8 250 17:20 24.06.2022
2945 Clouds 4 1021 70 10000 13.38 260 15:29 24.06.2022
2946 Clouds 4 1022 75 10000 13.38 250 14:27 24.06.2022
2947 Clouds 4 1022 75 10000 11.32 240 13:55 24.06.2022
2948 Clear 4 1022 75 10000 11.83 250 11:44 24.06.2022
2949 Clear 4 1022 75 10000 11.83 250 11:18 24.06.2022
2950 Clouds 4 1022 75 10000 12.35 250 09:55 24.06.2022
2951 Clouds 4 1022 75 10000 8.75 250 09:29 24.06.2022
2952 Clouds 4 1022 75 10000 10.29 250 08:52 24.06.2022
2953 Clouds 4 1022 75 10000 10.8 250 06:48 24.06.2022
2954 Clouds 4 1022 75 10000 10.8 250 06:30 24.06.2022
2955 Clouds 4 1022 81 10000 9.77 250 05:52 24.06.2022
2956 Rain 4 1020 81 10000 9.26 240 01:28 24.06.2022
2957 Rain 4 1019 81 10000 9.26 240 22:44 23.06.2022
2958 Rain 4 1019 81 10000 9.26 240 22:18 23.06.2022
2959 Clouds 4 1017 81 10000 7.2 250 20:54 23.06.2022
2960 Clouds 4 1017 81 10000 7.2 250 20:32 23.06.2022
2961 Clouds 4 1016 87 10000 7.2 240 18:49 23.06.2022
2962 Rain 3 1016 93 10000 7.72 250 17:45 23.06.2022
2963 Rain 3 1015 93 8000 9.77 240 16:42 23.06.2022
2964 Rain 3 1015 93 5000 8.75 240 15:43 23.06.2022
2965 Rain 3 1015 93 5000 8.75 240 15:23 23.06.2022
2966 Rain 2 1013 93 7000 8.75 240 12:43 23.06.2022
2967 Rain 2 1013 100 7000 9.26 250 11:20 23.06.2022
2968 Rain 2 1013 93 5000 9.77 250 09:30 23.06.2022
2969 Rain 2 1013 93 10000 8.23 240 07:51 23.06.2022
2970 Rain 3 1012 93 10000 10.29 240 02:19 23.06.2022
2971 Clouds 3 1011 87 10000 12.35 240 00:25 23.06.2022
2972 Clouds 3 1011 87 10000 12.86 250 23:27 22.06.2022
2973 Clouds 4 1011 81 10000 14.4 240 22:24 22.06.2022
2974 Clouds 5 1011 75 10000 15.43 240 20:57 22.06.2022
2975 Clouds 5 1011 75 10000 15.43 240 20:21 22.06.2022
2976 Clouds 4 1011 81 10000 15.95 240 19:48 22.06.2022
2977 Clouds 4 1011 81 10000 15.43 240 18:21 22.06.2022
2978 Drizzle 4 1012 81 10000 14.4 240 17:24 22.06.2022
2979 Drizzle 4 1012 81 10000 13.89 230 16:18 22.06.2022
2980 Drizzle 4 1013 81 10000 13.38 240 15:25 22.06.2022
2981 Clouds 4 1013 87 10000 12.35 240 13:52 22.06.2022
2982 Clouds 4 1013 87 10000 12.35 240 13:26 22.06.2022
2983 Clouds 4 1014 81 10000 11.83 240 12:56 22.06.2022
2984 Clouds 3 1014 81 10000 10.8 240 11:47 22.06.2022
2985 Clouds 3 1014 87 10000 11.83 250 10:54 22.06.2022
2986 Clouds 3 1015 81 10000 11.32 250 09:54 22.06.2022
2987 Clouds 2 1016 87 10000 11.32 250 07:56 22.06.2022
2988 Clouds 2 1016 87 10000 15.43 250 03:30 22.06.2022
2989 Clouds 3 1017 81 10000 12.86 240 01:22 22.06.2022
2990 Clouds 3 1017 81 10000 13.38 240 23:41 21.06.2022
2991 Clouds 4 1017 65 10000 13.38 240 21:32 21.06.2022
2992 Clouds 4 1018 65 10000 12.35 250 19:47 21.06.2022
2993 Clouds 4 1018 65 10000 13.38 250 18:30 21.06.2022
2994 Clouds 3 1018 70 10000 13.38 250 17:25 21.06.2022
2995 Clouds 3 1018 81 10000 10.8 250 13:33 21.06.2022
2996 Clouds 3 1017 75 10000 11.83 250 11:30 21.06.2022
2997 Clouds 3 1017 81 10000 14.4 250 09:48 21.06.2022
2998 Clouds 3 1016 81 10000 14.4 250 08:22 21.06.2022
2999 Clouds 1 1018 86 10000 10.29 250 05:41 21.06.2022
3000 Snow 0 1019 80 7000 9.77 250 00:43 21.06.2022
3001 Clouds 0 1019 74 10000 9.26 240 23:18 20.06.2022
3002 Snow 0 1018 74 8000 8.23 240 21:52 20.06.2022
3003 Snow 0 1018 80 8000 9.77 250 20:47 20.06.2022
3004 Clouds 0 1018 80 10000 7.72 240 19:39 20.06.2022
3005 Snow 0 1018 80 10000 7.2 230 18:45 20.06.2022
3006 Snow 0 1017 80 5000 7.72 240 17:52 20.06.2022
3007 Clouds 0 1017 80 10000 7.72 240 17:29 20.06.2022
3008 Snow 0 1015 80 7000 6.17 240 15:56 20.06.2022
3009 Snow 1 1013 80 5000 6.17 150 12:54 20.06.2022
3010 Clouds 1 1011 80 8000 6.17 160 10:58 20.06.2022
3011 Snow 1 1010 80 7000 7.2 180 09:41 20.06.2022
3012 Snow 1 1009 86 6000 6.17 210 08:44 20.06.2022
3013 Clouds 0 1007 93 7000 4.12 250 06:19 20.06.2022
3014 Snow 0 1003 93 4000 1.03 300 02:29 20.06.2022
3015 Snow -1 1001 100 1000 1.54 280 00:32 20.06.2022
3016 Snow -1 1001 100 1000 1.54 290 23:18 19.06.2022
3017 Snow -1 999 100 1000 1.03 360 21:59 19.06.2022
3018 Snow -1 999 100 1000 1.03 360 21:40 19.06.2022
3019 Snow -1 999 93 1000 1.54 40 20:44 19.06.2022
3020 Snow -1 999 93 1000 1.03 300 19:48 19.06.2022
3021 Snow -1 999 93 1000 1.03 300 19:20 19.06.2022
3022 Snow 0 999 80 2000 2.06 40 18:30 19.06.2022
3023 Clouds -2 1000 80 10000 2.39 1 17:22 19.06.2022
3024 Snow -1 999 80 7000 0.51 240 16:36 19.06.2022
3025 Clouds -2 999 80 10000 2.06 280 15:44 19.06.2022
3026 Clouds -2 999 80 10000 2.06 280 15:25 19.06.2022
3027 Clouds -1 1000 74 10000 1.54 290 14:20 19.06.2022
3028 Clouds -2 1001 74 10000 2.06 310 13:43 19.06.2022
3029 Clouds -1 1002 74 10000 2.57 20 11:52 19.06.2022
3030 Clouds 0 1003 74 10000 3.6 20 10:49 19.06.2022
3031 Snow -2 1004 93 5000 4.12 280 08:54 19.06.2022
3032 Snow -2 1004 93 5000 4.12 280 08:30 19.06.2022
3033 Snow 0 1004 80 5000 8.23 250 05:59 19.06.2022
3034 Clouds -1 1005 80 10000 8.75 250 03:19 19.06.2022
3035 Clouds -1 1005 80 10000 7.72 250 00:26 19.06.2022
3036 Clouds -1 1005 86 10000 9.77 250 23:37 18.06.2022
3037 Clouds -1 1005 86 10000 9.77 250 23:19 18.06.2022
3038 Clouds 0 1004 74 5000 6.69 250 21:52 18.06.2022
3039 Snow -1 1004 86 2000 8.23 240 20:50 18.06.2022
3040 Snow -1 1004 86 10000 8.75 240 19:50 18.06.2022
3041 Snow -1 1003 93 10000 11.32 230 18:54 18.06.2022
3042 Clouds -1 1004 93 10000 9.26 230 17:54 18.06.2022
3043 Clouds -1 1004 93 10000 9.26 230 17:23 18.06.2022
3044 Clouds -1 1003 86 10000 8.75 230 15:39 18.06.2022
3045 Clouds -1 1003 86 10000 7.2 230 14:50 18.06.2022
3046 Clouds -2 1003 93 10000 6.17 230 13:54 18.06.2022
3047 Clouds -2 1003 93 10000 6.17 230 12:25 18.06.2022
3048 Snow -2 1002 93 10000 5.14 230 10:59 18.06.2022
3049 Snow -2 1002 93 10000 4.63 230 09:29 18.06.2022
3050 Snow -2 1002 93 10000 2.57 320 08:37 18.06.2022
3051 Snow -2 1002 93 1000 0.51 0 07:33 18.06.2022
3052 Snow -2 1001 93 10000 3.6 200 04:43 18.06.2022
3053 Clouds -1 993 80 10000 9.77 230 01:27 18.06.2022
3054 Clouds -1 992 80 10000 6.69 200 00:55 18.06.2022
3055 Clouds -1 992 80 10000 6.69 200 00:22 18.06.2022
3056 Snow -1 998 86 6000 9.26 230 23:33 17.06.2022
3057 Snow 0 994 86 500 15.43 230 21:57 17.06.2022
3058 Snow 1 994 86 10000 10.29 230 20:29 17.06.2022
3059 Snow 1 994 86 10000 11.32 230 19:20 17.06.2022
3060 Snow 0 992 100 2000 6.17 230 17:47 17.06.2022
3061 Snow 1 991 100 500 7.72 230 16:44 17.06.2022
3062 Snow 1 991 86 1000 9.26 230 16:25 17.06.2022
3063 Snow 0 991 100 5000 8.75 180 15:37 17.06.2022
3064 Snow 1 990 86 5000 9.77 230 14:23 17.06.2022
3065 Snow 1 990 86 5000 9.77 230 14:23 17.06.2022
3066 Snow 1 986 86 4000 13.38 230 13:58 17.06.2022
3067 Snow 1 986 86 4000 13.38 230 13:38 17.06.2022
3068 Snow -1 986 100 1000 1.09 343 12:24 17.06.2022
3069 Snow -1 986 100 4000 2.06 180 11:55 17.06.2022
3070 Snow -1 986 100 1000 2.06 180 11:33 17.06.2022
3071 Snow 0 990 80 10000 2.57 160 08:58 17.06.2022
3072 Snow 0 990 80 10000 2.57 160 08:25 17.06.2022
3073 Clouds -1 993 86 10000 2.57 360 06:44 17.06.2022
3074 Snow 0 997 80 8000 6.17 230 03:59 17.06.2022
3075 Snow 0 998 80 6000 9.26 230 01:56 17.06.2022
3076 Snow 0 997 93 5000 3.29 208 23:47 16.06.2022
3077 Clouds 0 996 86 10000 8.75 230 22:42 16.06.2022
3078 Clouds 1 996 86 10000 8.23 230 21:22 16.06.2022
3079 Clouds 1 995 93 10000 7.2 230 20:52 16.06.2022
3080 Clouds 1 995 93 10000 7.2 230 20:33 16.06.2022
3081 Clouds 2 994 93 9000 7.72 230 19:32 16.06.2022
3082 Clouds 2 994 93 9000 5.66 200 18:24 16.06.2022
3083 Clouds 2 993 93 7000 6.17 180 17:42 16.06.2022
3084 Drizzle 2 992 93 10000 9.26 230 16:33 16.06.2022
3085 Clouds 3 991 87 10000 8.75 230 15:22 16.06.2022
3086 Drizzle 3 991 93 10000 8.75 230 14:36 16.06.2022
3087 Rain 3 990 93 10000 7.72 230 13:20 16.06.2022
3088 Rain 4 989 87 10000 6.69 140 12:36 16.06.2022
3089 Drizzle 5 988 93 10000 7.72 220 11:49 16.06.2022
3090 Clouds 6 988 75 10000 2.06 0 10:54 16.06.2022
3091 Clouds 7 989 61 10000 1.03 0 09:53 16.06.2022
3092 Clouds 7 989 61 10000 1.03 0 09:21 16.06.2022
3093 Clouds 7 989 57 10000 5.66 300 08:28 16.06.2022
3094 Clouds 7 990 57 10000 6.17 300 07:24 16.06.2022
3095 Clear 8 992 49 10000 5.14 320 04:42 16.06.2022
3096 Clouds 6 993 70 10000 3.09 70 02:19 16.06.2022
3097 Clouds 5 995 74 10000 5.12 329 01:35 16.06.2022
3098 Clouds 6 994 75 10000 5.14 90 00:39 16.06.2022
3099 Clouds 6 994 70 10000 3.09 70 23:33 15.06.2022
3100 Clouds 6 994 75 10000 4.12 70 22:35 15.06.2022
3101 Clouds 6 994 75 10000 3.6 70 21:22 15.06.2022
3102 Clouds 6 994 75 10000 3.09 50 20:42 15.06.2022
3103 Clouds 6 994 75 10000 3.09 50 20:23 15.06.2022
3104 Clouds 7 995 70 10000 5.14 90 19:20 15.06.2022
3105 Clouds 6 996 70 10000 2.57 230 17:56 15.06.2022
3106 Clouds 5 997 75 10000 2.57 230 16:55 15.06.2022
3107 Clouds 6 997 70 10000 3.6 345 15:37 15.06.2022
3108 Clear 6 998 93 10000 1.03 90 14:18 15.06.2022
3109 Clouds 5 999 70 10000 3.6 90 12:54 15.06.2022
3110 Clouds 5 999 70 10000 2.06 140 11:53 15.06.2022
3111 Clouds 5 1000 70 10000 3.6 180 10:24 15.06.2022
3112 Clouds 4 1001 70 10000 1.54 90 09:43 15.06.2022
3113 Clouds 4 1001 70 10000 3.09 20 08:40 15.06.2022
3114 Clouds 3 1003 70 10000 3.6 320 06:34 15.06.2022
3115 Clouds 4 1004 65 10000 5.66 320 04:34 15.06.2022
3116 Clouds 3 1005 81 10000 4.12 320 01:54 15.06.2022
3117 Clouds 3 1005 70 10000 2.06 290 00:50 15.06.2022
3118 Clouds 3 1007 88 10000 2.01 327 23:39 14.06.2022
3119 Clouds 3 1007 88 10000 1.8 317 23:21 14.06.2022
3120 Clear 4 1006 70 10000 3.6 290 22:23 14.06.2022
3121 Clear 3 1007 81 10000 4.12 340 21:38 14.06.2022
3122 Clear 4 1007 75 10000 1.54 230 20:54 14.06.2022
3123 Clear 4 1007 75 10000 1.54 230 20:28 14.06.2022
3124 Clear 4 1006 75 10000 2.57 340 19:18 14.06.2022
3125 Clear 3 1007 81 10000 2.06 0 18:20 14.06.2022
3126 Clear 2 1007 87 10000 2.57 320 16:47 14.06.2022
3127 Clouds 4 1006 70 10000 3.09 270 15:50 14.06.2022
3128 Clouds 4 1006 70 10000 3.09 270 15:28 14.06.2022
3129 Clouds 4 1006 75 10000 5.14 230 14:37 14.06.2022
3130 Clouds 4 1006 81 10000 6.17 230 13:46 14.06.2022
3131 Clouds 4 1005 87 10000 7.2 240 12:45 14.06.2022
3132 Clouds 4 1004 81 10000 6.17 240 11:41 14.06.2022
3133 Clouds 5 1004 75 10000 6.17 240 10:48 14.06.2022
3134 Clouds 5 1004 75 10000 6.17 240 10:22 14.06.2022
3135 Clouds 5 1002 81 10000 7.2 240 08:49 14.06.2022
3136 Clouds 5 1002 81 10000 6.69 240 07:49 14.06.2022
3137 Clouds 5 1008 87 10000 6.17 230 05:46 14.06.2022
3138 Clouds 5 998 81 10000 11.32 230 03:20 14.06.2022
3139 Clouds 6 996 70 10000 6.69 230 00:54 14.06.2022
3140 Clouds 6 995 75 10000 9.77 230 23:48 13.06.2022
3141 Clouds 6 995 75 10000 10.29 230 22:26 13.06.2022
3142 Clouds 7 994 76 10000 9.26 230 21:54 13.06.2022
3143 Clouds 6 994 87 10000 8.75 230 20:42 13.06.2022
3144 Drizzle 6 994 100 10000 8.23 230 19:35 13.06.2022
3145 Clouds 6 994 100 10000 7.2 230 18:36 13.06.2022
3146 Clouds 6 994 100 10000 4.12 230 17:48 13.06.2022
3147 Clouds 6 994 100 10000 4.63 230 16:54 13.06.2022
3148 Clouds 6 994 100 10000 2.06 360 15:41 13.06.2022
3149 Clouds 5 993 100 10000 3.09 230 14:47 13.06.2022
3150 Clouds 3 993 100 10000 2.06 360 13:55 13.06.2022
3151 Clouds 3 993 100 10000 0 0 12:59 13.06.2022
3152 Fog 2 993 100 200 1.54 270 11:38 13.06.2022
3153 Fog 1 993 100 100 1.54 360 10:28 13.06.2022
3154 Fog 2 993 100 150 1.03 0 09:42 13.06.2022
3155 Clouds 6 995 93 10000 2.34 329 08:27 13.06.2022
3156 Fog 3 994 100 100 0.51 0 06:34 13.06.2022
3157 Fog 5 994 93 400 1.03 0 04:18 13.06.2022
3158 Fog 5 996 100 500 5.66 70 01:39 13.06.2022
3159 Clouds 6 996 93 10000 5.14 70 00:59 13.06.2022
3160 Clouds 6 996 93 10000 5.14 50 23:33 12.06.2022
3161 Clouds 6 996 100 10000 5.14 50 22:23 12.06.2022
3162 Clouds 7 996 93 10000 4.63 50 21:40 12.06.2022
3163 Clouds 8 996 87 10000 5.14 50 20:43 12.06.2022
3164 Clouds 8 996 81 10000 5.14 50 19:42 12.06.2022
3165 Clouds 7 996 87 10000 3.6 50 18:44 12.06.2022
3166 Clear 8 996 76 10000 0 0 16:57 12.06.2022
3167 Clear 8 995 71 10000 2.57 320 15:33 12.06.2022
3168 Clear 10 994 71 10000 0 0 14:41 12.06.2022
3169 Clear 10 994 71 10000 0 0 14:18 12.06.2022
3170 Clear 10 994 66 10000 2.06 360 13:43 12.06.2022
3171 Clear 10 993 66 10000 1.54 310 11:58 12.06.2022
3172 Clear 10 993 66 10000 2.06 80 10:46 12.06.2022
3173 Clouds 12 993 58 10000 2.06 120 09:36 12.06.2022
3174 Clouds 11 992 62 10000 1.54 190 08:49 12.06.2022
3175 Clouds 12 993 62 10000 2.57 150 07:49 12.06.2022
3176 Clouds 14 993 54 10000 4.12 320 06:21 12.06.2022
3177 Clouds 10 994 71 10000 3.09 0 03:38 12.06.2022
3178 Clouds 4 997 96 9942 3.76 344 01:49 12.06.2022
3179 Clouds 5 998 95 10000 3.93 347 01:22 12.06.2022
3180 Drizzle 10 997 66 10000 3.6 320 00:36 12.06.2022
3181 Drizzle 10 997 66 10000 3.6 320 00:18 12.06.2022
3182 Clouds 9 998 66 10000 2.06 140 22:58 11.06.2022
3183 Clouds 9 998 66 10000 2.06 140 22:31 11.06.2022
3184 Clouds 6 999 87 10000 3.6 360 21:18 11.06.2022
3185 Drizzle 5 1000 87 10000 2.57 90 20:26 11.06.2022
3186 Drizzle 5 1000 87 10000 2.57 90 19:33 11.06.2022
3187 Rain 5 1002 97 10000 3.44 3 18:42 11.06.2022
3188 Rain 5 1003 95 10000 3.24 358 18:24 11.06.2022
3189 Clouds 4 1003 93 10000 4.63 90 17:38 11.06.2022
3190 Clouds 4 1003 93 10000 4.63 90 17:19 11.06.2022
3191 Clear 4 1004 93 10000 2.06 360 16:42 11.06.2022
3192 Clear 4 1004 87 10000 2.57 90 15:47 11.06.2022
3193 Clear 4 1004 75 10000 2.57 360 14:23 11.06.2022
3194 Clear 3 1004 81 10000 0 0 13:47 11.06.2022
3195 Clear 4 1004 75 10000 5.14 320 11:46 11.06.2022
3196 Clear 5 1003 65 10000 3.09 320 10:30 11.06.2022
3197 Clouds 5 1003 70 10000 1.54 320 09:41 11.06.2022
3198 Clouds 5 1002 70 10000 3.09 320 08:37 11.06.2022
3199 Clear 7 1000 61 10000 5.14 250 06:32 11.06.2022
3200 Clear 6 999 65 10000 4.63 250 05:26 11.06.2022
3201 Clouds 8 997 61 10000 2.06 0 02:42 11.06.2022
3202 Clouds 8 996 57 10000 3.6 0 01:41 11.06.2022
3203 Clouds 8 995 57 10000 6.69 290 00:54 11.06.2022
3204 Clouds 8 995 57 10000 9.26 360 23:25 10.06.2022
3205 Clouds 6 995 61 10000 13.89 360 22:20 10.06.2022
3206 Clouds 7 996 57 10000 13.38 360 21:22 10.06.2022
3207 Clouds 6 998 56 10000 11.83 360 20:37 10.06.2022
3208 Clouds 6 998 56 10000 11.83 360 20:19 10.06.2022
3209 Clouds 5 999 65 10000 12.35 360 19:19 10.06.2022
3210 Clouds 5 1001 60 10000 13.38 360 18:29 10.06.2022
3211 Clouds 4 1002 70 10000 13.89 360 17:42 10.06.2022
3212 Clouds 4 1002 70 10000 13.89 360 17:21 10.06.2022
3213 Clouds 4 1004 65 10000 11.32 320 16:25 10.06.2022
3214 Clouds 5 1005 70 10000 12.35 320 15:37 10.06.2022
3215 Clouds 5 1008 52 10000 7.72 310 13:57 10.06.2022
3216 Clouds 5 1009 52 10000 7.72 320 12:50 10.06.2022
3217 Clouds 4 1011 60 10000 10.8 350 11:53 10.06.2022
3218 Clouds 0 1011 87 10000 5.24 4 10:45 10.06.2022
3219 Clouds 2 1013 69 10000 4.12 350 09:54 10.06.2022
3220 Clear 0 1015 86 10000 2.57 280 08:42 10.06.2022
3221 Clear 0 1016 86 10000 2.57 270 07:26 10.06.2022
3222 Clear 0 1017 80 10000 3.09 10 06:44 10.06.2022
3223 Clear 0 1017 80 10000 3.09 10 06:25 10.06.2022
3224 Clear 0 1019 80 10000 4.63 320 03:56 10.06.2022
3225 Clear 1 1019 80 10000 3.6 290 01:41 10.06.2022
3226 Clouds 1 1019 86 10000 4.12 270 00:32 10.06.2022
3227 Clouds 2 1018 75 10000 5.14 250 23:47 09.06.2022
3228 Clouds 3 1018 75 10000 7.72 230 22:18 09.06.2022
3229 Clouds 3 1018 75 10000 9.26 230 21:33 09.06.2022
3230 Clouds 3 1017 75 10000 8.23 230 20:54 09.06.2022
3231 Clouds 3 1017 75 10000 8.23 230 20:21 09.06.2022
3232 Clouds 3 1016 75 10000 10.29 230 19:21 09.06.2022
3233 Clouds 3 1015 70 10000 7.72 230 18:34 09.06.2022
3234 Clouds 1 1014 86 10000 11.32 230 16:56 09.06.2022
3235 Snow 1 1012 86 8000 8.75 230 15:49 09.06.2022
3236 Snow 1 1012 80 8000 10.8 230 14:35 09.06.2022
3237 Snow 0 1011 100 8000 7.72 230 13:54 09.06.2022
3238 Snow 0 1011 100 8000 7.72 230 13:28 09.06.2022
3239 Clouds 1 1008 80 10000 6.17 230 11:54 09.06.2022
3240 Clouds 1 1008 80 10000 6.17 230 11:19 09.06.2022
3241 Clouds 1 1006 86 10000 10.29 230 09:45 09.06.2022
3242 Clouds 1 1006 86 10000 10.29 230 09:24 09.06.2022
3243 Clouds 1 1002 100 8000 8.23 230 07:52 09.06.2022
3244 Clouds 1 1001 93 7000 10.29 230 06:41 09.06.2022
3245 Rain 2 996 80 8000 14.4 230 03:19 09.06.2022
3246 Drizzle 2 992 93 8000 11.32 230 23:48 08.06.2022
3247 Drizzle 2 991 93 8000 8.75 230 22:58 08.06.2022
3248 Drizzle 2 991 93 8000 8.75 230 22:27 08.06.2022
3249 Snow 1 989 100 1500 13.38 230 21:56 08.06.2022
3250 Snow 1 989 100 1500 13.38 230 21:23 08.06.2022
3251 Rain 5 986 93 2600 4.12 230 20:22 08.06.2022
3252 Drizzle 5 986 93 5000 1.03 230 19:39 08.06.2022
3253 Drizzle 5 986 87 3700 2.06 180 18:47 08.06.2022
3254 Clouds 5 985 87 10000 2.57 90 17:25 08.06.2022
3255 Clouds 6 985 81 10000 4.12 140 15:48 08.06.2022
3256 Clouds 6 983 81 10000 2.57 180 13:52 08.06.2022
3257 Clouds 6 982 81 10000 2.06 270 12:22 08.06.2022
3258 Clouds 6 983 75 10000 6.69 220 11:33 08.06.2022
3259 Clouds 8 982 61 10000 3.6 190 10:20 08.06.2022
3260 Clouds 8 982 61 10000 6.69 200 09:22 08.06.2022
3261 Clouds 8 982 66 10000 3.09 160 08:40 08.06.2022
3262 Drizzle 8 983 61 10000 4.63 220 06:35 08.06.2022
3263 Drizzle 10 986 43 10000 7.2 360 03:58 08.06.2022
3264 Clouds 7 989 57 10000 5.66 320 00:45 08.06.2022
3265 Clouds 7 989 57 10000 6.17 360 23:29 07.06.2022
3266 Clouds 7 989 57 10000 5.66 340 22:45 07.06.2022
3267 Clouds 7 989 57 10000 5.66 340 22:26 07.06.2022
3268 Clouds 7 989 57 10000 4.12 320 21:35 07.06.2022
3269 Clouds 9 989 53 10000 6.69 360 20:59 07.06.2022
3270 Clouds 9 989 53 10000 6.69 360 20:33 07.06.2022
3271 Clouds 9 989 53 10000 6.17 360 19:45 07.06.2022
3272 Clouds 8 989 57 10000 7.72 360 18:24 07.06.2022
3273 Clouds 8 989 53 10000 8.23 360 17:27 07.06.2022
3274 Clouds 7 990 61 10000 7.2 360 16:43 07.06.2022
3275 Clouds 7 989 53 10000 6.69 360 15:54 07.06.2022
3276 Clouds 7 989 53 10000 6.69 360 15:26 07.06.2022
3277 Clouds 7 988 53 10000 5.66 360 14:52 07.06.2022
3278 Clouds 7 988 53 10000 5.66 360 14:32 07.06.2022
3279 Clouds 1 991 85 10000 4.81 5 13:32 07.06.2022
3280 Clouds 1 991 85 10000 5.06 9 12:52 07.06.2022
3281 Clouds 7 989 53 10000 6.17 320 11:47 07.06.2022
3282 Clouds 7 988 49 10000 7.72 320 10:27 07.06.2022
3283 Clouds 6 989 52 10000 6.17 340 08:50 07.06.2022
3284 Clouds 6 989 56 10000 7.2 320 07:34 07.06.2022
3285 Clouds 6 989 56 10000 6.17 20 06:22 07.06.2022
3286 Clouds 4 991 48 10000 5.66 320 03:32 07.06.2022
3287 Clouds 1 990 75 10000 2.57 320 01:26 07.06.2022
3288 Clouds 2 989 75 10000 5.14 230 23:46 06.06.2022
3289 Clouds 3 988 70 10000 4.63 200 22:54 06.06.2022
3290 Clouds 3 988 70 10000 4.63 200 22:28 06.06.2022
3291 Clouds 3 988 75 10000 2.57 200 20:42 06.06.2022
3292 Clouds 2 984 80 10000 1.03 0 19:24 06.06.2022
3293 Snow 1 983 93 10000 5.66 230 18:48 06.06.2022
3294 Snow 2 982 87 5000 6.17 230 17:59 06.06.2022
3295 Clouds 3 980 56 10000 4.12 270 16:57 06.06.2022
3296 Clouds 2 978 80 10000 0 0 15:57 06.06.2022
3297 Clouds 2 977 80 10000 8.75 230 14:59 06.06.2022
3298 Clouds 2 977 80 10000 8.75 230 14:59 06.06.2022
3299 Clouds 2 977 80 10000 8.75 230 14:26 06.06.2022
3300 Drizzle 3 976 87 10000 11.32 230 13:20 06.06.2022
3301 Drizzle 4 974 65 10000 13.89 230 12:35 06.06.2022
3302 Rain 4 970 87 10000 15.43 220 11:49 06.06.2022
3303 Rain 4 968 87 9000 17.49 230 10:21 06.06.2022
3304 Clouds 4 965 93 9000 18.52 220 09:23 06.06.2022
3305 Clouds 8 965 61 10000 1.54 250 08:31 06.06.2022
3306 Clouds 7 964 65 10000 9.26 180 07:24 06.06.2022
3307 Clouds 9 966 49 10000 7.72 320 04:42 06.06.2022
3308 Clouds 10 968 43 10000 9.26 360 02:27 06.06.2022
3309 Clouds 1 973 86 10000 5.66 5 00:57 06.06.2022
3310 Clouds 1 973 86 10000 5.66 5 00:35 06.06.2022
3311 Drizzle 10 974 43 10000 8.75 320 23:28 05.06.2022
3312 Drizzle 10 976 43 10000 9.77 360 22:33 05.06.2022
3313 Clouds 9 979 37 10000 4.12 230 20:40 05.06.2022
3314 Clouds 6 984 65 10000 4.12 360 19:26 05.06.2022
3315 Clouds 6 982 61 10000 9.26 360 18:26 05.06.2022
3316 Clouds 6 984 65 10000 4.12 360 17:50 05.06.2022
3317 Clouds 6 984 65 10000 4.12 360 17:23 05.06.2022
3318 Clouds 6 984 65 10000 8.75 360 16:49 05.06.2022
3319 Clouds 6 985 61 10000 9.26 360 15:50 05.06.2022
3320 Clouds 6 986 61 10000 11.32 360 14:22 05.06.2022
3321 Clouds 6 988 65 10000 10.29 360 12:43 05.06.2022
3322 Clouds 7 988 53 10000 7.2 340 11:35 05.06.2022
3323 Clouds 7 989 53 10000 6.69 360 10:25 05.06.2022
3324 Clouds 7 990 53 10000 8.23 340 09:58 05.06.2022
3325 Clouds 7 990 53 10000 6.69 320 08:28 05.06.2022
3326 Clouds 6 990 56 10000 9.77 340 07:41 05.06.2022
3327 Clouds 6 991 56 10000 6.17 320 05:21 05.06.2022
3328 Clouds 4 991 52 10000 5.66 270 03:43 05.06.2022
3329 Clouds 3 992 60 10000 5.14 320 01:32 05.06.2022
3330 Clouds 3 992 60 10000 4.12 290 00:29 05.06.2022
3331 Clouds 3 993 60 10000 1.54 90 21:58 04.06.2022
3332 Clouds 3 993 65 10000 1.03 0 20:21 04.06.2022
3333 Clouds 2 993 75 10000 3.09 200 18:18 04.06.2022
3334 Clouds 2 993 69 10000 2.06 230 16:43 04.06.2022
3335 Clouds 1 995 88 10000 1.67 351 16:18 04.06.2022
3336 Clouds 1 990 86 10000 11.32 230 14:47 04.06.2022
3337 Drizzle 2 987 80 10000 14.92 230 12:28 04.06.2022
3338 Clouds 2 986 80 10000 12.86 230 11:18 04.06.2022
3339 Rain 2 985 93 10000 11.32 230 10:43 04.06.2022
3340 Rain 3 984 93 10000 6.17 230 09:42 04.06.2022
3341 Clouds 4 983 87 10000 11.32 220 08:41 04.06.2022
3342 Clouds 5 983 60 10000 4.12 220 07:40 04.06.2022
3343 Clouds 6 983 49 10000 8.23 320 04:57 04.06.2022
3344 Clouds 6 986 49 10000 6.69 360 01:27 04.06.2022
3345 Clouds 6 987 49 10000 9.77 320 23:59 03.06.2022
3346 Clouds 7 988 45 10000 11.32 320 22:40 03.06.2022
3347 Clouds 7 990 49 10000 9.26 320 21:30 03.06.2022
3348 Clouds 7 991 49 10000 9.77 320 20:37 03.06.2022
3349 Clouds 7 994 53 10000 6.17 340 18:27 03.06.2022
3350 Clouds 6 996 56 10000 6.69 320 16:47 03.06.2022
3351 Clouds 6 996 56 10000 5.66 320 15:23 03.06.2022
3352 Clouds 5 998 52 10000 6.17 320 13:22 03.06.2022
3353 Clouds 5 998 56 10000 1.03 230 11:40 03.06.2022
3354 Clouds 4 1000 60 10000 5.14 340 09:45 03.06.2022
3355 Clouds 4 1000 60 10000 5.14 340 09:24 03.06.2022
3356 Clear 2 1001 64 10000 1.03 90 07:27 03.06.2022
3357 Clear 2 1002 64 10000 1.54 140 06:35 03.06.2022
3358 Clear 2 1002 55 10000 2.06 270 05:52 03.06.2022
3359 Clear 1 1005 64 10000 1.03 320 00:41 03.06.2022
3360 Clear 1 1006 69 10000 2.57 320 22:47 02.06.2022
3361 Clear 2 1007 69 10000 0.51 0 21:51 02.06.2022
3362 Clear 3 1008 65 10000 0.51 0 20:22 02.06.2022
3363 Clear 3 1008 65 10000 0.51 0 20:22 02.06.2022
3364 Clear 3 1008 65 10000 1.54 360 19:50 02.06.2022
3365 Clear 3 1008 65 10000 1.54 360 19:32 02.06.2022
3366 Clear 1 1010 69 10000 3.09 360 17:35 02.06.2022
3367 Clear 1 1010 75 10000 5.66 360 16:28 02.06.2022
3368 Clear 1 1011 75 10000 5.14 360 14:22 02.06.2022
3369 Clear 0 1011 80 10000 6.17 360 13:30 02.06.2022
3370 Clear 0 1011 80 10000 6.17 360 13:30 02.06.2022
3371 Clear 0 1011 80 10000 4.12 320 12:21 02.06.2022
3372 Clouds 2 1011 75 10000 3.09 330 10:20 02.06.2022
3373 Clouds 3 1011 75 10000 4.12 280 09:28 02.06.2022
3374 Clouds 2 1011 75 10000 3.6 290 08:27 02.06.2022
3375 Clouds 2 1011 75 10000 2.57 330 07:33 02.06.2022
3376 Clear 2 1012 75 10000 2.06 320 05:29 02.06.2022
3377 Clear 1 1012 86 10000 2.06 360 03:45 02.06.2022
3378 Clouds 2 1014 87 10000 3.6 360 23:52 01.06.2022
3379 Clouds 2 1014 87 10000 3.09 360 22:54 01.06.2022
3380 Clouds 3 1014 75 10000 1.03 360 21:39 01.06.2022
3381 Clouds 3 1014 75 10000 1.03 360 21:19 01.06.2022
3382 Clouds 3 1015 75 10000 2.57 360 20:37 01.06.2022
3383 Clouds 3 1015 82 10000 0.65 237 19:31 01.06.2022
3384 Clouds 2 1017 87 10000 4.63 180 17:46 01.06.2022
3385 Clouds 2 1017 80 10000 2.06 270 16:40 01.06.2022
3386 Clouds 2 1017 80 10000 2.06 270 15:18 01.06.2022
3387 Clouds 2 1017 80 10000 2.06 270 13:54 01.06.2022
3388 Clouds 2 1018 80 10000 2.57 320 12:29 01.06.2022
3389 Clouds 2 1018 80 10000 3.09 270 10:37 01.06.2022
3390 Clear 2 1018 80 10000 2.06 290 09:25 01.06.2022
3391 Clear 2 1019 87 10000 2.57 320 07:25 01.06.2022
3392 Clear 2 1019 80 10000 2.06 320 06:40 01.06.2022
3393 Clouds 4 1018 81 10000 7.2 230 01:29 01.06.2022
3394 Clouds 5 1018 81 10000 8.23 230 23:41 31.05.2022
3395 Clouds 5 1018 81 10000 7.2 230 22:37 31.05.2022
3396 Clouds 6 1017 75 10000 8.23 230 21:46 31.05.2022
3397 Clouds 6 1017 70 10000 9.77 230 20:52 31.05.2022
3398 Clouds 6 1017 70 10000 9.77 230 20:31 31.05.2022
3399 Clouds 6 1018 75 10000 8.75 230 18:54 31.05.2022
3400 Clouds 5 1018 87 10000 7.72 230 17:51 31.05.2022
3401 Clouds 5 1018 87 10000 7.72 230 17:20 31.05.2022
3402 Drizzle 5 1018 93 10000 10.8 230 15:42 31.05.2022
3403 Drizzle 5 1017 93 10000 10.29 230 14:33 31.05.2022
3404 Clouds 5 1017 87 10000 9.77 230 12:22 31.05.2022
3405 Clouds 5 1017 87 10000 9.77 230 11:42 31.05.2022
3406 Clouds 5 1017 87 10000 10.29 230 09:49 31.05.2022
3407 Clouds 5 1016 87 10000 11.83 230 07:36 31.05.2022
3408 Clouds 6 1015 81 10000 12.35 230 05:24 31.05.2022
3409 Drizzle 6 1016 81 10000 11.83 230 02:33 31.05.2022
3410 Clouds 6 1016 81 10000 11.83 230 23:29 30.05.2022
3411 Clouds 6 1016 81 10000 11.32 230 22:59 30.05.2022
3412 Clouds 6 1016 81 10000 11.32 230 22:24 30.05.2022
3413 Drizzle 7 1016 81 10000 11.32 230 21:35 30.05.2022
3414 Drizzle 6 1016 93 10000 11.83 230 20:22 30.05.2022
3415 Drizzle 6 1015 87 10000 12.35 230 18:58 30.05.2022
3416 Drizzle 6 1016 87 10000 11.83 230 17:43 30.05.2022
3417 Drizzle 6 1016 87 10000 11.32 230 16:45 30.05.2022
3418 Drizzle 6 1015 81 10000 11.83 230 15:22 30.05.2022
3419 Clouds 6 1014 75 10000 11.32 230 12:44 30.05.2022
3420 Drizzle 6 1014 75 10000 12.35 230 10:57 30.05.2022
3421 Drizzle 5 1014 81 10000 11.32 230 09:39 30.05.2022
3422 Clouds 5 1015 87 10000 12.35 230 07:24 30.05.2022
3423 Clouds 5 1015 81 10000 8.75 230 05:50 30.05.2022
3424 Drizzle 4 1016 93 10000 11.83 230 02:33 30.05.2022
3425 Drizzle 4 1016 81 10000 8.23 230 23:24 29.05.2022
3426 Clouds 5 1015 75 10000 9.26 230 22:39 29.05.2022
3427 Clouds 4 1015 81 10000 10.29 230 21:19 29.05.2022
3428 Drizzle 4 1016 81 8000 10.8 230 19:48 29.05.2022
3429 Drizzle 4 1016 81 8000 10.8 230 19:27 29.05.2022
3430 Drizzle 3 1015 81 10000 11.83 230 17:41 29.05.2022
3431 Clouds 3 1015 75 10000 9.77 230 15:49 29.05.2022
3432 Clouds 3 1015 75 10000 9.77 230 15:28 29.05.2022
3433 Clouds 3 1015 75 10000 9.26 240 14:23 29.05.2022
3434 Clouds 3 1013 87 10000 9.77 230 11:55 29.05.2022
3435 Clouds 3 1012 87 10000 9.26 230 10:44 29.05.2022
3436 Rain 3 1011 87 8000 11.83 230 09:52 29.05.2022
3437 Drizzle 3 1009 81 8000 11.32 230 06:56 29.05.2022
3438 Drizzle 3 1008 81 10000 12.86 230 04:49 29.05.2022
3439 Drizzle 3 1008 81 10000 12.86 230 04:24 29.05.2022
3440 Clouds 3 1008 81 10000 9.77 230 23:59 28.05.2022
3441 Clouds 3 1008 81 10000 9.77 230 23:39 28.05.2022
3442 Clouds 3 1007 81 10000 9.26 230 22:40 28.05.2022
3443 Clouds 3 1007 81 10000 9.77 230 21:42 28.05.2022
3444 Drizzle 3 1008 81 10000 10.8 230 19:52 28.05.2022
3445 Drizzle 3 1008 81 10000 10.8 230 19:18 28.05.2022
3446 Snow 2 1008 87 10000 11.83 230 17:44 28.05.2022
3447 Snow 2 1008 87 10000 11.32 230 16:53 28.05.2022
3448 Snow 2 1008 87 8000 9.77 230 15:44 28.05.2022
3449 Snow 2 1008 87 10000 11.83 230 14:37 28.05.2022
3450 Snow 1 1008 89 1770 7.49 211 13:21 28.05.2022
3451 Snow 2 1007 80 6000 9.77 230 12:40 28.05.2022
3452 Clouds 2 1007 80 8000 9.26 230 11:27 28.05.2022
3453 Clouds 1 1006 93 5000 10.8 230 10:25 28.05.2022
3454 Clouds 1 1006 93 8000 8.75 230 09:30 28.05.2022
3455 Clouds 1 1006 93 5000 12.35 230 07:47 28.05.2022
3456 Snow 2 1006 80 7000 11.32 230 06:32 28.05.2022
3457 Clouds 1 1006 86 7000 0 0 04:21 28.05.2022
3458 Snow 1 1005 93 4500 11.32 230 00:50 28.05.2022
3459 Clouds 2 1005 87 7000 12.35 230 23:42 27.05.2022
3460 Clouds 2 1004 87 8000 12.35 230 22:24 27.05.2022
3461 Clouds 2 1004 93 7000 13.38 230 20:58 27.05.2022
3462 Rain 3 1004 87 10000 13.38 230 20:31 27.05.2022
3463 Clouds 3 1003 93 10000 12.35 230 19:56 27.05.2022
3464 Clouds 3 1003 93 10000 12.35 230 19:34 27.05.2022
3465 Clouds 3 1003 87 10000 11.83 230 18:37 27.05.2022
3466 Rain 3 1003 81 8000 7.72 230 16:42 27.05.2022
3467 Rain 2 1003 87 8000 9.26 230 15:46 27.05.2022
3468 Snow 1 1003 86 3500 5.14 250 14:45 27.05.2022
3469 Snow 1 1004 93 2800 7.72 230 13:35 27.05.2022
3470 Snow 2 1005 93 5000 13.38 230 11:43 27.05.2022
3471 Rain 2 1005 93 8000 11.83 230 11:25 27.05.2022
3472 Rain 2 1005 93 8000 12.35 230 10:35 27.05.2022
3473 Rain 2 1006 87 8000 14.4 230 09:42 27.05.2022
3474 Rain 1 1007 93 8000 13.89 230 08:48 27.05.2022
3475 Snow 1 1008 86 7000 11.83 230 06:50 27.05.2022
3476 Snow 1 1006 93 6000 10.8 230 02:56 27.05.2022
3477 Snow 1 1005 93 1800 11.83 240 00:53 27.05.2022
3478 Snow 2 1004 80 4000 14.4 230 22:50 26.05.2022
3479 Snow 2 1003 93 5000 14.4 230 21:45 26.05.2022
3480 Snow 2 1003 87 7000 13.89 230 20:59 26.05.2022
3481 Snow 2 1003 87 4000 13.38 240 19:29 26.05.2022
3482 Snow 1 1004 100 5000 11.32 240 18:24 26.05.2022
3483 Snow 2 1004 87 8000 12.86 230 16:59 26.05.2022
3484 Snow 2 1004 87 6000 13.38 230 15:52 26.05.2022
3485 Snow 2 1004 87 6000 13.38 230 15:18 26.05.2022
3486 Drizzle 2 1004 93 10000 10.8 230 13:46 26.05.2022
3487 Rain 3 1003 87 10000 14.4 230 11:47 26.05.2022
3488 Rain 3 1002 87 10000 16.46 230 10:39 26.05.2022
3489 Rain 4 1003 81 10000 16.46 230 09:37 26.05.2022
3490 Clouds 4 1003 87 10000 16.98 230 08:38 26.05.2022
3491 Clouds 4 1005 81 10000 15.95 230 05:25 26.05.2022
3492 Clouds 5 1005 81 10000 15.95 230 01:26 26.05.2022
3493 Clouds 5 1005 75 10000 16.46 230 23:41 25.05.2022
3494 Clouds 5 1005 81 10000 16.98 230 22:51 25.05.2022
3495 Clouds 5 1005 81 10000 17.49 230 21:39 25.05.2022
3496 Clouds 6 1004 75 10000 18.01 230 20:43 25.05.2022
3497 Clouds 6 1005 75 10000 18.52 230 19:32 25.05.2022
3498 Clouds 5 1004 75 10000 18.52 230 18:23 25.05.2022
3499 Clouds 5 1005 81 10000 18.52 230 16:42 25.05.2022
3500 Clouds 5 1005 81 10000 18.52 230 16:21 25.05.2022
3501 Clouds 5 1005 75 10000 16.98 230 15:24 25.05.2022
3502 Clouds 5 1004 81 10000 15.95 230 14:38 25.05.2022
3503 Clouds 5 1004 81 10000 15.95 230 14:19 25.05.2022
3504 Clouds 5 1004 81 10000 14.92 230 12:52 25.05.2022
3505 Clouds 2 1005 92 10000 4.35 229 11:31 25.05.2022
3506 Clouds 5 1003 81 5132 14.4 230 10:22 25.05.2022
3507 Clouds 2 1005 96 1683 3.52 227 08:53 25.05.2022
3508 Clouds 0 1005 90 4019 1.58 276 07:23 25.05.2022
3509 Clouds 0 1005 90 4019 1.58 276 07:23 25.05.2022
3510 Clouds 4 1002 81 10000 14.92 230 05:23 25.05.2022
3511 Clouds 3 1004 60 10000 0 320 00:38 25.05.2022
3512 Clouds 3 1004 75 10000 14.4 230 23:47 24.05.2022
3513 Clouds 3 1004 65 10000 12.86 230 22:53 24.05.2022
3514 Clouds 3 1003 70 10000 13.89 230 21:46 24.05.2022
3515 Clouds 3 1004 70 10000 11.32 230 21:22 24.05.2022
3516 Clouds 3 1004 75 10000 10.29 230 20:44 24.05.2022
3517 Clouds 3 1004 70 10000 10.8 230 19:20 24.05.2022
3518 Clouds 2 1004 87 10000 7.72 230 17:50 24.05.2022
3519 Clouds 2 1004 87 10000 7.2 230 16:36 24.05.2022
3520 Drizzle 2 1002 87 10000 9.77 230 15:31 24.05.2022
3521 Rain 3 1002 81 10000 11.83 230 14:37 24.05.2022
3522 Clouds 2 1001 87 8000 8.23 230 13:35 24.05.2022
3523 Clouds 3 1000 75 8000 8.23 230 12:19 24.05.2022
3524 Clouds 2 997 69 10000 7.72 230 09:51 24.05.2022
3525 Clouds 2 996 69 10000 6.69 230 08:51 24.05.2022
3526 Clouds 2 995 69 10000 6.17 230 07:44 24.05.2022
3527 Clouds 2 994 75 10000 5.66 230 06:34 24.05.2022
3528 Clouds 1 991 80 10000 5.14 250 03:32 24.05.2022
3529 Clouds 1 989 80 10000 3.6 280 01:46 24.05.2022
3530 Clouds 1 988 69 10000 3.09 280 00:21 24.05.2022
3531 Clouds 2 986 69 10000 2.57 350 22:24 23.05.2022
3532 Clouds 2 986 69 10000 2.06 360 21:50 23.05.2022
3533 Clouds 2 986 69 10000 2.06 360 20:46 23.05.2022
3534 Clouds 2 986 64 10000 1.54 310 19:51 23.05.2022
3535 Clouds 2 986 64 10000 1.54 310 19:22 23.05.2022
3536 Clouds 1 986 75 10000 1.03 230 18:40 23.05.2022
3537 Clouds 2 987 66 10000 2.91 3 17:56 23.05.2022
3538 Clear 1 986 69 10000 1.54 320 16:29 23.05.2022
3539 Clear 1 987 64 10000 2.57 320 14:18 23.05.2022
3540 Clear 1 987 69 10000 2.06 320 11:53 23.05.2022
3541 Clear 1 987 64 10000 3.6 360 10:49 23.05.2022
3542 Clear 1 987 69 10000 1.54 320 09:48 23.05.2022
3543 Clear 1 987 69 10000 0.51 320 08:47 23.05.2022
3544 Clear 2 987 60 10000 3.6 320 07:37 23.05.2022
3545 Clouds 2 987 64 10000 2.57 270 06:41 23.05.2022
3546 Clear 1 988 80 10000 0 0 03:52 23.05.2022
3547 Clear 2 987 75 10000 2.06 340 02:18 23.05.2022
3548 Clear 1 987 80 10000 0 0 01:32 23.05.2022
3549 Clouds 2 987 75 10000 3.6 340 23:22 22.05.2022
3550 Clouds 3 987 70 10000 2.06 320 22:33 22.05.2022
3551 Clouds 3 987 81 10000 2.57 320 21:53 22.05.2022
3552 Clouds 4 987 81 10000 1.03 0 20:50 22.05.2022
3553 Clouds 4 987 81 10000 1.03 0 20:23 22.05.2022
3554 Clear 4 987 87 10000 2.06 20 19:42 22.05.2022
3555 Clouds 3 988 93 10000 1.03 0 18:52 22.05.2022
3556 Clouds 3 988 93 10000 1.03 0 18:22 22.05.2022
3557 Clouds 1 988 100 10000 0 0 17:26 22.05.2022
3558 Clouds 1 989 93 10000 0 0 15:59 22.05.2022
3559 Snow 1 989 100 10000 2.06 360 14:48 22.05.2022
3560 Snow 3 989 65 5000 2.57 270 13:27 22.05.2022
3561 Clouds 3 989 65 10000 1.54 230 12:50 22.05.2022
3562 Clouds 3 989 70 10000 1.03 0 11:32 22.05.2022
3563 Clear 4 991 65 10000 6.69 20 09:41 22.05.2022
3564 Clear 3 992 70 10000 3.6 30 08:21 22.05.2022
3565 Clear 3 992 81 10000 3.09 320 07:21 22.05.2022
3566 Clear 3 993 81 10000 1.03 220 05:22 22.05.2022
3567 Clear 3 993 75 10000 1.03 290 01:26 22.05.2022
3568 Clear 4 993 81 10000 2.57 10 00:43 22.05.2022
3569 Clear 5 993 70 10000 2.57 320 23:52 21.05.2022
3570 Clear 6 993 70 10000 1.03 0 22:28 21.05.2022
3571 Clear 6 993 70 10000 3.09 250 21:42 21.05.2022
3572 Clouds 6 993 65 10000 5.14 270 20:51 21.05.2022
3573 Clouds 6 993 65 10000 5.14 270 20:21 21.05.2022
3574 Clouds 6 993 70 10000 8.23 230 19:27 21.05.2022
3575 Clouds 6 993 75 10000 7.72 230 17:48 21.05.2022
3576 Clouds 5 994 81 10000 3.6 270 15:54 21.05.2022
3577 Clouds 6 993 75 10000 8.23 230 14:37 21.05.2022
3578 Rain 6 993 81 10000 9.26 230 13:42 21.05.2022
3579 Rain 6 993 81 8000 6.17 230 12:49 21.05.2022
3580 Rain 6 993 81 8000 6.17 230 12:25 21.05.2022
3581 Rain 6 992 81 10000 9.26 230 10:24 21.05.2022
3582 Rain 7 992 76 10000 2.06 180 09:43 21.05.2022
3583 Rain 7 992 70 10000 2.57 250 08:57 21.05.2022
3584 Clear 7 992 76 10000 1.03 180 07:53 21.05.2022
3585 Clouds 7 993 70 10000 2.57 270 03:58 21.05.2022
3586 Clouds 7 993 65 10000 2.57 20 23:53 20.05.2022
3587 Clouds 8 994 61 10000 3.09 180 22:57 20.05.2022
3588 Clouds 8 994 61 10000 3.09 180 22:23 20.05.2022
3589 Clouds 9 994 57 10000 4.63 290 21:41 20.05.2022
3590 Clouds 9 994 57 10000 5.66 180 20:54 20.05.2022
3591 Clouds 9 996 57 10000 2.57 200 19:59 20.05.2022
3592 Clouds 9 996 57 10000 2.57 200 19:26 20.05.2022
3593 Clouds 9 997 61 10000 2.06 90 18:44 20.05.2022
3594 Clouds 7 999 70 10000 3.09 230 16:54 20.05.2022
3595 Clouds 7 999 70 10000 3.09 230 16:19 20.05.2022
3596 Clouds 7 1000 76 10000 0 0 15:44 20.05.2022
3597 Clouds 7 1000 76 10000 4.63 320 14:30 20.05.2022
3598 Clouds 8 1001 71 10000 0 0 13:55 20.05.2022
3599 Clouds 7 1002 81 10000 3.6 0 11:34 20.05.2022
3600 Clouds 9 1005 76 10000 1.54 0 09:52 20.05.2022
3601 Clouds 9 1005 71 10000 1.54 230 08:44 20.05.2022
3602 Clouds 9 1006 71 10000 2.06 360 06:50 20.05.2022
3603 Clouds 9 1006 71 10000 2.06 360 06:31 20.05.2022
3604 Clear 11 1006 66 10000 2.06 290 04:31 20.05.2022
3605 Clouds 12 1007 58 10000 2.06 320 00:43 20.05.2022
3606 Clouds 13 1007 62 10000 3.6 340 22:46 19.05.2022
3607 Clouds 13 1007 62 10000 4.12 360 21:59 19.05.2022
3608 Clouds 13 1007 62 10000 4.12 360 21:40 19.05.2022
3609 Clouds 13 1007 62 10000 4.12 360 21:22 19.05.2022
3610 Clouds 14 1008 62 10000 1.03 0 20:25 19.05.2022
3611 Clouds 12 1007 76 10000 1.03 0 19:40 19.05.2022
3612 Clouds 10 1008 76 10000 1.03 0 18:19 19.05.2022
3613 Clear 8 1008 81 10000 3.09 90 16:32 19.05.2022
3614 Clear 6 1008 87 10000 2.06 90 14:52 19.05.2022
3615 Clear 6 1008 87 10000 2.06 90 14:23 19.05.2022
3616 Clear 5 1009 93 10000 1.54 320 13:20 19.05.2022
3617 Clear 6 1009 87 10000 1.54 50 11:25 19.05.2022
3618 Clear 6 1010 81 10000 0.51 230 09:19 19.05.2022
3619 Clear 6 1010 87 10000 1.03 360 07:48 19.05.2022
3620 Clouds 6 1011 81 10000 1.03 360 05:32 19.05.2022
3621 Clouds 5 1011 81 10000 2.06 0 01:59 19.05.2022
3622 Clouds 7 1012 70 10000 0.51 0 23:55 18.05.2022
3623 Clouds 7 1012 70 10000 1.03 0 22:47 18.05.2022
3624 Clear 7 1011 76 10000 2.57 360 21:50 18.05.2022
3625 Clear 7 1011 76 10000 2.57 360 21:29 18.05.2022
3626 Clear 8 1011 76 10000 0 0 20:41 18.05.2022
3627 Clear 8 1011 76 10000 0 0 20:18 18.05.2022
3628 Clouds 8 1012 71 10000 0 0 18:28 18.05.2022
3629 Clear 7 1012 70 10000 0 0 17:41 18.05.2022
3630 Clear 7 1012 70 10000 0 0 17:23 18.05.2022
3631 Clouds 6 1012 70 10000 0 0 16:31 18.05.2022
3632 Clouds 6 1012 70 10000 0 0 15:41 18.05.2022
3633 Clouds 6 1012 75 10000 0 0 14:35 18.05.2022
3634 Clouds 6 1011 70 10000 1.54 230 13:35 18.05.2022
3635 Clear 6 1011 75 10000 2.06 360 12:42 18.05.2022
3636 Clear 6 1011 75 10000 1.03 180 11:34 18.05.2022
3637 Clear 7 1011 70 10000 1.03 20 10:56 18.05.2022
3638 Clear 7 1011 70 10000 1.03 20 10:56 18.05.2022
3639 Clear 7 1012 65 10000 2.57 70 09:31 18.05.2022
3640 Clear 8 1012 61 10000 2.06 360 07:36 18.05.2022
3641 Clouds 8 1013 61 10000 2.57 360 05:56 18.05.2022
3642 Clear 8 1017 61 10000 2.06 0 01:20 18.05.2022
3643 Clear 6 1018 75 10000 3.09 20 00:22 18.05.2022
3644 Clouds 8 1021 66 10000 2.06 300 21:56 17.05.2022
3645 Clouds 8 1021 66 10000 2.06 300 21:20 17.05.2022
3646 Clouds 8 1022 66 10000 3.09 310 20:19 17.05.2022
3647 Clouds 8 1023 66 10000 1.54 0 19:28 17.05.2022
3648 Clouds 7 1024 76 10000 2.06 320 17:51 17.05.2022
3649 Clouds 6 1025 81 10000 3.6 360 16:59 17.05.2022
3650 Clouds 6 1025 81 10000 3.6 360 16:30 17.05.2022
3651 Clouds 5 1025 81 10000 1.03 120 15:32 17.05.2022
3652 Clouds 5 1026 87 10000 1.54 270 14:30 17.05.2022
3653 Clouds 4 1026 87 10000 3.6 60 13:35 17.05.2022
3654 Clouds 5 1027 87 10000 5.14 70 11:46 17.05.2022
3655 Clouds 5 1027 87 10000 5.14 90 09:35 17.05.2022
3656 Clouds 5 1027 87 10000 3.6 90 08:33 17.05.2022
3657 Rain 5 1027 87 10000 4.12 70 06:48 17.05.2022
3658 Rain 5 1025 87 10000 4.63 230 03:45 17.05.2022
3659 Drizzle 6 1023 87 8000 6.17 230 00:45 17.05.2022
3660 Clouds 7 1021 76 10000 5.14 130 22:44 16.05.2022
3661 Clouds 7 1021 81 10000 4.12 70 21:45 16.05.2022
3662 Clouds 9 1020 76 10000 3.6 70 20:47 16.05.2022
3663 Clouds 9 1018 66 10000 6.69 230 19:46 16.05.2022
3664 Clear 9 1018 61 10000 2.57 60 18:21 16.05.2022
3665 Clear 11 1016 43 10000 2.57 320 15:53 16.05.2022
3666 Clear 11 1015 43 10000 1.54 320 14:26 16.05.2022
3667 Clear 11 1015 35 10000 0 0 13:23 16.05.2022
3668 Clouds 4 1018 86 10000 4.93 358 11:25 16.05.2022
3669 Clear 8 1016 57 10000 2.06 140 09:47 16.05.2022
3670 Clear 9 1017 57 10000 2.06 270 06:58 16.05.2022
3671 Clear 11 1018 43 10000 0 0 03:58 16.05.2022
3672 Clouds 10 1019 50 10000 4.63 320 23:38 15.05.2022
3673 Clouds 10 1020 50 10000 5.66 290 22:32 15.05.2022
3674 Clouds 10 1020 53 10000 8.23 320 21:47 15.05.2022
3675 Clouds 9 1020 66 10000 1.54 0 20:57 15.05.2022
3676 Clouds 8 1021 66 10000 1.54 0 19:53 15.05.2022
3677 Clear 5 1022 87 10000 4.12 90 17:52 15.05.2022
3678 Clear 4 1023 93 10000 3.6 90 16:31 15.05.2022
3679 Clear 3 1024 75 10000 3.09 360 13:59 15.05.2022
3680 Clear 3 1024 70 10000 4.63 320 12:57 15.05.2022
3681 Clear 3 1024 70 10000 3.6 340 11:40 15.05.2022
3682 Clear 4 1024 87 10000 3.09 320 10:29 15.05.2022
3683 Clear 4 1023 81 10000 5.14 340 08:46 15.05.2022
3684 Clouds 6 1022 75 10000 6.17 250 06:58 15.05.2022
3685 Clouds 6 1022 75 10000 3.6 290 05:52 15.05.2022
3686 Clouds 7 1018 70 10000 4.63 270 00:57 15.05.2022
3687 Clouds 8 1016 71 10000 6.69 260 23:47 14.05.2022
3688 Clouds 8 1016 71 10000 6.69 260 23:29 14.05.2022
3689 Clouds 8 1015 71 10000 2.57 300 21:29 14.05.2022
3690 Clouds 8 1014 71 10000 5.66 240 20:53 14.05.2022
3691 Clouds 7 1013 76 10000 2.57 210 19:40 14.05.2022
3692 Clouds 7 1013 76 10000 2.57 210 19:20 14.05.2022
3693 Clouds 6 1012 87 10000 3.09 340 18:46 14.05.2022
3694 Clouds 4 1011 93 10000 1.54 80 16:56 14.05.2022
3695 Clouds 3 1011 87 10000 4.12 80 15:34 14.05.2022
3696 Clouds 3 1010 93 10000 2.57 350 14:34 14.05.2022
3697 Clear 4 1011 87 10000 3.09 340 12:49 14.05.2022
3698 Clear 4 1010 87 10000 2.57 290 11:37 14.05.2022
3699 Clouds 4 1010 93 10000 2.57 320 10:22 14.05.2022
3700 Clouds 6 1010 81 10000 3.6 290 09:54 14.05.2022
3701 Clouds 6 1009 75 10000 7.2 230 08:56 14.05.2022
3702 Clouds 5 1008 100 10000 2.57 320 06:52 14.05.2022
3703 Clouds 6 1007 93 10000 1.54 320 03:27 14.05.2022
3704 Clouds 7 1005 87 10000 3.6 250 23:45 13.05.2022
3705 Clouds 7 1005 87 10000 3.6 250 23:22 13.05.2022
3706 Clouds 6 1004 93 10000 4.63 250 22:51 13.05.2022
3707 Clouds 6 1004 93 10000 4.63 250 22:19 13.05.2022
3708 Clouds 7 1004 87 10000 3.09 230 20:49 13.05.2022
3709 Clouds 7 1004 87 10000 3.09 230 20:27 13.05.2022
3710 Clouds 7 1004 93 10000 2.57 230 19:34 13.05.2022
3711 Clouds 6 1004 100 10000 2.57 230 17:53 13.05.2022
3712 Clouds 6 1004 100 10000 2.57 230 17:29 13.05.2022
3713 Clouds 6 1004 93 10000 3.09 230 16:23 13.05.2022
3714 Clouds 5 1004 100 10000 3.09 230 15:39 13.05.2022
3715 Clouds 5 1004 100 10000 2.57 270 13:54 13.05.2022
3716 Clouds 5 1004 100 10000 0.51 360 12:32 13.05.2022
3717 Rain 6 1005 98 5312 0.62 39 11:23 13.05.2022
3718 Rain 6 1005 98 5312 0.62 39 11:23 13.05.2022
3719 Clouds 5 1005 100 10000 1.03 230 09:35 13.05.2022
3720 Clouds 5 1006 100 10000 0 0 08:49 13.05.2022
3721 Clouds 6 1006 93 10000 0 0 07:48 13.05.2022
3722 Clouds 6 1006 93 10000 1.03 90 06:34 13.05.2022
3723 Clouds 6 1008 93 10000 1.54 50 03:34 13.05.2022
3724 Clouds 6 1009 93 10000 2.57 70 00:39 13.05.2022
3725 Clouds 7 1009 93 10000 1.03 0 22:46 12.05.2022
3726 Clouds 7 1010 93 10000 2.06 360 21:58 12.05.2022
3727 Clouds 7 1010 93 10000 0.51 0 20:37 12.05.2022
3728 Clouds 6 1011 100 10000 1.54 70 19:18 12.05.2022
3729 Drizzle 6 1012 93 2500 1.03 70 17:27 12.05.2022
3730 Mist 6 1012 93 5000 2.06 20 16:23 12.05.2022
3731 Clouds 6 1011 87 8000 1.54 70 14:42 12.05.2022
3732 Clouds 6 1011 93 10000 4.12 110 13:47 12.05.2022
3733 Clouds 6 1010 87 10000 1.54 140 11:23 12.05.2022
3734 Drizzle 7 1009 70 10000 5.14 140 09:31 12.05.2022
3735 Clear 7 1009 70 10000 0 0 08:51 12.05.2022
3736 Clear 7 1008 76 10000 7.2 230 07:41 12.05.2022
3737 Clear 8 1007 71 10000 0 0 06:39 12.05.2022
3738 Clouds 9 1006 61 10000 2.57 270 02:59 12.05.2022
3739 Clouds 10 1006 57 10000 6.69 360 00:39 12.05.2022
3740 Clouds 10 1006 57 10000 7.2 360 22:39 11.05.2022
3741 Clouds 12 1006 50 10000 7.2 360 21:55 11.05.2022
3742 Clouds 12 1006 50 10000 7.2 360 21:24 11.05.2022
3743 Clouds 13 1007 50 10000 6.17 350 19:36 11.05.2022
3744 Clouds 12 1008 47 10000 8.23 360 16:59 11.05.2022
3745 Clouds 11 1008 54 10000 5.66 360 15:50 11.05.2022
3746 Clouds 11 1008 54 10000 0 360 14:39 11.05.2022
3747 Clouds 11 1008 54 10000 0 360 14:19 11.05.2022
3748 Clouds 11 1008 58 10000 8.75 340 11:55 11.05.2022
3749 Clouds 11 1008 58 10000 8.75 340 11:30 11.05.2022
3750 Clouds 11 1009 54 10000 11.32 360 08:55 11.05.2022
3751 Clouds 8 1010 66 10000 1.03 90 05:45 11.05.2022
3752 Clear 5 1012 75 10000 2.57 160 01:28 11.05.2022
3753 Clouds 7 1013 70 10000 2.57 360 22:32 10.05.2022
3754 Clouds 7 1013 70 10000 2.06 90 21:58 10.05.2022
3755 Clouds 8 1013 66 10000 2.06 50 20:59 10.05.2022
3756 Clouds 8 1013 66 10000 2.06 50 20:21 10.05.2022
3757 Clouds 7 1013 65 10000 2.06 90 18:35 10.05.2022
3758 Clouds 6 1013 75 10000 2.57 90 17:37 10.05.2022
3759 Clear 5 1013 65 10000 0 0 15:43 10.05.2022
3760 Clouds 5 1013 65 10000 2.06 320 12:48 10.05.2022
3761 Clouds 4 1012 87 10000 2.57 140 11:53 10.05.2022
3762 Clouds 4 1012 87 10000 2.57 140 11:21 10.05.2022
3763 Clouds 4 1012 70 10000 1.54 90 10:54 10.05.2022
3764 Clouds 3 1012 81 10000 1.03 180 09:27 10.05.2022
3765 Clouds 4 1012 70 10000 2.57 320 07:47 10.05.2022
3766 Clouds 6 1010 75 10000 5.14 230 04:35 10.05.2022
3767 Clouds 6 1007 75 10000 9.26 230 01:36 10.05.2022
3768 Clouds 6 1004 75 10000 9.77 230 23:37 09.05.2022
3769 Clouds 6 1003 81 10000 8.75 230 22:30 09.05.2022
3770 Clouds 6 1002 81 10000 9.77 230 21:25 09.05.2022
3771 Clouds 7 1000 81 10000 7.72 230 19:52 09.05.2022
3772 Clouds 7 998 70 10000 5.14 220 17:59 09.05.2022
3773 Clouds 7 998 70 10000 4.12 220 16:55 09.05.2022
3774 Clouds 7 998 70 10000 4.12 220 16:55 09.05.2022
3775 Clouds 6 997 70 10000 5.66 200 15:54 09.05.2022
3776 Clouds 6 997 70 10000 5.66 200 15:34 09.05.2022
3777 Clouds 7 996 61 10000 7.2 240 14:33 09.05.2022
3778 Clear 5 996 65 10000 2.57 10 13:51 09.05.2022
3779 Clear 6 996 61 10000 4.63 240 12:32 09.05.2022
3780 Clear 6 995 65 10000 3.09 230 11:43 09.05.2022
3781 Clear 6 994 75 10000 11.83 230 10:45 09.05.2022
3782 Clear 6 994 70 10000 9.26 230 09:59 09.05.2022
3783 Clouds 7 993 65 10000 10.29 230 07:56 09.05.2022
3784 Clouds 6 991 81 10000 7.2 200 04:33 09.05.2022
3785 Clouds 6 991 81 10000 7.2 200 04:33 09.05.2022
3786 Drizzle 7 989 65 10000 5.66 230 00:22 09.05.2022
3787 Clouds 6 988 75 10000 14.4 220 22:58 08.05.2022
3788 Clouds 6 988 75 10000 14.4 220 22:27 08.05.2022
3789 Clouds 7 986 53 10000 18.01 220 20:41 08.05.2022
3790 Clouds 7 986 53 10000 18.01 220 20:18 08.05.2022
3791 Drizzle 7 984 61 10000 18.52 210 19:27 08.05.2022
3792 Drizzle 7 984 61 10000 18.52 210 19:27 08.05.2022
3793 Drizzle 5 983 81 10000 15.95 220 18:25 08.05.2022
3794 Drizzle 5 982 87 10000 15.95 230 17:22 08.05.2022
3795 Clouds 5 980 75 10000 14.4 230 15:44 08.05.2022
3796 Clouds 5 980 75 10000 14.4 230 15:20 08.05.2022
3797 Drizzle 7 978 65 10000 13.38 230 12:45 08.05.2022
3798 Clouds 8 977 57 10000 4.12 270 10:56 08.05.2022
3799 Clouds 8 977 57 10000 4.12 270 10:22 08.05.2022
3800 Clouds 8 977 57 10000 2.06 270 09:51 08.05.2022
3801 Clouds 9 978 46 10000 3.09 270 07:41 08.05.2022
3802 Clear 9 980 43 10000 7.2 290 04:56 08.05.2022
3803 Clouds 9 979 46 10000 7.72 320 03:20 08.05.2022
3804 Clouds 10 979 50 10000 9.26 320 00:31 08.05.2022
3805 Clouds 10 979 46 10000 9.77 320 23:54 07.05.2022
3806 Clouds 10 978 53 10000 9.77 320 22:58 07.05.2022
3807 Clouds 10 978 53 10000 9.77 320 22:34 07.05.2022
3808 Clouds 12 978 47 10000 10.8 320 21:44 07.05.2022
3809 Clouds 12 977 50 10000 8.23 270 20:56 07.05.2022
3810 Clouds 13 976 47 10000 7.2 270 19:59 07.05.2022
3811 Clouds 13 976 47 10000 3.09 250 18:38 07.05.2022
3812 Clouds 7 975 87 10000 4.12 140 15:58 07.05.2022
3813 Clouds 6 975 87 10000 4.12 180 14:44 07.05.2022
3814 Drizzle 7 979 81 10000 3.6 360 11:19 07.05.2022
3815 Drizzle 6 985 75 10000 2.06 140 09:39 07.05.2022
3816 Clouds 6 987 81 10000 2.06 140 07:54 07.05.2022
3817 Drizzle 6 989 81 10000 3.6 140 06:44 07.05.2022
3818 Clouds 6 991 81 10000 2.57 140 05:34 07.05.2022
3819 Clouds 6 995 75 10000 3.09 180 03:32 07.05.2022
3820 Clouds 7 1000 53 10000 6.17 360 23:38 06.05.2022
3821 Clouds 6 1000 56 10000 4.63 320 22:33 06.05.2022
3822 Clouds 6 1001 61 10000 2.06 320 21:47 06.05.2022
3823 Clouds 6 1001 56 10000 2.06 360 20:37 06.05.2022
3824 Clouds 6 1002 61 10000 1.54 360 19:42 06.05.2022
3825 Clouds 6 1002 61 10000 1.54 360 19:19 06.05.2022
3826 Clouds 5 1003 65 10000 2.06 320 18:24 06.05.2022
3827 Clouds 4 1002 75 10000 4.12 340 16:57 06.05.2022
3828 Clouds 3 1002 75 10000 3.09 320 15:47 06.05.2022
3829 Clouds 3 1001 75 10000 5.66 250 14:54 06.05.2022
3830 Clouds 3 1001 75 10000 7.2 230 13:26 06.05.2022
3831 Clouds 3 1000 75 10000 3.09 290 12:40 06.05.2022
3832 Clouds 3 999 75 10000 3.6 250 11:45 06.05.2022
3833 Clouds 0 1001 86 10000 1.85 330 10:30 06.05.2022
3834 Clouds 1 1000 85 10000 1.99 320 09:46 06.05.2022
3835 Clouds 1 999 86 10000 1.88 288 08:33 06.05.2022
3836 Rain 3 995 82 10000 4.33 239 06:50 06.05.2022
3837 Rain 2 993 95 625 3.81 226 05:37 06.05.2022
3838 Rain 8 982 66 10000 18.01 230 02:50 06.05.2022
3839 Drizzle 8 983 66 10000 1.03 0 00:26 06.05.2022
3840 Clouds 9 985 57 10000 5.66 320 22:32 05.05.2022
3841 Clouds 9 985 49 10000 7.2 320 21:22 05.05.2022
3842 Clouds 9 986 53 10000 8.23 320 19:55 05.05.2022
3843 Clouds 9 987 53 10000 0 0 18:34 05.05.2022
3844 Clouds 8 988 61 10000 0 0 16:35 05.05.2022
3845 Clouds 4 989 75 10000 2.57 180 14:51 05.05.2022
3846 Clouds 4 990 75 10000 2.06 270 13:24 05.05.2022
3847 Clouds 5 990 75 10000 2.57 320 12:49 05.05.2022
3848 Clouds 5 989 70 10000 1.54 90 10:48 05.05.2022
3849 Clouds 6 988 52 10000 4.63 320 09:40 05.05.2022
3850 Clear 4 990 75 10000 1.03 50 07:35 05.05.2022
3851 Clouds 4 990 75 10000 1.54 90 05:19 05.05.2022
3852 Clear 4 989 70 10000 2.06 290 01:56 05.05.2022
3853 Clear 4 989 70 10000 2.06 290 01:27 05.05.2022
3854 Clouds 6 988 61 10000 1.54 230 23:52 04.05.2022
3855 Clouds 6 988 65 10000 1.54 250 22:42 04.05.2022
3856 Clouds 6 988 65 10000 4.12 230 21:50 04.05.2022
3857 Clouds 6 988 65 10000 4.12 230 21:29 04.05.2022
3858 Clouds 6 988 65 10000 5.14 230 20:27 04.05.2022
3859 Clouds 5 987 65 10000 6.17 230 19:53 04.05.2022
3860 Clouds 5 987 65 10000 6.17 230 19:18 04.05.2022
3861 Clouds 5 986 70 10000 9.77 230 18:22 04.05.2022
3862 Clouds 5 986 65 10000 9.26 230 17:51 04.05.2022
3863 Clouds 4 986 87 10000 4.63 230 15:42 04.05.2022
3864 Clouds 4 986 87 10000 4.63 230 15:23 04.05.2022
3865 Clouds 3 985 87 10000 8.23 230 14:21 04.05.2022
3866 Clouds 3 984 81 10000 4.63 230 13:49 04.05.2022
3867 Clouds 3 983 87 10000 4.63 230 12:33 04.05.2022
3868 Drizzle 4 983 81 10000 4.63 230 10:43 04.05.2022
3869 Clouds 1 984 91 10000 2.3 311 09:44 04.05.2022
3870 Rain 3 982 81 10000 10.8 230 08:48 04.05.2022
3871 Rain 4 980 75 10000 11.32 230 06:49 04.05.2022
3872 Clouds 4 979 81 10000 10.8 230 02:59 04.05.2022
3873 Clouds 5 979 70 10000 11.83 230 01:24 04.05.2022
3874 Drizzle 5 979 81 10000 12.35 230 22:50 03.05.2022
3875 Clouds 7 978 65 10000 11.83 250 21:47 03.05.2022
3876 Clouds 7 978 65 10000 11.83 250 21:20 03.05.2022
3877 Clouds 6 977 75 10000 9.26 230 20:31 03.05.2022
3878 Rain 6 976 75 10000 6.69 230 18:54 03.05.2022
3879 Rain 6 976 75 10000 6.69 230 18:34 03.05.2022
3880 Rain 6 976 65 10000 2.57 180 17:19 03.05.2022
3881 Clouds 4 977 81 10000 2.06 250 15:43 03.05.2022
3882 Rain 6 980 65 8000 6.17 360 13:32 03.05.2022
3883 Clouds 6 981 61 10000 5.66 20 12:30 03.05.2022
3884 Clouds 6 983 56 10000 7.72 340 11:23 03.05.2022
3885 Clouds 4 987 81 10000 4.12 320 09:58 03.05.2022
3886 Clear 3 991 81 10000 3.6 90 07:59 03.05.2022
3887 Clear 3 992 65 10000 1.54 180 06:45 03.05.2022
3888 Clouds 2 998 86 10000 2.79 336 01:53 03.05.2022
3889 Rain 5 996 75 8000 9.26 250 22:45 02.05.2022
3890 Rain 5 996 75 8000 9.26 250 22:25 02.05.2022
3891 Rain 5 995 81 10000 9.26 230 21:26 02.05.2022
3892 Clouds 10 994 46 10000 4.63 290 18:57 02.05.2022
3893 Clouds 10 994 46 10000 4.63 290 18:25 02.05.2022
3894 Clouds 9 994 49 10000 7.2 270 17:38 02.05.2022
3895 Clouds 9 995 49 10000 5.14 270 16:25 02.05.2022
3896 Clouds 8 995 53 10000 2.06 320 15:40 02.05.2022
3897 Clouds 8 997 53 10000 7.72 360 14:20 02.05.2022
3898 Clear 8 998 49 10000 0 0 12:52 02.05.2022
3899 Clear 6 1000 56 10000 7.72 360 11:24 02.05.2022
3900 Clear 5 1003 75 10000 1.54 140 09:32 02.05.2022
3901 Clear 4 1006 87 10000 2.57 70 07:57 02.05.2022
3902 Clear 4 1008 81 10000 0 0 05:59 02.05.2022
3903 Clouds 6 1010 75 10000 6.17 230 00:40 02.05.2022
3904 Clouds 6 1010 75 10000 6.17 230 00:21 02.05.2022
3905 Clouds 7 1010 70 10000 8.75 230 22:53 01.05.2022
3906 Clouds 7 1010 70 10000 9.26 230 21:41 01.05.2022
3907 Clouds 7 1009 81 10000 10.29 230 20:29 01.05.2022
3908 Clouds 8 1009 76 10000 9.26 230 19:20 01.05.2022
3909 Clouds 8 1008 71 10000 4.63 230 18:52 01.05.2022
3910 Clouds 9 1008 66 10000 2.57 230 17:47 01.05.2022
3911 Clouds 9 1007 66 10000 4.12 140 16:29 01.05.2022
3912 Clouds 8 1007 71 10000 4.63 180 15:45 01.05.2022
3913 Clouds 8 1007 71 10000 2.06 360 14:45 01.05.2022
3914 Clouds 8 1007 61 10000 8.23 360 12:24 01.05.2022
3915 Clouds 7 1008 70 10000 8.75 360 10:22 01.05.2022
3916 Clouds 7 1009 61 10000 10.29 320 08:49 01.05.2022
3917 Clouds 3 1012 91 10000 3.47 0 06:31 01.05.2022
3918 Clouds 4 1012 70 10000 2.06 300 01:56 01.05.2022
3919 Clear 6 1012 81 10000 0 0 22:18 30.04.2022
3920 Clear 5 1012 87 10000 1.54 20 21:32 30.04.2022
3921 Clear 5 1013 81 10000 2.06 50 19:53 30.04.2022
3922 Clear 4 1013 87 10000 2.06 50 18:53 30.04.2022
3923 Clear 4 1013 81 10000 2.57 360 17:26 30.04.2022
3924 Clear 1 1013 86 10000 2.57 340 15:51 30.04.2022
3925 Clear 1 1013 86 10000 2.57 340 15:18 30.04.2022
3926 Clear 1 1013 86 10000 0 0 13:52 30.04.2022
3927 Clear 1 1013 86 10000 3.09 340 11:41 30.04.2022
3928 Clear 2 1013 80 10000 3.6 340 10:56 30.04.2022
3929 Clear 2 1012 80 10000 1.03 340 09:57 30.04.2022
3930 Clear 3 1013 75 10000 2.06 320 07:47 30.04.2022
3931 Clouds 2 1015 93 10000 1.04 329 03:58 30.04.2022
3932 Clouds 6 1014 65 10000 7.2 250 23:55 29.04.2022
3933 Clouds 7 1014 70 10000 6.69 240 22:51 29.04.2022
3934 Clouds 7 1014 70 10000 8.23 230 21:56 29.04.2022
3935 Clouds 7 1014 70 10000 8.23 230 21:24 29.04.2022
3936 Clouds 7 1014 70 10000 8.23 240 20:18 29.04.2022
3937 Clouds 7 1014 70 10000 9.26 230 19:27 29.04.2022
3938 Clouds 6 1014 75 10000 12.35 230 17:34 29.04.2022
3939 Clouds 6 1014 70 10000 13.89 230 16:36 29.04.2022
3940 Clouds 6 1013 70 10000 14.4 230 14:36 29.04.2022
3941 Clouds 6 1014 70 10000 11.83 230 13:36 29.04.2022
3942 Clouds 6 1014 70 10000 12.86 230 12:36 29.04.2022
3943 Clouds 6 1013 75 10000 13.38 230 10:29 29.04.2022
3944 Clouds 6 1012 75 10000 12.35 230 07:52 29.04.2022
3945 Clouds 6 1012 75 10000 12.35 230 07:25 29.04.2022
3946 Rain 3 1014 98 44 1.45 265 06:30 29.04.2022
3947 Clouds 5 1009 87 10000 11.32 230 01:47 29.04.2022
3948 Clouds 5 1008 87 10000 14.4 230 23:55 28.04.2022
3949 Clouds 5 1008 87 10000 14.4 230 23:25 28.04.2022
3950 Clouds 6 1007 81 10000 15.43 220 22:24 28.04.2022
3951 Clouds 7 1005 70 10000 16.46 210 21:41 28.04.2022
3952 Clouds 7 1005 70 10000 15.95 220 20:45 28.04.2022
3953 Clouds 7 1005 70 10000 16.98 220 19:52 28.04.2022
3954 Clouds 7 1005 70 10000 16.98 220 19:24 28.04.2022
3955 Clouds 6 1005 75 10000 16.46 220 18:51 28.04.2022
3956 Clouds 5 1005 81 10000 14.4 230 17:53 28.04.2022
3957 Clouds 5 1005 75 10000 12.35 230 16:52 28.04.2022
3958 Clouds 5 1005 75 10000 12.35 230 16:20 28.04.2022
3959 Clouds 5 1005 65 10000 9.26 230 15:48 28.04.2022
3960 Clouds 4 1006 70 10000 9.26 230 14:58 28.04.2022
3961 Clouds 3 1006 70 10000 12.35 230 13:37 28.04.2022
3962 Clouds 3 1006 70 10000 15.43 230 12:29 28.04.2022
3963 Clouds 3 1006 65 10000 15.43 230 10:59 28.04.2022
3964 Clouds 3 1006 65 10000 15.43 230 10:26 28.04.2022
3965 Clouds 2 1007 69 10000 10.29 230 09:50 28.04.2022
3966 Clouds 1 1007 86 10000 10.8 230 07:41 28.04.2022
3967 Clouds 1 1006 80 10000 8.23 230 06:43 28.04.2022
3968 Snow 1 1006 75 10000 8.75 230 05:52 28.04.2022
3969 Clouds 1 1006 75 10000 9.26 230 04:42 28.04.2022
3970 Snow -1 1006 96 665 3.21 211 01:53 28.04.2022
3971 Clouds 2 1002 64 10000 9.26 190 23:25 27.04.2022
3972 Clouds 2 1003 69 10000 7.72 170 22:20 27.04.2022
3973 Clouds 3 1001 70 10000 10.8 180 21:43 27.04.2022
3974 Snow 3 1000 81 9000 4.63 160 20:45 27.04.2022
3975 Snow 2 1000 87 9000 5.14 180 19:55 27.04.2022
3976 Snow 2 1000 87 9000 5.14 180 19:34 27.04.2022
3977 Snow 3 999 81 8000 9.77 170 18:39 27.04.2022
3978 Snow 3 999 81 8000 9.77 170 17:55 27.04.2022
3979 Clouds 2 998 93 10000 4.12 180 15:57 27.04.2022
3980 Drizzle 3 997 87 10000 4.12 180 13:18 27.04.2022
3981 Drizzle 3 995 87 10000 8.23 230 11:25 27.04.2022
3982 Clouds 3 994 81 10000 9.26 230 10:45 27.04.2022
3983 Clouds 3 994 87 10000 9.26 230 08:22 27.04.2022
3984 Clouds 3 993 81 10000 8.23 230 06:41 27.04.2022
3985 Clouds 4 991 81 10000 5.14 140 02:31 27.04.2022
3986 Clouds 4 991 87 10000 5.14 110 01:21 27.04.2022
3987 Clouds 4 991 87 10000 5.66 110 00:27 27.04.2022
3988 Drizzle 5 990 75 6000 2.06 360 23:24 26.04.2022
3989 Drizzle 5 990 75 10000 2.06 230 22:45 26.04.2022
3990 Drizzle 5 990 75 10000 2.06 230 22:19 26.04.2022
3991 Rain 5 991 93 2875 1.66 180 21:19 26.04.2022
3992 Clouds 5 989 75 10000 2.57 230 20:37 26.04.2022
3993 Clouds 5 990 75 10000 2.57 230 19:45 26.04.2022
3994 Clouds 5 990 75 10000 2.57 230 19:26 26.04.2022
3995 Clouds 5 990 75 10000 1.54 230 18:39 26.04.2022
3996 Rain 5 991 96 1265 1.34 177 17:39 26.04.2022
3997 Clouds 3 989 87 10000 34 261 15:32 26.04.2022
3998 Clouds 3 988 81 28 2.06 360 13:40 26.04.2022
3999 Clouds 3 988 81 43 2.57 360 12:57 26.04.2022
4000 Clouds 3 988 81 10000 2.06 320 11:23 26.04.2022
4001 Clouds 4 988 65 10000 2.57 320 10:30 26.04.2022
4002 Clouds 4 988 70 10000 3.09 320 08:33 26.04.2022
4003 Clouds 5 987 70 10000 7.2 230 04:53 26.04.2022
4004 Clouds 5 987 70 10000 7.2 230 04:22 26.04.2022
4005 Clouds 5 986 81 10000 8.23 230 00:46 26.04.2022
4006 Clouds 6 985 70 10000 7.72 230 23:49 25.04.2022
4007 Clouds 6 984 75 10000 7.72 230 21:51 25.04.2022
4008 Clouds 6 984 75 10000 7.72 230 21:25 25.04.2022
4009 Clouds 6 984 75 10000 7.72 230 19:47 25.04.2022
4010 Clouds 5 983 87 10000 8.75 230 18:31 25.04.2022
4011 Clouds 5 983 87 10000 7.72 180 17:39 25.04.2022
4012 Clouds 4 984 77 10000 1.47 216 16:35 25.04.2022
4013 Rain 4 983 87 10000 4.63 270 15:21 25.04.2022
4014 Rain 3 983 87 10000 1.03 360 14:23 25.04.2022
4015 Clouds 0 982 93 10000 1.03 250 12:40 25.04.2022
4016 Clouds 2 982 87 10000 2.06 290 10:42 25.04.2022
4017 Clouds 2 982 87 10000 1.54 320 09:39 25.04.2022
4018 Clouds 2 982 80 10000 1.54 290 07:38 25.04.2022
4019 Clear 3 982 81 10000 2.57 290 05:54 25.04.2022
4020 Clear 4 981 70 10000 2.57 360 01:28 25.04.2022
4021 Clear 7 981 53 10000 3.6 50 23:54 24.04.2022
4022 Clear 7 981 53 10000 3.6 50 23:22 24.04.2022
4023 Clouds 7 981 65 10000 2.57 360 22:38 24.04.2022
4024 Clouds 7 982 61 10000 2.06 360 21:55 24.04.2022
4025 Clouds 7 982 61 10000 2.06 360 21:21 24.04.2022
4026 Clouds 7 981 70 10000 3.09 50 20:44 24.04.2022
4027 Clouds 7 982 61 10000 4.63 320 19:57 24.04.2022
4028 Clouds 6 982 65 10000 5.14 90 18:37 24.04.2022
4029 Clouds 6 982 70 10000 0 0 17:42 24.04.2022
4030 Clouds 6 982 70 10000 0 0 17:20 24.04.2022
4031 Clouds 4 983 87 10000 2.06 360 16:51 24.04.2022
4032 Clouds 4 983 87 10000 2.06 360 16:23 24.04.2022
4033 Clouds 3 983 81 10000 0 0 15:39 24.04.2022
4034 Clouds 3 982 81 10000 0 0 14:31 24.04.2022
4035 Clouds 4 982 81 10000 0 0 13:26 24.04.2022
4036 Clear 4 982 81 10000 3.6 360 12:46 24.04.2022
4037 Clear 4 982 75 10000 3.6 340 11:46 24.04.2022
4038 Clear 4 982 75 10000 6.69 360 10:37 24.04.2022
4039 Clouds 4 982 87 10000 4.12 360 09:42 24.04.2022
4040 Clouds 5 982 81 10000 6.69 20 07:41 24.04.2022
4041 Clouds 5 982 81 10000 4.63 20 05:38 24.04.2022
4042 Clouds 6 981 75 10000 5.66 360 01:51 24.04.2022
4043 Clouds 6 981 81 10000 4.63 360 00:45 24.04.2022
4044 Clouds 7 981 76 10000 3.6 10 23:46 23.04.2022
4045 Clouds 7 981 76 10000 3.6 10 23:25 23.04.2022
4046 Clouds 8 980 66 10000 1.54 180 21:56 23.04.2022
4047 Clouds 8 980 66 10000 1.54 180 21:36 23.04.2022
4048 Clouds 8 980 71 10000 4.12 10 20:59 23.04.2022
4049 Clouds 8 980 66 10000 4.12 20 19:55 23.04.2022
4050 Clouds 8 980 66 10000 4.12 20 19:20 23.04.2022
4051 Clouds 8 980 66 10000 4.63 30 18:53 23.04.2022
4052 Clouds 8 980 66 10000 4.63 30 18:31 23.04.2022
4053 Drizzle 7 980 70 10000 3.6 50 17:44 23.04.2022
4054 Clouds 7 980 70 10000 6.17 360 16:44 23.04.2022
4055 Clouds 6 980 75 10000 4.12 360 15:35 23.04.2022
4056 Clouds 5 979 87 10000 4.12 360 12:59 23.04.2022
4057 Clouds 6 979 75 10000 3.6 360 11:24 23.04.2022
4058 Clouds 6 979 75 10000 1.03 340 09:38 23.04.2022
4059 Clouds 6 980 75 10000 1.03 20 07:52 23.04.2022
4060 Clouds 6 982 75 10000 1.03 0 03:56 23.04.2022
4061 Clouds 7 984 61 10000 2.06 270 01:58 23.04.2022
4062 Clouds 8 985 66 10000 5.66 360 23:34 22.04.2022
4063 Clouds 10 985 46 10000 6.17 320 22:32 22.04.2022
4064 Clouds 10 986 50 10000 6.17 320 21:44 22.04.2022
4065 Clouds 10 986 50 10000 6.17 320 21:20 22.04.2022
4066 Clouds 8 986 66 10000 5.14 360 20:28 22.04.2022
4067 Clouds 7 987 70 10000 0 0 19:23 22.04.2022
4068 Clouds 7 988 70 10000 0 0 18:52 22.04.2022
4069 Clouds 7 988 70 10000 0 0 18:20 22.04.2022
4070 Clouds 5 990 87 10000 3.09 120 16:53 22.04.2022
4071 Clear 3 992 87 10000 1.03 360 15:56 22.04.2022
4072 Clear 3 992 87 10000 1.03 360 15:22 22.04.2022
4073 Clouds 3 992 87 10000 3.09 10 14:21 22.04.2022
4074 Clouds 3 992 87 10000 3.6 360 13:27 22.04.2022
4075 Clouds 4 993 81 10000 3.6 310 12:30 22.04.2022
4076 Clouds 5 994 75 10000 3.6 270 11:23 22.04.2022
4077 Clouds 5 994 75 10000 2.57 270 10:53 22.04.2022
4078 Clouds 5 994 75 10000 2.57 270 10:32 22.04.2022
4079 Clouds 5 995 75 10000 1.54 320 09:54 22.04.2022
4080 Clouds 2 996 90 10000 1.46 320 08:56 22.04.2022
4081 Clouds 2 997 91 10000 1.72 327 08:29 22.04.2022
4082 Clouds 5 996 81 10000 4.12 250 05:31 22.04.2022
4083 Drizzle 5 996 87 10000 9.26 230 00:53 22.04.2022
4084 Drizzle 6 995 81 10000 8.75 230 23:29 21.04.2022
4085 Drizzle 6 995 81 10000 8.23 230 22:34 21.04.2022
4086 Clouds 6 995 81 10000 8.75 230 21:23 21.04.2022
4087 Clouds 6 994 87 10000 9.77 230 20:27 21.04.2022
4088 Clouds 6 995 75 10000 7.2 230 18:49 21.04.2022
4089 Clouds 6 995 75 10000 7.2 230 18:19 21.04.2022
4090 Clouds 6 994 70 10000 6.17 250 16:56 21.04.2022
4091 Clouds 5 994 75 10000 4.63 250 15:24 21.04.2022
4092 Clouds 5 994 70 10000 8.23 230 14:51 21.04.2022
4093 Clouds 5 994 70 10000 4.12 270 13:56 21.04.2022
4094 Clouds 5 994 70 10000 4.12 270 13:20 21.04.2022
4095 Clouds 5 993 75 10000 5.66 270 11:37 21.04.2022
4096 Clouds 5 993 75 10000 11.32 230 09:23 21.04.2022
4097 Clouds 6 993 70 10000 11.32 230 08:29 21.04.2022
4098 Clouds 6 992 70 10000 11.83 230 06:26 21.04.2022
4099 Rain 7 990 81 10000 9.77 230 03:39 21.04.2022
4100 Rain 7 990 81 10000 9.77 230 03:18 21.04.2022
4101 Rain 8 990 71 10000 4.63 230 02:43 21.04.2022
4102 Clouds 8 988 71 10000 6.69 230 00:27 21.04.2022
4103 Clouds 9 988 71 10000 2.06 140 23:25 20.04.2022
4104 Clouds 9 987 71 10000 4.63 140 22:58 20.04.2022
4105 Clouds 9 987 71 10000 4.63 140 22:33 20.04.2022
4106 Clouds 10 987 62 10000 4.63 0 21:35 20.04.2022
4107 Clouds 10 987 57 10000 5.66 350 20:43 20.04.2022
4108 Clouds 10 987 57 10000 5.66 350 20:21 20.04.2022
4109 Clouds 9 988 61 10000 7.2 10 19:39 20.04.2022
4110 Clouds 9 988 61 10000 8.75 350 18:45 20.04.2022
4111 Clouds 8 989 61 10000 10.29 360 17:18 20.04.2022
4112 Clouds 5 990 70 10000 6.17 320 16:39 20.04.2022
4113 Clouds 4 991 87 10000 2.06 230 14:55 20.04.2022
4114 Clear 5 991 81 10000 2.06 50 12:18 20.04.2022
4115 Clouds 5 991 81 10000 0.51 70 11:40 20.04.2022
4116 Clouds 5 990 81 10000 3.09 140 10:39 20.04.2022
4117 Clouds 5 990 87 10000 3.09 140 09:28 20.04.2022
4118 Clouds 6 990 81 10000 2.06 110 08:27 20.04.2022
4119 Clouds 6 990 75 10000 1.03 90 07:44 20.04.2022
4120 Clouds 7 990 65 10000 1.54 290 05:29 20.04.2022
4121 Clouds 9 990 66 10000 4.12 270 01:35 20.04.2022
4122 Clouds 9 990 66 10000 4.63 270 00:21 20.04.2022
4123 Clouds 12 990 43 10000 1.54 270 22:44 19.04.2022
4124 Clouds 12 990 43 10000 1.54 270 22:23 19.04.2022
4125 Clouds 12 990 47 10000 4.12 360 21:46 19.04.2022
4126 Clouds 13 990 47 10000 1.54 250 20:57 19.04.2022
4127 Clouds 13 990 47 10000 1.54 250 20:37 19.04.2022
4128 Clouds 11 991 66 10000 0 0 19:32 19.04.2022
4129 Clouds 10 992 71 10000 0 0 18:27 19.04.2022
4130 Clouds 8 993 81 10000 2.57 360 16:50 19.04.2022
4131 Clouds 8 993 81 10000 2.57 360 16:25 19.04.2022
4132 Clouds 8 993 81 10000 1.54 270 15:57 19.04.2022
4133 Clouds 8 994 81 10000 3.09 230 14:44 19.04.2022
4134 Drizzle 8 994 76 10000 4.12 140 12:53 19.04.2022
4135 Drizzle 8 994 76 10000 4.12 140 12:31 19.04.2022
4136 Clouds 8 994 76 10000 2.06 360 11:27 19.04.2022
4137 Drizzle 8 996 71 10000 4.12 320 09:31 19.04.2022
4138 Clouds 9 998 53 10000 5.66 360 07:43 19.04.2022
4139 Clouds 9 998 53 10000 5.66 360 07:43 19.04.2022
4140 Clouds 8 999 66 10000 5.14 320 04:24 19.04.2022
4141 Clouds 9 1000 61 10000 6.17 360 01:41 19.04.2022
4142 Clouds 7 1001 81 10000 1.54 0 23:49 18.04.2022
4143 Clouds 7 1001 87 10000 2.57 100 22:46 18.04.2022
4144 Clouds 7 1001 81 10000 2.57 120 21:25 18.04.2022
4145 Clouds 8 1002 71 10000 2.06 70 20:39 18.04.2022
4146 Clouds 8 1002 71 10000 2.06 70 20:19 18.04.2022
4147 Clouds 7 1003 87 10000 2.06 30 19:33 18.04.2022
4148 Clouds 7 1003 81 10000 1.03 0 18:45 18.04.2022
4149 Clear 7 1002 81 10000 1.03 50 17:49 18.04.2022
4150 Clear 7 1002 81 10000 1.03 50 17:19 18.04.2022
4151 Clear 6 1002 81 10000 1.54 360 16:39 18.04.2022
4152 Clear 4 1002 81 10000 1.54 360 15:32 18.04.2022
4153 Clear 4 1002 87 10000 5.66 360 14:27 18.04.2022
4154 Clear 4 1002 87 10000 3.6 320 13:24 18.04.2022
4155 Clear 4 1002 87 10000 5.66 320 12:27 18.04.2022
4156 Clouds 5 1002 87 10000 2.57 320 10:58 18.04.2022
4157 Clouds 7 1002 76 10000 5.14 320 09:53 18.04.2022
4158 Clouds 7 1002 76 10000 5.14 320 09:27 18.04.2022
4159 Clouds 7 1001 70 10000 6.69 230 07:25 18.04.2022
4160 Rain 8 1000 93 10000 4.63 250 03:51 18.04.2022
4161 Drizzle 10 998 76 10000 7.72 230 23:30 17.04.2022
4162 Clouds 11 998 66 10000 0 0 22:37 17.04.2022
4163 Clouds 11 999 71 10000 3.09 230 21:34 17.04.2022
4164 Clouds 11 999 66 10000 0 0 20:53 17.04.2022
4165 Clouds 11 999 66 10000 0 0 20:25 17.04.2022
4166 Clear 11 1000 62 10000 0 0 19:20 17.04.2022
4167 Clouds 9 1003 71 10000 2.57 180 17:34 17.04.2022
4168 Clouds 9 1005 66 10000 9.26 360 15:37 17.04.2022
4169 Clouds 9 1007 66 10000 4.63 320 14:53 17.04.2022
4170 Clouds 10 1007 57 10000 7.72 360 13:41 17.04.2022
4171 Clouds 10 1008 57 10000 7.2 360 12:52 17.04.2022
4172 Clouds 9 1009 61 10000 9.77 360 11:22 17.04.2022
4173 Clouds 8 1011 71 10000 9.77 360 10:30 17.04.2022
4174 Clouds 8 1012 61 10000 3.09 270 09:57 17.04.2022
4175 Clouds 8 1012 61 10000 3.09 270 09:21 17.04.2022
4176 Clouds 6 1013 75 10000 2.06 140 08:41 17.04.2022
4177 Clear 4 1015 81 10000 3.09 270 06:32 17.04.2022
4178 Clear 4 1019 70 10000 3.6 320 02:56 17.04.2022
4179 Clear 5 1020 52 10000 2.57 320 00:43 17.04.2022
4180 Clouds 7 1020 61 10000 2.06 250 23:41 16.04.2022
4181 Clouds 7 1020 61 10000 4.63 230 21:54 16.04.2022
4182 Clouds 7 1020 61 10000 4.63 230 21:19 16.04.2022
4183 Clouds 7 1020 61 10000 6.17 230 19:30 16.04.2022
4184 Clouds 6 1020 65 10000 8.23 230 18:45 16.04.2022
4185 Clouds 6 1019 65 10000 7.72 230 17:21 16.04.2022
4186 Clouds 6 1019 65 10000 9.26 230 16:30 16.04.2022
4187 Clouds 5 1016 65 10000 7.72 230 14:59 16.04.2022
4188 Clouds 5 1016 65 10000 7.72 230 14:41 16.04.2022
4189 Clouds 5 1016 65 10000 10.29 200 13:50 16.04.2022
4190 Clouds 5 1016 65 10000 10.29 200 13:24 16.04.2022
4191 Clouds 6 1013 61 10000 14.92 200 11:58 16.04.2022
4192 Clouds 5 1012 70 10000 13.38 200 10:35 16.04.2022
4193 Clouds 6 1011 61 10000 13.89 230 09:38 16.04.2022
4194 Clouds 5 1010 70 10000 12.86 230 08:52 16.04.2022
4195 Clouds 5 1009 75 10000 13.38 230 07:23 16.04.2022
4196 Clouds 5 1008 70 10000 15.43 230 06:18 16.04.2022
4197 Rain 8 1001 76 10000 12.35 230 01:53 16.04.2022
4198 Clouds 9 998 71 10000 6.69 230 23:53 15.04.2022
4199 Clouds 9 997 61 10000 8.75 230 22:51 15.04.2022
4200 Clouds 9 997 61 10000 8.75 230 22:31 15.04.2022
4201 Clouds 10 997 71 10000 8.75 230 21:35 15.04.2022
4202 Clouds 8 997 76 10000 0 0 20:44 15.04.2022
4203 Clouds 10 997 77 10000 1.02 234 19:49 15.04.2022
4204 Clouds 10 997 77 10000 1.02 234 19:30 15.04.2022
4205 Clouds 7 997 87 10000 1.54 180 18:45 15.04.2022
4206 Clouds 7 997 87 10000 1.54 180 18:23 15.04.2022
4207 Clouds 6 998 93 10000 0 0 17:28 15.04.2022
4208 Clouds 6 997 81 10000 1.03 360 16:25 15.04.2022
4209 Clouds 6 997 81 10000 1.03 360 16:25 15.04.2022
4210 Clouds 5 998 81 10000 0 0 15:54 15.04.2022
4211 Clouds 5 997 81 10000 0 0 14:22 15.04.2022
4212 Clouds 5 998 81 10000 0 0 12:53 15.04.2022
4213 Clouds 5 998 81 10000 0 0 12:28 15.04.2022
4214 Clouds 5 998 81 10000 1.54 270 11:54 15.04.2022
4215 Clear 5 998 75 10000 1.54 50 10:49 15.04.2022
4216 Clear 5 998 75 10000 1.54 50 10:21 15.04.2022
4217 Clouds 5 998 81 10000 1.54 340 09:24 15.04.2022
4218 Clear 6 998 75 10000 2.57 270 08:57 15.04.2022
4219 Clear 7 999 61 10000 0 0 06:55 15.04.2022
4220 Clear 7 999 65 10000 2.06 320 05:56 15.04.2022
4221 Clouds 9 999 57 10000 5.14 230 01:33 15.04.2022
4222 Clouds 10 997 93 10000 7.72 230 23:30 14.04.2022
4223 Clouds 10 997 62 10000 7.72 230 22:46 14.04.2022
4224 Clouds 10 997 62 10000 7.72 230 22:27 14.04.2022
4225 Clouds 10 997 62 10000 7.72 230 22:27 14.04.2022
4226 Clouds 11 997 50 10000 7.72 230 21:53 14.04.2022
4227 Clouds 11 997 46 10000 5.66 230 19:57 14.04.2022
4228 Clouds 11 997 46 10000 5.66 230 19:22 14.04.2022
4229 Clear 10 997 50 10000 3.09 270 17:58 14.04.2022
4230 Clear 10 997 50 10000 3.09 270 17:27 14.04.2022
4231 Clear 7 998 61 10000 4.12 360 16:33 14.04.2022
4232 Clouds 6 998 70 10000 4.12 320 14:23 14.04.2022
4233 Clear 7 998 61 10000 3.6 320 13:31 14.04.2022
4234 Clear 6 998 70 10000 4.12 320 12:42 14.04.2022
4235 Clear 6 998 70 10000 4.12 320 12:22 14.04.2022
4236 Clear 8 997 57 10000 5.14 270 11:23 14.04.2022
4237 Clear 9 997 53 10000 5.14 250 10:36 14.04.2022
4238 Clear 9 996 61 10000 12.35 230 09:56 14.04.2022
4239 Clouds 9 996 61 10000 14.92 230 08:40 14.04.2022
4240 Clouds 9 996 66 10000 13.38 230 06:50 14.04.2022
4241 Clouds 12 992 58 10000 13.38 230 02:53 14.04.2022
4242 Clouds 14 990 67 10000 1.54 240 22:56 13.04.2022
4243 Clouds 13 991 67 10000 7.2 230 21:44 13.04.2022
4244 Clouds 14 991 62 10000 9.26 230 20:55 13.04.2022
4245 Clouds 14 991 62 10000 9.26 230 20:22 13.04.2022
4246 Clouds 13 992 58 10000 2.57 0 19:32 13.04.2022
4247 Clouds 10 993 57 10000 5.14 320 18:20 13.04.2022
4248 Clouds 9 993 66 10000 3.09 360 17:24 13.04.2022
4249 Clouds 7 994 70 10000 2.06 50 16:34 13.04.2022
4250 Clouds 5 996 81 10000 5.14 360 15:38 13.04.2022
4251 Clouds 5 997 75 10000 4.12 320 14:50 13.04.2022
4252 Clouds 5 997 75 10000 4.12 320 14:26 13.04.2022
4253 Clouds 6 997 75 10000 9.77 230 13:28 13.04.2022
4254 Clouds 6 997 70 10000 11.83 230 12:25 13.04.2022
4255 Clouds 6 997 70 10000 11.83 230 12:25 13.04.2022
4256 Clouds 5 996 75 10000 15.95 230 10:49 13.04.2022
4257 Clouds 5 997 70 10000 8.75 230 09:44 13.04.2022
4258 Clouds 4 997 81 10000 9.77 230 08:43 13.04.2022
4259 Drizzle 4 997 81 10000 10.29 230 06:52 13.04.2022
4260 Drizzle 4 997 81 10000 10.29 230 06:26 13.04.2022
4261 Drizzle 3 996 87 10000 8.75 230 05:36 13.04.2022
4262 Drizzle 5 992 75 10000 14.4 230 00:22 13.04.2022
4263 Drizzle 6 990 70 10000 16.46 230 23:45 12.04.2022
4264 Drizzle 6 990 75 10000 16.46 230 22:19 12.04.2022
4265 Drizzle 6 988 87 10000 13.89 230 21:29 12.04.2022
4266 Drizzle 6 986 87 10000 14.4 230 20:41 12.04.2022
4267 Drizzle 7 986 87 10000 10.8 230 19:50 12.04.2022
4268 Drizzle 7 986 87 10000 10.8 230 19:31 12.04.2022
4269 Drizzle 8 986 81 10000 7.72 230 18:31 12.04.2022
4270 Drizzle 9 985 66 10000 4.63 200 17:28 12.04.2022
4271 Drizzle 9 985 66 10000 4.63 200 17:28 12.04.2022
4272 Clouds 8 985 66 10000 4.63 230 16:22 12.04.2022
4273 Clouds 8 986 57 10000 3.6 230 15:33 12.04.2022
4274 Clouds 8 985 61 10000 2.57 0 14:29 12.04.2022
4275 Clouds 9 986 53 10000 5.14 320 13:37 12.04.2022
4276 Clouds 9 987 53 10000 9.26 320 12:52 12.04.2022
4277 Clouds 8 988 61 10000 8.75 340 11:47 12.04.2022
4278 Clear 7 990 65 10000 2.06 270 10:47 12.04.2022
4279 Clear 7 991 61 10000 1.03 320 09:21 12.04.2022
4280 Clear 6 994 70 10000 2.06 140 07:56 12.04.2022
4281 Clear 6 995 70 10000 3.6 200 06:24 12.04.2022
4282 Clear 5 997 75 10000 1.54 90 05:34 12.04.2022
4283 Clouds 6 1001 70 10000 6.69 230 00:46 12.04.2022
4284 Clouds 7 1001 70 10000 9.26 230 22:47 11.04.2022
4285 Clouds 7 1000 76 10000 9.77 230 21:41 11.04.2022
4286 Clouds 8 1000 71 10000 11.32 230 20:59 11.04.2022
4287 Clouds 8 1000 71 10000 11.32 230 20:29 11.04.2022
4288 Clouds 7 1001 89 7373 1.25 193 19:55 11.04.2022
4289 Clouds 7 1000 94 3957 1.43 201 19:18 11.04.2022
4290 Clouds 6 999 81 10000 9.26 230 18:47 11.04.2022
4291 Clouds 5 998 87 10000 8.75 230 17:57 11.04.2022
4292 Drizzle 5 998 93 10000 6.17 230 16:54 11.04.2022
4293 Drizzle 5 997 93 10000 3.09 180 15:58 11.04.2022
4294 Clouds 5 996 87 10000 1.54 270 14:33 11.04.2022
4295 Drizzle 5 995 87 10000 4.12 50 12:53 11.04.2022
4296 Drizzle 5 995 87 10000 4.12 50 12:35 11.04.2022
4297 Drizzle 5 995 81 10000 2.57 70 11:37 11.04.2022
4298 Clouds 5 996 87 10000 2.57 70 10:31 11.04.2022
4299 Clouds 5 996 81 10000 1.03 180 09:20 11.04.2022
4300 Clouds 5 998 87 10000 3.09 180 06:51 11.04.2022
4301 Clouds 6 1000 70 10000 1.54 360 02:30 11.04.2022
4302 Clouds 8 1002 61 10000 3.6 230 22:39 10.04.2022
4303 Clouds 8 1003 57 10000 1.03 180 21:55 10.04.2022
4304 Clouds 8 1003 57 10000 1.03 180 21:33 10.04.2022
4305 Clouds 7 1003 61 10000 3.09 230 20:31 10.04.2022
4306 Clouds 8 1004 57 10000 1.03 180 19:45 10.04.2022
4307 Clouds 8 1004 57 10000 1.03 180 19:23 10.04.2022
4308 Clouds 7 1005 57 10000 3.09 230 18:43 10.04.2022
4309 Clear 7 1005 61 10000 1.54 320 17:55 10.04.2022
4310 Clear 7 1005 61 10000 1.54 320 17:35 10.04.2022
4311 Clear 6 1005 61 10000 2.06 320 16:25 10.04.2022
4312 Clear 6 1006 65 10000 3.6 320 15:20 10.04.2022
4313 Clear 6 1005 65 10000 7.2 230 14:25 10.04.2022
4314 Clouds 6 1005 75 10000 8.23 230 12:35 10.04.2022
4315 Clouds 6 1005 75 10000 11.32 230 11:49 10.04.2022
4316 Clouds 6 1005 75 10000 11.32 230 11:29 10.04.2022
4317 Clouds 6 1004 75 10000 8.75 230 10:54 10.04.2022
4318 Clouds 6 1004 75 10000 8.75 230 10:54 10.04.2022
4319 Clouds 7 1004 76 10000 9.26 240 09:58 10.04.2022
4320 Clouds 7 1004 76 10000 9.26 240 09:37 10.04.2022
4321 Clouds 7 1004 81 10000 9.26 240 08:22 10.04.2022
4322 Clouds 8 1004 71 10000 9.77 250 07:27 10.04.2022
4323 Clouds 8 1003 71 10000 10.8 230 05:46 10.04.2022
4324 Clouds 9 1003 71 10000 8.75 230 02:21 10.04.2022
4325 Clouds 9 1003 66 10000 1.54 60 00:27 10.04.2022
4326 Clouds 10 1003 62 10000 0 0 23:48 09.04.2022
4327 Clouds 12 1003 58 10000 0 0 22:47 09.04.2022
4328 Clouds 12 1003 58 10000 0 0 21:35 09.04.2022
4329 Clouds 10 1004 57 10000 0 0 20:48 09.04.2022
4330 Clouds 10 1004 57 10000 0 0 20:25 09.04.2022
4331 Clouds 10 1004 57 10000 1.54 160 19:41 09.04.2022
4332 Clouds 9 1005 61 10000 1.54 140 18:55 09.04.2022
4333 Clouds 9 1005 61 10000 1.54 140 18:19 09.04.2022
4334 Clouds 8 1005 66 10000 0 0 17:39 09.04.2022
4335 Clouds 6 1006 70 10000 1.03 20 16:50 09.04.2022
4336 Clear 4 1006 70 10000 0 0 15:55 09.04.2022
4337 Clear 4 1006 70 10000 0 0 15:29 09.04.2022
4338 Clear 3 1006 81 10000 0 0 14:27 09.04.2022
4339 Clear 3 1007 87 10000 2.06 320 13:54 09.04.2022
4340 Clear 3 1007 87 10000 0.51 290 12:59 09.04.2022
4341 Clear 3 1007 87 10000 0.51 290 12:34 09.04.2022
4342 Clear 2 1007 87 10000 0.51 270 11:22 09.04.2022
4343 Clear 3 1007 75 10000 2.06 290 10:21 09.04.2022
4344 Clear 4 1007 87 10000 0.51 290 09:37 09.04.2022
4345 Clear 3 1008 93 10000 2.57 290 08:51 09.04.2022
4346 Clear 4 1009 87 10000 2.06 230 06:48 09.04.2022
4347 Clear 4 1010 81 10000 4.12 230 01:31 09.04.2022
4348 Clear 6 1010 75 10000 1.54 230 23:30 08.04.2022
4349 Clear 7 1011 65 10000 1.54 230 21:58 08.04.2022
4350 Clear 6 1012 75 10000 0 0 20:48 08.04.2022
4351 Clear 6 1012 75 10000 0 0 20:23 08.04.2022
4352 Clear 5 1012 87 10000 0 0 19:18 08.04.2022
4353 Clear 5 1013 81 10000 2.06 180 18:29 08.04.2022
4354 Clouds 4 1013 81 10000 0 0 17:46 08.04.2022
4355 Clouds 4 1013 81 10000 0 0 17:22 08.04.2022
4356 Clouds 2 1014 87 10000 2.06 230 16:47 08.04.2022
4357 Clouds 1 1014 93 10000 2.06 270 15:56 08.04.2022
4358 Clouds 1 1014 93 10000 2.06 270 15:25 08.04.2022
4359 Clouds 1 1014 93 10000 2.57 270 14:26 08.04.2022
4360 Clouds 1 1014 100 10000 2.06 270 13:45 08.04.2022
4361 Clouds 1 1014 100 10000 2.06 270 13:27 08.04.2022
4362 Clear 1 1014 93 10000 1.03 280 11:54 08.04.2022
4363 Clear 1 1015 93 10000 1.54 270 10:33 08.04.2022
4364 Clear 1 1015 86 10000 2.06 320 09:38 08.04.2022
4365 Clear 1 1015 93 10000 3.09 330 08:44 08.04.2022
4366 Clear 2 1016 87 10000 3.09 350 06:55 08.04.2022
4367 Clear 2 1016 87 10000 3.6 270 05:18 08.04.2022
4368 Clouds 4 1016 70 10000 5.14 230 01:27 08.04.2022
4369 Clouds 4 1016 70 10000 5.66 230 00:25 08.04.2022
4370 Clouds 4 1016 70 10000 5.66 230 00:25 08.04.2022
4371 Clouds 6 1015 65 10000 5.66 230 22:59 07.04.2022
4372 Clouds 6 1015 65 10000 5.66 230 22:39 07.04.2022
4373 Clouds 6 1015 65 10000 5.66 230 22:21 07.04.2022
4374 Clouds 6 1015 65 10000 4.63 230 21:51 07.04.2022
4375 Clouds 6 1015 65 10000 4.63 230 21:19 07.04.2022
4376 Clouds 6 1015 61 10000 4.12 230 20:31 07.04.2022
4377 Clouds 5 1015 65 10000 5.14 230 18:34 07.04.2022
4378 Clouds 5 1015 65 10000 5.14 230 18:34 07.04.2022
4379 Clouds 5 1016 70 10000 5.66 230 17:26 07.04.2022
4380 Clouds 4 1016 75 10000 4.63 230 16:44 07.04.2022
4381 Clouds 4 1016 75 10000 4.63 230 16:22 07.04.2022
4382 Clouds 4 1016 75 10000 4.63 230 16:22 07.04.2022
4383 Clouds 2 1016 80 10000 1.03 320 14:50 07.04.2022
4384 Clouds 2 1015 80 10000 2.57 320 13:43 07.04.2022
4385 Clear 2 1015 80 10000 1.54 270 12:50 07.04.2022
4386 Clouds 2 1015 80 10000 2.06 320 11:34 07.04.2022
4387 Clouds 3 1015 75 10000 3.09 280 09:37 07.04.2022
4388 Clouds 2 1015 87 10000 2.06 330 08:38 07.04.2022
4389 Clouds 4 1014 75 10000 7.2 250 06:43 07.04.2022
4390 Clouds 5 1013 52 10000 8.75 230 02:54 07.04.2022
4391 Clouds 5 1013 52 10000 8.75 230 02:25 07.04.2022
4392 Clouds 5 1012 70 10000 10.29 230 00:28 07.04.2022
4393 Clouds 6 1011 70 10000 12.35 230 22:52 06.04.2022
4394 Clouds 6 1011 70 10000 12.35 230 22:27 06.04.2022
4395 Clouds 6 1010 75 10000 15.43 230 21:45 06.04.2022
4396 Clouds 5 1009 81 10000 13.38 230 20:40 06.04.2022
4397 Clouds 5 1009 81 10000 12.35 230 19:54 06.04.2022
4398 Clouds 5 1009 81 10000 13.38 230 18:52 06.04.2022
4399 Clouds 5 1009 81 10000 13.38 230 18:33 06.04.2022
4400 Clouds 4 1008 93 10000 12.35 230 17:35 06.04.2022
4401 Clouds 5 1008 75 10000 12.35 230 16:39 06.04.2022
4402 Clouds 4 1008 81 10000 12.35 230 15:49 06.04.2022
4403 Clouds 4 1008 81 10000 12.35 230 15:21 06.04.2022
4404 Clouds 4 1008 81 10000 12.35 230 15:21 06.04.2022
4405 Clouds 2 1007 100 10000 11.32 230 13:28 06.04.2022
4406 Clouds 4 1006 75 10000 12.35 230 12:27 06.04.2022
4407 Clouds 3 1005 81 10000 9.26 230 10:52 06.04.2022
4408 Clouds 3 1005 81 10000 9.26 230 10:30 06.04.2022
4409 Clouds 4 1005 75 10000 9.26 230 09:42 06.04.2022
4410 Drizzle 3 1005 87 10000 10.8 230 08:36 06.04.2022
4411 Clouds 3 1004 81 10000 8.75 230 07:54 06.04.2022
4412 Clouds 3 1003 81 10000 11.32 230 04:31 06.04.2022
4413 Drizzle 4 999 75 10000 13.38 230 23:56 05.04.2022
4414 Drizzle 4 999 75 10000 13.38 230 23:22 05.04.2022
4415 Clouds 4 998 81 10000 11.83 230 21:29 05.04.2022
4416 Clouds 5 997 75 10000 13.38 230 20:44 05.04.2022
4417 Clouds 5 997 75 10000 13.38 230 20:19 05.04.2022
4418 Rain 4 996 87 8000 11.83 230 18:24 05.04.2022
4419 Snow 2 995 100 10000 7.72 230 16:55 05.04.2022
4420 Snow 2 995 100 10000 7.72 230 16:35 05.04.2022
4421 Snow 2 994 87 7000 7.72 230 15:43 05.04.2022
4422 Snow 2 994 87 7000 7.72 230 15:43 05.04.2022
4423 Snow 2 994 87 7000 7.72 230 15:24 05.04.2022
4424 Snow 2 992 93 6000 10.8 230 13:42 05.04.2022
4425 Snow 2 990 87 6000 8.75 240 11:51 05.04.2022
4426 Snow 2 990 87 6000 8.75 240 11:51 05.04.2022
4427 Snow 2 990 87 6000 8.75 240 11:33 05.04.2022
4428 Snow 2 989 87 4500 7.2 250 10:57 05.04.2022
4429 Snow 1 988 93 4500 6.17 250 09:29 05.04.2022
4430 Snow 2 987 80 6000 9.26 250 07:32 05.04.2022
4431 Clouds 3 984 70 10000 8.23 230 02:58 05.04.2022
4432 Clouds 4 984 75 10000 11.32 230 23:22 04.04.2022
4433 Clouds 4 984 81 10000 11.83 230 22:32 04.04.2022
4434 Clouds 4 984 81 10000 10.29 230 21:43 04.04.2022
4435 Clouds 4 984 81 10000 10.29 230 21:18 04.04.2022
4436 Clouds 5 984 65 10000 8.23 230 20:46 04.04.2022
4437 Rain 4 984 81 10000 12.86 230 19:27 04.04.2022
4438 Clouds 5 984 70 10000 9.77 230 18:39 04.04.2022
4439 Clouds 4 984 75 10000 7.72 230 17:19 04.04.2022
4440 Clouds 3 984 81 10000 8.23 230 16:28 04.04.2022
4441 Clouds 3 985 87 10000 7.2 230 15:33 04.04.2022
4442 Clouds 3 985 87 10000 7.72 230 14:46 04.04.2022
4443 Clouds 3 986 81 10000 5.14 250 13:59 04.04.2022
4444 Clouds 3 985 87 10000 7.2 230 12:58 04.04.2022
4445 Clouds 3 985 87 10000 7.2 230 11:29 04.04.2022
4446 Clouds 4 985 70 10000 6.69 230 09:53 04.04.2022
4447 Clouds 2 987 87 10000 1.03 320 05:34 04.04.2022
4448 Rain 3 988 93 10000 9.77 230 02:59 04.04.2022
4449 Clouds 4 987 87 10000 8.75 230 23:19 03.04.2022
4450 Rain 5 987 67 7604 3.72 293 22:00 03.04.2022
4451 Rain 4 986 81 10000 13.89 230 21:31 03.04.2022
4452 Clouds 6 986 75 10000 11.83 220 20:32 03.04.2022
4453 Clouds 7 985 70 10000 8.23 210 18:47 03.04.2022
4454 Rain 5 985 81 10000 11.32 230 17:56 03.04.2022
4455 Rain 5 985 81 10000 11.32 230 17:36 03.04.2022
4456 Clouds 6 985 81 10000 2.57 210 16:50 03.04.2022
4457 Clouds 5 984 81 10000 2.06 290 15:56 03.04.2022
4458 Clouds 4 985 93 10000 2.57 270 14:25 03.04.2022
4459 Rain 4 984 93 8000 11.83 220 13:28 03.04.2022
4460 Clouds 6 982 70 10000 4.63 290 11:50 03.04.2022
4461 Clouds 5 984 75 10000 1.54 140 09:57 03.04.2022
4462 Clouds 5 984 75 10000 1.54 140 09:18 03.04.2022
4463 Clouds 4 988 81 10000 2.06 180 06:28 03.04.2022
4464 Clouds 4 993 87 10000 2.57 270 02:55 03.04.2022
4465 Clouds 5 993 93 10000 1.54 230 23:50 02.04.2022
4466 Drizzle 5 993 93 10000 2.06 230 22:51 02.04.2022
4467 Drizzle 5 993 93 10000 2.06 180 21:56 02.04.2022
4468 Drizzle 5 993 93 10000 2.06 180 21:21 02.04.2022
4469 Drizzle 5 993 87 10000 1.03 180 20:36 02.04.2022
4470 Drizzle 4 994 93 10000 3.09 230 18:49 02.04.2022
4471 Drizzle 4 994 93 10000 3.09 230 18:20 02.04.2022
4472 Clouds 4 995 93 10000 3.09 200 17:23 02.04.2022
4473 Drizzle 4 994 81 10000 1.54 180 15:55 02.04.2022
4474 Drizzle 4 994 81 10000 1.54 180 15:20 02.04.2022
4475 Clouds 3 994 87 10000 1.54 50 14:31 02.04.2022
4476 Clouds 3 994 87 10000 2.57 360 13:34 02.04.2022
4477 Clouds 3 995 81 10000 1.54 70 12:32 02.04.2022
4478 Clear 2 995 100 10000 1.03 290 10:46 02.04.2022
4479 Clear 2 996 80 10000 0.51 270 08:33 02.04.2022
4480 Clouds 4 997 81 10000 1.54 320 05:58 02.04.2022
4481 Clouds 4 998 87 10000 3.6 340 03:28 02.04.2022
4482 Clouds 7 996 70 10000 8.75 230 23:55 01.04.2022
4483 Clouds 7 996 70 10000 9.77 220 22:51 01.04.2022
4484 Drizzle 7 995 70 10000 11.83 230 21:27 01.04.2022
4485 Clouds 7 996 81 10000 8.75 230 20:49 01.04.2022
4486 Clouds 7 996 87 10000 8.75 230 19:50 01.04.2022
4487 Clouds 7 996 87 10000 8.75 230 19:26 01.04.2022
4488 Clouds 7 996 93 10000 5.66 230 18:42 01.04.2022
4489 Clouds 7 996 87 10000 2.06 200 17:45 01.04.2022
4490 Drizzle 7 996 87 10000 1.03 50 16:33 01.04.2022
4491 Drizzle 6 997 93 10000 3.09 50 15:18 01.04.2022
4492 Drizzle 6 997 87 10000 2.06 360 14:18 01.04.2022
4493 Drizzle 6 998 100 10000 6.17 250 13:32 01.04.2022
4494 Clouds 6 998 87 10000 6.17 230 12:30 01.04.2022
4495 Drizzle 6 998 93 10000 6.17 250 11:18 01.04.2022
4496 Drizzle 6 998 93 10000 7.2 230 09:53 01.04.2022
4497 Drizzle 7 998 76 10000 11.83 200 07:50 01.04.2022
4498 Drizzle 8 997 81 10000 11.32 200 06:30 01.04.2022
4499 Clouds 10 997 57 10000 2.06 90 04:45 01.04.2022
4500 Clouds 10 998 57 10000 5.14 50 03:41 01.04.2022
4501 Clouds 11 998 54 10000 7.2 320 01:53 01.04.2022
4502 Clouds 12 1000 47 10000 6.17 290 22:56 31.03.2022
4503 Clouds 12 1000 54 10000 2.57 140 21:49 31.03.2022
4504 Clouds 12 1000 54 10000 2.57 140 21:22 31.03.2022
4505 Clouds 11 1001 58 10000 5.14 220 20:28 31.03.2022
4506 Clouds 10 1002 62 10000 5.14 220 19:46 31.03.2022
4507 Clouds 10 1003 62 10000 5.66 220 18:38 31.03.2022
4508 Clouds 10 1003 57 10000 6.17 230 17:32 31.03.2022
4509 Clouds 10 1003 57 10000 4.12 270 16:18 31.03.2022
4510 Clouds 8 1003 66 10000 11.83 220 15:33 31.03.2022
4511 Clouds 8 1003 71 10000 9.77 230 14:54 31.03.2022
4512 Clouds 8 1003 71 10000 9.77 230 14:20 31.03.2022
4513 Clouds 8 1001 71 10000 8.23 230 11:32 31.03.2022
4514 Clouds 9 1001 71 10000 9.77 230 10:41 31.03.2022
4515 Rain 8 1000 81 10000 11.83 230 09:44 31.03.2022
4516 Clouds 8 1000 76 10000 3.6 110 07:49 31.03.2022
4517 Clouds 8 1001 81 10000 3.6 140 04:42 31.03.2022
4518 Rain 9 1006 66 10000 1.54 140 23:34 30.03.2022
4519 Clouds 10 1007 57 10000 2.06 200 22:23 30.03.2022
4520 Clouds 10 1008 57 10000 2.06 180 21:33 30.03.2022
4521 Clouds 10 1009 53 10000 2.57 180 20:44 30.03.2022
4522 Clouds 10 1011 62 10000 2.06 180 19:59 30.03.2022
4523 Clouds 10 1011 57 10000 2.57 360 18:50 30.03.2022
4524 Clouds 9 1011 61 10000 2.06 320 17:52 30.03.2022
4525 Clouds 9 1011 61 10000 2.06 320 17:32 30.03.2022
4526 Clouds 8 1012 66 10000 5.14 320 16:51 30.03.2022
4527 Clouds 8 1012 66 10000 5.14 320 16:30 30.03.2022
4528 Clouds 6 1012 70 10000 6.69 270 14:55 30.03.2022
4529 Clouds 6 1012 70 10000 7.72 270 13:32 30.03.2022
4530 Clouds 6 1012 75 10000 9.26 250 12:36 30.03.2022
4531 Clouds 7 1012 70 10000 8.75 230 10:48 30.03.2022
4532 Clouds 7 1012 70 10000 12.86 230 09:58 30.03.2022
4533 Clouds 7 1012 70 10000 13.89 230 08:29 30.03.2022
4534 Clouds 6 1012 75 10000 12.86 230 07:29 30.03.2022
4535 Clouds 6 1012 81 10000 12.86 230 05:40 30.03.2022
4536 Clouds 7 1012 70 10000 14.92 220 03:20 30.03.2022
4537 Clouds 7 1011 70 10000 13.89 220 22:56 29.03.2022
4538 Clouds 7 1011 70 10000 13.89 220 22:18 29.03.2022
4539 Clouds 7 1010 70 10000 13.38 220 21:40 29.03.2022
4540 Clouds 7 1010 70 10000 12.35 230 20:39 29.03.2022
4541 Clouds 7 1010 70 10000 13.38 230 19:35 29.03.2022
4542 Clouds 6 1010 70 10000 12.86 230 18:54 29.03.2022
4543 Clouds 5 1010 87 10000 11.32 230 17:57 29.03.2022
4544 Clouds 5 1010 87 10000 11.32 230 17:20 29.03.2022
4545 Drizzle 5 1009 75 10000 10.8 230 16:54 29.03.2022
4546 Drizzle 5 1008 75 10000 11.83 230 15:44 29.03.2022
4547 Drizzle 4 1007 81 10000 10.8 230 14:43 29.03.2022
4548 Drizzle 4 1007 75 10000 8.75 230 13:36 29.03.2022
4549 Clouds 4 1006 81 10000 8.75 200 12:40 29.03.2022
4550 Clouds 4 1005 81 10000 9.77 230 11:24 29.03.2022
4551 Clouds 4 1004 81 10000 8.23 230 10:23 29.03.2022
4552 Clouds 4 1002 87 10000 9.77 140 08:52 29.03.2022
4553 Rain 5 997 87 10000 9.77 230 06:53 29.03.2022
4554 Clouds 7 993 61 10000 3.6 270 02:55 29.03.2022
4555 Clouds 8 991 61 10000 9.26 230 23:40 28.03.2022
4556 Clouds 9 990 61 10000 8.75 230 22:58 28.03.2022
4557 Clouds 9 990 61 10000 8.75 230 22:35 28.03.2022
4558 Clouds 9 989 61 10000 7.2 230 21:47 28.03.2022
4559 Clouds 9 989 61 10000 6.69 230 20:37 28.03.2022
4560 Clouds 9 989 66 10000 4.12 220 19:57 28.03.2022
4561 Clouds 9 989 66 10000 4.12 220 19:38 28.03.2022
4562 Clouds 8 988 76 10000 6.17 200 18:51 28.03.2022
4563 Clouds 7 988 81 10000 4.12 220 17:41 28.03.2022
4564 Clouds 7 988 81 10000 2.06 210 16:56 28.03.2022
4565 Clouds 5 988 87 10000 2.57 230 15:22 28.03.2022
4566 Clear 4 987 87 10000 0.51 320 14:24 28.03.2022
4567 Clear 4 986 81 10000 1.54 320 13:19 28.03.2022
4568 Clouds 5 986 81 10000 2.57 70 11:52 28.03.2022
4569 Clouds 6 986 70 10000 0.51 110 09:58 28.03.2022
4570 Clouds 6 986 70 10000 0.51 110 09:21 28.03.2022
4571 Clouds 6 986 70 10000 2.06 20 08:39 28.03.2022
4572 Clouds 6 986 70 10000 2.06 20 08:18 28.03.2022
4573 Clouds 6 986 75 10000 2.57 270 06:31 28.03.2022
4574 Clouds 8 985 66 10000 3.6 230 02:20 28.03.2022
4575 Clouds 11 983 50 10000 5.66 320 22:36 27.03.2022
4576 Clouds 11 983 50 10000 6.17 320 21:47 27.03.2022
4577 Clouds 11 983 50 10000 6.17 320 21:25 27.03.2022
4578 Clouds 10 984 50 10000 6.69 360 20:24 27.03.2022
4579 Clouds 10 984 66 10000 3.09 360 19:37 27.03.2022
4580 Clouds 7 985 93 10000 1.03 180 18:44 27.03.2022
4581 Clouds 7 985 93 10000 1.03 180 18:23 27.03.2022
4582 Clouds 7 985 93 10000 1.03 180 18:23 27.03.2022
4583 Clouds 7 985 87 10000 2.57 110 17:35 27.03.2022
4584 Clouds 6 986 87 10000 3.09 360 15:51 27.03.2022
4585 Clouds 5 987 87 10000 2.57 230 13:58 27.03.2022
4586 Clouds 5 987 87 10000 2.57 230 13:21 27.03.2022
4587 Clouds 5 987 87 10000 7.2 230 11:35 27.03.2022
4588 Drizzle 5 987 93 9000 6.17 230 09:37 27.03.2022
4589 Rain 5 987 93 8000 8.23 230 07:31 27.03.2022
4590 Rain 7 987 100 8000 6.17 220 03:45 27.03.2022
4591 Rain 7 987 100 10000 5.66 130 00:26 27.03.2022
4592 Rain 8 988 93 10000 6.17 150 22:52 26.03.2022
4593 Drizzle 9 988 87 10000 6.69 140 21:57 26.03.2022
4594 Drizzle 9 988 87 10000 6.69 140 21:30 26.03.2022
4595 Drizzle 10 989 81 10000 3.6 230 19:32 26.03.2022
4596 Drizzle 10 989 81 10000 3.6 230 19:32 26.03.2022
4597 Clouds 9 989 87 10000 6.17 230 18:44 26.03.2022
4598 Clouds 10 990 81 10000 4.12 230 17:36 26.03.2022
4599 Drizzle 10 990 81 10000 4.12 230 16:34 26.03.2022
4600 Clouds 10 990 81 10000 2.57 230 15:39 26.03.2022
4601 Clouds 10 991 76 10000 5.66 230 13:56 26.03.2022
4602 Clouds 10 991 76 10000 5.66 230 13:36 26.03.2022
4603 Clouds 15 991 47 10000 2.06 70 11:50 26.03.2022
4604 Clouds 15 991 51 10000 4.63 70 10:48 26.03.2022
4605 Clouds 16 991 44 10000 11.83 290 08:50 26.03.2022
4606 Clouds 14 992 51 10000 8.75 290 06:39 26.03.2022
4607 Clouds 12 994 66 10000 3.6 180 05:30 26.03.2022
4608 Rain 10 998 81 10000 3.09 160 01:47 26.03.2022
4609 Clouds 12 1000 66 10000 5.14 250 22:30 25.03.2022
4610 Clouds 15 1001 47 10000 7.2 320 20:58 25.03.2022
4611 Clouds 15 1001 47 10000 7.2 320 20:26 25.03.2022
4612 Clouds 15 1001 47 10000 8.75 310 19:19 25.03.2022
4613 Clouds 15 1002 47 10000 7.72 300 18:34 25.03.2022
4614 Clouds 14 1002 51 10000 6.17 310 17:29 25.03.2022
4615 Clouds 14 1002 47 10000 8.23 320 16:27 25.03.2022
4616 Clouds 13 1002 50 10000 8.75 300 15:33 25.03.2022
4617 Clouds 11 1003 54 10000 6.69 320 13:28 25.03.2022
4618 Clouds 11 1003 54 10000 6.69 320 10:50 25.03.2022
4619 Clouds 11 1004 54 10000 7.72 320 09:31 25.03.2022
4620 Clouds 11 1004 50 10000 7.72 290 08:49 25.03.2022
4621 Clouds 11 1004 50 10000 4.63 320 07:35 25.03.2022
4622 Clouds 11 1005 50 10000 6.69 320 06:29 25.03.2022
4623 Clouds 9 1008 61 10000 7.2 320 02:37 25.03.2022
4624 Clouds 10 1008 57 10000 7.2 230 22:56 24.03.2022
4625 Clouds 10 1007 57 10000 6.17 230 21:56 24.03.2022
4626 Clouds 10 1007 57 10000 7.72 230 20:51 24.03.2022
4627 Clouds 10 1006 62 10000 8.23 230 19:49 24.03.2022
4628 Clouds 9 1006 61 10000 8.23 230 18:34 24.03.2022
4629 Clouds 9 1005 66 10000 9.26 230 17:33 24.03.2022
4630 Clouds 9 1005 61 10000 11.32 230 16:24 24.03.2022
4631 Clouds 8 1003 71 10000 2.06 270 14:51 24.03.2022
4632 Clouds 8 1003 71 10000 2.06 270 14:21 24.03.2022
4633 Clouds 7 1002 76 10000 6.17 230 13:31 24.03.2022
4634 Rain 8 1001 61 10000 4.12 270 12:23 24.03.2022
4635 Clouds 9 999 53 10000 8.23 290 10:48 24.03.2022
4636 Clouds 8 998 61 10000 10.29 360 09:24 24.03.2022
4637 Clouds 8 999 57 10000 9.77 340 07:42 24.03.2022
4638 Clouds 8 1001 53 10000 6.17 320 04:52 24.03.2022
4639 Clouds 8 1004 53 10000 7.2 330 23:41 23.03.2022
4640 Clouds 8 1004 53 10000 7.2 340 22:18 23.03.2022
4641 Clouds 9 1005 49 10000 7.72 340 21:21 23.03.2022
4642 Clouds 9 1006 46 10000 4.63 320 19:51 23.03.2022
4643 Clouds 9 1006 46 10000 4.63 320 19:25 23.03.2022
4644 Clouds 11 1006 59 10000 2.81 353 17:47 23.03.2022
4645 Clouds 7 1007 61 10000 2.57 180 16:55 23.03.2022
4646 Clouds 7 1007 65 10000 1.54 180 15:21 23.03.2022
4647 Clouds 5 1007 75 10000 3.09 230 14:42 23.03.2022
4648 Clouds 4 1006 75 10000 4.63 230 13:30 23.03.2022
4649 Clouds 4 1003 75 10000 6.69 230 10:50 23.03.2022
4650 Clouds 4 1000 75 10000 7.72 230 08:21 23.03.2022
4651 Drizzle 5 996 87 10000 6.17 140 05:50 23.03.2022
4652 Clouds 7 988 70 10000 10.29 230 01:59 23.03.2022
4653 Clouds 7 986 70 10000 9.77 230 00:25 23.03.2022
4654 Clouds 7 986 70 10000 9.77 230 00:25 23.03.2022
4655 Clouds 9 981 66 10000 12.35 230 21:36 22.03.2022
4656 Clouds 10 980 62 10000 11.83 230 20:59 22.03.2022
4657 Clouds 10 980 62 10000 11.83 230 20:18 22.03.2022
4658 Clouds 10 980 66 10000 8.23 230 19:26 22.03.2022
4659 Clouds 10 980 71 10000 10.29 220 18:46 22.03.2022
4660 Clouds 10 979 76 10000 9.26 230 17:43 22.03.2022
4661 Clouds 12 979 62 10000 3.09 180 16:37 22.03.2022
4662 Clouds 12 978 66 10000 3.6 150 15:40 22.03.2022
4663 Clouds 12 978 66 10000 3.6 150 15:19 22.03.2022
4664 Clouds 12 978 58 10000 3.6 330 14:42 22.03.2022
4665 Clouds 12 979 54 10000 5.66 330 13:42 22.03.2022
4666 Clouds 11 981 62 10000 8.23 340 11:53 22.03.2022
4667 Drizzle 11 981 58 10000 8.75 320 10:54 22.03.2022
4668 Clouds 11 982 58 10000 9.77 340 09:21 22.03.2022
4669 Clouds 9 984 76 10000 2.57 110 07:30 22.03.2022
4670 Clouds 10 986 71 10000 2.06 230 03:57 22.03.2022
4671 Clouds 11 986 71 10000 4.63 230 00:50 22.03.2022
4672 Clouds 14 986 47 10000 9.26 320 22:48 21.03.2022
4673 Clouds 14 986 47 10000 9.77 320 21:30 21.03.2022
4674 Clouds 14 987 51 10000 8.75 320 20:43 21.03.2022
4675 Clouds 14 987 51 10000 8.75 320 20:23 21.03.2022
4676 Clouds 12 988 66 10000 4.12 320 19:45 21.03.2022
4677 Clouds 11 988 66 10000 3.6 140 18:48 21.03.2022
4678 Clouds 10 990 71 10000 6.17 180 17:36 21.03.2022
4679 Clouds 10 990 62 10000 2.06 90 16:59 21.03.2022
4680 Clouds 10 990 62 10000 2.06 90 16:33 21.03.2022
4681 Clouds 10 991 76 10000 2.06 90 15:43 21.03.2022
4682 Clouds 9 991 76 10000 2.57 320 14:36 21.03.2022
4683 Clouds 8 993 66 10000 1.03 50 13:20 21.03.2022
4684 Clouds 8 994 61 10000 1.54 230 11:58 21.03.2022
4685 Clouds 8 994 61 10000 1.54 230 11:28 21.03.2022
4686 Clear 8 995 81 10000 2.06 230 09:51 21.03.2022
4687 Clouds 8 996 87 10000 2.06 230 07:39 21.03.2022
4688 Clouds 8 997 87 10000 6.69 230 06:18 21.03.2022
4689 Clouds 10 999 76 10000 6.17 220 02:23 21.03.2022
4690 Clouds 16 1000 55 10000 1.03 0 22:57 20.03.2022
4691 Clouds 16 1000 55 10000 1.03 0 22:29 20.03.2022
4692 Clouds 14 1000 65 10000 1.79 257 21:40 20.03.2022
4693 Clouds 15 1000 57 10000 1.84 265 20:56 20.03.2022
4694 Clouds 15 1000 57 10000 1.84 265 20:36 20.03.2022
4695 Clouds 16 1000 54 10000 1.55 277 19:54 20.03.2022
4696 Clouds 15 1000 53 10000 1.82 312 19:24 20.03.2022
4697 Clouds 15 1001 55 10000 2.1 326 17:49 20.03.2022
4698 Clouds 13 1001 58 10000 2.58 350 17:27 20.03.2022
4699 Clouds 13 1001 58 10000 2.58 350 16:38 20.03.2022
4700 Clouds 10 1003 71 10000 2.87 355 14:50 20.03.2022
4701 Clouds 7 1004 84 10000 3.53 353 13:39 20.03.2022
4702 Clouds 4 1005 95 10000 4.07 359 12:20 20.03.2022
4703 Clouds 5 1006 93 10000 4.42 360 10:28 20.03.2022
4704 Clouds 5 1007 89 10000 4.67 0 08:26 20.03.2022
4705 Clouds 4 1008 88 10000 4.7 358 06:39 20.03.2022
4706 Clouds 4 1011 82 10000 4.82 357 03:25 20.03.2022
4707 Clouds 10 1011 50 10000 5.66 320 00:54 20.03.2022
4708 Clouds 10 1011 50 10000 5.66 320 00:54 20.03.2022
4709 Clouds 10 1011 50 10000 5.66 320 00:34 20.03.2022
4710 Clouds 10 1013 50 10000 6.17 320 22:42 19.03.2022
4711 Clouds 10 1015 53 10000 4.12 250 21:27 19.03.2022
4712 Clouds 10 1016 46 10000 3.09 150 19:42 19.03.2022
4713 Clouds 9 1017 53 10000 3.09 120 18:44 19.03.2022
4714 Clouds 8 1018 57 10000 3.6 80 17:55 19.03.2022
4715 Clouds 8 1018 57 10000 3.6 80 17:33 19.03.2022
4716 Clear 5 1020 75 10000 2.57 70 15:41 19.03.2022
4717 Clear 4 1021 87 10000 0.51 80 14:21 19.03.2022
4718 Clouds 2 1022 80 10000 1.03 300 12:56 19.03.2022
4719 Clouds 2 1022 80 10000 1.03 300 12:37 19.03.2022
4720 Clouds 1 1023 80 10000 1.54 320 11:47 19.03.2022
4721 Clear 1 1024 80 10000 1.03 270 09:55 19.03.2022
4722 Clouds 2 1024 69 10000 3.6 320 05:48 19.03.2022
4723 Clouds 4 1024 75 10000 4.12 250 02:37 19.03.2022
4724 Clouds 5 1024 60 10000 6.17 230 00:54 19.03.2022
4725 Clouds 5 1023 60 10000 7.2 230 23:22 18.03.2022
4726 Clouds 5 1023 60 10000 7.72 230 22:23 18.03.2022
4727 Clouds 5 1021 75 10000 8.75 230 20:48 18.03.2022
4728 Clouds 5 1020 75 10000 10.8 230 19:49 18.03.2022
4729 Clouds 5 1020 75 10000 10.8 230 19:19 18.03.2022
4730 Clouds 5 1019 65 10000 10.8 230 17:27 18.03.2022
4731 Clouds 4 1019 75 10000 10.8 230 16:45 18.03.2022
4732 Clouds 3 1017 75 10000 9.26 230 14:30 18.03.2022
4733 Clouds 2 1016 80 10000 7.72 230 13:41 18.03.2022
4734 Clouds 2 1015 75 10000 11.32 230 12:19 18.03.2022
4735 Clouds 2 1014 75 10000 7.72 250 10:38 18.03.2022
4736 Clouds 2 1014 80 10000 11.32 250 09:21 18.03.2022
4737 Clouds 2 1013 80 10000 4.12 250 07:45 18.03.2022
4738 Clouds 2 1011 87 10000 7.2 230 05:39 18.03.2022
4739 Snow 2 1010 87 7000 7.72 230 02:44 18.03.2022
4740 Snow 1 1009 93 8000 7.2 240 00:21 18.03.2022
4741 Clouds 2 1007 93 10000 11.32 230 22:56 17.03.2022
4742 Clouds 2 1007 93 10000 11.32 230 22:22 17.03.2022
4743 Clouds 4 1006 75 10000 11.32 240 21:47 17.03.2022
4744 Clouds 4 1006 75 10000 11.32 240 21:19 17.03.2022
4745 Clouds 4 1006 81 10000 9.26 230 20:32 17.03.2022
4746 Rain 4 1005 87 10000 8.23 230 19:41 17.03.2022
4747 Rain 4 1005 87 8000 12.86 230 18:57 17.03.2022
4748 Clouds 5 1005 75 10000 1.03 90 17:55 17.03.2022
4749 Clouds 4 1005 81 10000 3.09 230 16:43 17.03.2022
4750 Drizzle 3 1006 87 10000 4.63 230 15:44 17.03.2022
4751 Drizzle 3 1006 87 10000 4.63 230 15:22 17.03.2022
4752 Rain 3 1005 81 10000 4.63 230 13:49 17.03.2022
4753 Clouds 2 1005 100 10000 2.06 180 12:49 17.03.2022
4754 Clouds 2 1005 100 10000 2.06 180 12:21 17.03.2022
4755 Clouds 3 1004 75 10000 5.14 230 11:25 17.03.2022
4756 Clouds 3 1004 87 10000 5.66 230 09:48 17.03.2022
4757 Clouds 3 1003 81 10000 3.09 270 08:31 17.03.2022
4758 Clouds 3 1003 81 10000 3.6 140 07:32 17.03.2022
4759 Clouds 2 1002 80 10000 4.12 270 05:47 17.03.2022
4760 Rain 3 999 87 7000 7.2 250 00:45 17.03.2022
4761 Rain 4 996 81 7000 6.17 160 22:59 16.03.2022
4762 Rain 4 996 81 7000 6.17 160 22:40 16.03.2022
4763 Rain 4 996 81 7000 6.17 160 22:19 16.03.2022
4764 Drizzle 5 996 81 10000 2.06 140 21:34 16.03.2022
4765 Drizzle 4 994 81 10000 4.12 160 19:27 16.03.2022
4766 Drizzle 4 993 81 10000 4.63 140 18:58 16.03.2022
4767 Drizzle 4 993 81 10000 4.63 140 18:35 16.03.2022
4768 Drizzle 4 992 93 10000 4.12 140 17:41 16.03.2022
4769 Drizzle 5 992 81 10000 1.54 160 16:50 16.03.2022
4770 Rain 4 991 87 10000 0.51 0 15:53 16.03.2022
4771 Rain 4 991 87 10000 1.54 340 14:24 16.03.2022
4772 Rain 3 991 93 10000 3.09 320 13:24 16.03.2022
4773 Rain 3 989 75 6000 2.57 0 11:53 16.03.2022
4774 Drizzle 3 989 75 10000 6.17 140 11:20 16.03.2022
4775 Clouds 3 988 75 10000 6.17 110 10:18 16.03.2022
4776 Clouds 4 987 93 10000 7.72 140 08:38 16.03.2022
4777 Clouds 5 986 93 10000 2.57 90 04:35 16.03.2022
4778 Rain 6 985 93 10000 2.06 140 00:42 16.03.2022
4779 Drizzle 7 986 87 10000 4.12 140 22:37 15.03.2022
4780 Drizzle 8 987 87 10000 4.63 140 21:52 15.03.2022
4781 Rain 8 989 76 10000 1.54 140 19:53 15.03.2022
4782 Rain 7 990 87 10000 1.54 90 18:45 15.03.2022
4783 Rain 7 991 93 10000 1.03 180 16:53 15.03.2022
4784 Rain 7 991 93 10000 1.03 180 16:18 15.03.2022
4785 Rain 7 992 96 339 0.94 213 14:57 15.03.2022
4786 Rain 7 992 96 339 0.94 213 14:31 15.03.2022
4787 Rain 5 991 93 10000 1.54 180 13:27 15.03.2022
4788 Rain 4 990 100 8000 2.06 320 11:57 15.03.2022
4789 Rain 4 990 100 8000 2.06 320 11:19 15.03.2022
4790 Rain 4 991 100 6000 1.54 180 09:37 15.03.2022
4791 Rain 4 991 93 6000 2.57 180 08:32 15.03.2022
4792 Rain 5 992 93 6000 1.54 140 07:50 15.03.2022
4793 Rain 5 993 87 6000 3.6 140 06:51 15.03.2022
4794 Rain 5 997 87 10000 1.54 220 02:38 15.03.2022
4795 Clouds 6 999 75 10000 1.03 210 23:38 14.03.2022
4796 Clouds 6 999 75 10000 1.03 210 23:20 14.03.2022
4797 Clouds 6 1000 75 10000 9.26 230 21:59 14.03.2022
4798 Clouds 6 1000 75 10000 9.26 230 21:22 14.03.2022
4799 Clouds 6 1000 75 10000 11.32 230 20:35 14.03.2022
4800 Clouds 6 1000 87 10000 12.35 230 19:59 14.03.2022
4801 Clouds 5 1001 81 10000 11.83 230 18:31 14.03.2022
4802 Clouds 6 1001 75 10000 13.89 230 17:44 14.03.2022
4803 Clouds 6 1001 70 10000 12.35 230 16:57 14.03.2022
4804 Clouds 6 1001 70 10000 10.8 230 15:34 14.03.2022
4805 Clouds 4 1001 87 10000 8.75 230 14:33 14.03.2022
4806 Rain 2 1000 80 8000 8.23 230 11:53 14.03.2022
4807 Rain 4 1000 65 5000 7.2 230 10:35 14.03.2022
4808 Rain 3 999 70 5000 11.32 230 09:39 14.03.2022
4809 Rain 3 999 70 5000 11.32 230 09:20 14.03.2022
4810 Rain 3 998 75 5000 9.26 230 08:49 14.03.2022
4811 Rain 3 998 75 5000 7.72 230 07:21 14.03.2022
4812 Rain 4 996 75 5000 8.23 230 05:22 14.03.2022
4813 Rain 4 993 87 7000 5.14 230 01:52 14.03.2022
4814 Rain 4 994 93 3000 9.26 230 00:40 14.03.2022
4815 Clouds 7 991 65 10000 17.49 230 21:56 13.03.2022
4816 Clouds 7 991 65 10000 17.49 230 21:28 13.03.2022
4817 Clouds 7 992 70 10000 16.98 230 20:53 13.03.2022
4818 Clouds 7 992 70 10000 16.98 230 20:29 13.03.2022
4819 Drizzle 7 992 61 10000 14.92 230 19:48 13.03.2022
4820 Drizzle 7 992 61 10000 14.92 230 19:25 13.03.2022
4821 Rain 5 992 87 8000 16.46 230 18:50 13.03.2022
4822 Rain 5 992 87 8000 16.46 230 18:30 13.03.2022
4823 Rain 7 991 76 10000 11.32 230 17:40 13.03.2022
4824 Rain 6 990 81 10000 9.26 230 16:49 13.03.2022
4825 Rain 6 990 81 10000 9.26 230 16:27 13.03.2022
4826 Clouds 8 988 57 7000 14.4 230 15:44 13.03.2022
4827 Rain 7 989 85 6636 5.75 266 14:50 13.03.2022
4828 Rain 7 989 85 6636 5.75 266 14:50 13.03.2022
4829 Rain 9 989 87 6063 5.18 275 13:30 13.03.2022
4830 Rain 10 988 93 10000 4.17 321 12:37 13.03.2022
4831 Rain 6 988 89 10000 4.65 305 11:51 13.03.2022
4832 Rain 6 988 89 10000 4.65 305 11:30 13.03.2022
4833 Clouds 10 988 53 10000 8.23 290 10:46 13.03.2022
4834 Clouds 10 989 50 10000 8.23 320 09:53 13.03.2022
4835 Clouds 10 989 50 10000 8.23 320 09:29 13.03.2022
4836 Drizzle 10 990 50 10000 8.75 320 08:40 13.03.2022
4837 Drizzle 10 993 53 10000 6.17 320 07:37 13.03.2022
4838 Clouds 9 998 57 10000 8.23 360 05:39 13.03.2022
4839 Clouds 10 1004 57 10000 5.66 290 01:48 13.03.2022
4840 Clouds 10 1006 71 10000 0 0 23:31 12.03.2022
4841 Clouds 11 1008 58 10000 2.06 140 21:49 12.03.2022
4842 Clouds 11 1008 62 10000 1.54 90 20:29 12.03.2022
4843 Clouds 11 1009 58 10000 1.03 180 19:47 12.03.2022
4844 Clouds 10 1010 62 10000 2.57 140 18:47 12.03.2022
4845 Clouds 10 1010 62 10000 2.57 140 18:21 12.03.2022
4846 Clouds 10 1010 57 10000 2.57 140 17:23 12.03.2022
4847 Clouds 10 1010 50 10000 1.54 90 16:23 12.03.2022
4848 Clouds 9 1011 53 10000 2.57 320 15:22 12.03.2022
4849 Clouds 6 1012 61 10000 4.12 320 13:55 12.03.2022
4850 Clouds 4 1013 75 10000 3.6 340 12:35 12.03.2022
4851 Clouds 5 1013 70 10000 5.14 320 11:56 12.03.2022
4852 Clouds 5 1013 70 10000 5.14 320 11:34 12.03.2022
4853 Clouds 5 1013 70 10000 5.14 320 11:34 12.03.2022
4854 Clouds 6 1013 61 10000 4.63 290 10:43 12.03.2022
4855 Clouds 5 1014 75 10000 3.09 290 09:44 12.03.2022
4856 Clouds 5 1014 70 10000 3.6 320 08:41 12.03.2022
4857 Clear 6 1014 65 10000 5.66 270 06:44 12.03.2022
4858 Clear 8 1015 61 10000 6.69 240 01:44 12.03.2022
4859 Clouds 10 1014 57 10000 9.77 220 23:51 11.03.2022
4860 Clouds 10 1014 57 10000 10.29 220 22:45 11.03.2022
4861 Clouds 11 1014 54 10000 9.26 230 21:26 11.03.2022
4862 Clouds 11 1014 50 10000 9.26 230 20:51 11.03.2022
4863 Clouds 11 1014 50 10000 9.26 230 20:28 11.03.2022
4864 Clouds 11 1013 54 10000 9.77 230 19:36 11.03.2022
4865 Clouds 11 1013 54 10000 11.32 230 18:43 11.03.2022
4866 Clouds 10 1013 66 10000 8.23 230 17:26 11.03.2022
4867 Clouds 10 1013 66 10000 2.06 90 16:26 11.03.2022
4868 Clouds 9 1012 76 10000 7.2 230 15:52 11.03.2022
4869 Clouds 9 1012 76 10000 6.69 230 14:18 11.03.2022
4870 Drizzle 8 1011 93 10000 5.14 230 12:43 11.03.2022
4871 Drizzle 8 1011 93 10000 5.14 230 12:20 11.03.2022
4872 Drizzle 11 1010 76 10000 4.63 180 11:28 11.03.2022
4873 Clouds 12 1009 66 10000 4.12 270 09:36 11.03.2022
4874 Clouds 12 1008 66 10000 4.12 180 08:29 11.03.2022
4875 Clouds 12 1009 66 10000 2.57 140 07:48 11.03.2022
4876 Clouds 12 1009 62 10000 1.54 290 06:55 11.03.2022
4877 Clouds 12 1009 58 10000 7.72 360 04:44 11.03.2022
4878 Clouds 9 1013 76 10000 2.06 320 01:51 11.03.2022
4879 Clear 10 1014 62 10000 6.69 70 22:33 10.03.2022
4880 Clear 11 1015 50 10000 7.2 70 21:58 10.03.2022
4881 Clear 11 1015 50 10000 7.2 70 21:26 10.03.2022
4882 Clear 11 1016 43 10000 5.14 90 20:39 10.03.2022
4883 Clouds 11 1016 46 10000 3.09 90 19:22 10.03.2022
4884 Clouds 10 1017 53 10000 2.06 50 18:19 10.03.2022
4885 Clouds 9 1018 57 10000 5.14 230 16:53 10.03.2022
4886 Clouds 8 1018 66 10000 4.63 200 15:36 10.03.2022
4887 Clouds 8 1017 66 10000 4.12 230 14:19 10.03.2022
4888 Clouds 7 1016 70 10000 2.06 180 12:44 10.03.2022
4889 Clouds 7 1015 76 10000 6.69 230 11:37 10.03.2022
4890 Clouds 7 1014 81 10000 8.23 230 10:19 10.03.2022
4891 Clouds 8 1011 76 10000 12.35 230 08:40 10.03.2022
4892 Clouds 9 1008 76 10000 7.72 230 05:48 10.03.2022
4893 Clouds 8 1008 81 10000 2.57 80 03:33 10.03.2022
4894 Clouds 9 1006 71 10000 7.2 240 00:23 10.03.2022
4895 Clouds 11 1005 66 10000 7.72 220 22:43 09.03.2022
4896 Clouds 10 1004 66 10000 5.66 200 21:48 09.03.2022
4897 Clouds 11 1004 62 10000 2.06 180 20:53 09.03.2022
4898 Clouds 11 1003 58 10000 3.09 180 19:28 09.03.2022
4899 Clouds 9 1002 66 10000 7.2 230 17:57 09.03.2022
4900 Clouds 9 1002 66 10000 7.2 230 17:23 09.03.2022
4901 Clouds 8 1001 66 10000 7.72 230 15:42 09.03.2022
4902 Clouds 8 1000 71 10000 6.17 230 14:27 09.03.2022
4903 Clouds 7 1000 76 10000 7.72 250 13:50 09.03.2022
4904 Drizzle 7 999 76 10000 8.23 230 12:27 09.03.2022
4905 Drizzle 7 998 76 10000 9.26 230 11:48 09.03.2022
4906 Clouds 7 997 76 10000 9.77 230 10:59 09.03.2022
4907 Drizzle 6 995 87 8000 9.77 230 09:40 09.03.2022
4908 Drizzle 6 995 87 8000 10.29 250 08:45 09.03.2022
4909 Rain 6 994 87 7000 11.32 230 06:27 09.03.2022
4910 Rain 7 990 93 5000 12.86 230 01:53 09.03.2022
4911 Rain 8 989 93 4000 11.32 240 00:22 09.03.2022
4912 Rain 11 988 82 10000 6.69 80 22:46 08.03.2022
4913 Clouds 12 988 76 10000 6.17 60 21:51 08.03.2022
4914 Clouds 12 988 76 10000 6.17 60 21:21 08.03.2022
4915 Rain 12 987 76 10000 5.14 70 20:21 08.03.2022
4916 Clouds 13 988 67 10000 6.69 20 19:21 08.03.2022
4917 Clouds 14 998 54 10000 8.75 360 18:22 08.03.2022
4918 Clouds 14 988 62 10000 7.2 360 16:44 08.03.2022
4919 Clouds 13 989 67 10000 6.17 20 14:57 08.03.2022
4920 Clouds 12 989 62 10000 5.66 50 13:45 08.03.2022
4921 Clouds 12 990 50 10000 6.17 360 12:20 08.03.2022
4922 Clouds 11 991 71 10000 6.17 360 11:42 08.03.2022
4923 Clouds 11 991 71 10000 4.63 20 10:28 08.03.2022
4924 Drizzle 10 994 71 10000 6.17 20 08:57 08.03.2022
4925 Clouds 10 996 62 10000 4.63 360 06:30 08.03.2022
4926 Clouds 8 998 66 10000 7.72 340 02:37 08.03.2022
4927 Clouds 11 999 54 10000 2.57 180 22:43 07.03.2022
4928 Clouds 12 999 47 10000 2.57 160 21:44 07.03.2022
4929 Clouds 11 1000 54 10000 3.09 110 20:56 07.03.2022
4930 Clouds 11 1000 54 10000 3.09 110 20:33 07.03.2022
4931 Clouds 10 1000 62 10000 4.12 90 19:49 07.03.2022
4932 Clouds 10 1001 57 10000 3.6 90 18:57 07.03.2022
4933 Clouds 10 1001 57 10000 3.6 90 18:29 07.03.2022
4934 Clouds 9 1002 71 10000 2.57 90 17:31 07.03.2022
4935 Clouds 8 1002 76 10000 3.09 90 16:43 07.03.2022
4936 Clouds 6 1003 81 10000 0 0 14:51 07.03.2022
4937 Clouds 3 1003 81 10000 1.54 320 12:34 07.03.2022
4938 Clouds 3 1002 81 10000 1.54 270 11:34 07.03.2022
4939 Clouds 3 1002 87 10000 1.03 230 10:31 07.03.2022
4940 Clouds 4 1002 87 10000 2.06 320 08:34 07.03.2022
4941 Clouds 4 1002 87 10000 2.06 320 08:34 07.03.2022
4942 Clouds 5 1002 81 10000 4.12 230 02:25 07.03.2022
4943 Clouds 5 1001 87 10000 2.06 70 00:20 07.03.2022
4944 Clouds 5 1001 87 10000 2.06 70 00:20 07.03.2022
4945 Clouds 5 1001 87 10000 2.57 110 23:23 06.03.2022
4946 Drizzle 5 1001 87 10000 6.17 140 22:27 06.03.2022
4947 Clouds 6 1000 81 10000 2.57 140 21:37 06.03.2022
4948 Clouds 6 1000 81 10000 2.06 140 20:29 06.03.2022
4949 Clouds 6 1000 75 10000 0 0 19:39 06.03.2022
4950 Clouds 5 1001 81 10000 0 0 18:50 06.03.2022
4951 Drizzle 4 1001 93 8000 1.03 360 17:46 06.03.2022
4952 Drizzle 4 1001 93 8000 1.03 360 17:19 06.03.2022
4953 Drizzle 4 1001 93 8000 0 0 16:39 06.03.2022
4954 Rain 4 1000 93 5000 1.54 0 15:26 06.03.2022
4955 Rain 5 1000 81 5000 2.57 140 14:42 06.03.2022
4956 Rain 5 999 81 5000 3.09 140 13:49 06.03.2022
4957 Drizzle 6 999 81 10000 3.6 180 12:40 06.03.2022
4958 Clouds 6 998 81 10000 6.17 230 11:46 06.03.2022
4959 Drizzle 5 998 87 10000 8.75 230 10:40 06.03.2022
4960 Drizzle 5 997 81 10000 10.29 230 09:18 06.03.2022
4961 Drizzle 5 996 81 10000 10.29 230 08:28 06.03.2022
4962 Drizzle 6 997 70 10000 2.57 270 07:26 06.03.2022
4963 Clouds 6 996 75 10000 7.72 230 02:45 06.03.2022
4964 Drizzle 6 995 81 10000 11.32 230 00:36 06.03.2022
4965 Drizzle 6 995 81 10000 11.32 230 00:18 06.03.2022
4966 Drizzle 7 995 76 10000 10.29 230 23:19 05.03.2022
4967 Drizzle 7 994 81 10000 12.86 230 22:35 05.03.2022
4968 Clouds 9 994 61 10000 11.32 230 21:30 05.03.2022
4969 Clouds 9 993 61 10000 10.8 230 20:38 05.03.2022
4970 Clouds 9 993 61 10000 11.32 230 19:22 05.03.2022
4971 Clouds 9 992 61 10000 10.29 230 18:39 05.03.2022
4972 Clouds 9 992 61 10000 8.75 230 17:35 05.03.2022
4973 Clouds 8 992 66 10000 9.26 230 16:19 05.03.2022
4974 Clouds 8 991 66 10000 11.83 230 15:20 05.03.2022
4975 Clouds 8 991 66 10000 11.83 230 15:20 05.03.2022
4976 Clouds 7 991 70 10000 11.83 230 14:36 05.03.2022
4977 Clouds 7 991 70 10000 11.32 230 13:44 05.03.2022
4978 Clouds 7 990 76 10000 7.72 230 12:45 05.03.2022
4979 Drizzle 7 990 76 10000 9.26 230 11:21 05.03.2022
4980 Clouds 7 990 76 10000 8.75 230 10:53 05.03.2022
4981 Clouds 7 990 76 10000 9.77 230 09:37 05.03.2022
4982 Clouds 7 989 76 10000 8.75 230 08:31 05.03.2022
4983 Drizzle 7 989 81 10000 10.29 230 07:23 05.03.2022
4984 Drizzle 7 989 93 10000 9.26 230 05:39 05.03.2022
4985 Drizzle 8 986 87 10000 7.72 230 00:51 05.03.2022
4986 Drizzle 9 985 81 10000 8.23 230 23:21 04.03.2022
4987 Drizzle 9 984 81 10000 8.75 230 22:39 04.03.2022
4988 Clouds 10 984 71 10000 8.23 230 21:43 04.03.2022
4989 Clouds 10 983 71 10000 7.72 230 20:48 04.03.2022
4990 Clouds 12 983 58 10000 3.09 230 19:39 04.03.2022
4991 Clouds 12 983 58 10000 2.06 140 18:59 04.03.2022
4992 Clouds 12 983 58 10000 2.06 140 18:36 04.03.2022
4993 Clouds 11 984 58 10000 2.57 140 17:29 04.03.2022
4994 Clouds 11 984 62 10000 2.57 140 16:26 04.03.2022
4995 Clouds 11 984 62 10000 2.06 140 15:27 04.03.2022
4996 Clouds 11 984 62 10000 2.06 140 15:27 04.03.2022
4997 Clouds 8 984 76 10000 2.57 270 13:38 04.03.2022
4998 Clouds 7 985 70 10000 1.03 0 12:51 04.03.2022
4999 Clouds 7 984 70 10000 2.57 70 11:38 04.03.2022
5000 Clouds 7 984 70 10000 2.57 140 10:30 04.03.2022
5001 Clouds 8 985 71 10000 2.57 90 09:28 04.03.2022
5002 Clouds 8 985 71 10000 0 0 08:20 04.03.2022
5003 Clouds 8 986 71 10000 3.6 140 06:55 04.03.2022
5004 Clouds 9 987 66 10000 2.57 290 03:28 04.03.2022
5005 Clouds 11 987 66 10000 3.09 20 00:19 04.03.2022
5006 Clouds 12 986 66 10000 3.6 50 22:19 03.03.2022
5007 Clouds 14 986 54 10000 3.09 50 21:37 03.03.2022
5008 Clouds 12 986 66 10000 5.66 360 20:56 03.03.2022
5009 Clouds 11 987 82 10000 1.03 0 19:42 03.03.2022
5010 Clouds 11 987 76 10000 0.51 90 18:49 03.03.2022
5011 Clouds 11 988 76 10000 2.57 200 17:46 03.03.2022
5012 Clouds 11 988 76 10000 2.57 200 17:26 03.03.2022
5013 Clouds 9 989 81 10000 1.54 250 15:47 03.03.2022
5014 Clouds 8 989 87 8000 7.72 230 14:53 03.03.2022
5015 Clouds 8 989 87 8000 7.72 230 14:32 03.03.2022
5016 Rain 8 989 93 8000 1.54 290 12:52 03.03.2022
5017 Drizzle 9 988 93 10000 3.09 270 11:39 03.03.2022
5018 Drizzle 9 989 87 10000 2.57 90 10:40 03.03.2022
5019 Rain 8 992 97 2031 3.17 14 08:45 03.03.2022
5020 Drizzle 9 992 81 10000 2.06 290 07:25 03.03.2022
5021 Rain 10 992 71 10000 3.09 320 06:33 03.03.2022
5022 Clouds 10 994 71 10000 6.69 360 01:21 03.03.2022
5023 Clouds 12 994 50 10000 5.66 360 23:29 02.03.2022
5024 Clouds 12 995 54 10000 6.69 360 22:50 02.03.2022
5025 Clouds 12 995 54 10000 8.75 320 21:29 02.03.2022
5026 Clouds 12 996 50 10000 6.69 320 20:44 02.03.2022
5027 Clouds 12 996 50 10000 6.69 320 20:22 02.03.2022
5028 Clouds 12 997 50 10000 6.17 340 19:34 02.03.2022
5029 Clouds 11 998 62 10000 3.6 320 18:44 02.03.2022
5030 Clouds 12 998 58 10000 1.54 160 17:59 02.03.2022
5031 Clouds 12 998 58 10000 1.54 160 17:23 02.03.2022
5032 Clouds 9 999 81 10000 1.54 200 16:45 02.03.2022
5033 Clouds 8 1000 76 10000 2.06 360 14:44 02.03.2022
5034 Clouds 6 1000 87 10000 4.63 70 13:24 02.03.2022
5035 Clouds 5 1001 87 10000 3.09 360 12:42 02.03.2022
5036 Clouds 5 1001 87 10000 2.57 320 11:40 02.03.2022
5037 Clouds 5 1001 87 10000 2.57 320 11:22 02.03.2022
5038 Clouds 5 1001 81 10000 3.09 360 09:41 02.03.2022
5039 Clouds 5 1001 81 10000 3.6 270 08:54 02.03.2022
5040 Clouds 6 1000 75 10000 2.57 290 07:38 02.03.2022
5041 Clear 6 1000 81 10000 3.09 270 06:51 02.03.2022
5042 Clouds 9 995 71 10000 3.09 270 01:33 02.03.2022
5043 Clouds 10 992 66 10000 2.06 70 23:49 01.03.2022
5044 Clouds 10 990 50 10000 3.09 50 22:45 01.03.2022
5045 Clouds 9 988 76 10000 2.57 20 21:58 01.03.2022
5046 Clouds 9 988 76 10000 2.57 20 21:24 01.03.2022
5047 Clouds 8 987 81 10000 2.06 360 20:30 01.03.2022
5048 Clouds 8 987 81 10000 2.06 360 20:30 01.03.2022
5049 Clouds 8 986 76 10000 2.06 50 19:44 01.03.2022
5050 Drizzle 7 985 87 10000 2.06 360 18:50 01.03.2022
5051 Drizzle 7 985 87 10000 2.06 360 18:21 01.03.2022
5052 Drizzle 6 985 93 10000 2.57 50 17:30 01.03.2022
5053 Drizzle 6 983 93 10000 3.09 140 16:34 01.03.2022
5054 Drizzle 6 983 93 10000 3.09 140 15:41 01.03.2022
5055 Rain 6 982 87 10000 7.2 230 14:40 01.03.2022
5056 Rain 6 981 93 800 2.06 140 13:58 01.03.2022
5057 Rain 6 981 93 800 2.06 140 13:25 01.03.2022
5058 Drizzle 7 980 76 10000 0.51 220 12:33 01.03.2022
5059 Clouds 9 979 57 10000 9.77 320 10:37 01.03.2022
5060 Clouds 9 982 53 10000 8.75 360 08:45 01.03.2022
5061 Clouds 8 984 57 10000 8.75 360 07:54 01.03.2022
5062 Clouds 8 985 53 10000 10.29 360 06:26 01.03.2022
5063 Clouds 7 991 65 10000 4.63 70 02:44 01.03.2022
5064 Clouds 8 992 61 10000 1.54 180 00:39 01.03.2022
5065 Clouds 8 993 61 10000 4.12 230 23:33 28.02.2022
5066 Clouds 9 994 57 10000 5.14 230 22:24 28.02.2022
5067 Clouds 8 994 61 10000 9.77 230 21:41 28.02.2022
5068 Clouds 8 994 57 10000 11.32 230 20:28 28.02.2022
5069 Clouds 9 995 61 10000 10.8 230 19:41 28.02.2022
5070 Clouds 8 995 61 10000 7.72 230 18:49 28.02.2022
5071 Clouds 7 995 70 10000 9.26 230 17:33 28.02.2022
5072 Clouds 7 995 76 10000 9.77 230 16:54 28.02.2022
5073 Clouds 6 995 75 10000 8.23 230 15:58 28.02.2022
5074 Clouds 5 994 81 10000 11.32 230 14:32 28.02.2022
5075 Clouds 5 994 87 10000 7.72 250 13:48 28.02.2022
5076 Drizzle 5 993 87 10000 10.29 230 12:53 28.02.2022
5077 Clouds 5 992 81 10000 9.26 230 11:59 28.02.2022
5078 Clouds 5 992 81 10000 9.26 230 11:19 28.02.2022
5079 Clouds 6 991 75 10000 10.29 230 10:22 28.02.2022
5080 Clouds 6 990 81 10000 9.26 230 09:43 28.02.2022
5081 Clouds 6 989 81 10000 8.23 230 08:51 28.02.2022
5082 Clouds 6 988 81 10000 5.14 250 07:57 28.02.2022
5083 Clouds 5 987 87 10000 2.06 320 05:53 28.02.2022
5084 Clouds 6 986 87 10000 1.54 360 04:30 28.02.2022
5085 Clouds 7 984 70 10000 6.17 70 00:42 28.02.2022
5086 Clouds 7 983 81 10000 8.23 90 22:44 27.02.2022
5087 Clouds 7 983 81 10000 8.23 90 22:26 27.02.2022
5088 Clouds 8 982 76 10000 9.26 70 21:37 27.02.2022
5089 Clouds 8 982 76 10000 10.29 70 20:43 27.02.2022
5090 Clouds 8 982 76 10000 10.29 70 20:18 27.02.2022
5091 Clouds 8 983 76 10000 7.2 70 19:43 27.02.2022
5092 Clouds 8 983 76 10000 7.2 70 19:21 27.02.2022
5093 Drizzle 8 983 93 10000 2.57 90 18:24 27.02.2022
5094 Drizzle 8 984 81 10000 3.6 90 17:45 27.02.2022
5095 Clouds 8 984 76 10000 1.54 90 16:23 27.02.2022
5096 Clouds 6 985 93 10000 2.57 230 14:29 27.02.2022
5097 Clouds 6 986 81 10000 2.57 240 12:36 27.02.2022
5098 Drizzle 6 986 81 10000 7.2 230 11:51 27.02.2022
5099 Drizzle 6 985 87 10000 9.77 230 10:37 27.02.2022
5100 Clouds 7 985 81 10000 12.35 230 09:58 27.02.2022
5101 Clouds 7 985 81 10000 12.35 230 09:23 27.02.2022
5102 Clouds 9 985 61 10000 2.06 0 08:45 27.02.2022
5103 Clouds 9 985 61 10000 2.06 0 08:45 27.02.2022
5104 Clouds 10 987 50 10000 4.12 320 05:45 27.02.2022
5105 Clouds 11 988 43 10000 6.17 320 03:35 27.02.2022
5106 Clouds 13 989 47 10000 4.12 250 23:52 26.02.2022
5107 Clouds 14 989 44 10000 5.14 270 22:43 26.02.2022
5108 Clouds 15 990 41 10000 5.66 250 21:29 26.02.2022
5109 Clouds 14 990 47 10000 6.69 250 20:43 26.02.2022
5110 Clouds 15 991 41 10000 5.14 360 19:57 26.02.2022
5111 Clouds 15 991 41 10000 5.14 360 19:33 26.02.2022
5112 Clouds 13 991 50 10000 5.14 360 18:33 26.02.2022
5113 Clouds 12 992 54 10000 2.57 140 17:36 26.02.2022
5114 Clouds 11 993 62 10000 2.06 90 16:39 26.02.2022
5115 Clouds 11 993 71 10000 2.06 90 15:38 26.02.2022
5116 Clouds 11 993 71 10000 2.06 90 15:19 26.02.2022
5117 Clouds 10 993 76 10000 2.57 360 14:42 26.02.2022
5118 Clouds 8 994 87 10000 0 0 13:53 26.02.2022
5119 Clouds 6 994 87 10000 2.57 360 12:53 26.02.2022
5120 Clouds 6 995 87 10000 1.03 320 11:53 26.02.2022
5121 Clouds 6 995 87 10000 1.03 320 11:26 26.02.2022
5122 Clouds 6 995 87 10000 2.06 360 10:19 26.02.2022
5123 Clouds 7 995 81 10000 2.06 270 08:35 26.02.2022
5124 Clouds 8 995 81 10000 3.09 270 06:40 26.02.2022
5125 Clouds 10 993 71 10000 9.77 230 00:25 26.02.2022
5126 Clouds 12 993 62 10000 10.29 230 22:43 25.02.2022
5127 Clouds 14 993 54 10000 5.66 180 21:33 25.02.2022
5128 Clouds 14 993 58 10000 2.06 140 20:56 25.02.2022
5129 Clouds 14 993 58 10000 2.06 140 20:27 25.02.2022
5130 Drizzle 11 993 76 10000 9.26 230 18:18 25.02.2022
5131 Clouds 12 1002 76 10000 1.54 0 17:20 25.02.2022
5132 Clouds 11 994 82 10000 2.06 0 16:19 25.02.2022
5133 Clouds 10 995 93 6000 1.54 140 15:24 25.02.2022
5134 Clouds 10 995 93 6000 1.54 140 15:24 25.02.2022
5135 Mist 9 995 100 1500 2.06 140 14:56 25.02.2022
5136 Mist 9 995 100 1500 2.06 140 14:37 25.02.2022
5137 Mist 8 995 100 1500 2.57 70 13:30 25.02.2022
5138 Fog 8 995 100 300 1.03 360 12:42 25.02.2022
5139 Mist 9 995 93 500 1.54 230 11:23 25.02.2022
5140 Clouds 8 996 100 5000 2.57 230 10:25 25.02.2022
5141 Clouds 8 995 100 6000 1.03 270 09:52 25.02.2022
5142 Clouds 9 996 93 10000 1.54 20 08:44 25.02.2022
5143 Clouds 9 996 100 10000 1.54 70 07:36 25.02.2022
5144 Clouds 10 997 93 10000 1.54 270 05:45 25.02.2022
5145 Clouds 10 998 87 10000 4.63 90 02:49 25.02.2022
5146 Clouds 14 997 67 10000 9.77 230 22:56 24.02.2022
5147 Clouds 15 996 63 10000 10.8 240 21:54 24.02.2022
5148 Clouds 15 996 63 10000 10.8 240 21:31 24.02.2022
5149 Clouds 15 996 63 10000 9.77 230 20:57 24.02.2022
5150 Clouds 17 997 55 10000 6.17 230 19:38 24.02.2022
5151 Clouds 17 998 55 10000 2.06 90 18:37 24.02.2022
5152 Clouds 17 998 55 10000 2.06 90 18:18 24.02.2022
5153 Clouds 16 998 59 10000 2.06 90 17:33 24.02.2022
5154 Clouds 16 998 59 10000 2.06 90 17:33 24.02.2022
5155 Clouds 14 998 67 10000 2.06 70 16:29 24.02.2022
5156 Clouds 15 998 63 10000 3.6 70 15:47 24.02.2022
5157 Clouds 16 998 63 10000 2.06 20 14:53 24.02.2022
5158 Clouds 16 998 63 10000 2.06 20 14:24 24.02.2022
5159 Clouds 13 999 76 10000 2.57 290 13:39 24.02.2022
5160 Clouds 14 999 67 10000 8.23 360 12:33 24.02.2022
5161 Clouds 14 1000 67 10000 7.72 360 10:40 24.02.2022
5162 Clouds 13 1001 71 10000 2.06 320 08:58 24.02.2022
5163 Clouds 13 1001 71 10000 2.06 320 08:39 24.02.2022
5164 Clouds 12 1004 76 10000 1.03 270 05:52 24.02.2022
5165 Clear 14 1006 67 10000 1.54 20 01:56 24.02.2022
5166 Clear 16 1007 55 10000 4.12 70 22:38 23.02.2022
5167 Clear 16 1007 55 10000 4.12 70 22:38 23.02.2022
5168 Clear 15 1008 58 10000 3.09 70 21:37 23.02.2022
5169 Clear 15 1009 58 10000 0 0 20:31 23.02.2022
5170 Clouds 13 1010 62 10000 3.09 90 19:44 23.02.2022
5171 Clouds 12 1010 62 10000 3.09 70 18:32 23.02.2022
5172 Clouds 11 1011 66 10000 2.57 70 17:30 23.02.2022
5173 Clouds 8 1013 81 10000 2.57 70 14:42 23.02.2022
5174 Clouds 6 1014 93 10000 2.57 340 12:42 23.02.2022
5175 Clouds 5 1014 87 10000 2.57 320 11:34 23.02.2022
5176 Clouds 5 1014 87 10000 3.6 320 10:31 23.02.2022
5177 Clouds 6 1014 81 10000 3.09 320 08:59 23.02.2022
5178 Clouds 7 1014 70 10000 4.12 230 07:58 23.02.2022
5179 Clouds 9 1014 66 10000 6.17 250 03:49 23.02.2022
5180 Clouds 10 1013 66 10000 10.29 230 00:28 23.02.2022
5181 Clouds 11 1012 62 10000 10.8 230 23:36 22.02.2022
5182 Clouds 11 1013 58 10000 10.8 230 22:31 22.02.2022
5183 Clouds 12 1013 66 10000 10.29 230 21:49 22.02.2022
5184 Clouds 12 1013 66 10000 10.29 230 21:30 22.02.2022
5185 Clouds 11 1013 76 10000 11.32 240 20:55 22.02.2022
5186 Clouds 11 1013 76 10000 11.32 240 20:29 22.02.2022
5187 Clouds 12 1013 71 10000 10.29 230 19:42 22.02.2022
5188 Clouds 12 1013 71 10000 10.29 230 19:19 22.02.2022
5189 Clouds 11 1013 76 10000 10.29 230 17:48 22.02.2022
5190 Clouds 11 1013 76 10000 10.29 230 17:21 22.02.2022
5191 Clouds 11 1013 82 10000 10.29 230 16:37 22.02.2022
5192 Clouds 11 1013 82 10000 8.23 230 15:40 22.02.2022
5193 Rain 10 1014 87 10000 9.26 230 14:44 22.02.2022
5194 Clouds 10 1014 87 10000 8.23 230 12:31 22.02.2022
5195 Clouds 12 1014 71 10000 8.75 230 10:52 22.02.2022
5196 Drizzle 10 1015 93 10000 9.26 230 08:41 22.02.2022
5197 Clouds 10 1015 93 10000 9.26 230 07:26 22.02.2022
5198 Drizzle 11 1016 100 10000 10.8 230 04:59 22.02.2022
5199 Drizzle 13 1016 82 10000 11.32 230 01:45 22.02.2022
5200 Clouds 16 1017 59 10000 10.8 230 22:46 21.02.2022
5201 Clouds 16 1017 44 10000 9.77 230 21:33 21.02.2022
5202 Clouds 16 1018 41 10000 6.17 230 20:35 21.02.2022
5203 Clouds 16 1019 41 10000 6.69 230 18:46 21.02.2022
5204 Clear 15 1021 47 10000 2.57 230 16:58 21.02.2022
5205 Clear 13 1022 62 10000 2.06 160 15:20 21.02.2022
5206 Clear 11 1022 76 10000 1.54 180 14:21 21.02.2022
5207 Clear 11 1022 76 10000 1.54 180 14:21 21.02.2022
5208 Clear 9 1023 81 10000 0 0 13:22 21.02.2022
5209 Clear 7 1023 87 10000 0 0 12:23 21.02.2022
5210 Clear 6 1024 87 10000 1.54 320 11:19 21.02.2022
5211 Clear 7 1025 76 10000 3.09 230 09:34 21.02.2022
5212 Clear 7 1027 87 10000 2.57 90 05:35 21.02.2022
5213 Clear 12 1028 47 10000 4.12 230 23:44 20.02.2022
5214 Clear 13 1028 44 10000 2.57 230 22:25 20.02.2022
5215 Clouds 14 1029 44 10000 0 0 21:42 20.02.2022
5216 Clouds 12 1029 47 10000 1.54 90 20:53 20.02.2022
5217 Clouds 12 1029 47 10000 1.54 90 20:35 20.02.2022
5218 Clouds 12 1029 50 10000 0 0 19:32 20.02.2022
5219 Clouds 11 1030 50 10000 0 0 18:50 20.02.2022
5220 Clouds 11 1030 50 10000 0 0 18:31 20.02.2022
5221 Clouds 11 1030 50 10000 0 0 18:31 20.02.2022
5222 Clouds 9 1030 61 10000 0 0 17:48 20.02.2022
5223 Clouds 8 1031 66 10000 2.57 180 15:37 20.02.2022
5224 Clear 8 1031 71 10000 0 0 14:42 20.02.2022
5225 Clear 7 1030 76 10000 0 0 13:23 20.02.2022
5226 Clear 4 1030 81 10000 2.57 320 12:28 20.02.2022
5227 Clouds 4 1029 81 10000 1.54 360 10:38 20.02.2022
5228 Clouds 4 1029 81 10000 1.54 360 10:19 20.02.2022
5229 Clouds 4 1029 93 10000 2.06 270 08:50 20.02.2022
5230 Clouds 7 1026 65 10000 5.14 140 00:54 20.02.2022
5231 Clouds 7 1026 65 10000 5.14 140 00:54 20.02.2022
5232 Clouds 7 1026 65 10000 5.14 140 00:29 20.02.2022
5233 Clouds 8 1025 61 10000 4.12 140 22:47 19.02.2022
5234 Clouds 8 1025 61 10000 4.12 140 22:22 19.02.2022
5235 Clouds 9 1024 49 10000 2.06 140 20:51 19.02.2022
5236 Clouds 9 1024 49 10000 2.57 180 19:53 19.02.2022
5237 Clouds 9 1024 49 10000 2.57 180 19:28 19.02.2022
5238 Clouds 9 1023 49 10000 1.54 180 18:33 19.02.2022
5239 Clouds 9 1023 46 10000 3.6 180 17:35 19.02.2022
5240 Clouds 8 1022 49 10000 5.66 230 16:22 19.02.2022
5241 Clouds 7 1021 49 10000 3.09 140 14:56 19.02.2022
5242 Clouds 7 1021 49 10000 3.09 140 14:37 19.02.2022
5243 Clouds 4 1021 73 10000 1.05 214 13:22 19.02.2022
5244 Clouds 5 1019 56 10000 5.66 270 11:37 19.02.2022
5245 Clouds 5 1018 56 10000 2.57 270 09:45 19.02.2022
5246 Clouds 5 1015 52 10000 4.12 230 06:54 19.02.2022
5247 Clouds 5 1013 70 10000 6.17 230 03:38 19.02.2022
5248 Clouds 8 1008 61 10000 11.83 230 23:29 18.02.2022
5249 Clouds 9 1006 53 10000 9.77 230 21:49 18.02.2022
5250 Clouds 9 1005 53 10000 10.29 230 20:42 18.02.2022
5251 Clouds 9 1004 61 10000 10.29 230 19:53 18.02.2022
5252 Clouds 9 1004 61 10000 10.29 230 18:50 18.02.2022
5253 Clouds 9 1004 61 10000 10.29 230 18:20 18.02.2022
5254 Clouds 8 1004 71 10000 9.26 230 17:38 18.02.2022
5255 Clouds 7 1003 81 10000 7.2 230 14:50 18.02.2022
5256 Clouds 7 1003 81 10000 7.2 230 14:50 18.02.2022
5257 Clouds 7 1002 87 10000 7.2 230 13:55 18.02.2022
5258 Clouds 7 1002 87 10000 6.17 230 12:53 18.02.2022
5259 Clouds 7 1002 87 10000 6.17 230 12:32 18.02.2022
5260 Clouds 8 1002 81 10000 5.14 200 11:22 18.02.2022
5261 Clouds 9 1001 76 10000 2.57 0 09:52 18.02.2022
5262 Clouds 10 1000 71 10000 8.75 230 06:54 18.02.2022
5263 Clouds 10 1000 76 10000 7.72 230 05:39 18.02.2022
5264 Clouds 12 996 62 10000 11.83 230 23:24 17.02.2022
5265 Clouds 12 995 62 10000 12.86 230 21:44 17.02.2022
5266 Clouds 12 995 62 10000 12.86 230 21:19 17.02.2022
5267 Clouds 14 995 54 10000 12.86 230 20:36 17.02.2022
5268 Clouds 14 994 58 10000 12.35 230 19:48 17.02.2022
5269 Clouds 14 993 58 10000 14.4 230 18:41 17.02.2022
5270 Clouds 14 994 58 10000 12.35 230 17:50 17.02.2022
5271 Clouds 14 993 58 10000 12.35 230 16:25 17.02.2022
5272 Clouds 14 993 58 10000 12.86 230 15:30 17.02.2022
5273 Drizzle 13 992 71 10000 10.29 230 14:25 17.02.2022
5274 Drizzle 14 990 67 10000 8.23 230 12:35 17.02.2022
5275 Clouds 14 989 62 10000 9.26 230 11:21 17.02.2022
5276 Clouds 11 990 71 10000 1.54 140 08:45 17.02.2022
5277 Clouds 12 995 54 10000 2.57 0 00:31 17.02.2022
5278 Clouds 12 996 50 10000 6.69 320 23:19 16.02.2022
5279 Clouds 12 996 43 10000 8.75 290 21:31 16.02.2022
5280 Clouds 10 998 50 10000 8.23 320 19:46 16.02.2022
5281 Clouds 10 1000 50 10000 7.72 320 18:38 16.02.2022
5282 Clouds 10 1000 46 10000 5.14 290 17:53 16.02.2022
5283 Clouds 8 1002 49 10000 3.09 340 15:38 16.02.2022
5284 Clouds 7 1002 65 10000 0 0 14:59 16.02.2022
5285 Clouds 4 1003 81 10000 3.09 340 12:35 16.02.2022
5286 Clouds 3 1002 87 10000 3.09 320 11:58 16.02.2022
5287 Clouds 3 1002 87 10000 3.09 320 11:24 16.02.2022
5288 Clouds 3 1002 81 10000 2.57 320 10:33 16.02.2022
5289 Clouds 4 1000 81 10000 5.14 230 07:21 16.02.2022
5290 Drizzle 4 998 81 10000 9.77 230 05:20 16.02.2022
5291 Rain 7 992 81 10000 16.46 230 23:44 15.02.2022
5292 Rain 9 991 57 10000 14.92 230 22:28 15.02.2022
5293 Clouds 10 990 53 10000 5.14 180 21:46 15.02.2022
5294 Clouds 10 990 53 10000 5.14 180 21:27 15.02.2022
5295 Clouds 9 990 61 10000 7.2 230 20:56 15.02.2022
5296 Clouds 8 990 71 10000 10.29 230 19:57 15.02.2022
5297 Clouds 7 991 70 10000 7.2 230 18:56 15.02.2022
5298 Clouds 7 991 70 10000 7.2 230 18:21 15.02.2022
5299 Clouds 6 990 75 10000 7.72 230 17:49 15.02.2022
5300 Rain 5 990 81 8000 11.32 230 16:38 15.02.2022
5301 Clouds 6 990 70 10000 10.29 230 15:26 15.02.2022
5302 Rain 6 988 75 10000 13.38 230 13:27 15.02.2022
5303 Clouds 6 987 75 10000 6.69 230 11:58 15.02.2022
5304 Clouds 6 987 75 10000 6.69 230 11:27 15.02.2022
5305 Clouds 6 987 70 10000 3.6 230 09:31 15.02.2022
5306 Clouds 7 988 70 10000 4.63 230 06:52 15.02.2022
5307 Drizzle 8 988 71 10000 9.26 230 04:54 15.02.2022
5308 Clouds 11 989 50 10000 7.72 320 23:33 14.02.2022
5309 Clouds 12 990 43 10000 7.72 360 21:36 14.02.2022
5310 Clouds 12 992 40 10000 8.23 340 20:40 14.02.2022
5311 Clouds 11 993 40 10000 9.26 320 19:36 14.02.2022
5312 Clouds 11 994 40 10000 6.69 320 18:44 14.02.2022
5313 Clouds 11 994 40 10000 6.69 320 18:22 14.02.2022
5314 Clouds 10 995 46 10000 7.2 320 17:26 14.02.2022
5315 Clouds 10 997 46 10000 4.12 320 16:24 14.02.2022
5316 Clouds 8 998 76 10000 8.75 360 14:31 14.02.2022
5317 Clouds 4 999 93 10000 6.17 360 13:33 14.02.2022
5318 Clouds 4 1001 100 10000 4.12 320 12:52 14.02.2022
5319 Clouds 4 1002 100 10000 2.06 90 11:54 14.02.2022
5320 Clouds 4 1003 93 10000 1.54 180 10:56 14.02.2022
5321 Clouds 4 1004 87 10000 4.12 340 08:45 14.02.2022
5322 Clouds 4 1005 81 10000 3.09 320 07:32 14.02.2022
5323 Clouds 5 1005 75 10000 9.26 230 05:56 14.02.2022
5324 Rain 4 1002 87 5000 12.35 230 22:43 13.02.2022
5325 Rain 4 1002 87 8000 14.4 230 22:25 13.02.2022
5326 Rain 5 998 81 10000 16.98 230 21:32 13.02.2022
5327 Rain 5 998 81 8000 11.83 230 20:40 13.02.2022
5328 Rain 4 998 91 3521 14.34 225 19:51 13.02.2022
5329 Rain 8 988 76 5000 21.61 230 18:54 13.02.2022
5330 Rain 8 988 76 5000 21.61 230 18:35 13.02.2022
5331 Clouds 14 982 41 10000 11.83 230 16:38 13.02.2022
5332 Clouds 13 981 44 10000 13.89 230 15:27 13.02.2022
5333 Clouds 12 980 50 10000 13.89 230 14:37 13.02.2022
5334 Clouds 13 981 62 10000 9.26 230 12:52 13.02.2022
5335 Clouds 13 981 62 10000 9.26 230 12:18 13.02.2022
5336 Clouds 9 984 61 10000 4.63 360 10:38 13.02.2022
5337 Clouds 8 986 66 10000 6.17 360 09:49 13.02.2022
5338 Clouds 7 991 70 10000 3.09 270 07:52 13.02.2022
5339 Clouds 9 1005 53 10000 10.8 230 00:49 13.02.2022
5340 Clouds 9 1005 53 10000 10.8 230 00:20 13.02.2022
5341 Clouds 9 1004 53 10000 16.46 230 22:34 12.02.2022
5342 Clouds 9 1004 53 10000 19.03 230 21:40 12.02.2022
5343 Clouds 9 1004 53 10000 16.98 230 20:52 12.02.2022
5344 Clouds 8 1002 61 10000 19.03 230 19:49 12.02.2022
5345 Clouds 9 1000 61 10000 19.55 230 18:53 12.02.2022
5346 Clouds 9 1000 61 10000 19.55 230 18:35 12.02.2022
5347 Clouds 9 1000 61 10000 18.01 230 17:38 12.02.2022
5348 Drizzle 8 1001 61 10000 18.01 230 16:44 12.02.2022
5349 Clouds 9 1000 57 10000 18.01 230 15:52 12.02.2022
5350 Clouds 9 1000 57 10000 18.01 230 15:20 12.02.2022
5351 Clouds 9 999 61 10000 18.01 230 14:25 12.02.2022
5352 Clouds 8 994 71 10000 21.61 230 11:26 12.02.2022
5353 Clouds 9 993 76 10000 22.12 230 10:29 12.02.2022
5354 Clouds 10 991 66 10000 20.06 230 09:36 12.02.2022
5355 Clouds 11 990 62 10000 23.15 200 08:46 12.02.2022
5356 Clouds 12 988 58 10000 21.61 230 06:52 12.02.2022
5357 Clouds 11 991 93 10000 5.66 290 04:44 12.02.2022
5358 Rain 10 993 100 6000 3.09 140 02:19 12.02.2022
5359 Drizzle 13 997 67 8000 2.57 230 23:20 11.02.2022
5360 Drizzle 14 999 58 10000 4.63 230 22:21 11.02.2022
5361 Clouds 14 1001 67 10000 5.66 230 21:32 11.02.2022
5362 Clouds 13 1002 67 10000 9.26 230 20:26 11.02.2022
5363 Clouds 13 1003 67 10000 11.83 230 19:28 11.02.2022
5364 Clouds 12 1003 66 10000 13.38 230 18:29 11.02.2022
5365 Clouds 13 1004 62 10000 9.26 250 17:27 11.02.2022
5366 Clouds 12 1006 58 10000 4.63 340 16:39 11.02.2022
5367 Clouds 10 1006 57 10000 4.12 340 15:19 11.02.2022
5368 Clouds 9 1006 66 10000 4.63 340 14:37 11.02.2022
5369 Clouds 9 1006 66 10000 4.63 340 14:19 11.02.2022
5370 Clouds 8 1007 71 10000 5.14 340 13:40 11.02.2022
5371 Clouds 8 1007 71 10000 5.14 340 13:21 11.02.2022
5372 Clouds 6 1009 70 10000 5.14 290 10:55 11.02.2022
5373 Clouds 7 1009 57 10000 8.23 230 09:32 11.02.2022
5374 Clouds 7 1009 61 10000 11.32 230 08:31 11.02.2022
5375 Clouds 7 1009 70 10000 12.35 230 07:40 11.02.2022
5376 Clouds 7 1009 76 10000 12.86 230 06:22 11.02.2022
5377 Clouds 8 1008 76 10000 12.86 230 02:21 11.02.2022
5378 Drizzle 8 1005 81 10000 10.8 230 23:45 10.02.2022
5379 Clouds 8 1004 81 10000 12.86 230 22:26 10.02.2022
5380 Clouds 8 1002 71 10000 13.38 230 21:41 10.02.2022
5381 Clouds 8 1001 71 10000 13.89 230 20:50 10.02.2022
5382 Clouds 9 1000 76 10000 13.38 230 19:51 10.02.2022
5383 Clouds 9 1000 76 10000 13.38 230 19:22 10.02.2022
5384 Clouds 8 1000 76 10000 12.86 230 18:22 10.02.2022
5385 Drizzle 7 999 81 10000 12.86 230 17:21 10.02.2022
5386 Drizzle 7 998 81 10000 13.89 230 16:39 10.02.2022
5387 Drizzle 7 997 87 10000 13.89 230 15:40 10.02.2022
5388 Drizzle 7 997 87 10000 13.89 230 15:21 10.02.2022
5389 Drizzle 8 996 76 10000 8.75 230 14:35 10.02.2022
5390 Drizzle 8 996 71 10000 5.66 230 13:40 10.02.2022
5391 Drizzle 8 996 71 10000 5.66 230 13:19 10.02.2022
5392 Drizzle 7 994 70 10000 9.77 230 11:52 10.02.2022
5393 Drizzle 7 994 70 10000 9.77 230 11:30 10.02.2022
5394 Drizzle 8 994 49 10000 3.09 230 10:23 10.02.2022
5395 Clouds 4 995 95 4271 3.3 341 09:44 10.02.2022
5396 Clouds 8 992 49 10000 5.66 320 08:25 10.02.2022
5397 Clouds 8 992 49 10000 9.77 320 06:32 10.02.2022
5398 Clouds 9 993 46 10000 9.26 320 02:43 10.02.2022
5399 Clouds 10 993 46 10000 8.75 320 00:53 10.02.2022
5400 Clouds 10 993 46 10000 8.75 320 00:30 10.02.2022
5401 Clouds 10 992 50 10000 7.2 290 23:58 09.02.2022
5402 Clouds 11 992 46 10000 6.17 290 22:54 09.02.2022
5403 Clouds 11 992 46 10000 6.17 290 22:30 09.02.2022
5404 Clouds 11 991 46 10000 7.72 290 21:46 09.02.2022
5405 Clouds 11 991 46 10000 7.72 290 21:26 09.02.2022
5406 Clouds 12 991 43 10000 8.23 290 20:42 09.02.2022
5407 Clouds 12 991 43 10000 8.23 290 20:22 09.02.2022
5408 Clouds 13 990 41 10000 6.69 250 19:40 09.02.2022
5409 Clouds 14 989 35 10000 6.17 290 18:31 09.02.2022
5410 Clouds 14 989 47 10000 4.63 320 16:55 09.02.2022
5411 Clouds 12 990 62 10000 2.06 90 15:59 09.02.2022
5412 Clouds 12 990 62 10000 2.06 90 15:22 09.02.2022
5413 Rain 8 992 81 10000 5.14 20 12:43 09.02.2022
5414 Drizzle 9 993 66 10000 6.17 360 11:23 09.02.2022
5415 Drizzle 9 994 71 10000 5.66 360 10:33 09.02.2022
5416 Drizzle 9 996 66 10000 5.14 360 09:47 09.02.2022
5417 Drizzle 9 996 66 10000 5.14 360 09:21 09.02.2022
5418 Drizzle 10 996 57 10000 10.29 360 08:43 09.02.2022
5419 Clouds 8 1001 76 10000 5.14 50 05:55 09.02.2022
5420 Clouds 9 1004 71 10000 2.57 140 03:51 09.02.2022
5421 Clouds 10 1004 57 10000 5.14 230 01:55 09.02.2022
5422 Clouds 12 1004 54 10000 7.2 230 23:42 08.02.2022
5423 Clouds 12 1004 54 10000 7.2 230 23:18 08.02.2022
5424 Clouds 12 1004 54 10000 7.72 230 22:38 08.02.2022
5425 Clouds 12 1004 54 10000 7.72 230 22:18 08.02.2022
5426 Rain 11 1003 62 10000 10.29 230 21:22 08.02.2022
5427 Rain 11 1003 62 10000 10.29 230 21:22 08.02.2022
5428 Clouds 13 1002 47 10000 5.66 230 20:57 08.02.2022
5429 Clouds 13 1002 47 10000 5.66 230 20:34 08.02.2022
5430 Clouds 13 1002 47 10000 8.23 230 19:18 08.02.2022
5431 Clouds 10 1000 71 10000 9.77 230 17:57 08.02.2022
5432 Clouds 10 1000 71 10000 10.29 230 16:55 08.02.2022
5433 Clouds 9 998 81 10000 10.29 230 15:45 08.02.2022
5434 Clouds 9 997 81 10000 9.77 230 14:58 08.02.2022
5435 Clouds 8 997 87 10000 11.83 230 13:39 08.02.2022
5436 Drizzle 8 996 87 10000 11.83 230 12:21 08.02.2022
5437 Clouds 9 993 81 10000 2.57 270 10:48 08.02.2022
5438 Clouds 9 992 87 10000 4.12 180 09:47 08.02.2022
5439 Rain 9 990 87 10000 5.14 230 08:38 08.02.2022
5440 Rain 8 988 93 10000 19.03 230 06:24 08.02.2022
5441 Rain 13 990 94 10000 2.57 200 04:40 08.02.2022
5442 Rain 13 990 94 10000 2.57 200 04:22 08.02.2022
5443 Rain 15 990 82 10000 2.06 320 03:36 08.02.2022
5444 Rain 15 990 82 10000 2.06 320 03:18 08.02.2022
5445 Rain 16 991 67 10000 3.6 20 02:59 08.02.2022
5446 Rain 16 991 67 10000 3.6 20 02:36 08.02.2022
5447 Rain 16 991 67 10000 3.6 20 02:18 08.02.2022
5448 Rain 15 993 92 10000 1.8 10 01:44 08.02.2022
5449 Rain 16 993 86 10000 1.69 3 01:25 08.02.2022
5450 Clouds 17 992 59 10000 2.57 70 00:55 08.02.2022
5451 Clouds 17 992 59 10000 2.57 70 00:19 08.02.2022
5452 Clouds 20 993 56 10000 2.06 0 23:43 07.02.2022
5453 Clouds 20 993 56 10000 2.06 0 23:18 07.02.2022
5454 Clouds 21 994 49 10000 2.06 0 22:59 07.02.2022
5455 Clouds 21 994 49 10000 2.06 0 22:18 07.02.2022
5456 Clouds 21 995 49 10000 4.63 230 21:50 07.02.2022
5457 Clouds 21 995 49 10000 4.63 230 21:27 07.02.2022
5458 Clear 23 996 43 10000 3.09 230 20:43 07.02.2022
5459 Clear 23 996 43 10000 3.09 230 20:24 07.02.2022
5460 Clear 22 997 43 10000 2.06 180 19:47 07.02.2022
5461 Clear 21 996 49 10000 3.6 140 18:34 07.02.2022
5462 Clear 20 998 52 10000 2.06 90 16:53 07.02.2022
5463 Clear 20 998 52 10000 2.06 90 16:24 07.02.2022
5464 Clear 21 998 49 10000 2.06 90 15:48 07.02.2022
5465 Clear 19 999 52 10000 0 0 13:39 07.02.2022
5466 Clear 19 999 52 10000 0 0 13:21 07.02.2022
5467 Clouds 20 1000 37 10000 8.23 360 11:58 07.02.2022
5468 Clouds 20 1000 37 10000 8.23 360 11:38 07.02.2022
5469 Clouds 20 1000 40 10000 8.23 320 10:54 07.02.2022
5470 Clouds 20 1000 40 10000 8.23 320 10:36 07.02.2022
5471 Clouds 19 1001 52 10000 3.09 320 09:53 07.02.2022
5472 Clouds 19 1001 52 10000 3.09 320 09:18 07.02.2022
5473 Clouds 18 1002 55 10000 7.2 320 08:44 07.02.2022
5474 Clouds 16 1002 67 10000 2.06 320 07:34 07.02.2022
5475 Clouds 17 1004 63 10000 5.66 20 06:34 07.02.2022
5476 Clouds 16 1005 67 10000 6.69 20 04:22 07.02.2022
5477 Clouds 16 1007 63 10000 3.09 290 01:29 07.02.2022
5478 Clouds 16 1007 63 10000 4.63 340 23:50 06.02.2022
5479 Clouds 16 1007 63 10000 4.63 340 23:19 06.02.2022
5480 Clouds 16 1007 63 10000 4.12 50 22:39 06.02.2022
5481 Clouds 18 1007 55 10000 8.23 340 21:37 06.02.2022
5482 Clouds 18 1007 55 10000 8.23 340 21:18 06.02.2022
5483 Clouds 19 1007 48 10000 6.17 320 20:37 06.02.2022
5484 Clouds 16 1007 59 10000 7.72 360 19:50 06.02.2022
5485 Clouds 13 1008 58 10000 2.57 230 18:52 06.02.2022
5486 Clouds 13 1008 58 10000 2.57 230 18:27 06.02.2022
5487 Drizzle 11 1008 62 10000 2.06 180 17:29 06.02.2022
5488 Clouds 12 1010 54 10000 1.54 90 16:50 06.02.2022
5489 Clear 12 1010 58 10000 1.54 90 15:51 06.02.2022
5490 Clear 12 1010 58 10000 1.54 90 15:28 06.02.2022
5491 Clear 11 1011 66 10000 2.06 90 14:59 06.02.2022
5492 Clear 9 1012 71 10000 1.03 140 13:57 06.02.2022
5493 Clear 9 1012 71 10000 1.03 140 13:20 06.02.2022
5494 Clear 7 1012 81 10000 1.54 70 12:19 06.02.2022
5495 Clear 6 1013 81 10000 5.14 360 10:33 06.02.2022
5496 Clear 6 1012 70 10000 3.09 360 09:36 06.02.2022
5497 Clear 7 1012 70 10000 2.57 320 08:41 06.02.2022
5498 Clouds 10 1012 53 10000 3.6 270 06:31 06.02.2022
5499 Clouds 10 1012 71 10000 5.66 270 05:28 06.02.2022
5500 Clouds 10 1012 71 10000 5.66 270 05:28 06.02.2022
5501 Clouds 10 1010 57 10000 8.23 230 02:25 06.02.2022
5502 Clouds 12 1007 58 10000 13.38 230 00:32 06.02.2022
5503 Clouds 12 1006 58 10000 10.8 230 23:38 05.02.2022
5504 Rain 12 1005 82 10000 12.35 230 21:47 05.02.2022
5505 Rain 15 1004 55 10000 10.8 230 20:41 05.02.2022
5506 Rain 15 1004 55 10000 10.8 230 20:20 05.02.2022
5507 Clouds 18 1003 45 10000 6.69 270 19:42 05.02.2022
5508 Clouds 17 1003 39 10000 5.66 320 18:30 05.02.2022
5509 Clouds 16 1003 41 10000 3.6 230 17:35 05.02.2022
5510 Clear 16 1005 41 10000 9.77 360 15:51 05.02.2022
5511 Clear 16 1005 41 10000 9.77 360 15:29 05.02.2022
5512 Clear 15 1007 38 10000 7.72 320 13:38 05.02.2022
5513 Clear 13 1008 44 10000 9.77 360 12:46 05.02.2022
5514 Clear 13 1009 44 10000 10.29 360 11:45 05.02.2022
5515 Clear 11 1009 54 10000 8.75 320 10:43 05.02.2022
5516 Clear 6 1010 87 10000 2.57 0 09:50 05.02.2022
5517 Clear 6 1011 93 10000 4.12 90 08:39 05.02.2022
5518 Clear 7 1013 87 10000 2.57 20 06:59 05.02.2022
5519 Clear 7 1013 87 10000 2.57 20 06:27 05.02.2022
5520 Clear 10 1015 66 10000 5.66 240 02:40 05.02.2022
5521 Clear 11 1016 62 10000 5.14 230 01:18 05.02.2022
5522 Clear 12 1016 58 10000 5.66 230 00:36 05.02.2022
5523 Clear 12 1016 54 10000 7.72 230 23:33 04.02.2022
5524 Clear 12 1016 50 10000 6.69 230 22:39 04.02.2022
5525 Clear 12 1017 54 10000 6.17 230 21:36 04.02.2022
5526 Clear 12 1017 54 10000 6.17 230 21:18 04.02.2022
5527 Clear 12 1017 50 10000 7.2 230 20:36 04.02.2022
5528 Clear 11 1017 54 10000 6.17 230 19:18 04.02.2022
5529 Clear 10 1018 50 10000 7.72 230 16:22 04.02.2022
5530 Clouds 9 1018 49 10000 4.63 230 15:18 04.02.2022
5531 Clouds 7 1019 53 10000 4.63 230 14:40 04.02.2022
5532 Clouds 6 1018 61 10000 3.09 290 12:43 04.02.2022
5533 Clouds 3 1019 75 10000 4.12 270 11:45 04.02.2022
5534 Clouds 3 1018 75 10000 4.12 290 10:55 04.02.2022
5535 Clouds 4 1018 75 10000 4.63 250 09:35 04.02.2022
5536 Clouds 5 1017 70 10000 6.69 230 07:56 04.02.2022
5537 Clouds 6 1015 70 10000 10.29 230 03:31 04.02.2022
5538 Clouds 7 1014 65 10000 9.26 230 02:34 04.02.2022
5539 Clouds 8 1012 66 10000 8.75 230 23:35 03.02.2022
5540 Clouds 8 1012 57 10000 9.77 230 22:50 03.02.2022
5541 Clouds 9 1011 57 10000 6.69 230 21:51 03.02.2022
5542 Clouds 9 1011 57 10000 6.69 230 21:22 03.02.2022
5543 Clouds 8 1011 61 10000 8.75 230 20:21 03.02.2022
5544 Clouds 8 1011 61 10000 6.69 230 19:36 03.02.2022
5545 Clouds 8 1010 57 10000 7.72 230 18:56 03.02.2022
5546 Clouds 8 1010 61 10000 7.2 230 17:55 03.02.2022
5547 Clouds 7 1010 65 10000 8.75 230 16:48 03.02.2022
5548 Clouds 6 1009 65 10000 6.69 230 14:59 03.02.2022
5549 Clouds 6 1008 61 10000 6.17 230 13:19 03.02.2022
5550 Clouds 5 1008 65 10000 5.66 270 11:47 03.02.2022
5551 Clouds 5 1006 65 10000 9.26 200 08:55 03.02.2022
5552 Clouds 6 1006 56 10000 10.29 230 07:41 03.02.2022
5553 Clouds 7 1001 61 10000 10.8 230 00:35 03.02.2022
5554 Clouds 7 1001 57 10000 11.32 230 23:47 02.02.2022
5555 Clouds 8 1000 57 10000 9.26 230 22:38 02.02.2022
5556 Clouds 9 1000 57 10000 7.72 230 21:45 02.02.2022
5557 Clouds 9 1000 57 10000 7.72 230 21:27 02.02.2022
5558 Clouds 8 998 61 10000 11.32 230 20:20 02.02.2022
5559 Clouds 7 997 65 10000 13.38 230 19:46 02.02.2022
5560 Clouds 7 997 65 10000 9.26 230 18:55 02.02.2022
5561 Clouds 7 997 65 10000 9.26 230 18:24 02.02.2022
5562 Clouds 7 996 65 10000 11.32 230 17:20 02.02.2022
5563 Clouds 7 996 65 10000 11.32 230 16:54 02.02.2022
5564 Clouds 7 996 70 10000 9.77 230 14:42 02.02.2022
5565 Clouds 6 995 70 10000 13.38 230 12:29 02.02.2022
5566 Clouds 6 994 65 10000 13.38 230 11:44 02.02.2022
5567 Clouds 6 994 65 10000 13.38 230 11:24 02.02.2022
5568 Clouds 6 993 70 10000 13.89 230 08:27 02.02.2022
5569 Clouds 6 990 75 10000 18.52 220 01:46 02.02.2022
5570 Rain 6 987 87 8000 19.55 230 22:29 01.02.2022
5571 Rain 6 987 81 8000 13.89 230 20:50 01.02.2022
5572 Rain 6 985 87 10000 15.43 230 18:55 01.02.2022
5573 Clouds 6 984 81 10000 12.35 230 16:57 01.02.2022
5574 Clouds 6 984 81 10000 12.35 230 16:19 01.02.2022
5575 Rain 4 982 87 10000 7.72 230 12:57 01.02.2022
5576 Rain 4 981 93 10000 8.75 230 11:57 01.02.2022
5577 Drizzle 5 978 87 10000 9.77 230 08:51 01.02.2022
5578 Drizzle 5 980 87 10000 7.72 230 02:20 01.02.2022
5579 Clouds 6 980 81 10000 14.4 230 23:37 31.01.2022
5580 Clouds 8 980 76 10000 12.35 230 22:33 31.01.2022
5581 Clouds 10 981 66 10000 10.29 230 21:34 31.01.2022
5582 Clouds 9 981 66 10000 14.92 230 20:34 31.01.2022
5583 Clouds 9 981 66 10000 14.92 230 20:34 31.01.2022
5584 Clouds 9 982 71 10000 14.4 230 19:57 31.01.2022
5585 Clouds 10 982 66 10000 13.89 230 18:32 31.01.2022
5586 Clouds 9 983 71 10000 15.43 230 17:55 31.01.2022
5587 Clouds 9 983 71 10000 15.43 230 17:18 31.01.2022
5588 Clouds 8 985 71 10000 12.35 230 16:21 31.01.2022
5589 Clouds 9 988 66 10000 11.83 230 14:50 31.01.2022
5590 Clouds 9 989 66 10000 12.86 230 13:29 31.01.2022
5591 Clouds 7 990 70 10000 14.92 230 12:37 31.01.2022
5592 Clouds 7 992 70 10000 10.29 230 11:20 31.01.2022
5593 Clouds 7 993 76 10000 12.86 230 10:47 31.01.2022
5594 Rain 7 993 81 10000 9.77 230 09:36 31.01.2022
5595 Rain 5 994 75 9000 8.23 250 08:56 31.01.2022
5596 Rain 5 994 75 9000 8.23 250 08:20 31.01.2022
5597 Drizzle 6 994 75 10000 3.6 320 07:37 31.01.2022
5598 Clouds 7 996 70 10000 3.6 320 05:24 31.01.2022
5599 Clouds 7 999 70 10000 12.86 230 00:23 31.01.2022
5600 Clouds 9 999 61 10000 14.92 230 22:33 30.01.2022
5601 Drizzle 9 999 61 10000 12.86 230 21:46 30.01.2022
5602 Drizzle 9 999 61 10000 12.86 230 21:24 30.01.2022
5603 Drizzle 9 999 71 10000 13.38 230 20:51 30.01.2022
5604 Drizzle 9 999 71 10000 13.38 230 20:31 30.01.2022
5605 Drizzle 8 998 76 10000 10.29 230 19:56 30.01.2022
5606 Clouds 9 999 66 10000 11.32 230 18:51 30.01.2022
5607 Clouds 9 999 66 10000 11.32 230 18:22 30.01.2022
5608 Clouds 9 998 66 10000 10.29 230 17:31 30.01.2022
5609 Drizzle 8 998 71 10000 11.32 230 16:42 30.01.2022
5610 Drizzle 8 998 71 10000 11.32 230 16:23 30.01.2022
5611 Clouds 8 998 71 10000 12.35 230 15:54 30.01.2022
5612 Clouds 8 998 71 10000 12.35 230 15:33 30.01.2022
5613 Clouds 8 998 71 10000 9.77 230 14:47 30.01.2022
5614 Clouds 7 998 70 10000 11.83 230 13:47 30.01.2022
5615 Clouds 7 998 70 10000 11.32 230 12:46 30.01.2022
5616 Clouds 6 997 81 10000 10.29 230 10:47 30.01.2022
5617 Clouds 6 997 81 10000 10.29 230 10:25 30.01.2022
5618 Clouds 7 997 81 10000 8.75 230 09:23 30.01.2022
5619 Clouds 6 997 93 10000 2.06 270 07:59 30.01.2022
5620 Rain 7 998 87 8000 0 0 02:44 30.01.2022
5621 Rain 7 997 87 8000 2.06 270 01:54 30.01.2022
5622 Rain 7 996 93 5000 8.23 250 23:49 29.01.2022
5623 Rain 8 996 87 5000 5.14 180 22:57 29.01.2022
5624 Rain 8 994 93 5000 11.32 230 21:35 29.01.2022
5625 Rain 10 994 87 10000 9.26 230 20:57 29.01.2022
5626 Rain 10 994 87 10000 7.72 250 19:52 29.01.2022
5627 Drizzle 13 994 76 10000 6.17 140 19:31 29.01.2022
5628 Drizzle 14 994 67 10000 3.6 230 18:44 29.01.2022
5629 Drizzle 15 993 67 10000 3.6 230 17:55 29.01.2022
5630 Clouds 15 994 67 10000 1.54 140 16:59 29.01.2022
5631 Clouds 15 994 72 10000 3.09 90 15:35 29.01.2022
5632 Clear 14 995 72 10000 5.14 90 13:58 29.01.2022
5633 Clear 14 995 72 10000 5.14 90 13:28 29.01.2022
5634 Clear 12 996 66 10000 4.12 50 12:59 29.01.2022
5635 Clouds 12 996 66 10000 4.12 70 11:39 29.01.2022
5636 Clouds 12 996 66 10000 4.12 70 11:39 29.01.2022
5637 Clouds 12 996 66 10000 2.06 360 10:33 29.01.2022
5638 Clouds 13 997 67 10000 0 0 08:20 29.01.2022
5639 Clouds 12 1001 76 10000 2.57 250 02:48 29.01.2022
5640 Clouds 16 1002 59 10000 1.54 10 00:32 29.01.2022
5641 Clouds 16 1002 59 10000 1.54 10 00:32 29.01.2022
5642 Clouds 18 1002 48 10000 1.03 80 23:31 28.01.2022
5643 Clouds 18 1003 52 10000 2.06 70 22:47 28.01.2022
5644 Clouds 18 1003 52 10000 2.06 70 22:19 28.01.2022
5645 Clouds 15 1004 63 10000 1.54 70 20:41 28.01.2022
5646 Clouds 14 1004 67 10000 2.06 90 19:57 28.01.2022
5647 Clouds 14 1005 72 10000 1.03 90 18:52 28.01.2022
5648 Clouds 12 1006 76 10000 1.54 360 17:53 28.01.2022
5649 Clouds 11 1007 82 10000 3.09 50 15:52 28.01.2022
5650 Clouds 11 1007 76 10000 3.6 50 14:54 28.01.2022
5651 Clouds 8 1009 66 10000 3.6 50 12:42 28.01.2022
5652 Clouds 7 1009 76 10000 2.57 50 11:49 28.01.2022
5653 Clouds 7 1010 96 10000 2.54 350 10:26 28.01.2022
5654 Clouds 7 1010 96 10000 2.54 350 09:46 28.01.2022
5655 Clouds 8 1011 92 10000 1.77 345 07:41 28.01.2022
5656 Clouds 8 1011 94 10000 1.77 342 05:31 28.01.2022
5657 Clouds 10 1012 81 10000 2.06 180 03:51 28.01.2022
5658 Clouds 10 1012 81 10000 2.57 250 02:25 28.01.2022
5659 Clouds 11 1013 71 10000 4.63 200 01:37 28.01.2022
5660 Clouds 10 1012 76 10000 7.2 180 00:42 28.01.2022
5661 Clouds 11 1012 71 10000 7.2 230 22:20 27.01.2022
5662 Clouds 11 1012 76 10000 8.23 230 21:34 27.01.2022
5663 Clouds 11 1013 76 10000 8.23 230 20:59 27.01.2022
5664 Clouds 12 1013 71 10000 8.23 230 19:37 27.01.2022
5665 Clouds 10 1012 81 10000 8.23 230 18:19 27.01.2022
5666 Drizzle 10 1013 81 10000 11.32 230 16:45 27.01.2022
5667 Drizzle 9 1013 87 10000 9.26 230 13:57 27.01.2022
5668 Drizzle 9 1013 87 8000 9.77 230 12:49 27.01.2022
5669 Drizzle 9 1013 87 8000 9.77 230 11:53 27.01.2022
5670 Rain 8 1012 97 10000 1.04 264 09:48 27.01.2022
5671 Rain 8 1012 97 10000 1.04 264 09:48 27.01.2022
5672 Rain 8 1012 97 10000 1.08 254 08:40 27.01.2022
5673 Rain 8 1012 97 10000 1.1 259 07:31 27.01.2022
5674 Clouds 10 1011 76 10000 11.32 230 03:34 27.01.2022
5675 Clouds 11 1010 71 10000 14.4 230 00:23 27.01.2022
5676 Clouds 11 1010 71 10000 12.86 230 22:27 26.01.2022
5677 Clouds 12 1010 66 10000 11.83 220 21:44 26.01.2022
5678 Clouds 11 1009 71 10000 13.89 220 20:49 26.01.2022
5679 Clouds 11 1009 71 10000 13.89 220 20:31 26.01.2022
5680 Clouds 11 1010 66 10000 14.4 230 19:38 26.01.2022
5681 Clouds 11 1010 66 10000 13.38 240 18:47 26.01.2022
5682 Clouds 11 1010 66 10000 13.38 240 18:18 26.01.2022
5683 Clouds 12 1010 62 10000 12.86 230 17:33 26.01.2022
5684 Clouds 11 1010 66 10000 11.32 240 16:49 26.01.2022
5685 Clouds 11 1010 66 10000 11.32 240 16:22 26.01.2022
5686 Clouds 10 1012 53 10000 2.06 0 14:40 26.01.2022
5687 Clouds 6 1013 75 10000 3.09 360 12:20 26.01.2022
5688 Clouds 7 1014 65 10000 7.2 250 10:52 26.01.2022
5689 Clouds 2 1015 94 10000 2.56 332 09:52 26.01.2022
5690 Clouds 3 1015 93 10000 2.07 324 08:49 26.01.2022
5691 Clouds 2 1015 96 10000 1.75 307 06:36 26.01.2022
5692 Drizzle 6 1010 81 10000 11.83 230 00:24 26.01.2022
5693 Drizzle 6 1009 81 10000 12.86 230 23:41 25.01.2022
5694 Drizzle 7 1006 81 10000 11.32 230 22:48 25.01.2022
5695 Drizzle 7 1006 81 10000 11.32 230 22:18 25.01.2022
5696 Drizzle 6 1006 81 10000 15.43 230 21:27 25.01.2022
5697 Drizzle 6 1006 87 10000 12.86 230 20:45 25.01.2022
5698 Drizzle 7 1005 70 10000 9.77 230 19:54 25.01.2022
5699 Drizzle 7 1005 70 10000 9.77 230 19:28 25.01.2022
5700 Drizzle 6 1003 81 10000 12.35 230 17:56 25.01.2022
5701 Drizzle 6 1003 81 10000 12.35 230 17:20 25.01.2022
5702 Clouds 6 1001 81 10000 12.35 230 16:34 25.01.2022
5703 Drizzle 6 1001 81 10000 12.35 230 15:39 25.01.2022
5704 Drizzle 6 1001 81 10000 12.35 230 15:19 25.01.2022
5705 Drizzle 6 1000 81 10000 11.83 230 14:51 25.01.2022
5706 Clouds 5 999 81 10000 9.77 230 12:20 25.01.2022
5707 Rain 4 997 99 159 2.19 215 09:25 25.01.2022
5708 Rain 4 996 99 141 2.01 220 07:52 25.01.2022
5709 Rain 4 995 99 191 1.64 227 07:20 25.01.2022
5710 Rain 4 995 97 4193 1.93 251 05:23 25.01.2022
5711 Rain 4 995 97 4193 1.93 251 05:23 25.01.2022
5712 Drizzle 6 991 87 10000 14.4 230 00:31 25.01.2022
5713 Drizzle 8 989 71 10000 14.92 230 23:36 24.01.2022
5714 Drizzle 8 989 71 10000 14.92 230 23:18 24.01.2022
5715 Drizzle 9 989 66 10000 12.86 230 22:42 24.01.2022
5716 Drizzle 9 989 66 10000 12.86 230 22:19 24.01.2022
5717 Drizzle 10 988 62 10000 12.35 230 21:40 24.01.2022
5718 Drizzle 10 988 62 10000 12.35 230 21:19 24.01.2022
5719 Drizzle 11 988 62 10000 9.26 230 20:26 24.01.2022
5720 Drizzle 11 988 62 10000 9.26 230 20:26 24.01.2022
5721 Drizzle 11 989 71 10000 1.54 230 19:38 24.01.2022
5722 Drizzle 11 990 71 10000 2.06 270 18:50 24.01.2022
5723 Drizzle 10 989 76 10000 3.6 230 17:39 24.01.2022
5724 Drizzle 10 989 76 10000 3.6 230 17:21 24.01.2022
5725 Drizzle 10 990 66 10000 6.17 230 16:31 24.01.2022
5726 Clouds 10 990 71 10000 5.14 230 15:25 24.01.2022
5727 Clouds 9 991 71 10000 9.26 230 13:58 24.01.2022
5728 Clouds 7 991 70 10000 12.86 230 12:34 24.01.2022
5729 Clouds 7 990 70 10000 12.86 230 11:41 24.01.2022
5730 Clouds 5 991 91 10000 1.76 266 10:19 24.01.2022
5731 Clouds 5 991 91 10000 1.76 266 09:44 24.01.2022
5732 Clouds 6 990 94 10000 1.82 245 08:18 24.01.2022
5733 Clouds 11 986 76 10000 4.63 210 01:39 24.01.2022
5734 Rain 11 986 66 10000 7.72 220 00:55 24.01.2022
5735 Rain 11 986 66 10000 7.72 220 00:30 24.01.2022
5736 Clouds 11 986 66 10000 9.77 230 23:39 23.01.2022
5737 Clouds 13 985 58 10000 10.8 220 22:20 23.01.2022
5738 Clouds 14 986 54 10000 2.06 80 21:40 23.01.2022
5739 Clouds 14 986 54 10000 2.06 80 21:20 23.01.2022
5740 Clouds 15 986 51 10000 2.57 70 20:22 23.01.2022
5741 Clouds 14 987 62 10000 3.09 70 18:56 23.01.2022
5742 Clouds 14 987 62 10000 3.09 70 18:24 23.01.2022
5743 Clouds 13 988 67 10000 2.57 90 16:56 23.01.2022
5744 Clouds 10 989 81 10000 2.57 140 15:59 23.01.2022
5745 Clouds 9 990 93 10000 0 0 14:52 23.01.2022
5746 Clouds 9 990 93 10000 0 0 14:18 23.01.2022
5747 Clouds 8 991 87 10000 0 0 12:46 23.01.2022
5748 Clouds 8 991 87 10000 0 0 12:20 23.01.2022
5749 Clouds 8 991 93 10000 0 0 11:26 23.01.2022
5750 Clouds 8 991 87 10000 0 0 10:57 23.01.2022
5751 Clouds 8 991 87 10000 0 0 10:25 23.01.2022
5752 Clouds 8 991 93 10000 2.06 120 09:32 23.01.2022
5753 Clouds 8 992 93 10000 0 0 08:49 23.01.2022
5754 Clouds 8 994 93 10000 7.2 90 03:49 23.01.2022
5755 Clouds 9 994 87 10000 6.69 90 01:38 23.01.2022
5756 Clouds 9 993 81 10000 8.75 90 00:47 23.01.2022
5757 Clouds 9 993 81 10000 8.75 90 00:18 23.01.2022
5758 Clouds 10 993 81 10000 9.26 90 22:55 22.01.2022
5759 Clouds 10 993 81 10000 9.26 90 22:33 22.01.2022
5760 Clouds 10 993 81 10000 8.23 90 20:46 22.01.2022
5761 Rain 10 994 81 9000 8.23 70 19:46 22.01.2022
5762 Rain 9 994 87 9000 7.72 70 18:41 22.01.2022
5763 Rain 9 994 87 9000 9.26 70 17:49 22.01.2022
5764 Rain 9 994 87 9000 9.26 70 17:31 22.01.2022
5765 Clouds 10 994 81 10000 8.75 70 16:54 22.01.2022
5766 Clouds 11 994 76 10000 6.69 70 15:45 22.01.2022
5767 Clouds 12 994 82 10000 2.57 90 14:56 22.01.2022
5768 Clouds 10 994 76 10000 3.09 180 13:31 22.01.2022
5769 Clouds 10 993 87 10000 3.6 230 12:40 22.01.2022
5770 Clouds 10 993 87 10000 3.6 230 12:22 22.01.2022
5771 Clouds 10 993 81 10000 6.17 230 10:55 22.01.2022
5772 Clouds 10 993 81 10000 6.17 230 10:27 22.01.2022
5773 Clouds 10 993 95 10000 0.47 265 09:43 22.01.2022
5774 Clouds 9 993 95 10000 0.46 231 08:51 22.01.2022
5775 Clouds 10 993 96 10000 0.87 13 07:27 22.01.2022
5776 Clouds 10 992 87 10000 5.14 60 04:50 22.01.2022
5777 Rain 13 993 71 10000 7.72 130 00:57 22.01.2022
5778 Clouds 14 993 67 10000 9.77 130 23:21 21.01.2022
5779 Clouds 17 993 51 10000 5.14 150 22:19 21.01.2022
5780 Clouds 16 994 55 10000 4.12 220 19:55 21.01.2022
5781 Clouds 14 994 67 10000 4.63 230 18:23 21.01.2022
5782 Clear 18 994 52 10000 0 0 16:58 21.01.2022
5783 Clear 17 995 55 10000 0 0 15:26 21.01.2022
5784 Clear 13 997 76 10000 0 0 13:18 21.01.2022
5785 Clear 12 998 76 10000 0 0 12:26 21.01.2022
5786 Clear 10 999 76 10000 0 0 11:26 21.01.2022
5787 Clouds 9 1000 92 10000 2.4 2 09:34 21.01.2022
5788 Clouds 9 1002 94 10000 2.27 3 08:22 21.01.2022
5789 Clear 12 1003 66 10000 2.57 250 04:37 21.01.2022
5790 Clear 23 1005 28 10000 3.6 200 23:20 20.01.2022
5791 Clear 23 1006 33 10000 2.06 150 21:50 20.01.2022
5792 Clear 23 1006 33 10000 2.06 150 21:32 20.01.2022
5793 Clear 22 1007 33 10000 1.54 140 20:31 20.01.2022
5794 Clear 22 1008 35 10000 1.54 100 19:19 20.01.2022
5795 Clear 20 1008 34 10000 1.6 291 18:18 20.01.2022
5796 Clear 16 1011 44 10000 1.54 60 16:40 20.01.2022
5797 Clear 13 1012 58 10000 2.06 40 15:40 20.01.2022
5798 Clear 13 1012 67 10000 2.06 90 14:40 20.01.2022
5799 Clear 11 1014 71 10000 2.06 70 13:33 20.01.2022
5800 Clear 9 1014 87 10000 0 0 12:32 20.01.2022
5801 Clear 8 1015 87 10000 0 0 11:50 20.01.2022
5802 Clear 7 1015 87 10000 0 0 10:38 20.01.2022
5803 Clear 7 1016 83 10000 2.39 341 09:34 20.01.2022
5804 Clear 7 1017 85 10000 2.49 350 07:50 20.01.2022
5805 Clear 12 1020 58 10000 7.72 230 00:44 20.01.2022
5806 Clear 13 1020 54 10000 7.2 230 22:54 19.01.2022
5807 Clear 13 1020 54 10000 7.72 230 21:48 19.01.2022
5808 Clear 13 1020 54 10000 7.72 230 21:23 19.01.2022
5809 Clouds 12 1021 58 10000 7.2 230 20:46 19.01.2022
5810 Clouds 12 1021 58 10000 7.72 230 19:42 19.01.2022
5811 Clouds 12 1021 54 10000 8.23 230 18:18 19.01.2022
5812 Clouds 11 1022 62 10000 7.72 230 17:44 19.01.2022
5813 Clouds 10 1022 62 10000 7.72 230 16:46 19.01.2022
5814 Clouds 10 1022 57 10000 8.23 230 14:42 19.01.2022
5815 Clouds 8 1021 76 10000 7.2 230 12:41 19.01.2022
5816 Clouds 7 1020 81 10000 9.26 230 11:39 19.01.2022
5817 Clouds 8 1020 76 10000 7.2 230 10:20 19.01.2022
5818 Clouds 8 1019 76 10000 9.26 230 09:34 19.01.2022
5819 Clouds 7 1018 87 10000 8.23 230 06:35 19.01.2022
5820 Clouds 9 1015 76 10000 10.29 230 02:38 19.01.2022
5821 Clouds 10 1012 81 10000 14.4 230 23:19 18.01.2022
5822 Clouds 11 1011 76 10000 17.49 230 22:19 18.01.2022
5823 Clouds 14 1010 62 10000 15.43 230 20:58 18.01.2022
5824 Clouds 13 1011 71 10000 13.89 230 19:54 18.01.2022
5825 Clouds 13 1011 71 10000 13.89 230 19:36 18.01.2022
5826 Clouds 12 1011 71 10000 13.89 230 18:51 18.01.2022
5827 Clouds 12 1011 71 10000 13.38 230 17:58 18.01.2022
5828 Clouds 11 1012 71 10000 13.89 230 16:50 18.01.2022
5829 Clouds 12 1011 71 10000 11.83 230 15:41 18.01.2022
5830 Clouds 12 1011 71 10000 11.83 230 15:21 18.01.2022
5831 Clouds 11 1013 71 10000 8.75 230 12:33 18.01.2022
5832 Clouds 9 1013 81 10000 13.89 230 10:47 18.01.2022
5833 Clouds 9 1012 81 10000 12.86 230 08:59 18.01.2022
5834 Clouds 9 1013 76 10000 12.86 230 07:51 18.01.2022
5835 Clouds 8 1013 71 10000 10.29 230 02:34 18.01.2022
5836 Clouds 8 1014 71 10000 10.29 230 23:38 17.01.2022
5837 Clouds 9 1014 61 10000 11.32 230 22:26 17.01.2022
5838 Clouds 9 1014 61 10000 10.29 230 21:34 17.01.2022
5839 Clouds 8 1015 66 10000 11.83 230 20:24 17.01.2022
5840 Clouds 8 1015 57 10000 11.32 230 18:30 17.01.2022
5841 Clouds 7 1015 65 10000 11.83 230 17:44 17.01.2022
5842 Clouds 7 1016 61 10000 12.35 230 16:40 17.01.2022
5843 Clouds 6 1016 70 10000 12.35 230 15:19 17.01.2022
5844 Clouds 6 1016 70 10000 12.35 230 14:55 17.01.2022
5845 Clouds 6 1016 70 10000 10.29 230 13:22 17.01.2022
5846 Clouds 5 1016 65 10000 11.32 230 12:55 17.01.2022
5847 Clouds 5 1016 65 10000 9.77 240 11:49 17.01.2022
5848 Clouds 4 1015 70 10000 8.75 240 10:21 17.01.2022
5849 Clouds 4 1015 70 10000 8.75 240 10:21 17.01.2022
5850 Clouds 4 1015 70 10000 8.75 240 09:34 17.01.2022
5851 Clouds 4 1015 75 10000 8.75 230 07:24 17.01.2022
5852 Clouds 4 1014 75 10000 8.23 250 02:59 17.01.2022
5853 Drizzle 4 1014 75 10000 6.17 200 00:55 17.01.2022
5854 Clouds 6 1013 61 10000 8.23 180 22:29 16.01.2022
5855 Clouds 5 1013 70 10000 3.6 200 20:36 16.01.2022
5856 Clouds 6 1013 61 10000 5.14 180 18:51 16.01.2022
5857 Clouds 6 1012 61 10000 10.8 140 17:59 16.01.2022
5858 Clouds 6 1012 61 10000 10.8 140 17:21 16.01.2022
5859 Clouds 5 1012 65 10000 7.72 140 16:33 16.01.2022
5860 Clouds 5 1010 70 10000 7.72 140 14:31 16.01.2022
5861 Drizzle 5 1009 75 10000 11.32 140 13:46 16.01.2022
5862 Drizzle 5 1007 81 10000 14.92 140 12:46 16.01.2022
5863 Rain 5 1005 81 9000 12.35 140 11:42 16.01.2022
5864 Rain 5 1004 81 9000 11.83 140 10:54 16.01.2022
5865 Rain 5 1004 81 9000 11.83 140 10:19 16.01.2022
5866 Rain 5 1003 87 9000 8.75 140 09:40 16.01.2022
5867 Rain 5 1003 87 9000 8.75 140 09:22 16.01.2022
5868 Rain 5 1000 87 9000 7.72 140 07:33 16.01.2022
5869 Clouds 4 992 93 10000 6.17 230 00:42 16.01.2022
5870 Rain 4 991 93 9000 6.69 230 23:40 15.01.2022
5871 Rain 6 990 87 8000 3.09 250 21:37 15.01.2022
5872 Rain 6 990 87 8000 3.09 250 21:19 15.01.2022
5873 Rain 6 990 81 8000 3.6 280 20:39 15.01.2022
5874 Rain 6 991 87 8000 2.06 320 19:29 15.01.2022
5875 Rain 6 992 87 8000 4.12 90 18:37 15.01.2022
5876 Rain 7 994 87 8000 2.06 320 16:57 15.01.2022
5877 Rain 7 994 70 8000 4.12 360 15:42 15.01.2022
5878 Drizzle 8 995 71 10000 5.66 90 13:39 15.01.2022
5879 Drizzle 7 997 70 10000 6.17 20 11:46 15.01.2022
5880 Clouds 7 998 65 10000 6.69 360 10:25 15.01.2022
5881 Clear 4 1001 87 10000 2.57 360 06:40 15.01.2022
5882 Clouds 9 1002 61 10000 2.06 70 23:49 14.01.2022
5883 Clouds 9 1002 49 10000 7.2 230 21:37 14.01.2022
5884 Clouds 9 1002 53 10000 9.26 240 20:37 14.01.2022
5885 Clouds 9 1002 49 10000 8.23 230 19:58 14.01.2022
5886 Rain 9 1002 49 10000 7.2 230 18:46 14.01.2022
5887 Clouds 10 1002 46 10000 8.23 230 17:54 14.01.2022
5888 Clouds 9 1002 49 10000 7.2 200 16:47 14.01.2022
5889 Clouds 8 1002 53 10000 3.6 200 15:33 14.01.2022
5890 Clouds 8 1002 53 10000 3.6 200 15:33 14.01.2022
5891 Clouds 7 1002 57 10000 5.14 200 14:30 14.01.2022
5892 Clouds 6 1002 65 10000 4.63 200 13:27 14.01.2022
5893 Clouds 5 1002 65 10000 7.72 230 12:24 14.01.2022
5894 Clouds 4 1002 70 10000 2.57 290 10:47 14.01.2022
5895 Clouds 1 1002 92 10000 0.84 292 08:54 14.01.2022
5896 Clouds 2 1002 93 10000 0.76 283 07:56 14.01.2022
5897 Clouds 7 1000 70 10000 8.75 230 03:50 14.01.2022
5898 Rain 8 998 66 10000 10.8 240 00:44 14.01.2022
5899 Clouds 10 998 57 10000 10.8 230 22:35 13.01.2022
5900 Clouds 10 997 57 10000 11.83 230 21:30 13.01.2022
5901 Clouds 9 997 66 10000 13.89 220 20:54 13.01.2022
5902 Clouds 12 997 50 10000 9.77 220 19:32 13.01.2022
5903 Clouds 12 998 50 10000 4.63 200 18:57 13.01.2022
5904 Clouds 11 998 54 10000 7.2 180 17:25 13.01.2022
5905 Clouds 11 999 50 10000 3.6 140 16:19 13.01.2022
5906 Clouds 10 999 53 10000 2.57 140 15:35 13.01.2022
5907 Clouds 8 1000 71 10000 2.06 140 13:47 13.01.2022
5908 Clouds 6 1000 61 10000 0 0 12:25 13.01.2022
5909 Clouds 1 1003 88 10000 2.22 337 09:38 13.01.2022
5910 Clouds 1 1003 91 10000 2.27 329 08:54 13.01.2022
5911 Clouds 1 1003 91 10000 2.16 326 08:24 13.01.2022
5912 Clouds 1 1002 90 10000 1.96 325 07:21 13.01.2022
5913 Clouds 1 1002 90 10000 1.87 318 05:57 13.01.2022
5914 Clouds 2 1002 90 10000 1.36 314 05:18 13.01.2022
5915 Clouds 7 999 65 10000 8.75 230 01:53 13.01.2022
5916 Clouds 7 998 70 10000 15.43 220 00:40 13.01.2022
5917 Clouds 8 997 61 10000 14.4 220 23:45 12.01.2022
5918 Clouds 11 995 40 10000 14.4 220 22:57 12.01.2022
5919 Clouds 11 994 43 10000 16.98 220 21:56 12.01.2022
5920 Clouds 11 994 43 10000 16.98 220 21:21 12.01.2022
5921 Clouds 11 994 43 10000 13.89 210 20:56 12.01.2022
5922 Clouds 9 993 66 10000 16.46 220 19:35 12.01.2022
5923 Clouds 10 992 50 10000 14.4 230 18:30 12.01.2022
5924 Clouds 9 996 61 10000 16.98 230 16:59 12.01.2022
5925 Clouds 9 996 61 10000 16.98 230 16:26 12.01.2022
5926 Clouds 8 988 71 10000 16.98 230 14:48 12.01.2022
5927 Drizzle 10 987 57 10000 10.29 270 12:58 12.01.2022
5928 Clouds 8 986 66 10000 0 0 10:38 12.01.2022
5929 Clouds 5 988 93 10000 3.36 336 08:37 12.01.2022
5930 Clouds 4 990 94 10000 3.23 348 07:34 12.01.2022
5931 Clouds 3 991 95 10000 2.93 359 06:49 12.01.2022
5932 Clouds 8 996 66 10000 10.29 200 23:31 11.01.2022
5933 Clouds 7 996 70 10000 12.86 200 22:49 11.01.2022
5934 Clouds 7 996 70 10000 12.86 200 22:21 11.01.2022
5935 Clouds 8 994 66 10000 16.98 230 20:51 11.01.2022
5936 Clouds 8 994 71 10000 16.46 230 19:45 11.01.2022
5937 Clouds 8 994 66 10000 15.43 230 18:31 11.01.2022
5938 Clouds 7 994 70 10000 13.89 230 17:24 11.01.2022
5939 Clouds 6 994 75 10000 17.49 230 16:37 11.01.2022
5940 Clouds 6 994 75 10000 7.72 230 15:35 11.01.2022
5941 Rain 4 994 81 8000 16.46 230 14:41 11.01.2022
5942 Rain 4 993 87 7000 12.35 230 13:55 11.01.2022
5943 Rain 4 993 87 7000 12.35 230 13:34 11.01.2022
5944 Rain 4 992 87 10000 9.26 230 12:42 11.01.2022
5945 Clouds 3 992 87 10000 9.26 230 11:40 11.01.2022
5946 Rain 3 990 97 3322 3.73 249 09:29 11.01.2022
5947 Rain 3 988 97 1753 3.37 244 06:37 11.01.2022
5948 Rain 5 984 81 10000 15.95 230 00:31 11.01.2022
5949 Rain 6 983 70 10000 14.92 230 23:41 10.01.2022
5950 Rain 9 982 53 10000 17.49 230 22:51 10.01.2022
5951 Rain 9 982 53 10000 17.49 230 22:19 10.01.2022
5952 Clouds 9 983 49 10000 8.23 230 21:54 10.01.2022
5953 Clouds 9 983 49 10000 8.23 230 21:20 10.01.2022
5954 Clouds 7 982 61 10000 8.23 250 20:56 10.01.2022
5955 Clouds 7 982 61 10000 8.23 250 20:28 10.01.2022
5956 Clouds 6 981 70 10000 11.83 250 19:42 10.01.2022
5957 Rain 6 981 70 10000 11.83 250 19:20 10.01.2022
5958 Drizzle 6 979 75 10000 18.01 230 18:48 10.01.2022
5959 Drizzle 7 979 70 10000 15.43 230 17:41 10.01.2022
5960 Drizzle 11 976 40 10000 11.32 230 16:42 10.01.2022
5961 Rain 8 976 76 10000 13.89 230 15:45 10.01.2022
5962 Rain 11 975 66 10000 7.2 230 14:30 10.01.2022
5963 Clouds 11 977 46 10000 8.75 270 11:58 10.01.2022
5964 Clouds 11 977 46 10000 8.75 270 11:25 10.01.2022
5965 Rain 6 981 90 10000 5.56 333 09:50 10.01.2022
5966 Rain 6 988 91 10000 3.77 335 07:18 10.01.2022
5967 Clouds 5 990 88 10000 3.1 343 05:49 10.01.2022
5968 Clouds 5 990 88 10000 3.1 343 05:49 10.01.2022
5969 Clouds 7 997 70 10000 0 0 01:30 10.01.2022
5970 Clouds 7 998 70 10000 3.6 230 00:25 10.01.2022
5971 Clouds 8 999 61 10000 4.63 230 23:40 09.01.2022
5972 Clouds 8 1000 61 10000 5.66 230 22:38 09.01.2022
5973 Clouds 8 1001 61 10000 6.69 230 21:46 09.01.2022
5974 Clouds 8 1001 61 10000 6.69 230 21:23 09.01.2022
5975 Clouds 8 1000 61 10000 9.77 230 20:52 09.01.2022
5976 Clouds 8 1000 61 10000 9.77 230 20:34 09.01.2022
5977 Clouds 9 1001 53 10000 10.29 230 19:45 09.01.2022
5978 Clouds 9 1001 53 10000 10.29 230 19:23 09.01.2022
5979 Clouds 9 1001 49 10000 12.86 230 18:56 09.01.2022
5980 Clouds 9 1001 49 10000 12.86 230 18:34 09.01.2022
5981 Clouds 8 1002 49 10000 11.83 230 17:40 09.01.2022
5982 Clouds 8 1002 49 10000 11.83 230 17:20 09.01.2022
5983 Clouds 8 1002 66 10000 11.83 230 15:58 09.01.2022
5984 Clouds 8 1002 66 10000 11.83 230 15:35 09.01.2022
5985 Drizzle 7 1002 81 10000 15.43 230 14:40 09.01.2022
5986 Clouds 7 1002 87 10000 11.32 230 13:51 09.01.2022
5987 Clouds 7 1002 87 10000 11.32 230 13:22 09.01.2022
5988 Clouds 7 1003 76 10000 3.09 270 11:54 09.01.2022
5989 Clouds 6 1002 75 10000 6.17 230 10:53 09.01.2022
5990 Rain 5 1002 97 447 0.6 286 09:50 09.01.2022
5991 Clouds 5 1002 93 10000 0.83 258 08:52 09.01.2022
5992 Clouds 4 1002 94 10000 1.57 300 05:38 09.01.2022
5993 Clouds 7 1001 81 10000 10.29 230 01:24 09.01.2022
5994 Clouds 10 1000 62 10000 9.26 230 23:47 08.01.2022
5995 Clouds 10 1000 62 10000 9.26 230 23:26 08.01.2022
5996 Clouds 10 999 57 10000 13.89 230 22:30 08.01.2022
5997 Clouds 11 997 46 10000 14.4 230 21:26 08.01.2022
5998 Clouds 12 996 40 10000 12.35 200 20:42 08.01.2022
5999 Clouds 12 996 40 10000 12.35 200 20:21 08.01.2022
6000 Clouds 11 994 43 10000 15.95 230 18:45 08.01.2022
6001 Clouds 10 992 50 10000 16.98 230 17:23 08.01.2022
6002 Drizzle 8 991 66 10000 15.43 230 15:58 08.01.2022
6003 Drizzle 8 992 71 10000 14.92 230 14:46 08.01.2022
6004 Clouds 10 989 46 10000 11.83 230 13:41 08.01.2022
6005 Clouds 10 987 43 10000 13.38 230 11:30 08.01.2022
6006 Clouds 10 986 46 10000 8.75 230 10:31 08.01.2022
6007 Clouds 11 985 50 10000 7.2 230 09:54 08.01.2022
6008 Clouds 11 985 50 10000 7.2 230 09:28 08.01.2022
6009 Clouds 9 988 81 10000 3.6 180 04:25 08.01.2022
6010 Rain 11 994 66 8000 7.2 360 00:58 08.01.2022
6011 Clouds 12 997 58 10000 4.12 360 22:54 07.01.2022
6012 Rain 13 999 50 10000 6.17 360 21:34 07.01.2022
6013 Rain 13 1000 50 10000 6.17 360 20:23 07.01.2022
6014 Clouds 13 1001 44 10000 2.06 90 19:26 07.01.2022
6015 Clouds 13 1001 44 10000 2.06 90 19:26 07.01.2022
6016 Clouds 13 1002 44 10000 2.57 50 18:45 07.01.2022
6017 Clouds 12 1003 50 10000 1.54 70 17:28 07.01.2022
6018 Clear 12 1004 54 10000 3.09 90 16:41 07.01.2022
6019 Clear 10 1006 66 10000 1.03 50 14:50 07.01.2022
6020 Clear 11 1007 54 10000 1.54 140 13:50 07.01.2022
6021 Clear 8 1008 76 10000 0 0 12:50 07.01.2022
6022 Clouds 4 1008 100 10000 4.12 360 09:48 07.01.2022
6023 Clouds 10 1005 50 10000 10.8 230 02:58 07.01.2022
6024 Clouds 10 1005 50 10000 10.8 230 02:21 07.01.2022
6025 Clear 11 1004 50 10000 11.32 230 01:45 07.01.2022
6026 Clear 11 1004 50 10000 11.32 230 01:23 07.01.2022
6027 Clear 12 1004 50 10000 11.32 230 00:28 07.01.2022
6028 Clouds 13 1000 62 10000 14.4 230 21:40 06.01.2022
6029 Clouds 14 998 62 10000 15.43 230 20:37 06.01.2022
6030 Clouds 14 997 67 10000 11.32 203 19:54 06.01.2022
6031 Clouds 14 997 67 10000 11.32 203 19:29 06.01.2022
6032 Clouds 14 997 77 10000 1.54 50 17:51 06.01.2022
6033 Clouds 14 997 77 10000 1.54 50 17:19 06.01.2022
6034 Clouds 12 996 76 10000 2.06 70 16:22 06.01.2022
6035 Clouds 12 996 71 10000 3.6 90 15:41 06.01.2022
6036 Clouds 12 996 71 10000 3.6 90 15:20 06.01.2022
6037 Rain 10 997 76 10000 4.12 110 14:19 06.01.2022
6038 Rain 9 998 66 10000 4.12 270 12:59 06.01.2022
6039 Clouds 8 999 85 10000 2.78 358 12:20 06.01.2022
6040 Rain 8 998 81 10000 3.6 270 11:29 06.01.2022
6041 Clouds 6 1000 87 10000 3.6 270 09:50 06.01.2022
6042 Clouds 5 1003 87 10000 2.24 358 05:55 06.01.2022
6043 Clouds 11 1000 50 10000 13.89 230 00:27 06.01.2022
6044 Clouds 12 999 50 10000 14.4 230 23:22 05.01.2022
6045 Clouds 12 998 50 10000 15.43 200 22:42 05.01.2022
6046 Clouds 12 998 50 10000 15.43 200 22:18 05.01.2022
6047 Clouds 13 997 47 10000 13.38 200 21:23 05.01.2022
6048 Clouds 12 996 50 10000 15.43 200 20:30 05.01.2022
6049 Clouds 12 996 54 10000 15.95 230 19:29 05.01.2022
6050 Clouds 12 996 54 10000 15.43 220 18:20 05.01.2022
6051 Clouds 11 995 58 10000 13.89 220 16:56 05.01.2022
6052 Clouds 11 995 58 10000 13.89 220 16:18 05.01.2022
6053 Clouds 9 995 66 10000 11.83 230 14:56 05.01.2022
6054 Clouds 9 995 61 10000 10.8 230 13:34 05.01.2022
6055 Clouds 8 996 61 10000 4.12 270 12:20 05.01.2022
6056 Clouds 5 996 70 10000 4.12 180 08:29 05.01.2022
6057 Clouds 3 999 93 10000 1.03 320 06:37 05.01.2022
6058 Clouds 5 1002 75 10000 9.77 230 01:24 05.01.2022
6059 Clouds 7 1002 49 10000 8.75 230 23:43 04.01.2022
6060 Clouds 7 1002 49 10000 8.75 230 23:21 04.01.2022
6061 Clouds 8 1001 49 10000 11.32 200 21:41 04.01.2022
6062 Clouds 8 1001 49 10000 10.8 200 20:42 04.01.2022
6063 Clouds 6 1001 61 10000 12.35 220 18:39 04.01.2022
6064 Clouds 6 1001 65 10000 10.8 230 17:30 04.01.2022
6065 Clouds 6 1001 61 10000 13.89 220 16:33 04.01.2022
6066 Rain 6 1000 65 10000 13.89 220 15:20 04.01.2022
6067 Rain 6 1000 52 10000 10.8 230 14:37 04.01.2022
6068 Rain 5 999 65 10000 12.86 220 13:55 04.01.2022
6069 Rain 5 998 70 10000 13.38 220 12:22 04.01.2022
6070 Rain 4 996 100 10000 19.55 230 10:23 04.01.2022
6071 Clouds 5 994 87 10000 11.83 230 08:57 04.01.2022
6072 Clouds 5 993 81 10000 11.32 230 06:28 04.01.2022
6073 Clouds 7 988 49 10000 11.83 230 00:43 04.01.2022
6074 Clouds 8 987 46 10000 8.75 230 23:56 03.01.2022
6075 Clouds 8 986 49 10000 13.38 230 22:22 03.01.2022
6076 Clouds 9 984 46 10000 11.32 200 21:39 03.01.2022
6077 Clouds 9 984 43 10000 12.35 200 20:41 03.01.2022
6078 Clouds 9 984 43 10000 13.38 200 19:38 03.01.2022
6079 Clouds 10 983 66 10000 11.83 200 18:31 03.01.2022
6080 Clouds 9 983 43 10000 12.86 200 17:21 03.01.2022
6081 Clouds 8 983 42 10000 12.35 230 16:53 03.01.2022
6082 Clouds 6 983 56 10000 11.83 230 14:32 03.01.2022
6083 Clouds 5 983 52 10000 11.32 230 12:53 03.01.2022
6084 Clouds 5 984 52 10000 12.35 230 11:50 03.01.2022
6085 Clouds 4 984 52 10000 8.75 230 10:52 03.01.2022
6086 Clouds 4 984 52 10000 4.63 230 09:28 03.01.2022
6087 Clouds 4 998 65 10000 12.35 230 07:54 03.01.2022
6088 Clouds 5 984 56 10000 8.23 230 03:22 03.01.2022
6089 Clouds 6 980 56 10000 17.49 200 23:32 02.01.2022
6090 Drizzle 5 980 70 10000 14.92 220 22:56 02.01.2022
6091 Drizzle 5 980 70 10000 14.92 220 22:20 02.01.2022
6092 Drizzle 5 979 70 10000 16.98 230 20:52 02.01.2022
6093 Drizzle 5 979 70 10000 16.98 230 20:30 02.01.2022
6094 Drizzle 5 979 70 10000 16.98 230 20:30 02.01.2022
6095 Clouds 7 977 57 10000 17.49 220 19:32 02.01.2022
6096 Clouds 7 975 53 10000 19.55 220 18:56 02.01.2022
6097 Clouds 7 975 53 10000 19.55 220 18:23 02.01.2022
6098 Drizzle 5 975 75 10000 19.55 220 17:42 02.01.2022
6099 Drizzle 5 975 75 10000 19.55 220 17:21 02.01.2022
6100 Drizzle 6 975 70 10000 18.52 230 16:28 02.01.2022
6101 Drizzle 6 973 61 10000 18.52 230 15:18 02.01.2022
6102 Drizzle 5 972 70 10000 15.95 230 13:38 02.01.2022
6103 Drizzle 5 971 70 10000 15.95 230 12:32 02.01.2022
6104 Clouds 5 972 75 10000 7.72 230 11:55 02.01.2022
6105 Clouds 5 970 75 9000 11.32 230 10:55 02.01.2022
6106 Rain 5 970 81 10000 12.86 230 09:58 02.01.2022
6107 Clouds 5 968 75 10000 15.43 230 07:35 02.01.2022
6108 Rain 7 966 70 10000 16.98 230 02:56 02.01.2022
6109 Rain 9 967 76 10000 8.23 350 23:50 01.01.2022
6110 Rain 9 967 76 10000 8.23 350 23:27 01.01.2022
6111 Rain 11 967 66 10000 3.6 230 22:25 01.01.2022
6112 Rain 12 967 58 10000 4.12 360 21:54 01.01.2022
6113 Rain 12 967 58 10000 4.12 360 21:36 01.01.2022
6114 Rain 11 968 62 10000 7.72 360 20:27 01.01.2022
6115 Rain 12 969 50 10000 6.17 360 19:36 01.01.2022
6116 Rain 13 969 44 10000 7.72 360 18:51 01.01.2022
6117 Drizzle 12 971 50 10000 7.2 360 17:41 01.01.2022
6118 Drizzle 13 972 47 10000 4.63 320 16:35 01.01.2022
6119 Drizzle 11 973 40 10000 5.66 360 15:42 01.01.2022
6120 Drizzle 10 975 46 10000 5.14 320 14:39 01.01.2022
6121 Drizzle 8 976 46 10000 5.66 360 13:41 01.01.2022
6122 Rain 6 979 88 10000 5.82 358 12:25 01.01.2022
6123 Drizzle 8 978 53 10000 6.69 360 11:26 01.01.2022
6124 Clouds 7 979 53 10000 7.2 320 10:58 01.01.2022
6125 Rain 8 980 46 10000 4.12 50 09:48 01.01.2022
6126 Clouds 7 981 70 10000 6.69 360 08:39 01.01.2022
6127 Clouds 8 982 46 10000 8.23 320 07:57 01.01.2022
6128 Clouds 8 982 46 10000 8.23 320 07:38 01.01.2022
6129 Clouds 6 982 81 10000 5.66 320 06:44 01.01.2022
6130 Clouds 6 983 70 10000 2.06 50 04:40 01.01.2022
6131 Rain 7 983 61 10000 3.09 230 03:52 01.01.2022
6132 Rain 9 982 53 10000 11.32 230 00:23 01.01.2022
6133 Rain 8 981 57 10000 13.38 220 22:30 31.12.2021
6134 Rain 8 980 71 10000 12.86 220 21:47 31.12.2021
6135 Rain 7 978 65 10000 15.43 230 19:48 31.12.2021
6136 Rain 7 978 65 10000 15.43 230 19:28 31.12.2021
6137 Rain 9 979 66 10000 6.17 200 18:18 31.12.2021
6138 Rain 9 978 61 10000 11.83 220 17:28 31.12.2021
6139 Rain 9 977 66 10000 13.38 230 16:52 31.12.2021
6140 Rain 9 977 66 10000 13.38 230 16:18 31.12.2021
6141 Rain 10 978 66 10000 9.26 230 15:50 31.12.2021
6142 Rain 10 978 66 10000 9.26 230 15:27 31.12.2021
6143 Rain 12 979 54 10000 2.57 50 14:41 31.12.2021
6144 Rain 12 979 58 10000 3.6 140 13:55 31.12.2021
6145 Clouds 10 980 62 10000 2.06 230 12:53 31.12.2021
6146 Clouds 10 980 62 10000 2.06 230 12:26 31.12.2021
6147 Clouds 9 980 71 10000 4.12 230 11:42 31.12.2021
6148 Drizzle 9 981 57 10000 4.12 230 10:56 31.12.2021
6149 Drizzle 9 981 57 10000 4.12 230 10:28 31.12.2021
6150 Clouds 10 981 62 10000 5.14 180 09:35 31.12.2021
6151 Clouds 10 982 57 10000 5.14 360 08:54 31.12.2021
6152 Clouds 10 982 57 10000 5.14 360 08:23 31.12.2021
6153 Clouds 9 984 57 10000 1.54 180 06:24 31.12.2021
6154 Clouds 13 989 44 10000 5.66 320 23:19 30.12.2021
6155 Clouds 13 989 50 10000 1.54 220 22:32 30.12.2021
6156 Clouds 13 990 47 10000 3.6 230 21:40 30.12.2021
6157 Clouds 13 990 47 10000 3.6 230 21:20 30.12.2021
6158 Clouds 13 990 47 10000 4.12 200 20:40 30.12.2021
6159 Clouds 14 990 41 10000 4.63 320 19:58 30.12.2021
6160 Clouds 14 990 41 10000 4.63 320 19:36 30.12.2021
6161 Clouds 15 990 44 10000 2.57 170 18:29 30.12.2021
6162 Clouds 14 990 47 10000 3.09 100 17:34 30.12.2021
6163 Rain 13 991 50 10000 3.6 180 15:55 30.12.2021
6164 Rain 13 991 50 10000 3.6 180 15:36 30.12.2021
6165 Clouds 12 991 50 10000 2.57 140 14:36 30.12.2021
6166 Clouds 11 992 54 10000 2.06 230 13:31 30.12.2021
6167 Clouds 9 992 66 10000 3.09 140 11:58 30.12.2021
6168 Clouds 7 992 53 10000 3.09 90 10:44 30.12.2021
6169 Clouds 6 992 65 10000 2.57 180 09:50 30.12.2021
6170 Clouds 6 992 65 10000 1.03 230 07:42 30.12.2021
6171 Clouds 6 993 65 10000 2.06 140 06:38 30.12.2021
6172 Clouds 6 993 56 10000 6.69 230 03:41 30.12.2021
6173 Clouds 7 992 81 10000 10.8 230 02:38 30.12.2021
6174 Rain 8 989 61 10000 13.38 230 23:41 29.12.2021
6175 Rain 8 988 71 10000 12.86 230 22:59 29.12.2021
6176 Rain 8 988 71 10000 12.86 230 22:18 29.12.2021
6177 Rain 9 987 71 10000 15.43 230 21:27 29.12.2021
6178 Rain 12 985 54 10000 12.86 230 20:31 29.12.2021
6179 Rain 12 984 58 10000 9.26 230 19:44 29.12.2021
6180 Rain 13 984 54 10000 3.09 0 18:47 29.12.2021
6181 Rain 10 985 71 10000 8.23 230 17:54 29.12.2021
6182 Rain 10 985 71 10000 8.23 230 17:27 29.12.2021
6183 Rain 10 984 71 10000 10.8 230 16:24 29.12.2021
6184 Rain 10 984 76 10000 10.8 230 15:45 29.12.2021
6185 Rain 10 984 87 10000 1.54 230 13:55 29.12.2021
6186 Rain 10 985 87 10000 2.57 180 12:37 29.12.2021
6187 Drizzle 10 986 81 10000 4.12 230 11:35 29.12.2021
6188 Rain 8 989 96 5443 3.74 4 09:58 29.12.2021
6189 Drizzle 12 992 54 10000 3.6 50 07:51 29.12.2021
6190 Drizzle 12 995 47 10000 8.23 320 06:38 29.12.2021
6191 Drizzle 12 995 47 10000 8.23 320 06:18 29.12.2021
6192 Clouds 12 996 40 10000 6.17 320 05:36 29.12.2021
6193 Rain 12 1000 50 10000 6.17 340 02:46 29.12.2021
6194 Clouds 13 1001 44 10000 3.09 340 00:23 29.12.2021
6195 Clouds 13 1002 44 10000 2.06 50 23:34 28.12.2021
6196 Clouds 13 1002 47 10000 1.54 140 22:42 28.12.2021
6197 Clouds 13 1002 47 10000 1.54 140 22:24 28.12.2021
6198 Clouds 13 1003 41 10000 1.54 210 21:37 28.12.2021
6199 Clouds 12 1004 40 10000 3.6 220 20:39 28.12.2021
6200 Clouds 12 1004 43 10000 4.63 230 19:24 28.12.2021
6201 Clouds 11 1004 54 10000 7.2 230 18:39 28.12.2021
6202 Clouds 10 1004 62 10000 7.2 230 17:59 28.12.2021
6203 Clouds 9 1004 66 10000 8.75 230 16:34 28.12.2021
6204 Rain 8 1004 71 10000 7.72 230 15:50 28.12.2021
6205 Rain 8 1004 71 10000 7.72 230 15:21 28.12.2021
6206 Rain 7 1004 76 10000 8.23 230 14:48 28.12.2021
6207 Rain 7 1004 76 10000 8.23 230 14:21 28.12.2021
6208 Drizzle 7 1003 76 10000 7.2 230 13:42 28.12.2021
6209 Drizzle 7 1003 76 10000 7.2 230 13:24 28.12.2021
6210 Rain 6 1003 75 10000 4.63 230 12:49 28.12.2021
6211 Drizzle 6 1003 75 10000 3.09 270 11:46 28.12.2021
6212 Clouds 6 1001 75 10000 2.57 250 08:35 28.12.2021
6213 Rain 5 1001 87 10000 6.17 230 06:42 28.12.2021
6214 Drizzle 7 997 76 10000 9.26 230 00:34 28.12.2021
6215 Drizzle 6 996 81 10000 7.2 230 23:24 27.12.2021
6216 Clouds 8 994 71 10000 10.29 230 21:42 27.12.2021
6217 Clouds 8 994 71 10000 10.29 230 21:21 27.12.2021
6218 Clouds 8 993 66 10000 13.38 230 20:24 27.12.2021
6219 Clouds 8 993 71 10000 14.4 230 19:42 27.12.2021
6220 Drizzle 8 992 71 10000 14.92 230 18:52 27.12.2021
6221 Drizzle 10 991 62 10000 16.46 230 17:49 27.12.2021
6222 Rain 11 991 58 10000 10.29 230 16:55 27.12.2021
6223 Rain 10 991 57 10000 7.2 230 15:52 27.12.2021
6224 Rain 8 992 71 10000 8.75 230 14:33 27.12.2021
6225 Rain 7 991 81 10000 6.17 230 13:40 27.12.2021
6226 Drizzle 6 991 87 10000 8.75 230 12:47 27.12.2021
6227 Drizzle 8 990 71 10000 6.17 230 10:32 27.12.2021
6228 Drizzle 8 990 76 10000 4.63 230 09:57 27.12.2021
6229 Drizzle 8 990 71 10000 4.63 230 08:39 27.12.2021
6230 Drizzle 8 991 76 10000 6.17 230 07:32 27.12.2021
6231 Clouds 11 995 46 10000 5.14 230 02:24 27.12.2021
6232 Clouds 12 995 47 10000 8.23 230 00:23 27.12.2021
6233 Clouds 13 995 47 10000 10.29 230 23:41 26.12.2021
6234 Clouds 14 994 44 10000 11.83 230 22:47 26.12.2021
6235 Clouds 13 994 44 10000 11.32 230 21:29 26.12.2021
6236 Clouds 14 993 38 10000 12.35 230 19:49 26.12.2021
6237 Clouds 14 993 41 10000 13.38 230 18:25 26.12.2021
6238 Clouds 14 994 38 10000 11.83 230 17:44 26.12.2021
6239 Clouds 13 993 54 10000 10.29 230 14:38 26.12.2021
6240 Rain 15 993 47 10000 5.14 270 13:43 26.12.2021
6241 Rain 15 993 47 10000 5.14 270 13:21 26.12.2021
6242 Rain 14 992 44 10000 10.29 290 12:34 26.12.2021
6243 Rain 14 992 44 10000 8.75 290 11:18 26.12.2021
6244 Rain 13 993 44 10000 7.2 290 09:30 26.12.2021
6245 Rain 12 994 50 10000 1.03 0 08:44 26.12.2021
6246 Clouds 12 994 50 10000 1.03 0 08:23 26.12.2021
6247 Clouds 13 996 44 10000 5.66 230 01:45 26.12.2021
6248 Clouds 14 996 44 10000 2.06 230 00:28 26.12.2021
6249 Clouds 15 997 44 10000 2.06 180 23:35 25.12.2021
6250 Clouds 13 997 44 10000 3.09 230 22:29 25.12.2021
6251 Clouds 14 997 47 10000 6.17 230 21:30 25.12.2021
6252 Clouds 14 997 47 10000 5.66 230 20:18 25.12.2021
6253 Clouds 14 998 47 10000 7.72 230 19:18 25.12.2021
6254 Clouds 14 997 51 10000 7.2 230 18:29 25.12.2021
6255 Clouds 13 998 62 10000 8.75 230 16:50 25.12.2021
6256 Clouds 13 998 62 10000 9.26 230 15:34 25.12.2021
6257 Clouds 12 997 66 10000 7.2 230 14:23 25.12.2021
6258 Clouds 11 997 71 10000 4.63 250 12:21 25.12.2021
6259 Clouds 10 997 76 10000 4.63 270 10:46 25.12.2021
6260 Clouds 10 996 71 10000 6.17 230 09:49 25.12.2021
6261 Clouds 10 996 71 10000 7.2 250 07:27 25.12.2021
6262 Clouds 17 997 45 10000 8.23 300 01:42 25.12.2021
6263 Clouds 17 997 48 10000 1.54 150 00:22 25.12.2021
6264 Clouds 17 999 42 10000 4.12 230 21:59 24.12.2021
6265 Clouds 14 999 54 10000 10.8 230 19:27 24.12.2021
6266 Clouds 14 1000 54 10000 8.23 230 18:56 24.12.2021
6267 Clouds 14 1000 58 10000 5.14 230 16:49 24.12.2021
6268 Clouds 15 1000 58 10000 5.14 230 15:52 24.12.2021
6269 Clouds 15 1000 58 10000 5.14 230 15:32 24.12.2021
6270 Clouds 14 1001 62 10000 5.14 230 14:35 24.12.2021
6271 Clouds 12 1001 82 10000 5.14 230 13:59 24.12.2021
6272 Clouds 12 1001 82 10000 5.14 230 13:32 24.12.2021
6273 Clouds 11 1001 87 10000 0 0 12:47 24.12.2021
6274 Drizzle 10 1001 93 10000 0 0 11:47 24.12.2021
6275 Drizzle 10 1001 93 10000 0 0 11:24 24.12.2021
6276 Clouds 10 1001 87 10000 0 0 10:45 24.12.2021
6277 Clouds 10 1001 87 10000 0 0 09:25 24.12.2021
6278 Clouds 10 1001 87 10000 1.54 50 08:19 24.12.2021
6279 Drizzle 9 1001 93 10000 1.54 140 07:44 24.12.2021
6280 Clouds 12 1001 76 10000 4.63 230 01:30 24.12.2021
6281 Clouds 13 1001 71 10000 6.69 230 23:55 23.12.2021
6282 Drizzle 14 1002 62 10000 7.2 230 22:54 23.12.2021
6283 Drizzle 14 1002 62 10000 7.2 230 22:27 23.12.2021
6284 Drizzle 14 1002 62 10000 7.72 230 21:59 23.12.2021
6285 Drizzle 14 1002 58 10000 5.66 230 20:54 23.12.2021
6286 Clouds 15 1002 51 10000 2.06 230 19:39 23.12.2021
6287 Clouds 16 1003 41 10000 1.54 90 18:34 23.12.2021
6288 Clear 15 1003 47 10000 2.06 230 17:55 23.12.2021
6289 Clear 14 1003 54 10000 4.63 230 16:43 23.12.2021
6290 Clear 14 1003 54 10000 4.63 230 16:23 23.12.2021
6291 Clear 12 1004 58 10000 5.66 230 15:31 23.12.2021
6292 Clear 12 1004 58 10000 5.66 230 15:31 23.12.2021
6293 Clouds 12 1004 62 10000 7.2 230 14:49 23.12.2021
6294 Clouds 12 1004 62 10000 7.2 230 14:30 23.12.2021
6295 Clear 12 1005 40 10000 5.66 270 12:53 23.12.2021
6296 Clouds 11 1004 40 10000 7.2 250 10:43 23.12.2021
6297 Clouds 11 1004 35 10000 7.2 250 09:35 23.12.2021
6298 Clouds 12 1004 32 10000 5.66 270 08:59 23.12.2021
6299 Clouds 12 1003 32 10000 8.75 250 06:51 23.12.2021
6300 Clouds 12 1003 40 10000 9.26 230 04:30 23.12.2021
6301 Clouds 15 1004 47 10000 6.69 230 22:57 22.12.2021
6302 Clouds 15 1004 47 10000 6.69 230 22:39 22.12.2021
6303 Clouds 15 1005 44 10000 6.69 230 21:54 22.12.2021
6304 Clouds 15 1005 44 10000 6.69 230 21:29 22.12.2021
6305 Clear 15 1006 41 10000 8.75 230 20:44 22.12.2021
6306 Clear 15 1006 41 10000 8.75 230 20:25 22.12.2021
6307 Clear 14 1006 44 10000 8.23 230 19:19 22.12.2021
6308 Clear 12 1008 58 10000 8.75 230 17:42 22.12.2021
6309 Clear 13 1009 50 10000 8.75 230 16:38 22.12.2021
6310 Clear 12 1009 50 10000 9.26 230 15:39 22.12.2021
6311 Clouds 11 1009 54 10000 10.29 230 13:32 22.12.2021
6312 Clouds 10 1009 57 10000 10.8 230 12:39 22.12.2021
6313 Clouds 8 1007 71 10000 15.43 230 09:54 22.12.2021
6314 Clouds 8 1007 71 10000 15.43 230 09:35 22.12.2021
6315 Clouds 9 1005 76 10000 18.01 230 07:25 22.12.2021
6316 Clouds 8 1003 81 10000 14.92 230 05:42 22.12.2021
6317 Clouds 8 1003 81 10000 14.92 230 05:24 22.12.2021
6318 Clouds 9 1002 76 10000 14.4 230 04:49 22.12.2021
6319 Clouds 9 1002 76 10000 14.4 230 04:24 22.12.2021
6320 Clouds 9 1000 76 10000 15.95 230 03:32 22.12.2021
6321 Clouds 10 997 71 10000 17.49 230 00:33 22.12.2021
6322 Clouds 11 995 66 10000 16.98 220 22:52 21.12.2021
6323 Clouds 11 995 66 10000 16.98 220 22:28 21.12.2021
6324 Clouds 12 995 62 10000 17.49 220 21:44 21.12.2021
6325 Rain 12 994 62 10000 16.98 230 20:55 21.12.2021
6326 Clouds 12 994 62 10000 16.98 230 20:21 21.12.2021
6327 Clouds 13 993 62 10000 18.52 230 19:42 21.12.2021
6328 Clouds 13 992 62 10000 15.95 230 18:46 21.12.2021
6329 Clouds 13 992 62 10000 15.95 230 18:21 21.12.2021
6330 Clouds 12 994 66 10000 13.38 230 17:41 21.12.2021
6331 Clouds 11 995 62 10000 11.32 240 15:59 21.12.2021
6332 Clouds 11 995 62 10000 11.32 240 15:20 21.12.2021
6333 Clouds 10 996 57 10000 13.89 220 13:50 21.12.2021
6334 Clouds 10 996 57 10000 13.89 220 13:30 21.12.2021
6335 Clouds 9 997 61 10000 15.95 220 11:49 21.12.2021
6336 Clouds 8 997 61 10000 15.43 230 10:24 21.12.2021
6337 Clouds 8 996 66 10000 16.46 230 09:23 21.12.2021
6338 Clouds 8 995 71 10000 21.61 230 07:58 21.12.2021
6339 Clouds 8 995 71 10000 21.61 230 07:27 21.12.2021
6340 Clouds 8 996 71 10000 15.95 230 05:31 21.12.2021
6341 Clouds 8 994 76 10000 14.92 230 02:51 21.12.2021
6342 Clouds 10 990 71 10000 16.98 230 23:59 20.12.2021
6343 Clouds 10 990 71 10000 16.98 230 23:29 20.12.2021
6344 Clouds 11 990 62 10000 16.98 230 22:30 20.12.2021
6345 Clouds 10 991 62 10000 17.49 230 21:47 20.12.2021
6346 Rain 10 991 62 10000 17.49 230 21:23 20.12.2021
6347 Rain 10 990 66 10000 17.49 230 20:44 20.12.2021
6348 Rain 10 990 62 10000 16.46 230 19:53 20.12.2021
6349 Rain 10 990 62 10000 16.46 230 19:31 20.12.2021
6350 Drizzle 11 991 66 10000 14.92 230 18:54 20.12.2021
6351 Drizzle 11 992 58 10000 14.92 230 17:52 20.12.2021
6352 Drizzle 11 992 58 10000 14.92 230 17:25 20.12.2021
6353 Rain 11 993 66 10000 4.12 270 16:40 20.12.2021
6354 Rain 10 993 66 10000 6.17 230 15:51 20.12.2021
6355 Rain 9 994 76 10000 8.23 230 14:51 20.12.2021
6356 Rain 7 995 76 10000 1.54 270 12:53 20.12.2021
6357 Rain 6 996 87 10000 2.06 50 11:19 20.12.2021
6358 Drizzle 5 998 75 10000 2.06 340 09:47 20.12.2021
6359 Drizzle 5 998 75 10000 2.06 340 09:29 20.12.2021
6360 Drizzle 5 999 75 10000 1.54 10 08:42 20.12.2021
6361 Drizzle 5 1000 70 10000 1.54 0 07:50 20.12.2021
6362 Drizzle 5 1000 70 10000 1.54 0 07:29 20.12.2021
6363 Drizzle 4 1004 75 10000 3.09 320 04:24 20.12.2021
6364 Rain 3 1007 87 10000 3.09 230 23:58 19.12.2021
6365 Drizzle 4 1006 81 10000 8.23 230 22:45 19.12.2021
6366 Drizzle 6 1006 87 10000 8.23 230 21:50 19.12.2021
6367 Drizzle 6 1006 87 10000 8.23 230 21:29 19.12.2021
6368 Drizzle 8 1004 71 10000 9.77 230 20:31 19.12.2021
6369 Drizzle 8 1004 71 10000 9.77 230 19:49 19.12.2021
6370 Drizzle 8 1004 71 10000 9.77 230 19:22 19.12.2021
6371 Drizzle 6 1003 70 10000 12.35 230 18:29 19.12.2021
6372 Drizzle 6 1003 70 10000 12.35 230 18:29 19.12.2021
6373 Rain 9 1002 46 10000 15.95 230 17:52 19.12.2021
6374 Clouds 9 1002 46 10000 9.26 230 17:19 19.12.2021
6375 Clouds 7 1004 70 10000 9.26 230 16:26 19.12.2021
6376 Drizzle 6 1004 75 10000 12.35 230 15:42 19.12.2021
6377 Drizzle 6 1004 75 10000 12.35 230 15:20 19.12.2021
6378 Drizzle 6 1004 56 10000 13.38 230 14:41 19.12.2021
6379 Drizzle 6 1004 56 10000 13.89 230 13:22 19.12.2021
6380 Clouds 6 1004 56 10000 11.83 230 12:42 19.12.2021
6381 Clouds 6 1004 56 10000 11.83 230 12:18 19.12.2021
6382 Clouds 6 1003 56 10000 10.8 230 11:19 19.12.2021
6383 Clouds 6 1002 52 10000 16.46 230 10:25 19.12.2021
6384 Drizzle 6 1002 75 10000 15.43 230 09:41 19.12.2021
6385 Rain 7 1001 76 10000 13.89 230 08:25 19.12.2021
6386 Rain 11 999 82 10000 14.4 230 04:45 19.12.2021
6387 Rain 11 999 82 10000 14.4 230 04:45 19.12.2021
6388 Clouds 15 1000 58 10000 11.32 230 01:22 19.12.2021
6389 Clouds 17 1000 51 10000 10.8 230 00:52 19.12.2021
6390 Clouds 18 1002 45 10000 7.72 230 22:36 18.12.2021
6391 Clear 18 1003 48 10000 5.14 220 21:57 18.12.2021
6392 Clear 18 1003 48 10000 5.14 220 21:35 18.12.2021
6393 Clear 21 1005 37 10000 2.57 190 20:44 18.12.2021
6394 Clear 20 1006 42 10000 3.6 180 19:59 18.12.2021
6395 Clear 20 1006 42 10000 3.6 180 19:20 18.12.2021
6396 Clear 19 1008 52 10000 2.06 180 18:21 18.12.2021
6397 Clouds 19 1009 52 10000 2.57 80 17:48 18.12.2021
6398 Clear 17 1011 55 10000 0 0 16:26 18.12.2021
6399 Clear 15 1012 63 10000 0 0 15:27 18.12.2021
6400 Clear 13 1013 67 10000 0 0 14:38 18.12.2021
6401 Clear 11 1014 76 10000 0 0 13:21 18.12.2021
6402 Clear 10 1016 87 10000 0 0 11:22 18.12.2021
6403 Clouds 8 1017 87 10000 0 0 09:40 18.12.2021
6404 Clear 8 1017 87 10000 2.57 320 08:47 18.12.2021
6405 Clear 8 1017 87 10000 2.57 320 08:23 18.12.2021
6406 Clouds 10 1019 76 10000 5.66 230 03:42 18.12.2021
6407 Clouds 11 1017 76 10000 9.77 230 00:29 18.12.2021
6408 Clouds 12 1017 71 10000 9.26 230 23:44 17.12.2021
6409 Clouds 14 1016 62 10000 5.66 210 21:57 17.12.2021
6410 Clouds 14 1016 62 10000 5.66 210 21:18 17.12.2021
6411 Clouds 14 1016 62 10000 7.2 230 20:38 17.12.2021
6412 Clouds 14 1016 67 10000 5.66 220 19:24 17.12.2021
6413 Clouds 15 1015 63 10000 3.09 190 18:38 17.12.2021
6414 Clouds 14 1015 72 10000 1.54 160 17:31 17.12.2021
6415 Clouds 11 1015 87 10000 0 0 16:46 17.12.2021
6416 Clouds 11 1015 87 10000 0 0 16:22 17.12.2021
6417 Clouds 9 1015 93 10000 0 0 15:25 17.12.2021
6418 Clouds 8 1014 100 10000 0 0 14:40 17.12.2021
6419 Clouds 8 1013 100 10000 0 0 12:47 17.12.2021
6420 Clouds 8 1013 93 10000 0 0 11:46 17.12.2021
6421 Clouds 7 1012 100 10000 0 0 10:37 17.12.2021
6422 Clouds 7 1012 93 10000 1.54 90 09:33 17.12.2021
6423 Rain 7 1011 93 10000 2.06 90 08:30 17.12.2021
6424 Clouds 7 1011 100 10000 1.03 90 06:22 17.12.2021
6425 Drizzle 8 1010 87 10000 3.09 230 02:53 17.12.2021
6426 Clouds 11 1008 46 10000 9.77 230 23:25 16.12.2021
6427 Clouds 12 1008 40 10000 10.8 230 22:24 16.12.2021
6428 Clouds 12 1008 40 10000 10.8 230 22:24 16.12.2021
6429 Clouds 12 1008 40 10000 10.8 230 22:24 16.12.2021
6430 Clouds 12 1008 40 10000 10.8 230 22:24 16.12.2021
6431 Clouds 12 1008 40 10000 10.8 230 22:23 16.12.2021
6432 Clouds 12 1008 40 10000 10.8 230 22:23 16.12.2021
6433 Clouds 12 1008 40 10000 10.29 230 21:44 16.12.2021
6434 Clouds 13 1008 41 10000 11.83 230 20:55 16.12.2021
6435 Clouds 13 1008 41 10000 11.83 230 20:27 16.12.2021
6436 Clouds 13 1008 44 10000 10.8 230 19:33 16.12.2021
6437 Clear 12 1008 47 10000 11.32 230 18:37 16.12.2021
6438 Clear 11 1007 46 10000 12.86 230 17:48 16.12.2021
6439 Clouds 11 1008 43 10000 12.35 230 16:44 16.12.2021
6440 Clouds 11 1008 43 10000 12.35 230 16:18 16.12.2021
6441 Clouds 9 1007 49 10000 14.92 230 14:32 16.12.2021
6442 Clouds 8 1006 57 10000 16.46 210 12:34 16.12.2021
6443 Clouds 7 1005 61 10000 13.89 220 11:19 16.12.2021
6444 Clouds 7 1005 61 10000 13.89 220 11:19 16.12.2021
6445 Clouds 5 1004 75 10000 18.01 230 10:45 16.12.2021
6446 Clouds 6 1004 75 10000 15.95 230 09:51 16.12.2021
6447 Clouds 6 1000 75 10000 19.03 230 07:19 16.12.2021
6448 Clouds 7 999 61 10000 21.09 230 06:19 16.12.2021
6449 Clouds 11 994 62 10000 18.01 220 00:44 16.12.2021
6450 Clouds 12 995 62 10000 14.4 230 23:21 15.12.2021
6451 Clouds 12 995 62 10000 14.4 230 22:22 15.12.2021
6452 Clouds 13 995 62 10000 14.92 230 21:46 15.12.2021
6453 Clouds 13 995 62 10000 14.92 230 21:26 15.12.2021
6454 Clouds 12 996 66 10000 12.86 230 19:55 15.12.2021
6455 Clouds 12 996 66 10000 12.86 230 19:19 15.12.2021
6456 Clouds 12 997 66 10000 8.23 250 18:26 15.12.2021
6457 Rain 11 998 76 10000 3.6 320 17:47 15.12.2021
6458 Rain 11 998 76 10000 3.6 320 17:27 15.12.2021
6459 Drizzle 11 999 76 10000 4.12 230 16:25 15.12.2021
6460 Drizzle 9 1000 81 10000 5.14 230 15:42 15.12.2021
6461 Drizzle 9 1000 81 10000 5.14 230 15:24 15.12.2021
6462 Drizzle 10 1002 66 10000 4.12 230 13:58 15.12.2021
6463 Clouds 9 1002 61 10000 8.23 230 11:57 15.12.2021
6464 Clouds 10 1002 57 10000 9.77 230 10:23 15.12.2021
6465 Clouds 10 1002 57 10000 9.26 250 08:34 15.12.2021
6466 Clouds 9 1003 66 10000 10.29 230 05:59 15.12.2021
6467 Clouds 11 1002 58 10000 11.83 220 00:47 15.12.2021
6468 Clouds 11 1002 58 10000 12.35 220 23:41 14.12.2021
6469 Clouds 12 1002 50 10000 11.83 230 22:47 14.12.2021
6470 Clouds 12 1002 50 10000 14.4 230 21:48 14.12.2021
6471 Clouds 13 1001 47 10000 13.89 220 20:26 14.12.2021
6472 Clouds 13 1002 47 10000 11.32 220 19:40 14.12.2021
6473 Clouds 13 1002 47 10000 8.75 230 18:42 14.12.2021
6474 Clouds 13 1003 44 10000 9.77 220 17:58 14.12.2021
6475 Clouds 13 1003 44 10000 9.77 220 17:27 14.12.2021
6476 Clouds 12 1004 47 10000 8.75 230 16:38 14.12.2021
6477 Clouds 11 1005 62 10000 3.09 230 14:52 14.12.2021
6478 Clouds 10 1006 62 10000 1.54 360 13:31 14.12.2021
6479 Clear 8 1006 61 10000 4.12 320 11:57 14.12.2021
6480 Clear 8 1006 61 10000 4.12 320 11:23 14.12.2021
6481 Clear 4 1006 81 10000 4.63 320 09:56 14.12.2021
6482 Clear 4 1006 81 10000 4.63 320 09:34 14.12.2021
6483 Clouds 2 1008 93 10000 2.09 329 08:23 14.12.2021
6484 Clouds 5 1007 75 10000 4.63 340 07:43 14.12.2021
6485 Clouds 7 1006 70 10000 8.23 230 02:25 14.12.2021
6486 Drizzle 8 1004 61 10000 8.75 230 22:50 13.12.2021
6487 Drizzle 9 1003 57 10000 10.29 230 21:52 13.12.2021
6488 Drizzle 9 1002 57 10000 10.29 230 20:59 13.12.2021
6489 Drizzle 9 1002 57 10000 10.29 230 20:34 13.12.2021
6490 Drizzle 9 1002 57 10000 8.23 230 19:52 13.12.2021
6491 Drizzle 8 1002 61 10000 4.63 180 17:56 13.12.2021
6492 Rain 8 1002 61 10000 4.63 180 17:24 13.12.2021
6493 Clouds 7 1002 61 10000 6.17 230 15:50 13.12.2021
6494 Clouds 7 1002 61 10000 6.17 230 15:19 13.12.2021
6495 Clouds 6 1001 65 10000 7.2 230 13:38 13.12.2021
6496 Clouds 6 1001 61 10000 7.72 230 12:42 13.12.2021
6497 Clouds 5 1001 70 10000 8.75 230 11:54 13.12.2021
6498 Clouds 5 1001 70 10000 8.75 230 11:35 13.12.2021
6499 Clouds 5 1000 65 10000 3.09 270 10:43 13.12.2021
6500 Clouds 3 1000 81 10000 3.09 270 08:57 13.12.2021
6501 Clouds 3 1000 87 10000 2.57 270 07:46 13.12.2021
6502 Clouds 1 1001 94 10000 1.28 258 05:35 13.12.2021
6503 Clouds 7 997 53 10000 12.35 230 00:43 13.12.2021
6504 Drizzle 6 995 61 10000 12.86 230 22:22 12.12.2021
6505 Drizzle 7 994 61 10000 10.8 230 21:38 12.12.2021
6506 Drizzle 8 992 71 10000 13.38 230 19:47 12.12.2021
6507 Clouds 8 991 71 10000 10.8 230 18:35 12.12.2021
6508 Drizzle 8 989 71 10000 15.43 230 17:26 12.12.2021
6509 Rain 8 989 71 10000 14.4 230 16:27 12.12.2021
6510 Rain 8 988 76 10000 14.92 230 15:45 12.12.2021
6511 Rain 8 988 76 10000 14.92 230 15:25 12.12.2021
6512 Rain 8 988 76 10000 11.83 230 14:34 12.12.2021
6513 Rain 8 989 93 10000 8.75 230 13:22 12.12.2021
6514 Rain 8 989 93 10000 8.23 230 12:27 12.12.2021
6515 Rain 9 990 87 10000 4.63 230 11:44 12.12.2021
6516 Clouds 9 990 87 10000 4.63 230 11:20 12.12.2021
6517 Clouds 9 990 87 10000 4.63 230 10:22 12.12.2021
6518 Clouds 9 991 87 10000 6.69 230 08:58 12.12.2021
6519 Clouds 9 992 87 10000 3.09 250 07:32 12.12.2021
6520 Clouds 10 994 76 10000 2.57 190 05:57 12.12.2021
6521 Clouds 10 996 81 10000 3.09 230 04:56 12.12.2021
6522 Clouds 11 996 76 10000 3.6 270 03:27 12.12.2021
6523 Clouds 14 998 62 10000 1.54 190 23:39 11.12.2021
6524 Clouds 16 998 51 10000 2.06 140 22:22 11.12.2021
6525 Clouds 17 999 45 10000 1.54 90 21:51 11.12.2021
6526 Clouds 18 1000 42 10000 2.57 70 20:51 11.12.2021
6527 Clouds 16 1001 51 10000 3.09 70 19:23 11.12.2021
6528 Clouds 17 1002 48 10000 4.12 70 18:52 11.12.2021
6529 Clouds 17 1002 48 10000 4.12 70 18:19 11.12.2021
6530 Clouds 16 1003 48 10000 4.63 70 17:20 11.12.2021
6531 Clouds 15 1004 51 10000 3.6 70 15:53 11.12.2021
6532 Clouds 15 1004 51 10000 3.6 70 15:27 11.12.2021
6533 Clouds 10 1006 81 10000 1.54 230 12:50 11.12.2021
6534 Clouds 10 1006 81 10000 1.54 230 12:50 11.12.2021
6535 Clouds 9 1006 87 10000 1.54 230 11:25 11.12.2021
6536 Clouds 8 1007 87 10000 1.54 270 09:45 11.12.2021
6537 Clouds 8 1008 87 10000 1.03 270 08:23 11.12.2021
6538 Clouds 8 1010 87 10000 7.2 90 02:23 11.12.2021
6539 Clouds 10 1009 76 10000 7.72 70 23:58 10.12.2021
6540 Clouds 10 1009 76 10000 7.72 70 23:20 10.12.2021
6541 Clouds 12 1009 62 10000 2.57 230 21:56 10.12.2021
6542 Clouds 12 1009 62 10000 2.57 230 21:28 10.12.2021
6543 Clouds 13 1009 58 10000 5.14 230 19:21 10.12.2021
6544 Clouds 13 1009 62 10000 6.17 230 18:19 10.12.2021
6545 Clouds 11 1010 71 10000 2.06 180 16:56 10.12.2021
6546 Clouds 11 1010 71 10000 2.06 180 16:28 10.12.2021
6547 Clouds 11 1010 76 10000 2.06 180 15:40 10.12.2021
6548 Clouds 11 1010 76 10000 2.06 180 15:21 10.12.2021
6549 Clouds 9 1010 87 10000 2.57 360 13:51 10.12.2021
6550 Clouds 9 1010 87 10000 2.57 360 13:26 10.12.2021
6551 Clouds 9 1010 76 10000 2.06 360 12:39 10.12.2021
6552 Clouds 8 1010 81 10000 2.06 90 11:28 10.12.2021
6553 Clouds 7 1010 81 10000 1.03 30 10:37 10.12.2021
6554 Clouds 7 1010 81 10000 3.6 330 08:57 10.12.2021
6555 Clouds 8 1011 71 10000 2.06 350 06:50 10.12.2021
6556 Clouds 12 1010 50 10000 7.72 240 02:48 10.12.2021
6557 Clouds 12 1010 50 10000 7.72 240 02:48 10.12.2021
6558 Clouds 13 1010 47 10000 9.77 230 00:38 10.12.2021
6559 Clouds 14 1009 44 10000 12.35 230 23:22 09.12.2021
6560 Clouds 15 1009 38 10000 10.29 230 22:26 09.12.2021
6561 Clouds 15 1008 44 10000 11.32 230 21:59 09.12.2021
6562 Clouds 15 1008 44 10000 11.32 230 21:18 09.12.2021
6563 Clouds 15 1008 44 10000 12.35 230 20:28 09.12.2021
6564 Clouds 15 1008 44 10000 11.32 230 19:21 09.12.2021
6565 Clouds 15 1009 47 10000 10.8 230 18:48 09.12.2021
6566 Clouds 14 1009 51 10000 11.32 230 17:56 09.12.2021
6567 Clouds 14 1009 51 10000 11.32 230 17:26 09.12.2021
6568 Clouds 14 1009 54 10000 11.32 230 16:55 09.12.2021
6569 Clouds 14 1008 58 10000 10.8 230 15:57 09.12.2021
6570 Clouds 14 1008 58 10000 8.75 230 14:50 09.12.2021
6571 Clouds 17 1008 45 10000 4.63 230 13:25 09.12.2021
6572 Clouds 18 1007 48 10000 5.66 270 12:42 09.12.2021
6573 Clouds 17 1007 45 10000 7.72 320 11:24 09.12.2021
6574 Clouds 16 1006 41 10000 8.75 320 09:44 09.12.2021
6575 Clouds 13 1008 50 10000 4.63 360 06:51 09.12.2021
6576 Clouds 12 1012 58 10000 8.23 340 03:43 09.12.2021
6577 Clouds 14 1015 35 10000 11.32 320 23:45 08.12.2021
6578 Clouds 14 1015 35 10000 11.32 320 23:21 08.12.2021
6579 Clear 13 1016 38 10000 6.69 320 22:49 08.12.2021
6580 Clear 13 1016 44 10000 2.06 180 21:46 08.12.2021
6581 Clear 13 1016 44 10000 2.06 180 21:28 08.12.2021
6582 Clear 14 1017 30 10000 6.69 320 20:18 08.12.2021
6583 Clear 14 1019 33 10000 0 0 19:37 08.12.2021
6584 Clear 13 1019 35 10000 4.12 360 18:53 08.12.2021
6585 Clear 11 1020 46 10000 5.66 360 17:47 08.12.2021
6586 Clouds 10 1021 50 10000 1.54 140 15:58 08.12.2021
6587 Clouds 10 1021 50 10000 1.54 140 15:29 08.12.2021
6588 Clear 9 1022 57 10000 1.03 180 14:50 08.12.2021
6589 Clear 8 1022 57 10000 2.57 50 12:32 08.12.2021
6590 Clear 4 1022 65 10000 3.6 340 10:32 08.12.2021
6591 Clear 4 1022 60 10000 2.57 340 09:30 08.12.2021
6592 Clear 4 1021 65 10000 4.12 340 07:34 08.12.2021
6593 Clouds 6 1019 56 10000 4.12 250 04:58 08.12.2021
6594 Clouds 8 1012 53 10000 10.29 230 23:48 07.12.2021
6595 Clouds 8 1010 53 10000 8.75 230 22:27 07.12.2021
6596 Drizzle 5 1009 65 10000 8.23 230 21:24 07.12.2021
6597 Drizzle 6 1007 61 10000 13.38 230 20:24 07.12.2021
6598 Clouds 8 1004 71 10000 8.75 230 18:56 07.12.2021
6599 Clouds 8 1004 71 10000 8.75 230 18:18 07.12.2021
6600 Clouds 8 1001 71 10000 13.89 230 17:20 07.12.2021
6601 Clouds 8 1001 61 10000 11.32 210 16:36 07.12.2021
6602 Drizzle 7 999 57 10000 13.38 210 15:35 07.12.2021
6603 Drizzle 7 999 65 10000 14.4 220 14:36 07.12.2021
6604 Clouds 8 998 57 10000 8.75 210 13:18 07.12.2021
6605 Clouds 7 998 61 10000 8.75 260 12:21 07.12.2021
6606 Rain 6 995 81 10000 14.4 230 10:44 07.12.2021
6607 Rain 8 992 66 10000 12.35 230 08:46 07.12.2021
6608 Clouds 9 991 66 10000 10.8 230 06:22 07.12.2021
6609 Drizzle 9 991 81 10000 6.69 230 05:42 07.12.2021
6610 Clouds 14 991 44 10000 2.57 230 00:54 07.12.2021
6611 Clouds 14 991 44 10000 7.72 290 23:18 06.12.2021
6612 Clouds 15 991 41 10000 10.8 320 22:39 06.12.2021
6613 Clouds 14 992 47 10000 7.72 290 21:54 06.12.2021
6614 Clouds 13 994 54 10000 9.77 340 20:44 06.12.2021
6615 Rain 13 994 54 10000 9.77 340 20:26 06.12.2021
6616 Rain 11 996 58 10000 10.29 340 19:23 06.12.2021
6617 Drizzle 9 997 61 10000 10.29 340 18:29 06.12.2021
6618 Drizzle 7 999 70 10000 10.8 340 17:52 06.12.2021
6619 Drizzle 7 1002 70 10000 7.72 10 16:56 06.12.2021
6620 Drizzle 7 1003 65 10000 6.69 10 15:49 06.12.2021
6621 Clouds 7 1007 65 10000 2.57 90 13:47 06.12.2021
6622 Clear 7 1009 76 10000 1.54 60 12:40 06.12.2021
6623 Clear 6 1010 65 10000 0.51 0 11:54 06.12.2021
6624 Clouds 4 1013 70 10000 1.54 320 09:35 06.12.2021
6625 Clouds 6 1013 65 10000 5.66 270 06:59 06.12.2021
6626 Clouds 9 1010 53 10000 11.32 230 00:33 06.12.2021
6627 Drizzle 8 1008 71 10000 13.89 230 21:53 05.12.2021
6628 Drizzle 8 1008 71 10000 13.89 230 21:25 05.12.2021
6629 Drizzle 8 1007 71 10000 8.23 230 20:20 05.12.2021
6630 Drizzle 8 1005 71 10000 14.92 230 19:57 05.12.2021
6631 Drizzle 8 1005 71 10000 14.92 230 19:22 05.12.2021
6632 Clouds 8 1006 71 10000 8.23 230 18:25 05.12.2021
6633 Drizzle 9 1006 66 10000 10.29 230 17:49 05.12.2021
6634 Clouds 9 1006 66 10000 11.32 230 16:57 05.12.2021
6635 Clouds 9 1006 66 10000 11.32 230 16:28 05.12.2021
6636 Clouds 9 1005 66 10000 9.26 230 15:58 05.12.2021
6637 Rain 9 1006 66 10000 9.26 230 14:45 05.12.2021
6638 Rain 9 1006 66 10000 9.26 230 14:27 05.12.2021
6639 Rain 8 1005 71 10000 7.72 230 13:28 05.12.2021
6640 Rain 6 1006 87 5000 9.26 230 12:40 05.12.2021
6641 Rain 6 1006 87 5000 9.26 230 12:21 05.12.2021
6642 Rain 7 1004 76 10000 4.12 200 11:37 05.12.2021
6643 Rain 7 1004 76 10000 6.69 220 10:21 05.12.2021
6644 Clouds 8 1004 61 10000 1.03 290 08:50 05.12.2021
6645 Clouds 8 1004 61 10000 8.75 220 04:56 05.12.2021
6646 Clouds 10 1002 53 10000 9.77 230 01:23 05.12.2021
6647 Clouds 12 1001 50 10000 9.77 230 22:32 04.12.2021
6648 Clouds 16 1000 33 10000 9.26 230 21:36 04.12.2021
6649 Clouds 17 1001 29 10000 5.14 270 20:40 04.12.2021
6650 Clouds 17 1001 29 10000 7.72 320 19:33 04.12.2021
6651 Clouds 17 1001 27 10000 6.17 320 18:43 04.12.2021
6652 Clouds 15 1002 31 10000 6.69 270 17:47 04.12.2021
6653 Clouds 15 1002 31 10000 6.69 270 17:20 04.12.2021
6654 Clouds 15 1002 29 10000 8.23 290 16:46 04.12.2021
6655 Clouds 15 1002 29 10000 8.23 290 16:27 04.12.2021
6656 Clear 11 1004 62 10000 2.06 160 12:44 04.12.2021
6657 Clear 10 1004 50 10000 0 0 11:39 04.12.2021
6658 Clouds 8 1004 53 10000 4.12 230 10:57 04.12.2021
6659 Clouds 8 1003 49 10000 2.57 230 09:42 04.12.2021
6660 Clouds 10 1003 46 10000 6.17 230 08:29 04.12.2021
6661 Clouds 11 999 54 10000 7.72 250 04:43 04.12.2021
6662 Clouds 13 998 41 10000 8.75 320 00:56 04.12.2021
6663 Clouds 13 999 44 10000 8.23 320 23:43 03.12.2021
6664 Clouds 14 1000 38 10000 7.72 320 22:53 03.12.2021
6665 Clouds 14 1000 38 10000 9.26 230 21:54 03.12.2021
6666 Clouds 14 1000 38 10000 9.26 230 21:23 03.12.2021
6667 Clouds 15 1000 36 10000 7.72 320 20:42 03.12.2021
6668 Clouds 16 1002 33 10000 4.12 320 19:28 03.12.2021
6669 Clouds 15 1003 38 10000 3.09 180 18:24 03.12.2021
6670 Clear 11 1004 54 10000 0 0 17:31 03.12.2021
6671 Clouds 10 1008 62 10000 2.06 360 13:40 03.12.2021